<?xml version="1.0" encoding="UTF-8"?>
<gpx version="1.0" creator="Trackator" xmlns:xsi="http://www.w3.org/2001/XMLSchema-instance" xmlns="http://www.topografix.com/GPX/1/0" xmlns:topografix="http://www.topografix.com/GPX/Private/TopoGrafix/0/1" xsi:schemaLocation="http://www.topografix.com/GPX/1/0 http://www.topografix.com/GPX/1/0/gpx.xsd http://www.topografix.com/GPX/Private/TopoGrafix/0/1 http://www.topografix.com/GPX/Private/TopoGrafix/0/1/topografix.xsd">
<metadata>
<link href="http://www.trackator.com">
<text>Trackator</text>
</link>
</metadata>
<time>2016-07-26T:17:46Z</time>
<trk>
<name>Track: </name>
<desc>Paragliding</desc>
<trkseg>
<trkpt lat="37.862820000000006" lon="-1.42645">
<ele>429</ele>
<time>2016-07-26T:17:46Z</time>
</trkpt>
<trkpt lat="37.86286166666666" lon="-1.426445">
<ele>443</ele>
<time>2016-07-26T19:17:48Z</time>
</trkpt>
<trkpt lat="37.86289" lon="-1.4264433333333333">
<ele>452</ele>
<time>2016-07-26T19:17:50Z</time>
</trkpt>
<trkpt lat="37.86290666666666" lon="-1.42644">
<ele>456</ele>
<time>2016-07-26T19:17:52Z</time>
</trkpt>
<trkpt lat="37.86291666666667" lon="-1.4264433333333333">
<ele>460</ele>
<time>2016-07-26T19:17:54Z</time>
</trkpt>
<trkpt lat="37.86291666666667" lon="-1.426451666666667">
<ele>463</ele>
<time>2016-07-26T19:17:56Z</time>
</trkpt>
<trkpt lat="37.86291833333333" lon="-1.4264433333333333">
<ele>465</ele>
<time>2016-07-26T19:17:58Z</time>
</trkpt>
<trkpt lat="37.862921666666665" lon="-1.4264383333333333">
<ele>466</ele>
<time>2016-07-26T19:18:00Z</time>
</trkpt>
<trkpt lat="37.862921666666665" lon="-1.4264383333333333">
<ele>467</ele>
<time>2016-07-26T19:18:02Z</time>
</trkpt>
<trkpt lat="37.862923333333335" lon="-1.42644">
<ele>467</ele>
<time>2016-07-26T19:18:04Z</time>
</trkpt>
<trkpt lat="37.86291833333333" lon="-1.4264433333333333">
<ele>468</ele>
<time>2016-07-26T19:18:06Z</time>
</trkpt>
<trkpt lat="37.86291833333333" lon="-1.42644">
<ele>468</ele>
<time>2016-07-26T19:18:08Z</time>
</trkpt>
<trkpt lat="37.862915" lon="-1.4264383333333333">
<ele>469</ele>
<time>2016-07-26T19:18:10Z</time>
</trkpt>
<trkpt lat="37.862905" lon="-1.426445">
<ele>469</ele>
<time>2016-07-26T19:18:12Z</time>
</trkpt>
<trkpt lat="37.862901666666666" lon="-1.426445">
<ele>469</ele>
<time>2016-07-26T19:18:14Z</time>
</trkpt>
<trkpt lat="37.862901666666666" lon="-1.426445">
<ele>469</ele>
<time>2016-07-26T19:18:16Z</time>
</trkpt>
<trkpt lat="37.862901666666666" lon="-1.426445">
<ele>469</ele>
<time>2016-07-26T19:18:18Z</time>
</trkpt>
<trkpt lat="37.862901666666666" lon="-1.426445">
<ele>469</ele>
<time>2016-07-26T19:18:20Z</time>
</trkpt>
<trkpt lat="37.862901666666666" lon="-1.426445">
<ele>469</ele>
<time>2016-07-26T19:18:22Z</time>
</trkpt>
<trkpt lat="37.862901666666666" lon="-1.426445">
<ele>469</ele>
<time>2016-07-26T19:18:24Z</time>
</trkpt>
<trkpt lat="37.862901666666666" lon="-1.426445">
<ele>469</ele>
<time>2016-07-26T19:18:26Z</time>
</trkpt>
<trkpt lat="37.862901666666666" lon="-1.426445">
<ele>469</ele>
<time>2016-07-26T19:18:28Z</time>
</trkpt>
<trkpt lat="37.862901666666666" lon="-1.426445">
<ele>469</ele>
<time>2016-07-26T19:18:30Z</time>
</trkpt>
<trkpt lat="37.862901666666666" lon="-1.426445">
<ele>469</ele>
<time>2016-07-26T19:18:32Z</time>
</trkpt>
<trkpt lat="37.862901666666666" lon="-1.426445">
<ele>469</ele>
<time>2016-07-26T19:18:34Z</time>
</trkpt>
<trkpt lat="37.862901666666666" lon="-1.426445">
<ele>469</ele>
<time>2016-07-26T19:18:36Z</time>
</trkpt>
<trkpt lat="37.862901666666666" lon="-1.426445">
<ele>469</ele>
<time>2016-07-26T19:18:38Z</time>
</trkpt>
<trkpt lat="37.862901666666666" lon="-1.426445">
<ele>469</ele>
<time>2016-07-26T19:18:40Z</time>
</trkpt>
<trkpt lat="37.862901666666666" lon="-1.426445">
<ele>469</ele>
<time>2016-07-26T19:18:42Z</time>
</trkpt>
<trkpt lat="37.862901666666666" lon="-1.426445">
<ele>469</ele>
<time>2016-07-26T19:18:44Z</time>
</trkpt>
<trkpt lat="37.862901666666666" lon="-1.426445">
<ele>469</ele>
<time>2016-07-26T19:18:46Z</time>
</trkpt>
<trkpt lat="37.862901666666666" lon="-1.426445">
<ele>469</ele>
<time>2016-07-26T19:18:48Z</time>
</trkpt>
<trkpt lat="37.862901666666666" lon="-1.426445">
<ele>469</ele>
<time>2016-07-26T19:18:50Z</time>
</trkpt>
<trkpt lat="37.862901666666666" lon="-1.426445">
<ele>469</ele>
<time>2016-07-26T19:18:52Z</time>
</trkpt>
<trkpt lat="37.862901666666666" lon="-1.426445">
<ele>469</ele>
<time>2016-07-26T19:18:54Z</time>
</trkpt>
<trkpt lat="37.862901666666666" lon="-1.426445">
<ele>469</ele>
<time>2016-07-26T19:18:56Z</time>
</trkpt>
<trkpt lat="37.86288666666667" lon="-1.4264916666666667">
<ele>468</ele>
<time>2016-07-26T19:18:58Z</time>
</trkpt>
<trkpt lat="37.86289166666666" lon="-1.4264933333333334">
<ele>468</ele>
<time>2016-07-26T19:19:00Z</time>
</trkpt>
<trkpt lat="37.862905" lon="-1.42649">
<ele>468</ele>
<time>2016-07-26T19:19:02Z</time>
</trkpt>
<trkpt lat="37.862905" lon="-1.4264883333333334">
<ele>468</ele>
<time>2016-07-26T19:19:04Z</time>
</trkpt>
<trkpt lat="37.862895" lon="-1.42649">
<ele>468</ele>
<time>2016-07-26T19:19:06Z</time>
</trkpt>
<trkpt lat="37.862896666666664" lon="-1.42649">
<ele>468</ele>
<time>2016-07-26T19:19:08Z</time>
</trkpt>
<trkpt lat="37.862896666666664" lon="-1.42649">
<ele>468</ele>
<time>2016-07-26T19:19:10Z</time>
</trkpt>
<trkpt lat="37.862896666666664" lon="-1.42649">
<ele>468</ele>
<time>2016-07-26T19:19:12Z</time>
</trkpt>
<trkpt lat="37.862896666666664" lon="-1.42649">
<ele>468</ele>
<time>2016-07-26T19:19:14Z</time>
</trkpt>
<trkpt lat="37.862896666666664" lon="-1.42649">
<ele>468</ele>
<time>2016-07-26T19:19:16Z</time>
</trkpt>
<trkpt lat="37.862896666666664" lon="-1.42649">
<ele>468</ele>
<time>2016-07-26T19:19:18Z</time>
</trkpt>
<trkpt lat="37.862896666666664" lon="-1.42649">
<ele>468</ele>
<time>2016-07-26T19:19:20Z</time>
</trkpt>
<trkpt lat="37.862896666666664" lon="-1.42649">
<ele>468</ele>
<time>2016-07-26T19:19:22Z</time>
</trkpt>
<trkpt lat="37.862923333333335" lon="-1.4264616666666665">
<ele>469</ele>
<time>2016-07-26T19:19:24Z</time>
</trkpt>
<trkpt lat="37.86293666666666" lon="-1.4264483333333333">
<ele>469</ele>
<time>2016-07-26T19:19:26Z</time>
</trkpt>
<trkpt lat="37.862943333333334" lon="-1.4264416666666666">
<ele>469</ele>
<time>2016-07-26T19:19:28Z</time>
</trkpt>
<trkpt lat="37.862943333333334" lon="-1.42644">
<ele>469</ele>
<time>2016-07-26T19:19:30Z</time>
</trkpt>
<trkpt lat="37.86293666666666" lon="-1.42643">
<ele>469</ele>
<time>2016-07-26T19:19:32Z</time>
</trkpt>
<trkpt lat="37.86295" lon="-1.426425">
<ele>469</ele>
<time>2016-07-26T19:19:34Z</time>
</trkpt>
<trkpt lat="37.86296" lon="-1.426425">
<ele>469</ele>
<time>2016-07-26T19:19:36Z</time>
</trkpt>
<trkpt lat="37.862965" lon="-1.4264216666666667">
<ele>469</ele>
<time>2016-07-26T19:19:38Z</time>
</trkpt>
<trkpt lat="37.86296333333333" lon="-1.4264116666666666">
<ele>469</ele>
<time>2016-07-26T19:19:40Z</time>
</trkpt>
<trkpt lat="37.86295666666667" lon="-1.4264133333333333">
<ele>468</ele>
<time>2016-07-26T19:19:42Z</time>
</trkpt>
<trkpt lat="37.862943333333334" lon="-1.42643">
<ele>468</ele>
<time>2016-07-26T19:19:44Z</time>
</trkpt>
<trkpt lat="37.862943333333334" lon="-1.42643">
<ele>468</ele>
<time>2016-07-26T19:19:46Z</time>
</trkpt>
<trkpt lat="37.862943333333334" lon="-1.42643">
<ele>468</ele>
<time>2016-07-26T19:19:48Z</time>
</trkpt>
<trkpt lat="37.862943333333334" lon="-1.42643">
<ele>468</ele>
<time>2016-07-26T19:19:50Z</time>
</trkpt>
<trkpt lat="37.862943333333334" lon="-1.42643">
<ele>468</ele>
<time>2016-07-26T19:19:52Z</time>
</trkpt>
<trkpt lat="37.86293166666667" lon="-1.426445">
<ele>467</ele>
<time>2016-07-26T19:19:54Z</time>
</trkpt>
<trkpt lat="37.86296166666667" lon="-1.4264366666666668">
<ele>467</ele>
<time>2016-07-26T19:19:56Z</time>
</trkpt>
<trkpt lat="37.862973333333336" lon="-1.4264233333333334">
<ele>466</ele>
<time>2016-07-26T19:19:58Z</time>
</trkpt>
<trkpt lat="37.862988333333334" lon="-1.426415">
<ele>466</ele>
<time>2016-07-26T19:20:00Z</time>
</trkpt>
<trkpt lat="37.86299833333333" lon="-1.426405">
<ele>466</ele>
<time>2016-07-26T19:20:02Z</time>
</trkpt>
<trkpt lat="37.862986666666664" lon="-1.4264116666666666">
<ele>466</ele>
<time>2016-07-26T19:20:04Z</time>
</trkpt>
<trkpt lat="37.86297166666667" lon="-1.4264216666666667">
<ele>465</ele>
<time>2016-07-26T19:20:06Z</time>
</trkpt>
<trkpt lat="37.86295333333333" lon="-1.4264266666666667">
<ele>465</ele>
<time>2016-07-26T19:20:08Z</time>
</trkpt>
<trkpt lat="37.86294833333333" lon="-1.4264266666666667">
<ele>465</ele>
<time>2016-07-26T19:20:10Z</time>
</trkpt>
<trkpt lat="37.86293666666666" lon="-1.4264383333333333">
<ele>465</ele>
<time>2016-07-26T19:20:12Z</time>
</trkpt>
<trkpt lat="37.86293166666667" lon="-1.42644">
<ele>465</ele>
<time>2016-07-26T19:20:14Z</time>
</trkpt>
<trkpt lat="37.86293333333333" lon="-1.4264433333333333">
<ele>465</ele>
<time>2016-07-26T19:20:16Z</time>
</trkpt>
<trkpt lat="37.86293166666667" lon="-1.4264483333333333">
<ele>465</ele>
<time>2016-07-26T19:20:18Z</time>
</trkpt>
<trkpt lat="37.86293" lon="-1.426445">
<ele>465</ele>
<time>2016-07-26T19:20:20Z</time>
</trkpt>
<trkpt lat="37.86292666666667" lon="-1.4264416666666666">
<ele>465</ele>
<time>2016-07-26T19:20:22Z</time>
</trkpt>
<trkpt lat="37.86292666666667" lon="-1.4264416666666666">
<ele>465</ele>
<time>2016-07-26T19:20:24Z</time>
</trkpt>
<trkpt lat="37.86292666666667" lon="-1.4264416666666666">
<ele>465</ele>
<time>2016-07-26T19:20:26Z</time>
</trkpt>
<trkpt lat="37.86292666666667" lon="-1.4264416666666666">
<ele>465</ele>
<time>2016-07-26T19:20:28Z</time>
</trkpt>
<trkpt lat="37.86292666666667" lon="-1.4264416666666666">
<ele>465</ele>
<time>2016-07-26T19:20:30Z</time>
</trkpt>
<trkpt lat="37.86292666666667" lon="-1.4264416666666666">
<ele>465</ele>
<time>2016-07-26T19:20:32Z</time>
</trkpt>
<trkpt lat="37.86292666666667" lon="-1.4264416666666666">
<ele>465</ele>
<time>2016-07-26T19:20:34Z</time>
</trkpt>
<trkpt lat="37.86294" lon="-1.4264666666666665">
<ele>464</ele>
<time>2016-07-26T19:20:36Z</time>
</trkpt>
<trkpt lat="37.86295" lon="-1.426455">
<ele>464</ele>
<time>2016-07-26T19:20:38Z</time>
</trkpt>
<trkpt lat="37.86296166666667" lon="-1.4264350000000001">
<ele>464</ele>
<time>2016-07-26T19:20:40Z</time>
</trkpt>
<trkpt lat="37.86295666666667" lon="-1.4264283333333334">
<ele>464</ele>
<time>2016-07-26T19:20:42Z</time>
</trkpt>
<trkpt lat="37.86296333333333" lon="-1.426425">
<ele>464</ele>
<time>2016-07-26T19:20:44Z</time>
</trkpt>
<trkpt lat="37.862965" lon="-1.42642">
<ele>464</ele>
<time>2016-07-26T19:20:46Z</time>
</trkpt>
<trkpt lat="37.862965" lon="-1.42642">
<ele>464</ele>
<time>2016-07-26T19:20:48Z</time>
</trkpt>
<trkpt lat="37.862965" lon="-1.42642">
<ele>464</ele>
<time>2016-07-26T19:20:50Z</time>
</trkpt>
<trkpt lat="37.862965" lon="-1.42642">
<ele>464</ele>
<time>2016-07-26T19:20:52Z</time>
</trkpt>
<trkpt lat="37.862965" lon="-1.42642">
<ele>464</ele>
<time>2016-07-26T19:20:54Z</time>
</trkpt>
<trkpt lat="37.862965" lon="-1.42642">
<ele>464</ele>
<time>2016-07-26T19:20:56Z</time>
</trkpt>
<trkpt lat="37.862965" lon="-1.42642">
<ele>464</ele>
<time>2016-07-26T19:20:58Z</time>
</trkpt>
<trkpt lat="37.862965" lon="-1.42642">
<ele>464</ele>
<time>2016-07-26T19:21:00Z</time>
</trkpt>
<trkpt lat="37.862965" lon="-1.42642">
<ele>464</ele>
<time>2016-07-26T19:21:02Z</time>
</trkpt>
<trkpt lat="37.862965" lon="-1.42642">
<ele>464</ele>
<time>2016-07-26T19:21:04Z</time>
</trkpt>
<trkpt lat="37.862883333333336" lon="-1.4264466666666666">
<ele>464</ele>
<time>2016-07-26T19:21:06Z</time>
</trkpt>
<trkpt lat="37.86286666666667" lon="-1.426455">
<ele>464</ele>
<time>2016-07-26T19:21:08Z</time>
</trkpt>
<trkpt lat="37.86286166666666" lon="-1.4264633333333334">
<ele>464</ele>
<time>2016-07-26T19:21:10Z</time>
</trkpt>
<trkpt lat="37.862856666666666" lon="-1.4264683333333332">
<ele>464</ele>
<time>2016-07-26T19:21:12Z</time>
</trkpt>
<trkpt lat="37.86286333333333" lon="-1.4264816666666666">
<ele>464</ele>
<time>2016-07-26T19:21:14Z</time>
</trkpt>
<trkpt lat="37.86286333333333" lon="-1.4264816666666666">
<ele>464</ele>
<time>2016-07-26T19:21:16Z</time>
</trkpt>
<trkpt lat="37.86286333333333" lon="-1.4264816666666666">
<ele>464</ele>
<time>2016-07-26T19:21:18Z</time>
</trkpt>
<trkpt lat="37.86282333333334" lon="-1.4265016666666668">
<ele>463</ele>
<time>2016-07-26T19:21:20Z</time>
</trkpt>
<trkpt lat="37.86276333333333" lon="-1.4265016666666668">
<ele>463</ele>
<time>2016-07-26T19:21:22Z</time>
</trkpt>
<trkpt lat="37.862721666666665" lon="-1.42651">
<ele>463</ele>
<time>2016-07-26T19:21:24Z</time>
</trkpt>
<trkpt lat="37.86269333333333" lon="-1.4265033333333332">
<ele>463</ele>
<time>2016-07-26T19:21:26Z</time>
</trkpt>
<trkpt lat="37.862671666666664" lon="-1.4265033333333332">
<ele>463</ele>
<time>2016-07-26T19:21:28Z</time>
</trkpt>
<trkpt lat="37.86265" lon="-1.4265033333333332">
<ele>463</ele>
<time>2016-07-26T19:21:30Z</time>
</trkpt>
<trkpt lat="37.86262833333333" lon="-1.4264966666666665">
<ele>462</ele>
<time>2016-07-26T19:21:32Z</time>
</trkpt>
<trkpt lat="37.86264333333334" lon="-1.4264983333333334">
<ele>462</ele>
<time>2016-07-26T19:21:34Z</time>
</trkpt>
<trkpt lat="37.862655000000004" lon="-1.4264933333333334">
<ele>462</ele>
<time>2016-07-26T19:21:36Z</time>
</trkpt>
<trkpt lat="37.862671666666664" lon="-1.426485">
<ele>462</ele>
<time>2016-07-26T19:21:38Z</time>
</trkpt>
<trkpt lat="37.86268333333333" lon="-1.4264783333333333">
<ele>462</ele>
<time>2016-07-26T19:21:40Z</time>
</trkpt>
<trkpt lat="37.86268333333333" lon="-1.4264783333333333">
<ele>462</ele>
<time>2016-07-26T19:21:42Z</time>
</trkpt>
<trkpt lat="37.86268333333333" lon="-1.4264783333333333">
<ele>462</ele>
<time>2016-07-26T19:21:44Z</time>
</trkpt>
<trkpt lat="37.86268333333333" lon="-1.4264783333333333">
<ele>462</ele>
<time>2016-07-26T19:21:46Z</time>
</trkpt>
<trkpt lat="37.86268333333333" lon="-1.4264783333333333">
<ele>462</ele>
<time>2016-07-26T19:21:48Z</time>
</trkpt>
<trkpt lat="37.86268333333333" lon="-1.4264783333333333">
<ele>462</ele>
<time>2016-07-26T19:21:50Z</time>
</trkpt>
<trkpt lat="37.86268333333333" lon="-1.4264783333333333">
<ele>462</ele>
<time>2016-07-26T19:21:52Z</time>
</trkpt>
<trkpt lat="37.86268333333333" lon="-1.4264783333333333">
<ele>462</ele>
<time>2016-07-26T19:21:54Z</time>
</trkpt>
<trkpt lat="37.86268333333333" lon="-1.4264783333333333">
<ele>462</ele>
<time>2016-07-26T19:21:56Z</time>
</trkpt>
<trkpt lat="37.86268333333333" lon="-1.4264783333333333">
<ele>462</ele>
<time>2016-07-26T19:21:58Z</time>
</trkpt>
<trkpt lat="37.86270833333333" lon="-1.4264949999999998">
<ele>462</ele>
<time>2016-07-26T19:22:00Z</time>
</trkpt>
<trkpt lat="37.86271" lon="-1.4264933333333334">
<ele>462</ele>
<time>2016-07-26T19:22:02Z</time>
</trkpt>
<trkpt lat="37.86270666666667" lon="-1.42649">
<ele>462</ele>
<time>2016-07-26T19:22:04Z</time>
</trkpt>
<trkpt lat="37.86270666666667" lon="-1.42649">
<ele>462</ele>
<time>2016-07-26T19:22:06Z</time>
</trkpt>
<trkpt lat="37.86270666666667" lon="-1.42649">
<ele>462</ele>
<time>2016-07-26T19:22:08Z</time>
</trkpt>
<trkpt lat="37.86270666666667" lon="-1.42649">
<ele>462</ele>
<time>2016-07-26T19:22:10Z</time>
</trkpt>
<trkpt lat="37.862715" lon="-1.4264533333333334">
<ele>462</ele>
<time>2016-07-26T19:22:12Z</time>
</trkpt>
<trkpt lat="37.862719999999996" lon="-1.42645">
<ele>463</ele>
<time>2016-07-26T19:22:14Z</time>
</trkpt>
<trkpt lat="37.862716666666664" lon="-1.42645">
<ele>463</ele>
<time>2016-07-26T19:22:16Z</time>
</trkpt>
<trkpt lat="37.862716666666664" lon="-1.42645">
<ele>463</ele>
<time>2016-07-26T19:22:18Z</time>
</trkpt>
<trkpt lat="37.862716666666664" lon="-1.42645">
<ele>463</ele>
<time>2016-07-26T19:22:20Z</time>
</trkpt>
<trkpt lat="37.862716666666664" lon="-1.42645">
<ele>463</ele>
<time>2016-07-26T19:22:22Z</time>
</trkpt>
<trkpt lat="37.862716666666664" lon="-1.42645">
<ele>463</ele>
<time>2016-07-26T19:22:24Z</time>
</trkpt>
<trkpt lat="37.86267833333333" lon="-1.4265016666666668">
<ele>462</ele>
<time>2016-07-26T19:22:26Z</time>
</trkpt>
<trkpt lat="37.86267833333333" lon="-1.4265016666666668">
<ele>462</ele>
<time>2016-07-26T19:22:28Z</time>
</trkpt>
<trkpt lat="37.86268" lon="-1.4265033333333332">
<ele>462</ele>
<time>2016-07-26T19:22:30Z</time>
</trkpt>
<trkpt lat="37.86268" lon="-1.4265033333333332">
<ele>462</ele>
<time>2016-07-26T19:22:32Z</time>
</trkpt>
<trkpt lat="37.86268" lon="-1.4265033333333332">
<ele>462</ele>
<time>2016-07-26T19:22:34Z</time>
</trkpt>
<trkpt lat="37.86268" lon="-1.4265033333333332">
<ele>462</ele>
<time>2016-07-26T19:22:36Z</time>
</trkpt>
<trkpt lat="37.86268" lon="-1.4265033333333332">
<ele>462</ele>
<time>2016-07-26T19:22:38Z</time>
</trkpt>
<trkpt lat="37.86268" lon="-1.4265033333333332">
<ele>462</ele>
<time>2016-07-26T19:22:40Z</time>
</trkpt>
<trkpt lat="37.86268" lon="-1.4265033333333332">
<ele>462</ele>
<time>2016-07-26T19:22:42Z</time>
</trkpt>
<trkpt lat="37.86268" lon="-1.4265033333333332">
<ele>462</ele>
<time>2016-07-26T19:22:44Z</time>
</trkpt>
<trkpt lat="37.86268" lon="-1.4265033333333332">
<ele>462</ele>
<time>2016-07-26T19:22:46Z</time>
</trkpt>
<trkpt lat="37.86268" lon="-1.4265033333333332">
<ele>462</ele>
<time>2016-07-26T19:22:48Z</time>
</trkpt>
<trkpt lat="37.86268" lon="-1.4265033333333332">
<ele>462</ele>
<time>2016-07-26T19:22:50Z</time>
</trkpt>
<trkpt lat="37.86268" lon="-1.4265033333333332">
<ele>462</ele>
<time>2016-07-26T19:22:52Z</time>
</trkpt>
<trkpt lat="37.86260333333333" lon="-1.4265333333333334">
<ele>462</ele>
<time>2016-07-26T19:22:54Z</time>
</trkpt>
<trkpt lat="37.862586666666665" lon="-1.42654">
<ele>462</ele>
<time>2016-07-26T19:22:56Z</time>
</trkpt>
<trkpt lat="37.86257333333333" lon="-1.4265466666666666">
<ele>462</ele>
<time>2016-07-26T19:22:58Z</time>
</trkpt>
<trkpt lat="37.86257" lon="-1.4265466666666666">
<ele>462</ele>
<time>2016-07-26T19:23:00Z</time>
</trkpt>
<trkpt lat="37.86256" lon="-1.4265466666666666">
<ele>462</ele>
<time>2016-07-26T19:23:02Z</time>
</trkpt>
<trkpt lat="37.86255666666667" lon="-1.4265433333333335">
<ele>462</ele>
<time>2016-07-26T19:23:04Z</time>
</trkpt>
<trkpt lat="37.86256166666667" lon="-1.4265366666666668">
<ele>462</ele>
<time>2016-07-26T19:23:06Z</time>
</trkpt>
<trkpt lat="37.86257333333333" lon="-1.42653">
<ele>462</ele>
<time>2016-07-26T19:23:08Z</time>
</trkpt>
<trkpt lat="37.862581666666664" lon="-1.4265249999999998">
<ele>462</ele>
<time>2016-07-26T19:23:10Z</time>
</trkpt>
<trkpt lat="37.862581666666664" lon="-1.4265249999999998">
<ele>462</ele>
<time>2016-07-26T19:23:12Z</time>
</trkpt>
<trkpt lat="37.862581666666664" lon="-1.4265249999999998">
<ele>462</ele>
<time>2016-07-26T19:23:14Z</time>
</trkpt>
<trkpt lat="37.862581666666664" lon="-1.4265249999999998">
<ele>462</ele>
<time>2016-07-26T19:23:16Z</time>
</trkpt>
<trkpt lat="37.862581666666664" lon="-1.4265249999999998">
<ele>462</ele>
<time>2016-07-26T19:23:18Z</time>
</trkpt>
<trkpt lat="37.862581666666664" lon="-1.4265249999999998">
<ele>462</ele>
<time>2016-07-26T19:23:20Z</time>
</trkpt>
<trkpt lat="37.862581666666664" lon="-1.4265249999999998">
<ele>462</ele>
<time>2016-07-26T19:23:22Z</time>
</trkpt>
<trkpt lat="37.862581666666664" lon="-1.4265249999999998">
<ele>462</ele>
<time>2016-07-26T19:23:24Z</time>
</trkpt>
<trkpt lat="37.862581666666664" lon="-1.4265249999999998">
<ele>462</ele>
<time>2016-07-26T19:23:26Z</time>
</trkpt>
<trkpt lat="37.86262833333333" lon="-1.4265233333333331">
<ele>463</ele>
<time>2016-07-26T19:23:28Z</time>
</trkpt>
<trkpt lat="37.862625" lon="-1.4265316666666665">
<ele>463</ele>
<time>2016-07-26T19:23:30Z</time>
</trkpt>
<trkpt lat="37.86262833333333" lon="-1.42654">
<ele>463</ele>
<time>2016-07-26T19:23:32Z</time>
</trkpt>
<trkpt lat="37.862635" lon="-1.4265483333333333">
<ele>463</ele>
<time>2016-07-26T19:23:34Z</time>
</trkpt>
<trkpt lat="37.86264333333334" lon="-1.4265466666666666">
<ele>463</ele>
<time>2016-07-26T19:23:36Z</time>
</trkpt>
<trkpt lat="37.862665" lon="-1.42655">
<ele>463</ele>
<time>2016-07-26T19:23:38Z</time>
</trkpt>
<trkpt lat="37.86267" lon="-1.4265533333333333">
<ele>463</ele>
<time>2016-07-26T19:23:40Z</time>
</trkpt>
<trkpt lat="37.86267" lon="-1.4265533333333333">
<ele>463</ele>
<time>2016-07-26T19:23:42Z</time>
</trkpt>
<trkpt lat="37.86267" lon="-1.4265533333333333">
<ele>463</ele>
<time>2016-07-26T19:23:44Z</time>
</trkpt>
<trkpt lat="37.86267" lon="-1.4265533333333333">
<ele>463</ele>
<time>2016-07-26T19:23:46Z</time>
</trkpt>
<trkpt lat="37.86267" lon="-1.4265533333333333">
<ele>463</ele>
<time>2016-07-26T19:23:48Z</time>
</trkpt>
<trkpt lat="37.86267" lon="-1.4265533333333333">
<ele>463</ele>
<time>2016-07-26T19:23:50Z</time>
</trkpt>
<trkpt lat="37.86267" lon="-1.4265533333333333">
<ele>463</ele>
<time>2016-07-26T19:23:52Z</time>
</trkpt>
<trkpt lat="37.86267" lon="-1.4265533333333333">
<ele>463</ele>
<time>2016-07-26T19:23:54Z</time>
</trkpt>
<trkpt lat="37.86267" lon="-1.4265533333333333">
<ele>463</ele>
<time>2016-07-26T19:23:56Z</time>
</trkpt>
<trkpt lat="37.86267" lon="-1.4265533333333333">
<ele>463</ele>
<time>2016-07-26T19:23:58Z</time>
</trkpt>
<trkpt lat="37.86267" lon="-1.4265533333333333">
<ele>463</ele>
<time>2016-07-26T19:24:00Z</time>
</trkpt>
<trkpt lat="37.86267" lon="-1.4265533333333333">
<ele>463</ele>
<time>2016-07-26T19:24:02Z</time>
</trkpt>
<trkpt lat="37.86267" lon="-1.4265533333333333">
<ele>463</ele>
<time>2016-07-26T19:24:04Z</time>
</trkpt>
<trkpt lat="37.86267" lon="-1.4265533333333333">
<ele>463</ele>
<time>2016-07-26T19:24:06Z</time>
</trkpt>
<trkpt lat="37.86267" lon="-1.4265533333333333">
<ele>463</ele>
<time>2016-07-26T19:24:08Z</time>
</trkpt>
<trkpt lat="37.86267" lon="-1.4265533333333333">
<ele>463</ele>
<time>2016-07-26T19:24:10Z</time>
</trkpt>
<trkpt lat="37.86267" lon="-1.4265533333333333">
<ele>463</ele>
<time>2016-07-26T19:24:12Z</time>
</trkpt>
<trkpt lat="37.86267" lon="-1.4265533333333333">
<ele>463</ele>
<time>2016-07-26T19:24:14Z</time>
</trkpt>
<trkpt lat="37.86267" lon="-1.4265533333333333">
<ele>463</ele>
<time>2016-07-26T19:24:16Z</time>
</trkpt>
<trkpt lat="37.862715" lon="-1.4265183333333333">
<ele>463</ele>
<time>2016-07-26T19:24:18Z</time>
</trkpt>
<trkpt lat="37.86273166666667" lon="-1.4265083333333335">
<ele>463</ele>
<time>2016-07-26T19:24:20Z</time>
</trkpt>
<trkpt lat="37.86273833333333" lon="-1.426505">
<ele>463</ele>
<time>2016-07-26T19:24:22Z</time>
</trkpt>
<trkpt lat="37.862766666666666" lon="-1.4264966666666665">
<ele>464</ele>
<time>2016-07-26T19:24:24Z</time>
</trkpt>
<trkpt lat="37.862766666666666" lon="-1.426505">
<ele>464</ele>
<time>2016-07-26T19:24:26Z</time>
</trkpt>
<trkpt lat="37.862793333333336" lon="-1.4265033333333332">
<ele>464</ele>
<time>2016-07-26T19:24:28Z</time>
</trkpt>
<trkpt lat="37.862825" lon="-1.42649">
<ele>464</ele>
<time>2016-07-26T19:24:30Z</time>
</trkpt>
<trkpt lat="37.862851666666664" lon="-1.426485">
<ele>464</ele>
<time>2016-07-26T19:24:32Z</time>
</trkpt>
<trkpt lat="37.862851666666664" lon="-1.4264983333333334">
<ele>464</ele>
<time>2016-07-26T19:24:34Z</time>
</trkpt>
<trkpt lat="37.86284333333333" lon="-1.4265116666666666">
<ele>464</ele>
<time>2016-07-26T19:24:36Z</time>
</trkpt>
<trkpt lat="37.86282833333333" lon="-1.4265166666666667">
<ele>465</ele>
<time>2016-07-26T19:24:38Z</time>
</trkpt>
<trkpt lat="37.86282666666667" lon="-1.4265150000000002">
<ele>465</ele>
<time>2016-07-26T19:24:40Z</time>
</trkpt>
<trkpt lat="37.862825" lon="-1.4265133333333333">
<ele>465</ele>
<time>2016-07-26T19:24:42Z</time>
</trkpt>
<trkpt lat="37.862825" lon="-1.4265116666666666">
<ele>465</ele>
<time>2016-07-26T19:24:44Z</time>
</trkpt>
<trkpt lat="37.862825" lon="-1.4265116666666666">
<ele>465</ele>
<time>2016-07-26T19:24:46Z</time>
</trkpt>
<trkpt lat="37.862825" lon="-1.4265116666666666">
<ele>465</ele>
<time>2016-07-26T19:24:48Z</time>
</trkpt>
<trkpt lat="37.862825" lon="-1.4265116666666666">
<ele>465</ele>
<time>2016-07-26T19:24:50Z</time>
</trkpt>
<trkpt lat="37.862825" lon="-1.4265116666666666">
<ele>465</ele>
<time>2016-07-26T19:24:52Z</time>
</trkpt>
<trkpt lat="37.862825" lon="-1.4265116666666666">
<ele>465</ele>
<time>2016-07-26T19:24:54Z</time>
</trkpt>
<trkpt lat="37.862825" lon="-1.4265116666666666">
<ele>465</ele>
<time>2016-07-26T19:24:56Z</time>
</trkpt>
<trkpt lat="37.862825" lon="-1.4265116666666666">
<ele>465</ele>
<time>2016-07-26T19:24:58Z</time>
</trkpt>
<trkpt lat="37.862825" lon="-1.4265116666666666">
<ele>465</ele>
<time>2016-07-26T19:25:00Z</time>
</trkpt>
<trkpt lat="37.862825" lon="-1.4265116666666666">
<ele>465</ele>
<time>2016-07-26T19:25:02Z</time>
</trkpt>
<trkpt lat="37.862825" lon="-1.4265116666666666">
<ele>465</ele>
<time>2016-07-26T19:25:04Z</time>
</trkpt>
<trkpt lat="37.86273666666667" lon="-1.4264866666666667">
<ele>464</ele>
<time>2016-07-26T19:25:06Z</time>
</trkpt>
<trkpt lat="37.86274166666667" lon="-1.426505">
<ele>463</ele>
<time>2016-07-26T19:25:08Z</time>
</trkpt>
<trkpt lat="37.86275833333333" lon="-1.4265116666666666">
<ele>463</ele>
<time>2016-07-26T19:25:10Z</time>
</trkpt>
<trkpt lat="37.86275833333333" lon="-1.4265116666666666">
<ele>463</ele>
<time>2016-07-26T19:25:12Z</time>
</trkpt>
<trkpt lat="37.86275833333333" lon="-1.4265116666666666">
<ele>463</ele>
<time>2016-07-26T19:25:14Z</time>
</trkpt>
<trkpt lat="37.86275833333333" lon="-1.4265116666666666">
<ele>463</ele>
<time>2016-07-26T19:25:16Z</time>
</trkpt>
<trkpt lat="37.86275833333333" lon="-1.4265116666666666">
<ele>463</ele>
<time>2016-07-26T19:25:18Z</time>
</trkpt>
<trkpt lat="37.86275833333333" lon="-1.4265116666666666">
<ele>463</ele>
<time>2016-07-26T19:25:20Z</time>
</trkpt>
<trkpt lat="37.86275833333333" lon="-1.4265116666666666">
<ele>463</ele>
<time>2016-07-26T19:25:22Z</time>
</trkpt>
<trkpt lat="37.86275833333333" lon="-1.4265116666666666">
<ele>463</ele>
<time>2016-07-26T19:25:24Z</time>
</trkpt>
<trkpt lat="37.86275833333333" lon="-1.4265116666666666">
<ele>463</ele>
<time>2016-07-26T19:25:26Z</time>
</trkpt>
<trkpt lat="37.86275833333333" lon="-1.4265116666666666">
<ele>463</ele>
<time>2016-07-26T19:25:28Z</time>
</trkpt>
<trkpt lat="37.86275833333333" lon="-1.4265116666666666">
<ele>463</ele>
<time>2016-07-26T19:25:30Z</time>
</trkpt>
<trkpt lat="37.86275833333333" lon="-1.4265116666666666">
<ele>463</ele>
<time>2016-07-26T19:25:32Z</time>
</trkpt>
<trkpt lat="37.86275833333333" lon="-1.4265116666666666">
<ele>463</ele>
<time>2016-07-26T19:25:34Z</time>
</trkpt>
<trkpt lat="37.86275833333333" lon="-1.4265116666666666">
<ele>463</ele>
<time>2016-07-26T19:25:36Z</time>
</trkpt>
<trkpt lat="37.86275833333333" lon="-1.4265116666666666">
<ele>463</ele>
<time>2016-07-26T19:25:38Z</time>
</trkpt>
<trkpt lat="37.86275833333333" lon="-1.4265116666666666">
<ele>463</ele>
<time>2016-07-26T19:25:40Z</time>
</trkpt>
<trkpt lat="37.86275833333333" lon="-1.4265116666666666">
<ele>463</ele>
<time>2016-07-26T19:25:42Z</time>
</trkpt>
<trkpt lat="37.86275833333333" lon="-1.4265116666666666">
<ele>463</ele>
<time>2016-07-26T19:25:44Z</time>
</trkpt>
<trkpt lat="37.86284666666666" lon="-1.4264483333333333">
<ele>477</ele>
<time>2016-07-26T19:25:46Z</time>
</trkpt>
<trkpt lat="37.86286" lon="-1.4264416666666666">
<ele>478</ele>
<time>2016-07-26T19:25:48Z</time>
</trkpt>
<trkpt lat="37.86287166666667" lon="-1.4264483333333333">
<ele>480</ele>
<time>2016-07-26T19:25:50Z</time>
</trkpt>
<trkpt lat="37.86286666666667" lon="-1.426445">
<ele>481</ele>
<time>2016-07-26T19:25:52Z</time>
</trkpt>
<trkpt lat="37.862854999999996" lon="-1.4264583333333334">
<ele>483</ele>
<time>2016-07-26T19:25:54Z</time>
</trkpt>
<trkpt lat="37.862854999999996" lon="-1.4264583333333334">
<ele>483</ele>
<time>2016-07-26T19:25:56Z</time>
</trkpt>
<trkpt lat="37.862854999999996" lon="-1.4264583333333334">
<ele>483</ele>
<time>2016-07-26T19:25:58Z</time>
</trkpt>
<trkpt lat="37.862854999999996" lon="-1.4264583333333334">
<ele>483</ele>
<time>2016-07-26T19:26:00Z</time>
</trkpt>
<trkpt lat="37.862854999999996" lon="-1.4264583333333334">
<ele>483</ele>
<time>2016-07-26T19:26:02Z</time>
</trkpt>
<trkpt lat="37.862854999999996" lon="-1.4264583333333334">
<ele>483</ele>
<time>2016-07-26T19:26:04Z</time>
</trkpt>
<trkpt lat="37.862854999999996" lon="-1.4264583333333334">
<ele>483</ele>
<time>2016-07-26T19:26:06Z</time>
</trkpt>
<trkpt lat="37.862854999999996" lon="-1.4264583333333334">
<ele>483</ele>
<time>2016-07-26T19:26:08Z</time>
</trkpt>
<trkpt lat="37.862854999999996" lon="-1.4264583333333334">
<ele>483</ele>
<time>2016-07-26T19:26:10Z</time>
</trkpt>
<trkpt lat="37.862854999999996" lon="-1.4264583333333334">
<ele>483</ele>
<time>2016-07-26T19:26:12Z</time>
</trkpt>
<trkpt lat="37.862854999999996" lon="-1.4264583333333334">
<ele>483</ele>
<time>2016-07-26T19:26:14Z</time>
</trkpt>
<trkpt lat="37.862854999999996" lon="-1.4264583333333334">
<ele>483</ele>
<time>2016-07-26T19:26:16Z</time>
</trkpt>
<trkpt lat="37.862854999999996" lon="-1.4264583333333334">
<ele>483</ele>
<time>2016-07-26T19:26:18Z</time>
</trkpt>
<trkpt lat="37.862854999999996" lon="-1.4264583333333334">
<ele>483</ele>
<time>2016-07-26T19:26:20Z</time>
</trkpt>
<trkpt lat="37.862854999999996" lon="-1.4264583333333334">
<ele>483</ele>
<time>2016-07-26T19:26:22Z</time>
</trkpt>
<trkpt lat="37.862854999999996" lon="-1.4264583333333334">
<ele>483</ele>
<time>2016-07-26T19:26:24Z</time>
</trkpt>
<trkpt lat="37.862854999999996" lon="-1.4264583333333334">
<ele>483</ele>
<time>2016-07-26T19:26:26Z</time>
</trkpt>
<trkpt lat="37.862854999999996" lon="-1.4264583333333334">
<ele>483</ele>
<time>2016-07-26T19:26:28Z</time>
</trkpt>
<trkpt lat="37.862854999999996" lon="-1.4264583333333334">
<ele>483</ele>
<time>2016-07-26T19:26:30Z</time>
</trkpt>
<trkpt lat="37.86277166666666" lon="-1.4264816666666666">
<ele>482</ele>
<time>2016-07-26T19:26:32Z</time>
</trkpt>
<trkpt lat="37.86277333333333" lon="-1.4264816666666666">
<ele>484</ele>
<time>2016-07-26T19:26:34Z</time>
</trkpt>
<trkpt lat="37.86277333333333" lon="-1.4264816666666666">
<ele>484</ele>
<time>2016-07-26T19:26:36Z</time>
</trkpt>
<trkpt lat="37.86277333333333" lon="-1.4264816666666666">
<ele>484</ele>
<time>2016-07-26T19:26:38Z</time>
</trkpt>
<trkpt lat="37.86280166666666" lon="-1.4264599999999998">
<ele>481</ele>
<time>2016-07-26T19:26:40Z</time>
</trkpt>
<trkpt lat="37.86281666666666" lon="-1.4264599999999998">
<ele>484</ele>
<time>2016-07-26T19:26:42Z</time>
</trkpt>
<trkpt lat="37.86282166666667" lon="-1.426465">
<ele>484</ele>
<time>2016-07-26T19:26:44Z</time>
</trkpt>
<trkpt lat="37.862808333333334" lon="-1.4264733333333333">
<ele>484</ele>
<time>2016-07-26T19:26:46Z</time>
</trkpt>
<trkpt lat="37.862808333333334" lon="-1.4264733333333333">
<ele>484</ele>
<time>2016-07-26T19:26:48Z</time>
</trkpt>
<trkpt lat="37.86275166666667" lon="-1.4265083333333335">
<ele>483</ele>
<time>2016-07-26T19:26:50Z</time>
</trkpt>
<trkpt lat="37.86272333333333" lon="-1.4265133333333333">
<ele>484</ele>
<time>2016-07-26T19:26:52Z</time>
</trkpt>
<trkpt lat="37.862719999999996" lon="-1.4265116666666666">
<ele>482</ele>
<time>2016-07-26T19:26:54Z</time>
</trkpt>
<trkpt lat="37.86271833333333" lon="-1.4265116666666666">
<ele>482</ele>
<time>2016-07-26T19:26:56Z</time>
</trkpt>
<trkpt lat="37.86272333333333" lon="-1.42651">
<ele>484</ele>
<time>2016-07-26T19:26:58Z</time>
</trkpt>
<trkpt lat="37.86271333333333" lon="-1.4265133333333333">
<ele>485</ele>
<time>2016-07-26T19:27:00Z</time>
</trkpt>
<trkpt lat="37.86271166666667" lon="-1.4265083333333335">
<ele>487</ele>
<time>2016-07-26T19:27:02Z</time>
</trkpt>
<trkpt lat="37.86271833333333" lon="-1.4264983333333334">
<ele>487</ele>
<time>2016-07-26T19:27:04Z</time>
</trkpt>
<trkpt lat="37.862719999999996" lon="-1.4264949999999998">
<ele>487</ele>
<time>2016-07-26T19:27:06Z</time>
</trkpt>
<trkpt lat="37.862719999999996" lon="-1.4264949999999998">
<ele>487</ele>
<time>2016-07-26T19:27:08Z</time>
</trkpt>
<trkpt lat="37.862719999999996" lon="-1.4264949999999998">
<ele>487</ele>
<time>2016-07-26T19:27:10Z</time>
</trkpt>
<trkpt lat="37.862719999999996" lon="-1.4264949999999998">
<ele>487</ele>
<time>2016-07-26T19:27:12Z</time>
</trkpt>
<trkpt lat="37.862719999999996" lon="-1.4264949999999998">
<ele>487</ele>
<time>2016-07-26T19:27:14Z</time>
</trkpt>
<trkpt lat="37.862719999999996" lon="-1.4264949999999998">
<ele>487</ele>
<time>2016-07-26T19:27:16Z</time>
</trkpt>
<trkpt lat="37.862719999999996" lon="-1.4264949999999998">
<ele>487</ele>
<time>2016-07-26T19:27:18Z</time>
</trkpt>
<trkpt lat="37.862719999999996" lon="-1.4264949999999998">
<ele>487</ele>
<time>2016-07-26T19:27:20Z</time>
</trkpt>
<trkpt lat="37.862719999999996" lon="-1.4264949999999998">
<ele>487</ele>
<time>2016-07-26T19:27:22Z</time>
</trkpt>
<trkpt lat="37.862719999999996" lon="-1.4264949999999998">
<ele>487</ele>
<time>2016-07-26T19:27:24Z</time>
</trkpt>
<trkpt lat="37.862719999999996" lon="-1.4264949999999998">
<ele>487</ele>
<time>2016-07-26T19:27:26Z</time>
</trkpt>
<trkpt lat="37.862719999999996" lon="-1.4264949999999998">
<ele>487</ele>
<time>2016-07-26T19:27:28Z</time>
</trkpt>
<trkpt lat="37.862719999999996" lon="-1.4264949999999998">
<ele>487</ele>
<time>2016-07-26T19:27:30Z</time>
</trkpt>
<trkpt lat="37.862719999999996" lon="-1.4264949999999998">
<ele>487</ele>
<time>2016-07-26T19:27:32Z</time>
</trkpt>
<trkpt lat="37.862719999999996" lon="-1.4264949999999998">
<ele>487</ele>
<time>2016-07-26T19:27:34Z</time>
</trkpt>
<trkpt lat="37.862719999999996" lon="-1.4264949999999998">
<ele>487</ele>
<time>2016-07-26T19:27:36Z</time>
</trkpt>
<trkpt lat="37.862719999999996" lon="-1.4264949999999998">
<ele>487</ele>
<time>2016-07-26T19:27:38Z</time>
</trkpt>
<trkpt lat="37.86278333333333" lon="-1.4264716666666668">
<ele>477</ele>
<time>2016-07-26T19:27:40Z</time>
</trkpt>
<trkpt lat="37.862793333333336" lon="-1.4264666666666665">
<ele>476</ele>
<time>2016-07-26T19:27:42Z</time>
</trkpt>
<trkpt lat="37.86282833333333" lon="-1.4264616666666665">
<ele>477</ele>
<time>2016-07-26T19:27:44Z</time>
</trkpt>
<trkpt lat="37.86284333333333" lon="-1.4264483333333333">
<ele>475</ele>
<time>2016-07-26T19:27:46Z</time>
</trkpt>
<trkpt lat="37.86286" lon="-1.4264350000000001">
<ele>474</ele>
<time>2016-07-26T19:27:48Z</time>
</trkpt>
<trkpt lat="37.86286166666666" lon="-1.4264366666666668">
<ele>476</ele>
<time>2016-07-26T19:27:50Z</time>
</trkpt>
<trkpt lat="37.86289333333333" lon="-1.4264333333333332">
<ele>480</ele>
<time>2016-07-26T19:27:52Z</time>
</trkpt>
<trkpt lat="37.86288833333333" lon="-1.4264383333333333">
<ele>482</ele>
<time>2016-07-26T19:27:54Z</time>
</trkpt>
<trkpt lat="37.86288666666667" lon="-1.42644">
<ele>483</ele>
<time>2016-07-26T19:27:56Z</time>
</trkpt>
<trkpt lat="37.86288666666667" lon="-1.42644">
<ele>483</ele>
<time>2016-07-26T19:27:58Z</time>
</trkpt>
<trkpt lat="37.86286666666667" lon="-1.426455">
<ele>487</ele>
<time>2016-07-26T19:28:00Z</time>
</trkpt>
<trkpt lat="37.862838333333336" lon="-1.4264599999999998">
<ele>488</ele>
<time>2016-07-26T19:28:02Z</time>
</trkpt>
<trkpt lat="37.862835000000004" lon="-1.4264633333333334">
<ele>487</ele>
<time>2016-07-26T19:28:04Z</time>
</trkpt>
<trkpt lat="37.862838333333336" lon="-1.4264683333333332">
<ele>486</ele>
<time>2016-07-26T19:28:06Z</time>
</trkpt>
<trkpt lat="37.862838333333336" lon="-1.426475">
<ele>486</ele>
<time>2016-07-26T19:28:08Z</time>
</trkpt>
<trkpt lat="37.86284166666667" lon="-1.4264766666666666">
<ele>485</ele>
<time>2016-07-26T19:28:10Z</time>
</trkpt>
<trkpt lat="37.862845" lon="-1.4264800000000002">
<ele>484</ele>
<time>2016-07-26T19:28:12Z</time>
</trkpt>
<trkpt lat="37.86283666666667" lon="-1.4264783333333333">
<ele>484</ele>
<time>2016-07-26T19:28:14Z</time>
</trkpt>
<trkpt lat="37.86282666666667" lon="-1.4264800000000002">
<ele>483</ele>
<time>2016-07-26T19:28:16Z</time>
</trkpt>
<trkpt lat="37.862820000000006" lon="-1.4264783333333333">
<ele>482</ele>
<time>2016-07-26T19:28:18Z</time>
</trkpt>
<trkpt lat="37.86281333333333" lon="-1.4264716666666668">
<ele>481</ele>
<time>2016-07-26T19:28:20Z</time>
</trkpt>
<trkpt lat="37.862806666666664" lon="-1.4264683333333332">
<ele>481</ele>
<time>2016-07-26T19:28:22Z</time>
</trkpt>
<trkpt lat="37.862806666666664" lon="-1.4264683333333332">
<ele>481</ele>
<time>2016-07-26T19:28:24Z</time>
</trkpt>
<trkpt lat="37.862806666666664" lon="-1.4264683333333332">
<ele>481</ele>
<time>2016-07-26T19:28:26Z</time>
</trkpt>
<trkpt lat="37.862806666666664" lon="-1.4264683333333332">
<ele>481</ele>
<time>2016-07-26T19:28:28Z</time>
</trkpt>
<trkpt lat="37.862806666666664" lon="-1.4264683333333332">
<ele>481</ele>
<time>2016-07-26T19:28:30Z</time>
</trkpt>
<trkpt lat="37.862806666666664" lon="-1.4264683333333332">
<ele>481</ele>
<time>2016-07-26T19:28:32Z</time>
</trkpt>
<trkpt lat="37.862806666666664" lon="-1.4264683333333332">
<ele>481</ele>
<time>2016-07-26T19:28:34Z</time>
</trkpt>
<trkpt lat="37.86271166666667" lon="-1.4264483333333333">
<ele>475</ele>
<time>2016-07-26T19:28:36Z</time>
</trkpt>
<trkpt lat="37.86271" lon="-1.4264466666666666">
<ele>474</ele>
<time>2016-07-26T19:28:38Z</time>
</trkpt>
<trkpt lat="37.862698333333334" lon="-1.4264466666666666">
<ele>472</ele>
<time>2016-07-26T19:28:40Z</time>
</trkpt>
<trkpt lat="37.862698333333334" lon="-1.4264466666666666">
<ele>472</ele>
<time>2016-07-26T19:28:42Z</time>
</trkpt>
<trkpt lat="37.862698333333334" lon="-1.4264466666666666">
<ele>472</ele>
<time>2016-07-26T19:28:44Z</time>
</trkpt>
<trkpt lat="37.862698333333334" lon="-1.4264466666666666">
<ele>472</ele>
<time>2016-07-26T19:28:46Z</time>
</trkpt>
<trkpt lat="37.862698333333334" lon="-1.4264466666666666">
<ele>472</ele>
<time>2016-07-26T19:28:48Z</time>
</trkpt>
<trkpt lat="37.862698333333334" lon="-1.4264466666666666">
<ele>472</ele>
<time>2016-07-26T19:28:50Z</time>
</trkpt>
<trkpt lat="37.862703333333336" lon="-1.4264533333333334">
<ele>469</ele>
<time>2016-07-26T19:28:52Z</time>
</trkpt>
<trkpt lat="37.86267833333333" lon="-1.4264733333333333">
<ele>468</ele>
<time>2016-07-26T19:28:54Z</time>
</trkpt>
<trkpt lat="37.862665" lon="-1.4264616666666665">
<ele>470</ele>
<time>2016-07-26T19:28:56Z</time>
</trkpt>
<trkpt lat="37.86263833333333" lon="-1.4264433333333333">
<ele>471</ele>
<time>2016-07-26T19:28:58Z</time>
</trkpt>
<trkpt lat="37.862613333333336" lon="-1.426445">
<ele>473</ele>
<time>2016-07-26T19:29:00Z</time>
</trkpt>
<trkpt lat="37.862640000000006" lon="-1.4264783333333333">
<ele>477</ele>
<time>2016-07-26T19:29:02Z</time>
</trkpt>
<trkpt lat="37.86267333333333" lon="-1.4265083333333335">
<ele>474</ele>
<time>2016-07-26T19:29:04Z</time>
</trkpt>
<trkpt lat="37.862674999999996" lon="-1.4265249999999998">
<ele>474</ele>
<time>2016-07-26T19:29:06Z</time>
</trkpt>
<trkpt lat="37.862656666666666" lon="-1.4265383333333332">
<ele>476</ele>
<time>2016-07-26T19:29:08Z</time>
</trkpt>
<trkpt lat="37.86264833333333" lon="-1.4265316666666665">
<ele>478</ele>
<time>2016-07-26T19:29:10Z</time>
</trkpt>
<trkpt lat="37.86263666666667" lon="-1.4264983333333334">
<ele>479</ele>
<time>2016-07-26T19:29:12Z</time>
</trkpt>
<trkpt lat="37.862595000000006" lon="-1.426475">
<ele>481</ele>
<time>2016-07-26T19:29:14Z</time>
</trkpt>
<trkpt lat="37.862545" lon="-1.4264350000000001">
<ele>484</ele>
<time>2016-07-26T19:29:16Z</time>
</trkpt>
<trkpt lat="37.86248" lon="-1.4263916666666667">
<ele>489</ele>
<time>2016-07-26T19:29:18Z</time>
</trkpt>
<trkpt lat="37.86242333333333" lon="-1.4263599999999999">
<ele>495</ele>
<time>2016-07-26T19:29:20Z</time>
</trkpt>
<trkpt lat="37.86236333333333" lon="-1.42633">
<ele>500</ele>
<time>2016-07-26T19:29:22Z</time>
</trkpt>
<trkpt lat="37.862314999999995" lon="-1.4263016666666668">
<ele>505</ele>
<time>2016-07-26T19:29:24Z</time>
</trkpt>
<trkpt lat="37.86226666666666" lon="-1.4262666666666666">
<ele>509</ele>
<time>2016-07-26T19:29:26Z</time>
</trkpt>
<trkpt lat="37.86221333333334" lon="-1.42624">
<ele>513</ele>
<time>2016-07-26T19:29:28Z</time>
</trkpt>
<trkpt lat="37.86216833333334" lon="-1.4262233333333334">
<ele>518</ele>
<time>2016-07-26T19:29:30Z</time>
</trkpt>
<trkpt lat="37.86214333333333" lon="-1.42621">
<ele>523</ele>
<time>2016-07-26T19:29:32Z</time>
</trkpt>
<trkpt lat="37.862096666666666" lon="-1.4262166666666665">
<ele>528</ele>
<time>2016-07-26T19:29:34Z</time>
</trkpt>
<trkpt lat="37.862049999999996" lon="-1.4262116666666667">
<ele>532</ele>
<time>2016-07-26T19:29:36Z</time>
</trkpt>
<trkpt lat="37.862003333333334" lon="-1.42619">
<ele>535</ele>
<time>2016-07-26T19:29:38Z</time>
</trkpt>
<trkpt lat="37.861956666666664" lon="-1.42615">
<ele>539</ele>
<time>2016-07-26T19:29:40Z</time>
</trkpt>
<trkpt lat="37.861893333333335" lon="-1.4261083333333335">
<ele>543</ele>
<time>2016-07-26T19:29:42Z</time>
</trkpt>
<trkpt lat="37.86183333333334" lon="-1.4261133333333333">
<ele>547</ele>
<time>2016-07-26T19:29:44Z</time>
</trkpt>
<trkpt lat="37.861781666666666" lon="-1.4261183333333332">
<ele>550</ele>
<time>2016-07-26T19:29:46Z</time>
</trkpt>
<trkpt lat="37.86172666666666" lon="-1.4261133333333333">
<ele>553</ele>
<time>2016-07-26T19:29:48Z</time>
</trkpt>
<trkpt lat="37.861671666666666" lon="-1.4261383333333333">
<ele>556</ele>
<time>2016-07-26T19:29:50Z</time>
</trkpt>
<trkpt lat="37.86166166666667" lon="-1.4262033333333333">
<ele>558</ele>
<time>2016-07-26T19:29:52Z</time>
</trkpt>
<trkpt lat="37.86166333333333" lon="-1.4262566666666667">
<ele>560</ele>
<time>2016-07-26T19:29:54Z</time>
</trkpt>
<trkpt lat="37.861650000000004" lon="-1.4263033333333333">
<ele>561</ele>
<time>2016-07-26T19:29:56Z</time>
</trkpt>
<trkpt lat="37.86163833333333" lon="-1.4263566666666667">
<ele>562</ele>
<time>2016-07-26T19:29:58Z</time>
</trkpt>
<trkpt lat="37.86163" lon="-1.4264116666666666">
<ele>563</ele>
<time>2016-07-26T19:30:00Z</time>
</trkpt>
<trkpt lat="37.86161333333334" lon="-1.4264533333333334">
<ele>563</ele>
<time>2016-07-26T19:30:02Z</time>
</trkpt>
<trkpt lat="37.861596666666664" lon="-1.4264666666666665">
<ele>563</ele>
<time>2016-07-26T19:30:04Z</time>
</trkpt>
<trkpt lat="37.861585" lon="-1.4265066666666666">
<ele>562</ele>
<time>2016-07-26T19:30:06Z</time>
</trkpt>
<trkpt lat="37.861556666666665" lon="-1.4265566666666667">
<ele>561</ele>
<time>2016-07-26T19:30:08Z</time>
</trkpt>
<trkpt lat="37.86153" lon="-1.4265883333333331">
<ele>561</ele>
<time>2016-07-26T19:30:10Z</time>
</trkpt>
<trkpt lat="37.86150166666666" lon="-1.4266116666666666">
<ele>562</ele>
<time>2016-07-26T19:30:12Z</time>
</trkpt>
<trkpt lat="37.86146833333333" lon="-1.4266216666666667">
<ele>564</ele>
<time>2016-07-26T19:30:14Z</time>
</trkpt>
<trkpt lat="37.861428333333336" lon="-1.4266533333333333">
<ele>567</ele>
<time>2016-07-26T19:30:16Z</time>
</trkpt>
<trkpt lat="37.86138833333334" lon="-1.4266583333333334">
<ele>569</ele>
<time>2016-07-26T19:30:18Z</time>
</trkpt>
<trkpt lat="37.861336666666666" lon="-1.4266316666666665">
<ele>571</ele>
<time>2016-07-26T19:30:20Z</time>
</trkpt>
<trkpt lat="37.86127666666666" lon="-1.4266016666666668">
<ele>573</ele>
<time>2016-07-26T19:30:22Z</time>
</trkpt>
<trkpt lat="37.86121333333333" lon="-1.4265666666666665">
<ele>576</ele>
<time>2016-07-26T19:30:24Z</time>
</trkpt>
<trkpt lat="37.86114833333333" lon="-1.4265283333333334">
<ele>578</ele>
<time>2016-07-26T19:30:26Z</time>
</trkpt>
<trkpt lat="37.86108166666667" lon="-1.4265066666666666">
<ele>579</ele>
<time>2016-07-26T19:30:28Z</time>
</trkpt>
<trkpt lat="37.86101166666666" lon="-1.4264949999999998">
<ele>582</ele>
<time>2016-07-26T19:30:30Z</time>
</trkpt>
<trkpt lat="37.86094666666667" lon="-1.426455">
<ele>586</ele>
<time>2016-07-26T19:30:32Z</time>
</trkpt>
<trkpt lat="37.860908333333334" lon="-1.4263966666666665">
<ele>591</ele>
<time>2016-07-26T19:30:34Z</time>
</trkpt>
<trkpt lat="37.86089166666667" lon="-1.4263416666666666">
<ele>596</ele>
<time>2016-07-26T19:30:36Z</time>
</trkpt>
<trkpt lat="37.860855" lon="-1.4262800000000002">
<ele>599</ele>
<time>2016-07-26T19:30:38Z</time>
</trkpt>
<trkpt lat="37.86081" lon="-1.42622">
<ele>604</ele>
<time>2016-07-26T19:30:40Z</time>
</trkpt>
<trkpt lat="37.86076833333333" lon="-1.4261633333333332">
<ele>607</ele>
<time>2016-07-26T19:30:42Z</time>
</trkpt>
<trkpt lat="37.86073666666667" lon="-1.4260983333333332">
<ele>608</ele>
<time>2016-07-26T19:30:44Z</time>
</trkpt>
<trkpt lat="37.860705" lon="-1.4260233333333334">
<ele>610</ele>
<time>2016-07-26T19:30:46Z</time>
</trkpt>
<trkpt lat="37.86066666666667" lon="-1.42594">
<ele>613</ele>
<time>2016-07-26T19:30:48Z</time>
</trkpt>
<trkpt lat="37.86063" lon="-1.4258483333333334">
<ele>615</ele>
<time>2016-07-26T19:30:50Z</time>
</trkpt>
<trkpt lat="37.86058833333333" lon="-1.4257666666666668">
<ele>615</ele>
<time>2016-07-26T19:30:52Z</time>
</trkpt>
<trkpt lat="37.860546666666664" lon="-1.4256966666666666">
<ele>617</ele>
<time>2016-07-26T19:30:54Z</time>
</trkpt>
<trkpt lat="37.860501666666664" lon="-1.4256316666666666">
<ele>618</ele>
<time>2016-07-26T19:30:56Z</time>
</trkpt>
<trkpt lat="37.860465" lon="-1.4255516666666668">
<ele>621</ele>
<time>2016-07-26T19:30:58Z</time>
</trkpt>
<trkpt lat="37.86042" lon="-1.4254766666666665">
<ele>622</ele>
<time>2016-07-26T19:31:00Z</time>
</trkpt>
<trkpt lat="37.86037666666667" lon="-1.425425">
<ele>624</ele>
<time>2016-07-26T19:31:02Z</time>
</trkpt>
<trkpt lat="37.86034666666667" lon="-1.4253833333333332">
<ele>624</ele>
<time>2016-07-26T19:31:04Z</time>
</trkpt>
<trkpt lat="37.86031166666667" lon="-1.4253433333333334">
<ele>625</ele>
<time>2016-07-26T19:31:06Z</time>
</trkpt>
<trkpt lat="37.86027166666667" lon="-1.4253116666666665">
<ele>626</ele>
<time>2016-07-26T19:31:08Z</time>
</trkpt>
<trkpt lat="37.86023" lon="-1.4252866666666666">
<ele>625</ele>
<time>2016-07-26T19:31:10Z</time>
</trkpt>
<trkpt lat="37.860195" lon="-1.4252833333333332">
<ele>626</ele>
<time>2016-07-26T19:31:12Z</time>
</trkpt>
<trkpt lat="37.86015333333333" lon="-1.425285">
<ele>626</ele>
<time>2016-07-26T19:31:14Z</time>
</trkpt>
<trkpt lat="37.860105" lon="-1.4252933333333333">
<ele>625</ele>
<time>2016-07-26T19:31:16Z</time>
</trkpt>
<trkpt lat="37.86004666666667" lon="-1.4252983333333333">
<ele>625</ele>
<time>2016-07-26T19:31:18Z</time>
</trkpt>
<trkpt lat="37.85998666666667" lon="-1.4253033333333331">
<ele>624</ele>
<time>2016-07-26T19:31:20Z</time>
</trkpt>
<trkpt lat="37.85995166666667" lon="-1.4253216666666666">
<ele>624</ele>
<time>2016-07-26T19:31:22Z</time>
</trkpt>
<trkpt lat="37.85992833333333" lon="-1.4253266666666666">
<ele>622</ele>
<time>2016-07-26T19:31:24Z</time>
</trkpt>
<trkpt lat="37.85988833333333" lon="-1.4253383333333334">
<ele>620</ele>
<time>2016-07-26T19:31:26Z</time>
</trkpt>
<trkpt lat="37.85984666666666" lon="-1.4253566666666666">
<ele>620</ele>
<time>2016-07-26T19:31:28Z</time>
</trkpt>
<trkpt lat="37.85981666666667" lon="-1.4253616666666666">
<ele>620</ele>
<time>2016-07-26T19:31:30Z</time>
</trkpt>
<trkpt lat="37.859785" lon="-1.42535">
<ele>620</ele>
<time>2016-07-26T19:31:32Z</time>
</trkpt>
<trkpt lat="37.859746666666666" lon="-1.4253366666666667">
<ele>619</ele>
<time>2016-07-26T19:31:34Z</time>
</trkpt>
<trkpt lat="37.85971" lon="-1.4253183333333332">
<ele>618</ele>
<time>2016-07-26T19:31:36Z</time>
</trkpt>
<trkpt lat="37.85966333333333" lon="-1.4252933333333333">
<ele>617</ele>
<time>2016-07-26T19:31:38Z</time>
</trkpt>
<trkpt lat="37.85962166666666" lon="-1.425265">
<ele>618</ele>
<time>2016-07-26T19:31:40Z</time>
</trkpt>
<trkpt lat="37.85958166666667" lon="-1.42523">
<ele>618</ele>
<time>2016-07-26T19:31:42Z</time>
</trkpt>
<trkpt lat="37.85954666666667" lon="-1.4251800000000001">
<ele>618</ele>
<time>2016-07-26T19:31:44Z</time>
</trkpt>
<trkpt lat="37.859505" lon="-1.425135">
<ele>617</ele>
<time>2016-07-26T19:31:46Z</time>
</trkpt>
<trkpt lat="37.859471666666664" lon="-1.4251033333333334">
<ele>617</ele>
<time>2016-07-26T19:31:48Z</time>
</trkpt>
<trkpt lat="37.85944833333333" lon="-1.42509">
<ele>617</ele>
<time>2016-07-26T19:31:50Z</time>
</trkpt>
<trkpt lat="37.85941833333333" lon="-1.4250733333333334">
<ele>616</ele>
<time>2016-07-26T19:31:52Z</time>
</trkpt>
<trkpt lat="37.85937166666667" lon="-1.4250783333333334">
<ele>616</ele>
<time>2016-07-26T19:31:54Z</time>
</trkpt>
<trkpt lat="37.85930333333333" lon="-1.4251083333333334">
<ele>615</ele>
<time>2016-07-26T19:31:56Z</time>
</trkpt>
<trkpt lat="37.859246666666664" lon="-1.4251316666666667">
<ele>615</ele>
<time>2016-07-26T19:31:58Z</time>
</trkpt>
<trkpt lat="37.85919833333333" lon="-1.425145">
<ele>615</ele>
<time>2016-07-26T19:32:00Z</time>
</trkpt>
<trkpt lat="37.85915333333333" lon="-1.42516">
<ele>615</ele>
<time>2016-07-26T19:32:02Z</time>
</trkpt>
<trkpt lat="37.859105" lon="-1.4251749999999999">
<ele>615</ele>
<time>2016-07-26T19:32:04Z</time>
</trkpt>
<trkpt lat="37.85906166666667" lon="-1.4251916666666666">
<ele>614</ele>
<time>2016-07-26T19:32:06Z</time>
</trkpt>
<trkpt lat="37.85901666666667" lon="-1.4252083333333334">
<ele>615</ele>
<time>2016-07-26T19:32:08Z</time>
</trkpt>
<trkpt lat="37.858981666666665" lon="-1.4251983333333333">
<ele>616</ele>
<time>2016-07-26T19:32:10Z</time>
</trkpt>
<trkpt lat="37.85895333333334" lon="-1.4251766666666665">
<ele>616</ele>
<time>2016-07-26T19:32:12Z</time>
</trkpt>
<trkpt lat="37.858918333333335" lon="-1.4251566666666666">
<ele>616</ele>
<time>2016-07-26T19:32:14Z</time>
</trkpt>
<trkpt lat="37.858885" lon="-1.4251283333333333">
<ele>617</ele>
<time>2016-07-26T19:32:16Z</time>
</trkpt>
<trkpt lat="37.85884166666666" lon="-1.4250983333333334">
<ele>618</ele>
<time>2016-07-26T19:32:18Z</time>
</trkpt>
<trkpt lat="37.85879666666666" lon="-1.4250733333333334">
<ele>620</ele>
<time>2016-07-26T19:32:20Z</time>
</trkpt>
<trkpt lat="37.858761666666666" lon="-1.4250600000000002">
<ele>621</ele>
<time>2016-07-26T19:32:22Z</time>
</trkpt>
<trkpt lat="37.85874" lon="-1.4250450000000001">
<ele>621</ele>
<time>2016-07-26T19:32:24Z</time>
</trkpt>
<trkpt lat="37.85869666666667" lon="-1.4250333333333334">
<ele>621</ele>
<time>2016-07-26T19:32:26Z</time>
</trkpt>
<trkpt lat="37.85864166666667" lon="-1.4250233333333333">
<ele>620</ele>
<time>2016-07-26T19:32:28Z</time>
</trkpt>
<trkpt lat="37.85858333333333" lon="-1.4250216666666666">
<ele>620</ele>
<time>2016-07-26T19:32:30Z</time>
</trkpt>
<trkpt lat="37.85852666666666" lon="-1.4250233333333333">
<ele>619</ele>
<time>2016-07-26T19:32:32Z</time>
</trkpt>
<trkpt lat="37.858486666666664" lon="-1.4250383333333334">
<ele>619</ele>
<time>2016-07-26T19:32:34Z</time>
</trkpt>
<trkpt lat="37.858435" lon="-1.4250783333333334">
<ele>617</ele>
<time>2016-07-26T19:32:36Z</time>
</trkpt>
<trkpt lat="37.858401666666666" lon="-1.4251033333333334">
<ele>616</ele>
<time>2016-07-26T19:32:38Z</time>
</trkpt>
<trkpt lat="37.858375" lon="-1.4251033333333334">
<ele>615</ele>
<time>2016-07-26T19:32:40Z</time>
</trkpt>
<trkpt lat="37.858325" lon="-1.4251216666666666">
<ele>612</ele>
<time>2016-07-26T19:32:42Z</time>
</trkpt>
<trkpt lat="37.858261666666664" lon="-1.4251566666666666">
<ele>608</ele>
<time>2016-07-26T19:32:44Z</time>
</trkpt>
<trkpt lat="37.858203333333336" lon="-1.4252183333333333">
<ele>605</ele>
<time>2016-07-26T19:32:46Z</time>
</trkpt>
<trkpt lat="37.858153333333334" lon="-1.4253133333333334">
<ele>603</ele>
<time>2016-07-26T19:32:48Z</time>
</trkpt>
<trkpt lat="37.8581" lon="-1.42542">
<ele>601</ele>
<time>2016-07-26T19:32:50Z</time>
</trkpt>
<trkpt lat="37.858050000000006" lon="-1.4255083333333334">
<ele>599</ele>
<time>2016-07-26T19:32:52Z</time>
</trkpt>
<trkpt lat="37.85799833333333" lon="-1.4255583333333335">
<ele>598</ele>
<time>2016-07-26T19:32:54Z</time>
</trkpt>
<trkpt lat="37.85792333333333" lon="-1.4255600000000002">
<ele>600</ele>
<time>2016-07-26T19:32:56Z</time>
</trkpt>
<trkpt lat="37.85786666666667" lon="-1.4255333333333333">
<ele>598</ele>
<time>2016-07-26T19:32:58Z</time>
</trkpt>
<trkpt lat="37.85780333333333" lon="-1.4254933333333333">
<ele>595</ele>
<time>2016-07-26T19:33:00Z</time>
</trkpt>
<trkpt lat="37.85773" lon="-1.4254483333333332">
<ele>595</ele>
<time>2016-07-26T19:33:02Z</time>
</trkpt>
<trkpt lat="37.857679999999995" lon="-1.425385">
<ele>594</ele>
<time>2016-07-26T19:33:04Z</time>
</trkpt>
<trkpt lat="37.857636666666664" lon="-1.42533">
<ele>592</ele>
<time>2016-07-26T19:33:06Z</time>
</trkpt>
<trkpt lat="37.85759333333333" lon="-1.42529">
<ele>590</ele>
<time>2016-07-26T19:33:08Z</time>
</trkpt>
<trkpt lat="37.857553333333335" lon="-1.425265">
<ele>587</ele>
<time>2016-07-26T19:33:10Z</time>
</trkpt>
<trkpt lat="37.85751333333334" lon="-1.4252516666666668">
<ele>584</ele>
<time>2016-07-26T19:33:12Z</time>
</trkpt>
<trkpt lat="37.85746833333334" lon="-1.4252416666666665">
<ele>583</ele>
<time>2016-07-26T19:33:14Z</time>
</trkpt>
<trkpt lat="37.85742666666667" lon="-1.425231666666667">
<ele>581</ele>
<time>2016-07-26T19:33:16Z</time>
</trkpt>
<trkpt lat="37.85738333333334" lon="-1.4252">
<ele>580</ele>
<time>2016-07-26T19:33:18Z</time>
</trkpt>
<trkpt lat="37.857328333333335" lon="-1.4251583333333333">
<ele>578</ele>
<time>2016-07-26T19:33:20Z</time>
</trkpt>
<trkpt lat="37.85727333333333" lon="-1.4251216666666666">
<ele>575</ele>
<time>2016-07-26T19:33:22Z</time>
</trkpt>
<trkpt lat="37.85722" lon="-1.4250666666666667">
<ele>573</ele>
<time>2016-07-26T19:33:24Z</time>
</trkpt>
<trkpt lat="37.85715833333334" lon="-1.42501">
<ele>571</ele>
<time>2016-07-26T19:33:26Z</time>
</trkpt>
<trkpt lat="37.857099999999996" lon="-1.4249616666666665">
<ele>570</ele>
<time>2016-07-26T19:33:28Z</time>
</trkpt>
<trkpt lat="37.85705333333333" lon="-1.4249083333333334">
<ele>569</ele>
<time>2016-07-26T19:33:30Z</time>
</trkpt>
<trkpt lat="37.857013333333335" lon="-1.4248349999999999">
<ele>567</ele>
<time>2016-07-26T19:33:32Z</time>
</trkpt>
<trkpt lat="37.856975000000006" lon="-1.42476">
<ele>565</ele>
<time>2016-07-26T19:33:34Z</time>
</trkpt>
<trkpt lat="37.85695166666667" lon="-1.424715">
<ele>562</ele>
<time>2016-07-26T19:33:36Z</time>
</trkpt>
<trkpt lat="37.856926666666666" lon="-1.42465">
<ele>559</ele>
<time>2016-07-26T19:33:38Z</time>
</trkpt>
<trkpt lat="37.85689" lon="-1.4245549999999998">
<ele>558</ele>
<time>2016-07-26T19:33:40Z</time>
</trkpt>
<trkpt lat="37.85684833333333" lon="-1.424455">
<ele>556</ele>
<time>2016-07-26T19:33:42Z</time>
</trkpt>
<trkpt lat="37.856806666666664" lon="-1.4243750000000002">
<ele>552</ele>
<time>2016-07-26T19:33:44Z</time>
</trkpt>
<trkpt lat="37.85675166666667" lon="-1.4243333333333332">
<ele>549</ele>
<time>2016-07-26T19:33:46Z</time>
</trkpt>
<trkpt lat="37.85669666666667" lon="-1.4242983333333332">
<ele>547</ele>
<time>2016-07-26T19:33:48Z</time>
</trkpt>
<trkpt lat="37.856658333333336" lon="-1.4242633333333332">
<ele>546</ele>
<time>2016-07-26T19:33:50Z</time>
</trkpt>
<trkpt lat="37.85662166666667" lon="-1.4242183333333334">
<ele>545</ele>
<time>2016-07-26T19:33:52Z</time>
</trkpt>
<trkpt lat="37.85658" lon="-1.4241633333333332">
<ele>543</ele>
<time>2016-07-26T19:33:54Z</time>
</trkpt>
<trkpt lat="37.85652833333334" lon="-1.4240866666666667">
<ele>542</ele>
<time>2016-07-26T19:33:56Z</time>
</trkpt>
<trkpt lat="37.85649" lon="-1.4240066666666666">
<ele>542</ele>
<time>2016-07-26T19:33:58Z</time>
</trkpt>
<trkpt lat="37.856456666666666" lon="-1.4239233333333334">
<ele>541</ele>
<time>2016-07-26T19:34:00Z</time>
</trkpt>
<trkpt lat="37.85642" lon="-1.4238366666666666">
<ele>540</ele>
<time>2016-07-26T19:34:02Z</time>
</trkpt>
<trkpt lat="37.85640166666667" lon="-1.4237416666666665">
<ele>539</ele>
<time>2016-07-26T19:34:04Z</time>
</trkpt>
<trkpt lat="37.856385" lon="-1.42363">
<ele>539</ele>
<time>2016-07-26T19:34:06Z</time>
</trkpt>
<trkpt lat="37.85635166666667" lon="-1.42352">
<ele>541</ele>
<time>2016-07-26T19:34:08Z</time>
</trkpt>
<trkpt lat="37.856321666666666" lon="-1.4234550000000001">
<ele>539</ele>
<time>2016-07-26T19:34:10Z</time>
</trkpt>
<trkpt lat="37.85630666666667" lon="-1.423435">
<ele>537</ele>
<time>2016-07-26T19:34:12Z</time>
</trkpt>
<trkpt lat="37.85626666666667" lon="-1.4234466666666667">
<ele>535</ele>
<time>2016-07-26T19:34:14Z</time>
</trkpt>
<trkpt lat="37.85623333333333" lon="-1.42351">
<ele>533</ele>
<time>2016-07-26T19:34:16Z</time>
</trkpt>
<trkpt lat="37.856231666666666" lon="-1.4236033333333333">
<ele>530</ele>
<time>2016-07-26T19:34:18Z</time>
</trkpt>
<trkpt lat="37.85621166666667" lon="-1.4236900000000001">
<ele>528</ele>
<time>2016-07-26T19:34:20Z</time>
</trkpt>
<trkpt lat="37.856181666666664" lon="-1.4237983333333333">
<ele>528</ele>
<time>2016-07-26T19:34:22Z</time>
</trkpt>
<trkpt lat="37.856184999999996" lon="-1.4239266666666666">
<ele>529</ele>
<time>2016-07-26T19:34:24Z</time>
</trkpt>
<trkpt lat="37.856186666666666" lon="-1.4240366666666666">
<ele>529</ele>
<time>2016-07-26T19:34:26Z</time>
</trkpt>
<trkpt lat="37.85617833333333" lon="-1.42416">
<ele>532</ele>
<time>2016-07-26T19:34:28Z</time>
</trkpt>
<trkpt lat="37.85621833333333" lon="-1.4242983333333332">
<ele>535</ele>
<time>2016-07-26T19:34:30Z</time>
</trkpt>
<trkpt lat="37.856318333333334" lon="-1.4244616666666665">
<ele>536</ele>
<time>2016-07-26T19:34:32Z</time>
</trkpt>
<trkpt lat="37.85644166666667" lon="-1.424625">
<ele>537</ele>
<time>2016-07-26T19:34:34Z</time>
</trkpt>
<trkpt lat="37.85659166666667" lon="-1.4247883333333333">
<ele>537</ele>
<time>2016-07-26T19:34:36Z</time>
</trkpt>
<trkpt lat="37.85675666666667" lon="-1.4249450000000001">
<ele>538</ele>
<time>2016-07-26T19:34:38Z</time>
</trkpt>
<trkpt lat="37.85695166666667" lon="-1.4250916666666666">
<ele>540</ele>
<time>2016-07-26T19:34:40Z</time>
</trkpt>
<trkpt lat="37.85715166666667" lon="-1.4252233333333333">
<ele>539</ele>
<time>2016-07-26T19:34:42Z</time>
</trkpt>
<trkpt lat="37.85736166666666" lon="-1.4253583333333335">
<ele>538</ele>
<time>2016-07-26T19:34:44Z</time>
</trkpt>
<trkpt lat="37.85757666666667" lon="-1.4254850000000001">
<ele>536</ele>
<time>2016-07-26T19:34:46Z</time>
</trkpt>
<trkpt lat="37.857795" lon="-1.4256033333333331">
<ele>535</ele>
<time>2016-07-26T19:34:48Z</time>
</trkpt>
<trkpt lat="37.85801" lon="-1.4257316666666666">
<ele>533</ele>
<time>2016-07-26T19:34:50Z</time>
</trkpt>
<trkpt lat="37.858219999999996" lon="-1.4258783333333334">
<ele>531</ele>
<time>2016-07-26T19:34:52Z</time>
</trkpt>
<trkpt lat="37.85843166666667" lon="-1.4260300000000001">
<ele>530</ele>
<time>2016-07-26T19:34:54Z</time>
</trkpt>
<trkpt lat="37.85862833333333" lon="-1.42617">
<ele>528</ele>
<time>2016-07-26T19:34:56Z</time>
</trkpt>
<trkpt lat="37.858844999999995" lon="-1.4263183333333334">
<ele>526</ele>
<time>2016-07-26T19:34:58Z</time>
</trkpt>
<trkpt lat="37.85905666666667" lon="-1.4264833333333333">
<ele>525</ele>
<time>2016-07-26T19:35:00Z</time>
</trkpt>
<trkpt lat="37.85926" lon="-1.42662">
<ele>525</ele>
<time>2016-07-26T19:35:02Z</time>
</trkpt>
<trkpt lat="37.859455000000004" lon="-1.4267433333333335">
<ele>525</ele>
<time>2016-07-26T19:35:04Z</time>
</trkpt>
<trkpt lat="37.85963666666667" lon="-1.4268966666666667">
<ele>525</ele>
<time>2016-07-26T19:35:06Z</time>
</trkpt>
<trkpt lat="37.85979" lon="-1.4270399999999999">
<ele>526</ele>
<time>2016-07-26T19:35:08Z</time>
</trkpt>
<trkpt lat="37.85994" lon="-1.4271966666666667">
<ele>526</ele>
<time>2016-07-26T19:35:10Z</time>
</trkpt>
<trkpt lat="37.86004833333333" lon="-1.4273683333333334">
<ele>527</ele>
<time>2016-07-26T19:35:12Z</time>
</trkpt>
<trkpt lat="37.860125000000004" lon="-1.4275466666666667">
<ele>529</ele>
<time>2016-07-26T19:35:14Z</time>
</trkpt>
<trkpt lat="37.86022" lon="-1.4277383333333333">
<ele>531</ele>
<time>2016-07-26T19:35:16Z</time>
</trkpt>
<trkpt lat="37.8603" lon="-1.4279316666666666">
<ele>533</ele>
<time>2016-07-26T19:35:18Z</time>
</trkpt>
<trkpt lat="37.86037666666667" lon="-1.4281233333333332">
<ele>534</ele>
<time>2016-07-26T19:35:20Z</time>
</trkpt>
<trkpt lat="37.860456666666664" lon="-1.42831">
<ele>535</ele>
<time>2016-07-26T19:35:22Z</time>
</trkpt>
<trkpt lat="37.860525" lon="-1.4285033333333335">
<ele>536</ele>
<time>2016-07-26T19:35:24Z</time>
</trkpt>
<trkpt lat="37.86058166666667" lon="-1.42868">
<ele>537</ele>
<time>2016-07-26T19:35:26Z</time>
</trkpt>
<trkpt lat="37.860641666666666" lon="-1.4288633333333334">
<ele>538</ele>
<time>2016-07-26T19:35:28Z</time>
</trkpt>
<trkpt lat="37.860701666666664" lon="-1.4290416666666668">
<ele>538</ele>
<time>2016-07-26T19:35:30Z</time>
</trkpt>
<trkpt lat="37.86076833333333" lon="-1.4292216666666666">
<ele>540</ele>
<time>2016-07-26T19:35:32Z</time>
</trkpt>
<trkpt lat="37.86083" lon="-1.4294016666666667">
<ele>540</ele>
<time>2016-07-26T19:35:34Z</time>
</trkpt>
<trkpt lat="37.86089333333334" lon="-1.42957">
<ele>541</ele>
<time>2016-07-26T19:35:36Z</time>
</trkpt>
<trkpt lat="37.86094" lon="-1.429745">
<ele>542</ele>
<time>2016-07-26T19:35:38Z</time>
</trkpt>
<trkpt lat="37.86096166666667" lon="-1.4299216666666665">
<ele>543</ele>
<time>2016-07-26T19:35:40Z</time>
</trkpt>
<trkpt lat="37.860969999999995" lon="-1.4300833333333334">
<ele>543</ele>
<time>2016-07-26T19:35:42Z</time>
</trkpt>
<trkpt lat="37.86096333333333" lon="-1.4302416666666666">
<ele>544</ele>
<time>2016-07-26T19:35:44Z</time>
</trkpt>
<trkpt lat="37.86094" lon="-1.4303983333333332">
<ele>545</ele>
<time>2016-07-26T19:35:46Z</time>
</trkpt>
<trkpt lat="37.86093" lon="-1.4305433333333333">
<ele>546</ele>
<time>2016-07-26T19:35:48Z</time>
</trkpt>
<trkpt lat="37.860933333333335" lon="-1.4306866666666667">
<ele>548</ele>
<time>2016-07-26T19:35:50Z</time>
</trkpt>
<trkpt lat="37.86093" lon="-1.43085">
<ele>550</ele>
<time>2016-07-26T19:35:52Z</time>
</trkpt>
<trkpt lat="37.860951666666665" lon="-1.4309983333333332">
<ele>552</ele>
<time>2016-07-26T19:35:54Z</time>
</trkpt>
<trkpt lat="37.86097666666667" lon="-1.43113">
<ele>553</ele>
<time>2016-07-26T19:35:56Z</time>
</trkpt>
<trkpt lat="37.860955" lon="-1.431235">
<ele>555</ele>
<time>2016-07-26T19:35:58Z</time>
</trkpt>
<trkpt lat="37.860895" lon="-1.4313066666666667">
<ele>556</ele>
<time>2016-07-26T19:36:00Z</time>
</trkpt>
<trkpt lat="37.86085333333333" lon="-1.4313399999999998">
<ele>556</ele>
<time>2016-07-26T19:36:02Z</time>
</trkpt>
<trkpt lat="37.860800000000005" lon="-1.4313133333333332">
<ele>557</ele>
<time>2016-07-26T19:36:04Z</time>
</trkpt>
<trkpt lat="37.86075" lon="-1.4312283333333333">
<ele>558</ele>
<time>2016-07-26T19:36:06Z</time>
</trkpt>
<trkpt lat="37.860715" lon="-1.4311533333333335">
<ele>559</ele>
<time>2016-07-26T19:36:08Z</time>
</trkpt>
<trkpt lat="37.86069666666666" lon="-1.4310883333333333">
<ele>561</ele>
<time>2016-07-26T19:36:10Z</time>
</trkpt>
<trkpt lat="37.86066833333334" lon="-1.4310399999999999">
<ele>562</ele>
<time>2016-07-26T19:36:12Z</time>
</trkpt>
<trkpt lat="37.860618333333335" lon="-1.43105">
<ele>563</ele>
<time>2016-07-26T19:36:14Z</time>
</trkpt>
<trkpt lat="37.86058166666667" lon="-1.4310833333333333">
<ele>564</ele>
<time>2016-07-26T19:36:16Z</time>
</trkpt>
<trkpt lat="37.86053833333334" lon="-1.4311483333333332">
<ele>565</ele>
<time>2016-07-26T19:36:18Z</time>
</trkpt>
<trkpt lat="37.86048166666667" lon="-1.431245">
<ele>566</ele>
<time>2016-07-26T19:36:20Z</time>
</trkpt>
<trkpt lat="37.860440000000004" lon="-1.4313733333333334">
<ele>567</ele>
<time>2016-07-26T19:36:22Z</time>
</trkpt>
<trkpt lat="37.86042" lon="-1.4314933333333333">
<ele>568</ele>
<time>2016-07-26T19:36:24Z</time>
</trkpt>
<trkpt lat="37.86040833333333" lon="-1.4316433333333334">
<ele>569</ele>
<time>2016-07-26T19:36:26Z</time>
</trkpt>
<trkpt lat="37.8604" lon="-1.4318033333333333">
<ele>570</ele>
<time>2016-07-26T19:36:28Z</time>
</trkpt>
<trkpt lat="37.86041" lon="-1.4319433333333333">
<ele>571</ele>
<time>2016-07-26T19:36:30Z</time>
</trkpt>
<trkpt lat="37.860445" lon="-1.43208">
<ele>573</ele>
<time>2016-07-26T19:36:32Z</time>
</trkpt>
<trkpt lat="37.860456666666664" lon="-1.4322116666666667">
<ele>573</ele>
<time>2016-07-26T19:36:34Z</time>
</trkpt>
<trkpt lat="37.86048166666667" lon="-1.4323249999999998">
<ele>574</ele>
<time>2016-07-26T19:36:36Z</time>
</trkpt>
<trkpt lat="37.86051166666667" lon="-1.43242">
<ele>574</ele>
<time>2016-07-26T19:36:38Z</time>
</trkpt>
<trkpt lat="37.86051666666666" lon="-1.432551666666667">
<ele>574</ele>
<time>2016-07-26T19:36:40Z</time>
</trkpt>
<trkpt lat="37.860508333333335" lon="-1.4327033333333332">
<ele>575</ele>
<time>2016-07-26T19:36:42Z</time>
</trkpt>
<trkpt lat="37.860515" lon="-1.4328583333333333">
<ele>575</ele>
<time>2016-07-26T19:36:44Z</time>
</trkpt>
<trkpt lat="37.86052166666666" lon="-1.4330133333333333">
<ele>576</ele>
<time>2016-07-26T19:36:46Z</time>
</trkpt>
<trkpt lat="37.86052166666666" lon="-1.433195">
<ele>577</ele>
<time>2016-07-26T19:36:48Z</time>
</trkpt>
<trkpt lat="37.860546666666664" lon="-1.433395">
<ele>578</ele>
<time>2016-07-26T19:36:50Z</time>
</trkpt>
<trkpt lat="37.86059" lon="-1.4335983333333333">
<ele>578</ele>
<time>2016-07-26T19:36:52Z</time>
</trkpt>
<trkpt lat="37.860635" lon="-1.4338083333333334">
<ele>579</ele>
<time>2016-07-26T19:36:54Z</time>
</trkpt>
<trkpt lat="37.86066" lon="-1.43401">
<ele>580</ele>
<time>2016-07-26T19:36:56Z</time>
</trkpt>
<trkpt lat="37.860686666666666" lon="-1.434185">
<ele>581</ele>
<time>2016-07-26T19:36:58Z</time>
</trkpt>
<trkpt lat="37.86072333333333" lon="-1.4343533333333334">
<ele>581</ele>
<time>2016-07-26T19:37:00Z</time>
</trkpt>
<trkpt lat="37.860748333333326" lon="-1.4345183333333333">
<ele>581</ele>
<time>2016-07-26T19:37:02Z</time>
</trkpt>
<trkpt lat="37.86076166666667" lon="-1.4346883333333333">
<ele>581</ele>
<time>2016-07-26T19:37:04Z</time>
</trkpt>
<trkpt lat="37.860776666666666" lon="-1.4348583333333333">
<ele>580</ele>
<time>2016-07-26T19:37:06Z</time>
</trkpt>
<trkpt lat="37.860795" lon="-1.4350349999999998">
<ele>581</ele>
<time>2016-07-26T19:37:08Z</time>
</trkpt>
<trkpt lat="37.86081" lon="-1.4352116666666668">
<ele>582</ele>
<time>2016-07-26T19:37:10Z</time>
</trkpt>
<trkpt lat="37.86081" lon="-1.43537">
<ele>583</ele>
<time>2016-07-26T19:37:12Z</time>
</trkpt>
<trkpt lat="37.86080166666667" lon="-1.4355200000000001">
<ele>583</ele>
<time>2016-07-26T19:37:14Z</time>
</trkpt>
<trkpt lat="37.860793333333326" lon="-1.4356616666666668">
<ele>584</ele>
<time>2016-07-26T19:37:16Z</time>
</trkpt>
<trkpt lat="37.86079666666667" lon="-1.4358">
<ele>584</ele>
<time>2016-07-26T19:37:18Z</time>
</trkpt>
<trkpt lat="37.86080166666667" lon="-1.4359383333333333">
<ele>585</ele>
<time>2016-07-26T19:37:20Z</time>
</trkpt>
<trkpt lat="37.860795" lon="-1.436065">
<ele>585</ele>
<time>2016-07-26T19:37:22Z</time>
</trkpt>
<trkpt lat="37.86078666666666" lon="-1.4361833333333334">
<ele>585</ele>
<time>2016-07-26T19:37:24Z</time>
</trkpt>
<trkpt lat="37.860771666666665" lon="-1.4362933333333334">
<ele>585</ele>
<time>2016-07-26T19:37:26Z</time>
</trkpt>
<trkpt lat="37.86074333333333" lon="-1.4364016666666668">
<ele>585</ele>
<time>2016-07-26T19:37:28Z</time>
</trkpt>
<trkpt lat="37.86072333333333" lon="-1.4365116666666669">
<ele>585</ele>
<time>2016-07-26T19:37:30Z</time>
</trkpt>
<trkpt lat="37.860699999999994" lon="-1.436615">
<ele>585</ele>
<time>2016-07-26T19:37:32Z</time>
</trkpt>
<trkpt lat="37.860663333333335" lon="-1.4367083333333333">
<ele>585</ele>
<time>2016-07-26T19:37:34Z</time>
</trkpt>
<trkpt lat="37.860625" lon="-1.4368016666666668">
<ele>585</ele>
<time>2016-07-26T19:37:36Z</time>
</trkpt>
<trkpt lat="37.860573333333335" lon="-1.43689">
<ele>586</ele>
<time>2016-07-26T19:37:38Z</time>
</trkpt>
<trkpt lat="37.860535" lon="-1.4369566666666667">
<ele>586</ele>
<time>2016-07-26T19:37:40Z</time>
</trkpt>
<trkpt lat="37.86054" lon="-1.4370033333333334">
<ele>586</ele>
<time>2016-07-26T19:37:42Z</time>
</trkpt>
<trkpt lat="37.86051166666667" lon="-1.4370450000000001">
<ele>585</ele>
<time>2016-07-26T19:37:44Z</time>
</trkpt>
<trkpt lat="37.86049166666667" lon="-1.437055">
<ele>584</ele>
<time>2016-07-26T19:37:46Z</time>
</trkpt>
<trkpt lat="37.86048" lon="-1.43705">
<ele>584</ele>
<time>2016-07-26T19:37:48Z</time>
</trkpt>
<trkpt lat="37.860474999999994" lon="-1.4370483333333333">
<ele>584</ele>
<time>2016-07-26T19:37:50Z</time>
</trkpt>
<trkpt lat="37.86042666666666" lon="-1.4370399999999999">
<ele>585</ele>
<time>2016-07-26T19:37:52Z</time>
</trkpt>
<trkpt lat="37.860395000000004" lon="-1.4370183333333335">
<ele>586</ele>
<time>2016-07-26T19:37:54Z</time>
</trkpt>
<trkpt lat="37.860350000000004" lon="-1.4369899999999998">
<ele>587</ele>
<time>2016-07-26T19:37:56Z</time>
</trkpt>
<trkpt lat="37.86029" lon="-1.4369566666666667">
<ele>587</ele>
<time>2016-07-26T19:37:58Z</time>
</trkpt>
<trkpt lat="37.860236666666665" lon="-1.436925">
<ele>588</ele>
<time>2016-07-26T19:38:00Z</time>
</trkpt>
<trkpt lat="37.860185" lon="-1.4369">
<ele>589</ele>
<time>2016-07-26T19:38:02Z</time>
</trkpt>
<trkpt lat="37.860123333333334" lon="-1.4368933333333334">
<ele>590</ele>
<time>2016-07-26T19:38:04Z</time>
</trkpt>
<trkpt lat="37.86006" lon="-1.4368883333333333">
<ele>591</ele>
<time>2016-07-26T19:38:06Z</time>
</trkpt>
<trkpt lat="37.86000833333333" lon="-1.43689">
<ele>592</ele>
<time>2016-07-26T19:38:08Z</time>
</trkpt>
<trkpt lat="37.85995833333333" lon="-1.4369">
<ele>593</ele>
<time>2016-07-26T19:38:10Z</time>
</trkpt>
<trkpt lat="37.8599" lon="-1.43692">
<ele>593</ele>
<time>2016-07-26T19:38:12Z</time>
</trkpt>
<trkpt lat="37.85983833333333" lon="-1.4369316666666667">
<ele>594</ele>
<time>2016-07-26T19:38:14Z</time>
</trkpt>
<trkpt lat="37.85979666666666" lon="-1.436955">
<ele>595</ele>
<time>2016-07-26T19:38:16Z</time>
</trkpt>
<trkpt lat="37.85976333333333" lon="-1.4369899999999998">
<ele>596</ele>
<time>2016-07-26T19:38:18Z</time>
</trkpt>
<trkpt lat="37.859715" lon="-1.4370266666666667">
<ele>596</ele>
<time>2016-07-26T19:38:20Z</time>
</trkpt>
<trkpt lat="37.85967166666667" lon="-1.4370616666666667">
<ele>596</ele>
<time>2016-07-26T19:38:22Z</time>
</trkpt>
<trkpt lat="37.85962833333333" lon="-1.4370816666666668">
<ele>597</ele>
<time>2016-07-26T19:38:24Z</time>
</trkpt>
<trkpt lat="37.85957333333333" lon="-1.4370983333333331">
<ele>599</ele>
<time>2016-07-26T19:38:26Z</time>
</trkpt>
<trkpt lat="37.85954166666667" lon="-1.4371316666666667">
<ele>599</ele>
<time>2016-07-26T19:38:28Z</time>
</trkpt>
<trkpt lat="37.85951" lon="-1.4371783333333332">
<ele>599</ele>
<time>2016-07-26T19:38:30Z</time>
</trkpt>
<trkpt lat="37.859458333333336" lon="-1.4372083333333334">
<ele>599</ele>
<time>2016-07-26T19:38:32Z</time>
</trkpt>
<trkpt lat="37.85937833333333" lon="-1.4372166666666668">
<ele>598</ele>
<time>2016-07-26T19:38:34Z</time>
</trkpt>
<trkpt lat="37.85931" lon="-1.4372">
<ele>597</ele>
<time>2016-07-26T19:38:36Z</time>
</trkpt>
<trkpt lat="37.85923666666667" lon="-1.4371866666666666">
<ele>597</ele>
<time>2016-07-26T19:38:38Z</time>
</trkpt>
<trkpt lat="37.85915" lon="-1.4371816666666668">
<ele>597</ele>
<time>2016-07-26T19:38:40Z</time>
</trkpt>
<trkpt lat="37.859096666666666" lon="-1.4371633333333333">
<ele>597</ele>
<time>2016-07-26T19:38:42Z</time>
</trkpt>
<trkpt lat="37.85903333333333" lon="-1.4371450000000001">
<ele>598</ele>
<time>2016-07-26T19:38:44Z</time>
</trkpt>
<trkpt lat="37.85897" lon="-1.4371416666666665">
<ele>598</ele>
<time>2016-07-26T19:38:46Z</time>
</trkpt>
<trkpt lat="37.858916666666666" lon="-1.4371316666666667">
<ele>599</ele>
<time>2016-07-26T19:38:48Z</time>
</trkpt>
<trkpt lat="37.85886666666667" lon="-1.4371166666666668">
<ele>599</ele>
<time>2016-07-26T19:38:50Z</time>
</trkpt>
<trkpt lat="37.858803333333334" lon="-1.4371166666666668">
<ele>599</ele>
<time>2016-07-26T19:38:52Z</time>
</trkpt>
<trkpt lat="37.858738333333335" lon="-1.4371133333333332">
<ele>600</ele>
<time>2016-07-26T19:38:54Z</time>
</trkpt>
<trkpt lat="37.85868" lon="-1.4371266666666667">
<ele>599</ele>
<time>2016-07-26T19:38:56Z</time>
</trkpt>
<trkpt lat="37.85861666666666" lon="-1.4371566666666666">
<ele>599</ele>
<time>2016-07-26T19:38:58Z</time>
</trkpt>
<trkpt lat="37.85854" lon="-1.437195">
<ele>598</ele>
<time>2016-07-26T19:39:00Z</time>
</trkpt>
<trkpt lat="37.858473333333336" lon="-1.437235">
<ele>597</ele>
<time>2016-07-26T19:39:02Z</time>
</trkpt>
<trkpt lat="37.858405" lon="-1.4372833333333332">
<ele>596</ele>
<time>2016-07-26T19:39:04Z</time>
</trkpt>
<trkpt lat="37.858325" lon="-1.43735">
<ele>596</ele>
<time>2016-07-26T19:39:06Z</time>
</trkpt>
<trkpt lat="37.85827333333334" lon="-1.4374183333333332">
<ele>595</ele>
<time>2016-07-26T19:39:08Z</time>
</trkpt>
<trkpt lat="37.85823166666667" lon="-1.4374933333333333">
<ele>594</ele>
<time>2016-07-26T19:39:10Z</time>
</trkpt>
<trkpt lat="37.858176666666665" lon="-1.4375666666666667">
<ele>593</ele>
<time>2016-07-26T19:39:12Z</time>
</trkpt>
<trkpt lat="37.85812166666666" lon="-1.43764">
<ele>593</ele>
<time>2016-07-26T19:39:14Z</time>
</trkpt>
<trkpt lat="37.85807" lon="-1.4377216666666666">
<ele>592</ele>
<time>2016-07-26T19:39:16Z</time>
</trkpt>
<trkpt lat="37.85801666666667" lon="-1.4378066666666667">
<ele>591</ele>
<time>2016-07-26T19:39:18Z</time>
</trkpt>
<trkpt lat="37.85796666666667" lon="-1.4379">
<ele>590</ele>
<time>2016-07-26T19:39:20Z</time>
</trkpt>
<trkpt lat="37.857913333333336" lon="-1.4380066666666667">
<ele>589</ele>
<time>2016-07-26T19:39:22Z</time>
</trkpt>
<trkpt lat="37.857868333333336" lon="-1.4381016666666668">
<ele>588</ele>
<time>2016-07-26T19:39:24Z</time>
</trkpt>
<trkpt lat="37.857823333333336" lon="-1.4381883333333334">
<ele>587</ele>
<time>2016-07-26T19:39:26Z</time>
</trkpt>
<trkpt lat="37.85777333333333" lon="-1.4382783333333333">
<ele>585</ele>
<time>2016-07-26T19:39:28Z</time>
</trkpt>
<trkpt lat="37.85771333333333" lon="-1.4383583333333334">
<ele>584</ele>
<time>2016-07-26T19:39:30Z</time>
</trkpt>
<trkpt lat="37.857643333333336" lon="-1.4384466666666667">
<ele>583</ele>
<time>2016-07-26T19:39:32Z</time>
</trkpt>
<trkpt lat="37.85758333333333" lon="-1.4385466666666666">
<ele>582</ele>
<time>2016-07-26T19:39:34Z</time>
</trkpt>
<trkpt lat="37.85753666666667" lon="-1.4386583333333334">
<ele>581</ele>
<time>2016-07-26T19:39:36Z</time>
</trkpt>
<trkpt lat="37.857508333333335" lon="-1.4387833333333333">
<ele>581</ele>
<time>2016-07-26T19:39:38Z</time>
</trkpt>
<trkpt lat="37.857504999999996" lon="-1.4389166666666666">
<ele>581</ele>
<time>2016-07-26T19:39:40Z</time>
</trkpt>
<trkpt lat="37.857488333333336" lon="-1.4390433333333335">
<ele>580</ele>
<time>2016-07-26T19:39:42Z</time>
</trkpt>
<trkpt lat="37.85746833333334" lon="-1.4391666666666665">
<ele>580</ele>
<time>2016-07-26T19:39:44Z</time>
</trkpt>
<trkpt lat="37.85745333333333" lon="-1.4392733333333332">
<ele>579</ele>
<time>2016-07-26T19:39:46Z</time>
</trkpt>
<trkpt lat="37.85743333333333" lon="-1.4393883333333333">
<ele>578</ele>
<time>2016-07-26T19:39:48Z</time>
</trkpt>
<trkpt lat="37.85742166666667" lon="-1.4395183333333332">
<ele>577</ele>
<time>2016-07-26T19:39:50Z</time>
</trkpt>
<trkpt lat="37.85742666666667" lon="-1.4396583333333333">
<ele>577</ele>
<time>2016-07-26T19:39:52Z</time>
</trkpt>
<trkpt lat="37.85743" lon="-1.4398">
<ele>576</ele>
<time>2016-07-26T19:39:54Z</time>
</trkpt>
<trkpt lat="37.857418333333335" lon="-1.4399316666666666">
<ele>576</ele>
<time>2016-07-26T19:39:56Z</time>
</trkpt>
<trkpt lat="37.857396666666666" lon="-1.4400583333333332">
<ele>575</ele>
<time>2016-07-26T19:39:58Z</time>
</trkpt>
<trkpt lat="37.85737666666667" lon="-1.4401716666666668">
<ele>574</ele>
<time>2016-07-26T19:40:00Z</time>
</trkpt>
<trkpt lat="37.85736333333333" lon="-1.4402916666666667">
<ele>574</ele>
<time>2016-07-26T19:40:02Z</time>
</trkpt>
<trkpt lat="37.85734333333333" lon="-1.44041">
<ele>573</ele>
<time>2016-07-26T19:40:04Z</time>
</trkpt>
<trkpt lat="37.85733333333334" lon="-1.44052">
<ele>572</ele>
<time>2016-07-26T19:40:06Z</time>
</trkpt>
<trkpt lat="37.85734166666667" lon="-1.4406299999999999">
<ele>571</ele>
<time>2016-07-26T19:40:08Z</time>
</trkpt>
<trkpt lat="37.85733166666667" lon="-1.4407466666666666">
<ele>570</ele>
<time>2016-07-26T19:40:10Z</time>
</trkpt>
<trkpt lat="37.857324999999996" lon="-1.44086">
<ele>568</ele>
<time>2016-07-26T19:40:12Z</time>
</trkpt>
<trkpt lat="37.857305" lon="-1.4409866666666666">
<ele>567</ele>
<time>2016-07-26T19:40:14Z</time>
</trkpt>
<trkpt lat="37.85727" lon="-1.4411116666666668">
<ele>566</ele>
<time>2016-07-26T19:40:16Z</time>
</trkpt>
<trkpt lat="37.857240000000004" lon="-1.4412366666666667">
<ele>565</ele>
<time>2016-07-26T19:40:18Z</time>
</trkpt>
<trkpt lat="37.857218333333336" lon="-1.4413550000000002">
<ele>565</ele>
<time>2016-07-26T19:40:20Z</time>
</trkpt>
<trkpt lat="37.857198333333336" lon="-1.44146">
<ele>564</ele>
<time>2016-07-26T19:40:22Z</time>
</trkpt>
<trkpt lat="37.85717666666667" lon="-1.4415833333333334">
<ele>564</ele>
<time>2016-07-26T19:40:24Z</time>
</trkpt>
<trkpt lat="37.85715833333334" lon="-1.4417133333333332">
<ele>564</ele>
<time>2016-07-26T19:40:26Z</time>
</trkpt>
<trkpt lat="37.857139999999994" lon="-1.4418316666666666">
<ele>564</ele>
<time>2016-07-26T19:40:28Z</time>
</trkpt>
<trkpt lat="37.857099999999996" lon="-1.4419533333333334">
<ele>564</ele>
<time>2016-07-26T19:40:30Z</time>
</trkpt>
<trkpt lat="37.85707333333333" lon="-1.442055">
<ele>564</ele>
<time>2016-07-26T19:40:32Z</time>
</trkpt>
<trkpt lat="37.85704666666666" lon="-1.4421516666666667">
<ele>563</ele>
<time>2016-07-26T19:40:34Z</time>
</trkpt>
<trkpt lat="37.857005" lon="-1.442255">
<ele>563</ele>
<time>2016-07-26T19:40:36Z</time>
</trkpt>
<trkpt lat="37.85696166666666" lon="-1.4423366666666666">
<ele>563</ele>
<time>2016-07-26T19:40:38Z</time>
</trkpt>
<trkpt lat="37.85693666666667" lon="-1.4424116666666666">
<ele>563</ele>
<time>2016-07-26T19:40:40Z</time>
</trkpt>
<trkpt lat="37.85690833333333" lon="-1.4425">
<ele>563</ele>
<time>2016-07-26T19:40:42Z</time>
</trkpt>
<trkpt lat="37.85687" lon="-1.4425833333333333">
<ele>562</ele>
<time>2016-07-26T19:40:44Z</time>
</trkpt>
<trkpt lat="37.856833333333334" lon="-1.44266">
<ele>562</ele>
<time>2016-07-26T19:40:46Z</time>
</trkpt>
<trkpt lat="37.85679666666667" lon="-1.4427466666666668">
<ele>561</ele>
<time>2016-07-26T19:40:48Z</time>
</trkpt>
<trkpt lat="37.85677333333333" lon="-1.4428349999999999">
<ele>561</ele>
<time>2016-07-26T19:40:50Z</time>
</trkpt>
<trkpt lat="37.85676" lon="-1.4429283333333334">
<ele>560</ele>
<time>2016-07-26T19:40:52Z</time>
</trkpt>
<trkpt lat="37.856745000000004" lon="-1.44303">
<ele>559</ele>
<time>2016-07-26T19:40:54Z</time>
</trkpt>
<trkpt lat="37.856716666666664" lon="-1.4431250000000002">
<ele>557</ele>
<time>2016-07-26T19:40:56Z</time>
</trkpt>
<trkpt lat="37.85669666666667" lon="-1.44321">
<ele>556</ele>
<time>2016-07-26T19:40:58Z</time>
</trkpt>
<trkpt lat="37.856665" lon="-1.4432933333333333">
<ele>554</ele>
<time>2016-07-26T19:41:00Z</time>
</trkpt>
<trkpt lat="37.85662333333333" lon="-1.4433783333333334">
<ele>553</ele>
<time>2016-07-26T19:41:02Z</time>
</trkpt>
<trkpt lat="37.85659166666667" lon="-1.4434666666666667">
<ele>552</ele>
<time>2016-07-26T19:41:04Z</time>
</trkpt>
<trkpt lat="37.856570000000005" lon="-1.443575">
<ele>551</ele>
<time>2016-07-26T19:41:06Z</time>
</trkpt>
<trkpt lat="37.85653833333333" lon="-1.4436866666666668">
<ele>550</ele>
<time>2016-07-26T19:41:08Z</time>
</trkpt>
<trkpt lat="37.85650833333333" lon="-1.443805">
<ele>549</ele>
<time>2016-07-26T19:41:10Z</time>
</trkpt>
<trkpt lat="37.85649" lon="-1.4439283333333333">
<ele>548</ele>
<time>2016-07-26T19:41:12Z</time>
</trkpt>
<trkpt lat="37.85648666666667" lon="-1.4440466666666665">
<ele>547</ele>
<time>2016-07-26T19:41:14Z</time>
</trkpt>
<trkpt lat="37.856485" lon="-1.444165">
<ele>546</ele>
<time>2016-07-26T19:41:16Z</time>
</trkpt>
<trkpt lat="37.856495" lon="-1.4442583333333334">
<ele>545</ele>
<time>2016-07-26T19:41:18Z</time>
</trkpt>
<trkpt lat="37.85650166666667" lon="-1.4443433333333333">
<ele>544</ele>
<time>2016-07-26T19:41:20Z</time>
</trkpt>
<trkpt lat="37.85649166666667" lon="-1.4444466666666667">
<ele>541</ele>
<time>2016-07-26T19:41:22Z</time>
</trkpt>
<trkpt lat="37.85649333333333" lon="-1.4445450000000002">
<ele>539</ele>
<time>2016-07-26T19:41:24Z</time>
</trkpt>
<trkpt lat="37.856485" lon="-1.44465">
<ele>537</ele>
<time>2016-07-26T19:41:26Z</time>
</trkpt>
<trkpt lat="37.85644666666667" lon="-1.4447616666666665">
<ele>535</ele>
<time>2016-07-26T19:41:28Z</time>
</trkpt>
<trkpt lat="37.856411666666666" lon="-1.4448666666666665">
<ele>533</ele>
<time>2016-07-26T19:41:30Z</time>
</trkpt>
<trkpt lat="37.856385" lon="-1.44497">
<ele>532</ele>
<time>2016-07-26T19:41:32Z</time>
</trkpt>
<trkpt lat="37.85632666666667" lon="-1.4450766666666666">
<ele>529</ele>
<time>2016-07-26T19:41:34Z</time>
</trkpt>
<trkpt lat="37.856276666666666" lon="-1.4451733333333334">
<ele>528</ele>
<time>2016-07-26T19:41:36Z</time>
</trkpt>
<trkpt lat="37.85624166666666" lon="-1.4452716666666667">
<ele>526</ele>
<time>2016-07-26T19:41:38Z</time>
</trkpt>
<trkpt lat="37.856175" lon="-1.4453566666666666">
<ele>524</ele>
<time>2016-07-26T19:41:40Z</time>
</trkpt>
<trkpt lat="37.856139999999996" lon="-1.4454333333333333">
<ele>523</ele>
<time>2016-07-26T19:41:42Z</time>
</trkpt>
<trkpt lat="37.856139999999996" lon="-1.4455">
<ele>522</ele>
<time>2016-07-26T19:41:44Z</time>
</trkpt>
<trkpt lat="37.856118333333335" lon="-1.4455883333333333">
<ele>521</ele>
<time>2016-07-26T19:41:46Z</time>
</trkpt>
<trkpt lat="37.85608666666667" lon="-1.4456716666666667">
<ele>520</ele>
<time>2016-07-26T19:41:48Z</time>
</trkpt>
<trkpt lat="37.85609" lon="-1.445736666666667">
<ele>518</ele>
<time>2016-07-26T19:41:50Z</time>
</trkpt>
<trkpt lat="37.85606833333333" lon="-1.4458216666666668">
<ele>517</ele>
<time>2016-07-26T19:41:52Z</time>
</trkpt>
<trkpt lat="37.85604333333333" lon="-1.4459016666666666">
<ele>515</ele>
<time>2016-07-26T19:41:54Z</time>
</trkpt>
<trkpt lat="37.85604166666667" lon="-1.4459833333333334">
<ele>513</ele>
<time>2016-07-26T19:41:56Z</time>
</trkpt>
<trkpt lat="37.856030000000004" lon="-1.4460799999999998">
<ele>511</ele>
<time>2016-07-26T19:41:58Z</time>
</trkpt>
<trkpt lat="37.85601666666666" lon="-1.4461816666666667">
<ele>509</ele>
<time>2016-07-26T19:42:00Z</time>
</trkpt>
<trkpt lat="37.85601166666667" lon="-1.4462799999999998">
<ele>508</ele>
<time>2016-07-26T19:42:02Z</time>
</trkpt>
<trkpt lat="37.85599333333333" lon="-1.4463666666666666">
<ele>506</ele>
<time>2016-07-26T19:42:04Z</time>
</trkpt>
<trkpt lat="37.855940000000004" lon="-1.4464333333333332">
<ele>505</ele>
<time>2016-07-26T19:42:06Z</time>
</trkpt>
<trkpt lat="37.85588666666667" lon="-1.4464833333333333">
<ele>503</ele>
<time>2016-07-26T19:42:08Z</time>
</trkpt>
<trkpt lat="37.85584666666667" lon="-1.4465299999999999">
<ele>501</ele>
<time>2016-07-26T19:42:10Z</time>
</trkpt>
<trkpt lat="37.85579166666666" lon="-1.4465933333333332">
<ele>500</ele>
<time>2016-07-26T19:42:12Z</time>
</trkpt>
<trkpt lat="37.85574" lon="-1.446695">
<ele>498</ele>
<time>2016-07-26T19:42:14Z</time>
</trkpt>
<trkpt lat="37.855713333333334" lon="-1.4467949999999998">
<ele>497</ele>
<time>2016-07-26T19:42:16Z</time>
</trkpt>
<trkpt lat="37.855686666666664" lon="-1.4468999999999999">
<ele>496</ele>
<time>2016-07-26T19:42:18Z</time>
</trkpt>
<trkpt lat="37.85566166666667" lon="-1.4470200000000002">
<ele>494</ele>
<time>2016-07-26T19:42:20Z</time>
</trkpt>
<trkpt lat="37.855635" lon="-1.4471366666666665">
<ele>492</ele>
<time>2016-07-26T19:42:22Z</time>
</trkpt>
<trkpt lat="37.855599999999995" lon="-1.44727">
<ele>490</ele>
<time>2016-07-26T19:42:24Z</time>
</trkpt>
<trkpt lat="37.85556333333333" lon="-1.4473916666666669">
<ele>490</ele>
<time>2016-07-26T19:42:26Z</time>
</trkpt>
<trkpt lat="37.855533333333334" lon="-1.4475116666666668">
<ele>489</ele>
<time>2016-07-26T19:42:28Z</time>
</trkpt>
<trkpt lat="37.855485" lon="-1.4476283333333333">
<ele>487</ele>
<time>2016-07-26T19:42:30Z</time>
</trkpt>
<trkpt lat="37.85541" lon="-1.447705">
<ele>486</ele>
<time>2016-07-26T19:42:32Z</time>
</trkpt>
<trkpt lat="37.855331666666665" lon="-1.4477483333333334">
<ele>485</ele>
<time>2016-07-26T19:42:34Z</time>
</trkpt>
<trkpt lat="37.85523833333333" lon="-1.4478083333333334">
<ele>483</ele>
<time>2016-07-26T19:42:36Z</time>
</trkpt>
<trkpt lat="37.85516500000001" lon="-1.4478683333333333">
<ele>482</ele>
<time>2016-07-26T19:42:38Z</time>
</trkpt>
<trkpt lat="37.855105" lon="-1.4479083333333334">
<ele>482</ele>
<time>2016-07-26T19:42:40Z</time>
</trkpt>
<trkpt lat="37.855030000000006" lon="-1.4479583333333332">
<ele>481</ele>
<time>2016-07-26T19:42:42Z</time>
</trkpt>
<trkpt lat="37.854945" lon="-1.4480183333333334">
<ele>481</ele>
<time>2016-07-26T19:42:44Z</time>
</trkpt>
<trkpt lat="37.85487666666667" lon="-1.44809">
<ele>481</ele>
<time>2016-07-26T19:42:46Z</time>
</trkpt>
<trkpt lat="37.85481" lon="-1.4481933333333332">
<ele>481</ele>
<time>2016-07-26T19:42:48Z</time>
</trkpt>
<trkpt lat="37.85473666666667" lon="-1.4482849999999998">
<ele>481</ele>
<time>2016-07-26T19:42:50Z</time>
</trkpt>
<trkpt lat="37.854675" lon="-1.4483516666666667">
<ele>481</ele>
<time>2016-07-26T19:42:52Z</time>
</trkpt>
<trkpt lat="37.85463333333333" lon="-1.4484133333333333">
<ele>482</ele>
<time>2016-07-26T19:42:54Z</time>
</trkpt>
<trkpt lat="37.854585" lon="-1.4484916666666665">
<ele>482</ele>
<time>2016-07-26T19:42:56Z</time>
</trkpt>
<trkpt lat="37.85455" lon="-1.4485683333333335">
<ele>482</ele>
<time>2016-07-26T19:42:58Z</time>
</trkpt>
<trkpt lat="37.85452166666666" lon="-1.4486616666666667">
<ele>482</ele>
<time>2016-07-26T19:43:00Z</time>
</trkpt>
<trkpt lat="37.85448333333333" lon="-1.4487683333333334">
<ele>482</ele>
<time>2016-07-26T19:43:02Z</time>
</trkpt>
<trkpt lat="37.85447166666667" lon="-1.4489049999999999">
<ele>484</ele>
<time>2016-07-26T19:43:04Z</time>
</trkpt>
<trkpt lat="37.85447" lon="-1.4490366666666668">
<ele>484</ele>
<time>2016-07-26T19:43:06Z</time>
</trkpt>
<trkpt lat="37.85445166666667" lon="-1.449165">
<ele>485</ele>
<time>2016-07-26T19:43:08Z</time>
</trkpt>
<trkpt lat="37.854441666666666" lon="-1.4492699999999998">
<ele>485</ele>
<time>2016-07-26T19:43:10Z</time>
</trkpt>
<trkpt lat="37.854434999999995" lon="-1.44936">
<ele>485</ele>
<time>2016-07-26T19:43:12Z</time>
</trkpt>
<trkpt lat="37.85442166666667" lon="-1.449435">
<ele>485</ele>
<time>2016-07-26T19:43:14Z</time>
</trkpt>
<trkpt lat="37.85440833333334" lon="-1.4495049999999998">
<ele>485</ele>
<time>2016-07-26T19:43:16Z</time>
</trkpt>
<trkpt lat="37.85438" lon="-1.4495283333333333">
<ele>485</ele>
<time>2016-07-26T19:43:18Z</time>
</trkpt>
<trkpt lat="37.854351666666666" lon="-1.449465">
<ele>485</ele>
<time>2016-07-26T19:43:20Z</time>
</trkpt>
<trkpt lat="37.85434" lon="-1.4493566666666666">
<ele>484</ele>
<time>2016-07-26T19:43:22Z</time>
</trkpt>
<trkpt lat="37.85438666666666" lon="-1.4491966666666667">
<ele>484</ele>
<time>2016-07-26T19:43:24Z</time>
</trkpt>
<trkpt lat="37.85447833333333" lon="-1.4489883333333333">
<ele>483</ele>
<time>2016-07-26T19:43:26Z</time>
</trkpt>
<trkpt lat="37.854569999999995" lon="-1.4487866666666667">
<ele>483</ele>
<time>2016-07-26T19:43:28Z</time>
</trkpt>
<trkpt lat="37.85465333333333" lon="-1.4485766666666666">
<ele>482</ele>
<time>2016-07-26T19:43:30Z</time>
</trkpt>
<trkpt lat="37.854735" lon="-1.44836">
<ele>482</ele>
<time>2016-07-26T19:43:32Z</time>
</trkpt>
<trkpt lat="37.854820000000004" lon="-1.4481533333333334">
<ele>481</ele>
<time>2016-07-26T19:43:34Z</time>
</trkpt>
<trkpt lat="37.854910000000004" lon="-1.4479483333333334">
<ele>481</ele>
<time>2016-07-26T19:43:36Z</time>
</trkpt>
<trkpt lat="37.855000000000004" lon="-1.44773">
<ele>481</ele>
<time>2016-07-26T19:43:38Z</time>
</trkpt>
<trkpt lat="37.85509166666667" lon="-1.4474966666666667">
<ele>482</ele>
<time>2016-07-26T19:43:40Z</time>
</trkpt>
<trkpt lat="37.855195" lon="-1.4472666666666667">
<ele>485</ele>
<time>2016-07-26T19:43:42Z</time>
</trkpt>
<trkpt lat="37.855291666666666" lon="-1.4470466666666666">
<ele>487</ele>
<time>2016-07-26T19:43:44Z</time>
</trkpt>
<trkpt lat="37.855381666666666" lon="-1.4468483333333335">
<ele>489</ele>
<time>2016-07-26T19:43:46Z</time>
</trkpt>
<trkpt lat="37.85547833333333" lon="-1.4466533333333333">
<ele>491</ele>
<time>2016-07-26T19:43:48Z</time>
</trkpt>
<trkpt lat="37.855565" lon="-1.4464700000000001">
<ele>493</ele>
<time>2016-07-26T19:43:50Z</time>
</trkpt>
<trkpt lat="37.85565" lon="-1.4463016666666666">
<ele>494</ele>
<time>2016-07-26T19:43:52Z</time>
</trkpt>
<trkpt lat="37.855758333333334" lon="-1.446108333333333">
<ele>495</ele>
<time>2016-07-26T19:43:54Z</time>
</trkpt>
<trkpt lat="37.85585666666667" lon="-1.44589">
<ele>497</ele>
<time>2016-07-26T19:43:56Z</time>
</trkpt>
<trkpt lat="37.855938333333334" lon="-1.4457033333333333">
<ele>498</ele>
<time>2016-07-26T19:43:58Z</time>
</trkpt>
<trkpt lat="37.85601833333333" lon="-1.445515">
<ele>498</ele>
<time>2016-07-26T19:44:00Z</time>
</trkpt>
<trkpt lat="37.856094999999996" lon="-1.4453">
<ele>499</ele>
<time>2016-07-26T19:44:02Z</time>
</trkpt>
<trkpt lat="37.85617333333333" lon="-1.4451">
<ele>499</ele>
<time>2016-07-26T19:44:04Z</time>
</trkpt>
<trkpt lat="37.85626666666667" lon="-1.4449">
<ele>499</ele>
<time>2016-07-26T19:44:06Z</time>
</trkpt>
<trkpt lat="37.85636833333333" lon="-1.4446866666666667">
<ele>501</ele>
<time>2016-07-26T19:44:08Z</time>
</trkpt>
<trkpt lat="37.85646666666666" lon="-1.44449">
<ele>502</ele>
<time>2016-07-26T19:44:10Z</time>
</trkpt>
<trkpt lat="37.85657666666667" lon="-1.4442983333333332">
<ele>502</ele>
<time>2016-07-26T19:44:12Z</time>
</trkpt>
<trkpt lat="37.85671" lon="-1.4440950000000001">
<ele>502</ele>
<time>2016-07-26T19:44:14Z</time>
</trkpt>
<trkpt lat="37.85685" lon="-1.4438966666666666">
<ele>503</ele>
<time>2016-07-26T19:44:16Z</time>
</trkpt>
<trkpt lat="37.856988333333334" lon="-1.4436983333333333">
<ele>503</ele>
<time>2016-07-26T19:44:18Z</time>
</trkpt>
<trkpt lat="37.857124999999996" lon="-1.44348">
<ele>503</ele>
<time>2016-07-26T19:44:20Z</time>
</trkpt>
<trkpt lat="37.857263333333336" lon="-1.4432566666666666">
<ele>503</ele>
<time>2016-07-26T19:44:22Z</time>
</trkpt>
<trkpt lat="37.85740333333333" lon="-1.4430466666666668">
<ele>503</ele>
<time>2016-07-26T19:44:24Z</time>
</trkpt>
<trkpt lat="37.857553333333335" lon="-1.4428666666666667">
<ele>503</ele>
<time>2016-07-26T19:44:26Z</time>
</trkpt>
<trkpt lat="37.85771333333333" lon="-1.44272">
<ele>503</ele>
<time>2016-07-26T19:44:28Z</time>
</trkpt>
<trkpt lat="37.857868333333336" lon="-1.4425533333333334">
<ele>501</ele>
<time>2016-07-26T19:44:30Z</time>
</trkpt>
<trkpt lat="37.858018333333334" lon="-1.4423933333333334">
<ele>501</ele>
<time>2016-07-26T19:44:32Z</time>
</trkpt>
<trkpt lat="37.85816" lon="-1.4422233333333334">
<ele>501</ele>
<time>2016-07-26T19:44:34Z</time>
</trkpt>
<trkpt lat="37.858285" lon="-1.4420633333333333">
<ele>501</ele>
<time>2016-07-26T19:44:36Z</time>
</trkpt>
<trkpt lat="37.858401666666666" lon="-1.4418900000000001">
<ele>501</ele>
<time>2016-07-26T19:44:38Z</time>
</trkpt>
<trkpt lat="37.85853" lon="-1.44171">
<ele>501</ele>
<time>2016-07-26T19:44:40Z</time>
</trkpt>
<trkpt lat="37.858668333333334" lon="-1.4415333333333333">
<ele>501</ele>
<time>2016-07-26T19:44:42Z</time>
</trkpt>
<trkpt lat="37.858801666666665" lon="-1.44135">
<ele>501</ele>
<time>2016-07-26T19:44:44Z</time>
</trkpt>
<trkpt lat="37.858938333333334" lon="-1.4411566666666666">
<ele>501</ele>
<time>2016-07-26T19:44:46Z</time>
</trkpt>
<trkpt lat="37.85906833333333" lon="-1.4409633333333334">
<ele>501</ele>
<time>2016-07-26T19:44:48Z</time>
</trkpt>
<trkpt lat="37.85919833333333" lon="-1.4407716666666666">
<ele>501</ele>
<time>2016-07-26T19:44:50Z</time>
</trkpt>
<trkpt lat="37.859325" lon="-1.4405683333333332">
<ele>502</ele>
<time>2016-07-26T19:44:52Z</time>
</trkpt>
<trkpt lat="37.85945666666667" lon="-1.4403716666666668">
<ele>502</ele>
<time>2016-07-26T19:44:54Z</time>
</trkpt>
<trkpt lat="37.859605" lon="-1.440165">
<ele>503</ele>
<time>2016-07-26T19:44:56Z</time>
</trkpt>
<trkpt lat="37.85976333333333" lon="-1.4399616666666666">
<ele>503</ele>
<time>2016-07-26T19:44:58Z</time>
</trkpt>
<trkpt lat="37.85991666666666" lon="-1.4397616666666666">
<ele>504</ele>
<time>2016-07-26T19:45:00Z</time>
</trkpt>
<trkpt lat="37.860065" lon="-1.439555">
<ele>504</ele>
<time>2016-07-26T19:45:02Z</time>
</trkpt>
<trkpt lat="37.860216666666666" lon="-1.4393566666666668">
<ele>504</ele>
<time>2016-07-26T19:45:04Z</time>
</trkpt>
<trkpt lat="37.86036333333333" lon="-1.4391516666666668">
<ele>505</ele>
<time>2016-07-26T19:45:06Z</time>
</trkpt>
<trkpt lat="37.860506666666666" lon="-1.4389516666666669">
<ele>505</ele>
<time>2016-07-26T19:45:08Z</time>
</trkpt>
<trkpt lat="37.860643333333336" lon="-1.4387366666666668">
<ele>506</ele>
<time>2016-07-26T19:45:10Z</time>
</trkpt>
<trkpt lat="37.86076166666667" lon="-1.4385433333333335">
<ele>507</ele>
<time>2016-07-26T19:45:12Z</time>
</trkpt>
<trkpt lat="37.86087333333333" lon="-1.4383633333333332">
<ele>508</ele>
<time>2016-07-26T19:45:14Z</time>
</trkpt>
<trkpt lat="37.860985" lon="-1.4381883333333334">
<ele>509</ele>
<time>2016-07-26T19:45:16Z</time>
</trkpt>
<trkpt lat="37.86109" lon="-1.4380266666666666">
<ele>511</ele>
<time>2016-07-26T19:45:18Z</time>
</trkpt>
<trkpt lat="37.861175" lon="-1.4378683333333333">
<ele>513</ele>
<time>2016-07-26T19:45:20Z</time>
</trkpt>
<trkpt lat="37.861239999999995" lon="-1.437705">
<ele>515</ele>
<time>2016-07-26T19:45:22Z</time>
</trkpt>
<trkpt lat="37.861290000000004" lon="-1.4375633333333333">
<ele>517</ele>
<time>2016-07-26T19:45:24Z</time>
</trkpt>
<trkpt lat="37.86131833333333" lon="-1.437445">
<ele>519</ele>
<time>2016-07-26T19:45:26Z</time>
</trkpt>
<trkpt lat="37.861353333333334" lon="-1.437315">
<ele>521</ele>
<time>2016-07-26T19:45:28Z</time>
</trkpt>
<trkpt lat="37.86139333333333" lon="-1.437185">
<ele>522</ele>
<time>2016-07-26T19:45:30Z</time>
</trkpt>
<trkpt lat="37.861421666666665" lon="-1.4370616666666667">
<ele>523</ele>
<time>2016-07-26T19:45:32Z</time>
</trkpt>
<trkpt lat="37.861446666666666" lon="-1.4369433333333332">
<ele>524</ele>
<time>2016-07-26T19:45:34Z</time>
</trkpt>
<trkpt lat="37.86149" lon="-1.4368516666666666">
<ele>525</ele>
<time>2016-07-26T19:45:36Z</time>
</trkpt>
<trkpt lat="37.861608333333336" lon="-1.4368416666666666">
<ele>526</ele>
<time>2016-07-26T19:45:38Z</time>
</trkpt>
<trkpt lat="37.861605000000004" lon="-1.436645">
<ele>526</ele>
<time>2016-07-26T19:45:40Z</time>
</trkpt>
<trkpt lat="37.86161166666667" lon="-1.4364866666666667">
<ele>527</ele>
<time>2016-07-26T19:45:42Z</time>
</trkpt>
<trkpt lat="37.86163166666667" lon="-1.436365">
<ele>528</ele>
<time>2016-07-26T19:45:44Z</time>
</trkpt>
<trkpt lat="37.861665" lon="-1.4362300000000001">
<ele>529</ele>
<time>2016-07-26T19:45:46Z</time>
</trkpt>
<trkpt lat="37.86168833333333" lon="-1.4360883333333334">
<ele>530</ele>
<time>2016-07-26T19:45:48Z</time>
</trkpt>
<trkpt lat="37.861718333333336" lon="-1.4359433333333333">
<ele>531</ele>
<time>2016-07-26T19:45:50Z</time>
</trkpt>
<trkpt lat="37.86176" lon="-1.4357933333333333">
<ele>532</ele>
<time>2016-07-26T19:45:52Z</time>
</trkpt>
<trkpt lat="37.8618" lon="-1.4356283333333333">
<ele>533</ele>
<time>2016-07-26T19:45:54Z</time>
</trkpt>
<trkpt lat="37.86183666666667" lon="-1.4354616666666669">
<ele>535</ele>
<time>2016-07-26T19:45:56Z</time>
</trkpt>
<trkpt lat="37.86188" lon="-1.4352883333333333">
<ele>536</ele>
<time>2016-07-26T19:45:58Z</time>
</trkpt>
<trkpt lat="37.86193333333333" lon="-1.4351133333333335">
<ele>538</ele>
<time>2016-07-26T19:46:00Z</time>
</trkpt>
<trkpt lat="37.86197333333334" lon="-1.4349433333333332">
<ele>539</ele>
<time>2016-07-26T19:46:02Z</time>
</trkpt>
<trkpt lat="37.86201166666667" lon="-1.434795">
<ele>541</ele>
<time>2016-07-26T19:46:04Z</time>
</trkpt>
<trkpt lat="37.86206" lon="-1.4346649999999999">
<ele>542</ele>
<time>2016-07-26T19:46:06Z</time>
</trkpt>
<trkpt lat="37.86210333333334" lon="-1.4345166666666667">
<ele>543</ele>
<time>2016-07-26T19:46:08Z</time>
</trkpt>
<trkpt lat="37.862145000000005" lon="-1.434355">
<ele>545</ele>
<time>2016-07-26T19:46:10Z</time>
</trkpt>
<trkpt lat="37.86219833333334" lon="-1.4341983333333335">
<ele>547</ele>
<time>2016-07-26T19:46:12Z</time>
</trkpt>
<trkpt lat="37.86224333333333" lon="-1.43403">
<ele>550</ele>
<time>2016-07-26T19:46:14Z</time>
</trkpt>
<trkpt lat="37.86227833333333" lon="-1.4338466666666667">
<ele>552</ele>
<time>2016-07-26T19:46:16Z</time>
</trkpt>
<trkpt lat="37.86231333333333" lon="-1.4336616666666666">
<ele>555</ele>
<time>2016-07-26T19:46:18Z</time>
</trkpt>
<trkpt lat="37.862345" lon="-1.4334883333333333">
<ele>559</ele>
<time>2016-07-26T19:46:20Z</time>
</trkpt>
<trkpt lat="37.86238166666667" lon="-1.4333416666666667">
<ele>561</ele>
<time>2016-07-26T19:46:22Z</time>
</trkpt>
<trkpt lat="37.86241333333333" lon="-1.4332066666666667">
<ele>565</ele>
<time>2016-07-26T19:46:24Z</time>
</trkpt>
<trkpt lat="37.86244666666666" lon="-1.4330683333333334">
<ele>566</ele>
<time>2016-07-26T19:46:26Z</time>
</trkpt>
<trkpt lat="37.862475" lon="-1.43293">
<ele>567</ele>
<time>2016-07-26T19:46:28Z</time>
</trkpt>
<trkpt lat="37.862515" lon="-1.4327716666666668">
<ele>568</ele>
<time>2016-07-26T19:46:30Z</time>
</trkpt>
<trkpt lat="37.86255166666667" lon="-1.4325949999999998">
<ele>572</ele>
<time>2016-07-26T19:46:32Z</time>
</trkpt>
<trkpt lat="37.862605" lon="-1.4324283333333334">
<ele>574</ele>
<time>2016-07-26T19:46:34Z</time>
</trkpt>
<trkpt lat="37.86266833333333" lon="-1.4322599999999999">
<ele>576</ele>
<time>2016-07-26T19:46:36Z</time>
</trkpt>
<trkpt lat="37.86271166666667" lon="-1.4320783333333333">
<ele>578</ele>
<time>2016-07-26T19:46:38Z</time>
</trkpt>
<trkpt lat="37.862748333333336" lon="-1.4319133333333334">
<ele>579</ele>
<time>2016-07-26T19:46:40Z</time>
</trkpt>
<trkpt lat="37.862785" lon="-1.4317516666666668">
<ele>579</ele>
<time>2016-07-26T19:46:42Z</time>
</trkpt>
<trkpt lat="37.86283666666667" lon="-1.43158">
<ele>580</ele>
<time>2016-07-26T19:46:44Z</time>
</trkpt>
<trkpt lat="37.86291000000001" lon="-1.4313933333333333">
<ele>580</ele>
<time>2016-07-26T19:46:46Z</time>
</trkpt>
<trkpt lat="37.86297666666667" lon="-1.4312283333333333">
<ele>581</ele>
<time>2016-07-26T19:46:48Z</time>
</trkpt>
<trkpt lat="37.863025" lon="-1.4310716666666667">
<ele>582</ele>
<time>2016-07-26T19:46:50Z</time>
</trkpt>
<trkpt lat="37.86305333333333" lon="-1.4309233333333333">
<ele>583</ele>
<time>2016-07-26T19:46:52Z</time>
</trkpt>
<trkpt lat="37.863075" lon="-1.4308100000000001">
<ele>583</ele>
<time>2016-07-26T19:46:54Z</time>
</trkpt>
<trkpt lat="37.863076666666664" lon="-1.4307416666666666">
<ele>582</ele>
<time>2016-07-26T19:46:56Z</time>
</trkpt>
<trkpt lat="37.863056666666665" lon="-1.43072">
<ele>583</ele>
<time>2016-07-26T19:46:58Z</time>
</trkpt>
<trkpt lat="37.863033333333334" lon="-1.4307166666666666">
<ele>585</ele>
<time>2016-07-26T19:47:00Z</time>
</trkpt>
<trkpt lat="37.863025" lon="-1.430725">
<ele>586</ele>
<time>2016-07-26T19:47:02Z</time>
</trkpt>
<trkpt lat="37.863018333333336" lon="-1.430725">
<ele>586</ele>
<time>2016-07-26T19:47:04Z</time>
</trkpt>
<trkpt lat="37.862966666666665" lon="-1.4307216666666667">
<ele>588</ele>
<time>2016-07-26T19:47:06Z</time>
</trkpt>
<trkpt lat="37.86295" lon="-1.4307216666666667">
<ele>590</ele>
<time>2016-07-26T19:47:08Z</time>
</trkpt>
<trkpt lat="37.86293166666667" lon="-1.430715">
<ele>591</ele>
<time>2016-07-26T19:47:10Z</time>
</trkpt>
<trkpt lat="37.86290666666666" lon="-1.4306966666666667">
<ele>593</ele>
<time>2016-07-26T19:47:12Z</time>
</trkpt>
<trkpt lat="37.86288833333333" lon="-1.4306816666666666">
<ele>595</ele>
<time>2016-07-26T19:47:14Z</time>
</trkpt>
<trkpt lat="37.86286833333334" lon="-1.4306733333333335">
<ele>596</ele>
<time>2016-07-26T19:47:16Z</time>
</trkpt>
<trkpt lat="37.86284166666667" lon="-1.43068">
<ele>598</ele>
<time>2016-07-26T19:47:18Z</time>
</trkpt>
<trkpt lat="37.862835000000004" lon="-1.4306766666666666">
<ele>600</ele>
<time>2016-07-26T19:47:20Z</time>
</trkpt>
<trkpt lat="37.862835000000004" lon="-1.4306766666666666">
<ele>600</ele>
<time>2016-07-26T19:47:22Z</time>
</trkpt>
<trkpt lat="37.862833333333334" lon="-1.4305933333333334">
<ele>602</ele>
<time>2016-07-26T19:47:24Z</time>
</trkpt>
<trkpt lat="37.862838333333336" lon="-1.430545">
<ele>604</ele>
<time>2016-07-26T19:47:26Z</time>
</trkpt>
<trkpt lat="37.86283666666667" lon="-1.4305133333333333">
<ele>605</ele>
<time>2016-07-26T19:47:28Z</time>
</trkpt>
<trkpt lat="37.862825" lon="-1.43049">
<ele>607</ele>
<time>2016-07-26T19:47:30Z</time>
</trkpt>
<trkpt lat="37.862808333333334" lon="-1.4304666666666668">
<ele>609</ele>
<time>2016-07-26T19:47:32Z</time>
</trkpt>
<trkpt lat="37.862785" lon="-1.430435">
<ele>611</ele>
<time>2016-07-26T19:47:34Z</time>
</trkpt>
<trkpt lat="37.86276833333333" lon="-1.4304033333333335">
<ele>613</ele>
<time>2016-07-26T19:47:36Z</time>
</trkpt>
<trkpt lat="37.86276833333333" lon="-1.4303833333333333">
<ele>614</ele>
<time>2016-07-26T19:47:38Z</time>
</trkpt>
<trkpt lat="37.86275333333333" lon="-1.430365">
<ele>616</ele>
<time>2016-07-26T19:47:40Z</time>
</trkpt>
<trkpt lat="37.86273833333333" lon="-1.4303383333333333">
<ele>617</ele>
<time>2016-07-26T19:47:42Z</time>
</trkpt>
<trkpt lat="37.862735" lon="-1.4303116666666669">
<ele>619</ele>
<time>2016-07-26T19:47:44Z</time>
</trkpt>
<trkpt lat="37.86273166666667" lon="-1.4302716666666666">
<ele>621</ele>
<time>2016-07-26T19:47:46Z</time>
</trkpt>
<trkpt lat="37.862716666666664" lon="-1.4302366666666666">
<ele>622</ele>
<time>2016-07-26T19:47:48Z</time>
</trkpt>
<trkpt lat="37.86271" lon="-1.43021">
<ele>624</ele>
<time>2016-07-26T19:47:50Z</time>
</trkpt>
<trkpt lat="37.862705" lon="-1.4301849999999998">
<ele>626</ele>
<time>2016-07-26T19:47:52Z</time>
</trkpt>
<trkpt lat="37.86269333333333" lon="-1.4301633333333332">
<ele>628</ele>
<time>2016-07-26T19:47:54Z</time>
</trkpt>
<trkpt lat="37.862674999999996" lon="-1.4301616666666668">
<ele>629</ele>
<time>2016-07-26T19:47:56Z</time>
</trkpt>
<trkpt lat="37.86264833333333" lon="-1.4301750000000002">
<ele>630</ele>
<time>2016-07-26T19:47:58Z</time>
</trkpt>
<trkpt lat="37.86262833333333" lon="-1.4301866666666667">
<ele>632</ele>
<time>2016-07-26T19:48:00Z</time>
</trkpt>
<trkpt lat="37.86260333333333" lon="-1.4301966666666668">
<ele>633</ele>
<time>2016-07-26T19:48:02Z</time>
</trkpt>
<trkpt lat="37.86259333333333" lon="-1.4302">
<ele>634</ele>
<time>2016-07-26T19:48:04Z</time>
</trkpt>
<trkpt lat="37.86259" lon="-1.4302016666666666">
<ele>633</ele>
<time>2016-07-26T19:48:06Z</time>
</trkpt>
<trkpt lat="37.86259" lon="-1.4302016666666666">
<ele>633</ele>
<time>2016-07-26T19:48:08Z</time>
</trkpt>
<trkpt lat="37.86251" lon="-1.4301849999999998">
<ele>632</ele>
<time>2016-07-26T19:48:10Z</time>
</trkpt>
<trkpt lat="37.86249333333333" lon="-1.4302">
<ele>632</ele>
<time>2016-07-26T19:48:12Z</time>
</trkpt>
<trkpt lat="37.862478333333335" lon="-1.4302033333333335">
<ele>631</ele>
<time>2016-07-26T19:48:14Z</time>
</trkpt>
<trkpt lat="37.862431666666666" lon="-1.430225">
<ele>631</ele>
<time>2016-07-26T19:48:16Z</time>
</trkpt>
<trkpt lat="37.86237666666667" lon="-1.4302516666666667">
<ele>631</ele>
<time>2016-07-26T19:48:18Z</time>
</trkpt>
<trkpt lat="37.862325000000006" lon="-1.4302783333333333">
<ele>631</ele>
<time>2016-07-26T19:48:20Z</time>
</trkpt>
<trkpt lat="37.862269999999995" lon="-1.4303133333333333">
<ele>631</ele>
<time>2016-07-26T19:48:22Z</time>
</trkpt>
<trkpt lat="37.862206666666665" lon="-1.43035">
<ele>630</ele>
<time>2016-07-26T19:48:24Z</time>
</trkpt>
<trkpt lat="37.86215666666667" lon="-1.430385">
<ele>631</ele>
<time>2016-07-26T19:48:26Z</time>
</trkpt>
<trkpt lat="37.86210833333334" lon="-1.4304416666666666">
<ele>631</ele>
<time>2016-07-26T19:48:28Z</time>
</trkpt>
<trkpt lat="37.862065" lon="-1.4304966666666667">
<ele>631</ele>
<time>2016-07-26T19:48:30Z</time>
</trkpt>
<trkpt lat="37.862048333333334" lon="-1.4305366666666668">
<ele>631</ele>
<time>2016-07-26T19:48:32Z</time>
</trkpt>
<trkpt lat="37.86203" lon="-1.4305833333333333">
<ele>631</ele>
<time>2016-07-26T19:48:34Z</time>
</trkpt>
<trkpt lat="37.862001666666664" lon="-1.43064">
<ele>631</ele>
<time>2016-07-26T19:48:36Z</time>
</trkpt>
<trkpt lat="37.86197666666667" lon="-1.4306783333333333">
<ele>631</ele>
<time>2016-07-26T19:48:38Z</time>
</trkpt>
<trkpt lat="37.861943333333336" lon="-1.4307166666666666">
<ele>631</ele>
<time>2016-07-26T19:48:40Z</time>
</trkpt>
<trkpt lat="37.861911666666664" lon="-1.4307466666666668">
<ele>631</ele>
<time>2016-07-26T19:48:42Z</time>
</trkpt>
<trkpt lat="37.861898333333336" lon="-1.4307666666666667">
<ele>632</ele>
<time>2016-07-26T19:48:44Z</time>
</trkpt>
<trkpt lat="37.86189" lon="-1.4307883333333333">
<ele>632</ele>
<time>2016-07-26T19:48:46Z</time>
</trkpt>
<trkpt lat="37.861848333333334" lon="-1.4307699999999999">
<ele>631</ele>
<time>2016-07-26T19:48:48Z</time>
</trkpt>
<trkpt lat="37.861806666666666" lon="-1.4307583333333334">
<ele>631</ele>
<time>2016-07-26T19:48:50Z</time>
</trkpt>
<trkpt lat="37.86177" lon="-1.4307516666666666">
<ele>631</ele>
<time>2016-07-26T19:48:52Z</time>
</trkpt>
<trkpt lat="37.86172333333333" lon="-1.4307433333333333">
<ele>631</ele>
<time>2016-07-26T19:48:54Z</time>
</trkpt>
<trkpt lat="37.861671666666666" lon="-1.4307349999999999">
<ele>631</ele>
<time>2016-07-26T19:48:56Z</time>
</trkpt>
<trkpt lat="37.86163" lon="-1.4307266666666667">
<ele>631</ele>
<time>2016-07-26T19:48:58Z</time>
</trkpt>
<trkpt lat="37.86161166666667" lon="-1.4307233333333333">
<ele>631</ele>
<time>2016-07-26T19:49:00Z</time>
</trkpt>
<trkpt lat="37.861605000000004" lon="-1.4307283333333334">
<ele>631</ele>
<time>2016-07-26T19:49:02Z</time>
</trkpt>
<trkpt lat="37.861605000000004" lon="-1.4307283333333334">
<ele>631</ele>
<time>2016-07-26T19:49:04Z</time>
</trkpt>
<trkpt lat="37.86155333333333" lon="-1.4307283333333334">
<ele>630</ele>
<time>2016-07-26T19:49:06Z</time>
</trkpt>
<trkpt lat="37.86151666666667" lon="-1.430715">
<ele>630</ele>
<time>2016-07-26T19:49:08Z</time>
</trkpt>
<trkpt lat="37.86148166666667" lon="-1.4306916666666667">
<ele>630</ele>
<time>2016-07-26T19:49:10Z</time>
</trkpt>
<trkpt lat="37.861445" lon="-1.4306450000000002">
<ele>631</ele>
<time>2016-07-26T19:49:12Z</time>
</trkpt>
<trkpt lat="37.861401666666666" lon="-1.4306116666666666">
<ele>631</ele>
<time>2016-07-26T19:49:14Z</time>
</trkpt>
<trkpt lat="37.86134666666667" lon="-1.4305716666666666">
<ele>631</ele>
<time>2016-07-26T19:49:16Z</time>
</trkpt>
<trkpt lat="37.86130166666667" lon="-1.43053">
<ele>632</ele>
<time>2016-07-26T19:49:18Z</time>
</trkpt>
<trkpt lat="37.861261666666664" lon="-1.43049">
<ele>632</ele>
<time>2016-07-26T19:49:20Z</time>
</trkpt>
<trkpt lat="37.86121833333333" lon="-1.4304433333333333">
<ele>632</ele>
<time>2016-07-26T19:49:22Z</time>
</trkpt>
<trkpt lat="37.86117166666667" lon="-1.430395">
<ele>632</ele>
<time>2016-07-26T19:49:24Z</time>
</trkpt>
<trkpt lat="37.86112166666667" lon="-1.4303466666666669">
<ele>632</ele>
<time>2016-07-26T19:49:26Z</time>
</trkpt>
<trkpt lat="37.86107333333334" lon="-1.4303016666666668">
<ele>632</ele>
<time>2016-07-26T19:49:28Z</time>
</trkpt>
<trkpt lat="37.861025000000005" lon="-1.4302383333333335">
<ele>632</ele>
<time>2016-07-26T19:49:30Z</time>
</trkpt>
<trkpt lat="37.860975" lon="-1.43017">
<ele>632</ele>
<time>2016-07-26T19:49:32Z</time>
</trkpt>
<trkpt lat="37.86092333333333" lon="-1.4301199999999998">
<ele>632</ele>
<time>2016-07-26T19:49:34Z</time>
</trkpt>
<trkpt lat="37.860861666666665" lon="-1.4300816666666667">
<ele>632</ele>
<time>2016-07-26T19:49:36Z</time>
</trkpt>
<trkpt lat="37.86080166666667" lon="-1.4300466666666667">
<ele>633</ele>
<time>2016-07-26T19:49:38Z</time>
</trkpt>
<trkpt lat="37.86075666666667" lon="-1.4300116666666667">
<ele>633</ele>
<time>2016-07-26T19:49:40Z</time>
</trkpt>
<trkpt lat="37.86071333333334" lon="-1.429965">
<ele>633</ele>
<time>2016-07-26T19:49:42Z</time>
</trkpt>
<trkpt lat="37.86065" lon="-1.429915">
<ele>634</ele>
<time>2016-07-26T19:49:44Z</time>
</trkpt>
<trkpt lat="37.86058666666667" lon="-1.4298783333333334">
<ele>634</ele>
<time>2016-07-26T19:49:46Z</time>
</trkpt>
<trkpt lat="37.860535" lon="-1.4298533333333334">
<ele>634</ele>
<time>2016-07-26T19:49:48Z</time>
</trkpt>
<trkpt lat="37.86048666666667" lon="-1.4298283333333333">
<ele>634</ele>
<time>2016-07-26T19:49:50Z</time>
</trkpt>
<trkpt lat="37.86045" lon="-1.42978">
<ele>635</ele>
<time>2016-07-26T19:49:52Z</time>
</trkpt>
<trkpt lat="37.86043333333334" lon="-1.4297233333333335">
<ele>635</ele>
<time>2016-07-26T19:49:54Z</time>
</trkpt>
<trkpt lat="37.860395000000004" lon="-1.4296583333333333">
<ele>634</ele>
<time>2016-07-26T19:49:56Z</time>
</trkpt>
<trkpt lat="37.86033166666667" lon="-1.429595">
<ele>634</ele>
<time>2016-07-26T19:49:58Z</time>
</trkpt>
<trkpt lat="37.860279999999996" lon="-1.4295383333333334">
<ele>634</ele>
<time>2016-07-26T19:50:00Z</time>
</trkpt>
<trkpt lat="37.860263333333336" lon="-1.429485">
<ele>634</ele>
<time>2016-07-26T19:50:02Z</time>
</trkpt>
<trkpt lat="37.86024" lon="-1.4294066666666665">
<ele>634</ele>
<time>2016-07-26T19:50:04Z</time>
</trkpt>
<trkpt lat="37.86020333333333" lon="-1.4293200000000001">
<ele>634</ele>
<time>2016-07-26T19:50:06Z</time>
</trkpt>
<trkpt lat="37.86018" lon="-1.42924">
<ele>634</ele>
<time>2016-07-26T19:50:08Z</time>
</trkpt>
<trkpt lat="37.86015166666667" lon="-1.4291483333333335">
<ele>634</ele>
<time>2016-07-26T19:50:10Z</time>
</trkpt>
<trkpt lat="37.860101666666665" lon="-1.4290533333333333">
<ele>634</ele>
<time>2016-07-26T19:50:12Z</time>
</trkpt>
<trkpt lat="37.86005" lon="-1.4289716666666665">
<ele>634</ele>
<time>2016-07-26T19:50:14Z</time>
</trkpt>
<trkpt lat="37.86002833333334" lon="-1.428891666666667">
<ele>634</ele>
<time>2016-07-26T19:50:16Z</time>
</trkpt>
<trkpt lat="37.859988333333334" lon="-1.4287999999999998">
<ele>633</ele>
<time>2016-07-26T19:50:18Z</time>
</trkpt>
<trkpt lat="37.859943333333334" lon="-1.4287266666666667">
<ele>633</ele>
<time>2016-07-26T19:50:20Z</time>
</trkpt>
<trkpt lat="37.85990833333334" lon="-1.4286483333333333">
<ele>633</ele>
<time>2016-07-26T19:50:22Z</time>
</trkpt>
<trkpt lat="37.859856666666666" lon="-1.4285833333333333">
<ele>633</ele>
<time>2016-07-26T19:50:24Z</time>
</trkpt>
<trkpt lat="37.85979333333333" lon="-1.42855">
<ele>632</ele>
<time>2016-07-26T19:50:26Z</time>
</trkpt>
<trkpt lat="37.85976" lon="-1.4285033333333335">
<ele>633</ele>
<time>2016-07-26T19:50:28Z</time>
</trkpt>
<trkpt lat="37.85970666666666" lon="-1.4284333333333334">
<ele>632</ele>
<time>2016-07-26T19:50:30Z</time>
</trkpt>
<trkpt lat="37.859656666666666" lon="-1.4283533333333334">
<ele>631</ele>
<time>2016-07-26T19:50:32Z</time>
</trkpt>
<trkpt lat="37.85961833333333" lon="-1.4282599999999999">
<ele>630</ele>
<time>2016-07-26T19:50:34Z</time>
</trkpt>
<trkpt lat="37.85957" lon="-1.4281466666666667">
<ele>629</ele>
<time>2016-07-26T19:50:36Z</time>
</trkpt>
<trkpt lat="37.859518333333334" lon="-1.4280366666666666">
<ele>628</ele>
<time>2016-07-26T19:50:38Z</time>
</trkpt>
<trkpt lat="37.85947833333333" lon="-1.427925">
<ele>627</ele>
<time>2016-07-26T19:50:40Z</time>
</trkpt>
<trkpt lat="37.85946166666667" lon="-1.427835">
<ele>626</ele>
<time>2016-07-26T19:50:42Z</time>
</trkpt>
<trkpt lat="37.85944" lon="-1.4277466666666667">
<ele>625</ele>
<time>2016-07-26T19:50:44Z</time>
</trkpt>
<trkpt lat="37.85941166666667" lon="-1.4276683333333333">
<ele>625</ele>
<time>2016-07-26T19:50:46Z</time>
</trkpt>
<trkpt lat="37.859386666666666" lon="-1.4275866666666666">
<ele>624</ele>
<time>2016-07-26T19:50:48Z</time>
</trkpt>
<trkpt lat="37.859345" lon="-1.427505">
<ele>623</ele>
<time>2016-07-26T19:50:50Z</time>
</trkpt>
<trkpt lat="37.859296666666665" lon="-1.42744">
<ele>622</ele>
<time>2016-07-26T19:50:52Z</time>
</trkpt>
<trkpt lat="37.85924333333333" lon="-1.4273850000000001">
<ele>621</ele>
<time>2016-07-26T19:50:54Z</time>
</trkpt>
<trkpt lat="37.85919833333333" lon="-1.42734">
<ele>620</ele>
<time>2016-07-26T19:50:56Z</time>
</trkpt>
<trkpt lat="37.859143333333336" lon="-1.4272866666666668">
<ele>619</ele>
<time>2016-07-26T19:50:58Z</time>
</trkpt>
<trkpt lat="37.859093333333334" lon="-1.427235">
<ele>618</ele>
<time>2016-07-26T19:51:00Z</time>
</trkpt>
<trkpt lat="37.85903666666666" lon="-1.4271783333333334">
<ele>616</ele>
<time>2016-07-26T19:51:02Z</time>
</trkpt>
<trkpt lat="37.858983333333335" lon="-1.4271266666666667">
<ele>615</ele>
<time>2016-07-26T19:51:04Z</time>
</trkpt>
<trkpt lat="37.85894333333333" lon="-1.4270833333333333">
<ele>614</ele>
<time>2016-07-26T19:51:06Z</time>
</trkpt>
<trkpt lat="37.858891666666665" lon="-1.4270233333333333">
<ele>613</ele>
<time>2016-07-26T19:51:08Z</time>
</trkpt>
<trkpt lat="37.858826666666666" lon="-1.4269366666666667">
<ele>611</ele>
<time>2016-07-26T19:51:10Z</time>
</trkpt>
<trkpt lat="37.858761666666666" lon="-1.426825">
<ele>610</ele>
<time>2016-07-26T19:51:12Z</time>
</trkpt>
<trkpt lat="37.858685" lon="-1.4267116666666666">
<ele>609</ele>
<time>2016-07-26T19:51:14Z</time>
</trkpt>
<trkpt lat="37.858605" lon="-1.4266066666666668">
<ele>608</ele>
<time>2016-07-26T19:51:16Z</time>
</trkpt>
<trkpt lat="37.85852833333333" lon="-1.4265283333333334">
<ele>607</ele>
<time>2016-07-26T19:51:18Z</time>
</trkpt>
<trkpt lat="37.85845833333334" lon="-1.4264533333333334">
<ele>606</ele>
<time>2016-07-26T19:51:20Z</time>
</trkpt>
<trkpt lat="37.85839166666666" lon="-1.4263933333333334">
<ele>605</ele>
<time>2016-07-26T19:51:22Z</time>
</trkpt>
<trkpt lat="37.85833" lon="-1.4263733333333335">
<ele>605</ele>
<time>2016-07-26T19:51:24Z</time>
</trkpt>
<trkpt lat="37.858305" lon="-1.4263416666666666">
<ele>604</ele>
<time>2016-07-26T19:51:26Z</time>
</trkpt>
<trkpt lat="37.85827" lon="-1.4262949999999999">
<ele>603</ele>
<time>2016-07-26T19:51:28Z</time>
</trkpt>
<trkpt lat="37.85822333333333" lon="-1.4262633333333334">
<ele>597</ele>
<time>2016-07-26T19:51:30Z</time>
</trkpt>
<trkpt lat="37.858185000000006" lon="-1.4262233333333334">
<ele>603</ele>
<time>2016-07-26T19:51:32Z</time>
</trkpt>
<trkpt lat="37.858115" lon="-1.4261583333333334">
<ele>604</ele>
<time>2016-07-26T19:51:34Z</time>
</trkpt>
<trkpt lat="37.858048333333336" lon="-1.4261183333333332">
<ele>600</ele>
<time>2016-07-26T19:51:36Z</time>
</trkpt>
<trkpt lat="37.85797" lon="-1.4260883333333332">
<ele>598</ele>
<time>2016-07-26T19:51:38Z</time>
</trkpt>
<trkpt lat="37.857913333333336" lon="-1.4260766666666667">
<ele>598</ele>
<time>2016-07-26T19:51:40Z</time>
</trkpt>
<trkpt lat="37.85788166666667" lon="-1.4260583333333334">
<ele>599</ele>
<time>2016-07-26T19:51:42Z</time>
</trkpt>
<trkpt lat="37.85785833333333" lon="-1.4260283333333335">
<ele>599</ele>
<time>2016-07-26T19:51:44Z</time>
</trkpt>
<trkpt lat="37.857823333333336" lon="-1.4259966666666666">
<ele>598</ele>
<time>2016-07-26T19:51:46Z</time>
</trkpt>
<trkpt lat="37.85778333333334" lon="-1.4259783333333333">
<ele>598</ele>
<time>2016-07-26T19:51:48Z</time>
</trkpt>
<trkpt lat="37.857753333333335" lon="-1.4259650000000001">
<ele>598</ele>
<time>2016-07-26T19:51:50Z</time>
</trkpt>
<trkpt lat="37.85771833333333" lon="-1.4259566666666668">
<ele>598</ele>
<time>2016-07-26T19:51:52Z</time>
</trkpt>
<trkpt lat="37.85768333333333" lon="-1.4259366666666669">
<ele>599</ele>
<time>2016-07-26T19:51:54Z</time>
</trkpt>
<trkpt lat="37.857665" lon="-1.4259183333333332">
<ele>600</ele>
<time>2016-07-26T19:51:56Z</time>
</trkpt>
<trkpt lat="37.857639999999996" lon="-1.425875">
<ele>599</ele>
<time>2016-07-26T19:51:58Z</time>
</trkpt>
<trkpt lat="37.857616666666665" lon="-1.4258166666666667">
<ele>600</ele>
<time>2016-07-26T19:52:00Z</time>
</trkpt>
<trkpt lat="37.857591666666664" lon="-1.4257483333333334">
<ele>600</ele>
<time>2016-07-26T19:52:02Z</time>
</trkpt>
<trkpt lat="37.85755666666667" lon="-1.4256966666666666">
<ele>601</ele>
<time>2016-07-26T19:52:04Z</time>
</trkpt>
<trkpt lat="37.857510000000005" lon="-1.4256683333333333">
<ele>601</ele>
<time>2016-07-26T19:52:06Z</time>
</trkpt>
<trkpt lat="37.85746666666667" lon="-1.4256466666666665">
<ele>601</ele>
<time>2016-07-26T19:52:08Z</time>
</trkpt>
<trkpt lat="37.85744666666667" lon="-1.4256383333333336">
<ele>602</ele>
<time>2016-07-26T19:52:10Z</time>
</trkpt>
<trkpt lat="37.85746833333334" lon="-1.4256199999999999">
<ele>603</ele>
<time>2016-07-26T19:52:12Z</time>
</trkpt>
<trkpt lat="37.85744666666667" lon="-1.4255583333333335">
<ele>603</ele>
<time>2016-07-26T19:52:14Z</time>
</trkpt>
<trkpt lat="37.857413333333334" lon="-1.4254600000000002">
<ele>604</ele>
<time>2016-07-26T19:52:16Z</time>
</trkpt>
<trkpt lat="37.85737166666667" lon="-1.4253533333333333">
<ele>605</ele>
<time>2016-07-26T19:52:18Z</time>
</trkpt>
<trkpt lat="37.85732666666667" lon="-1.4252383333333334">
<ele>605</ele>
<time>2016-07-26T19:52:20Z</time>
</trkpt>
<trkpt lat="37.857276666666664" lon="-1.425115">
<ele>604</ele>
<time>2016-07-26T19:52:22Z</time>
</trkpt>
<trkpt lat="37.857231666666664" lon="-1.4250033333333334">
<ele>604</ele>
<time>2016-07-26T19:52:24Z</time>
</trkpt>
<trkpt lat="37.857175" lon="-1.4249266666666667">
<ele>604</ele>
<time>2016-07-26T19:52:26Z</time>
</trkpt>
<trkpt lat="37.85711666666667" lon="-1.42488">
<ele>603</ele>
<time>2016-07-26T19:52:28Z</time>
</trkpt>
<trkpt lat="37.857058333333335" lon="-1.4248516666666666">
<ele>603</ele>
<time>2016-07-26T19:52:30Z</time>
</trkpt>
<trkpt lat="37.85699666666667" lon="-1.4248349999999999">
<ele>602</ele>
<time>2016-07-26T19:52:32Z</time>
</trkpt>
<trkpt lat="37.85693666666667" lon="-1.4248183333333333">
<ele>602</ele>
<time>2016-07-26T19:52:34Z</time>
</trkpt>
<trkpt lat="37.85689166666667" lon="-1.4247866666666666">
<ele>602</ele>
<time>2016-07-26T19:52:36Z</time>
</trkpt>
<trkpt lat="37.856836666666666" lon="-1.4247699999999999">
<ele>602</ele>
<time>2016-07-26T19:52:38Z</time>
</trkpt>
<trkpt lat="37.85678" lon="-1.4247683333333332">
<ele>601</ele>
<time>2016-07-26T19:52:40Z</time>
</trkpt>
<trkpt lat="37.85673666666666" lon="-1.4247633333333334">
<ele>601</ele>
<time>2016-07-26T19:52:42Z</time>
</trkpt>
<trkpt lat="37.85669" lon="-1.4247466666666668">
<ele>601</ele>
<time>2016-07-26T19:52:44Z</time>
</trkpt>
<trkpt lat="37.85664333333333" lon="-1.4247316666666667">
<ele>600</ele>
<time>2016-07-26T19:52:46Z</time>
</trkpt>
<trkpt lat="37.856595" lon="-1.4247166666666669">
<ele>600</ele>
<time>2016-07-26T19:52:48Z</time>
</trkpt>
<trkpt lat="37.85654833333333" lon="-1.424715">
<ele>600</ele>
<time>2016-07-26T19:52:50Z</time>
</trkpt>
<trkpt lat="37.85650833333333" lon="-1.4247216666666667">
<ele>600</ele>
<time>2016-07-26T19:52:52Z</time>
</trkpt>
<trkpt lat="37.85646333333333" lon="-1.4247366666666668">
<ele>600</ele>
<time>2016-07-26T19:52:54Z</time>
</trkpt>
<trkpt lat="37.85643" lon="-1.4247366666666668">
<ele>599</ele>
<time>2016-07-26T19:52:56Z</time>
</trkpt>
<trkpt lat="37.85639666666667" lon="-1.4247033333333334">
<ele>599</ele>
<time>2016-07-26T19:52:58Z</time>
</trkpt>
<trkpt lat="37.85638333333333" lon="-1.424665">
<ele>598</ele>
<time>2016-07-26T19:53:00Z</time>
</trkpt>
<trkpt lat="37.856361666666665" lon="-1.42462">
<ele>598</ele>
<time>2016-07-26T19:53:02Z</time>
</trkpt>
<trkpt lat="37.85632833333333" lon="-1.4245633333333334">
<ele>597</ele>
<time>2016-07-26T19:53:04Z</time>
</trkpt>
<trkpt lat="37.85631166666667" lon="-1.42448">
<ele>597</ele>
<time>2016-07-26T19:53:06Z</time>
</trkpt>
<trkpt lat="37.85632333333333" lon="-1.4244133333333333">
<ele>597</ele>
<time>2016-07-26T19:53:08Z</time>
</trkpt>
<trkpt lat="37.85627" lon="-1.424335">
<ele>596</ele>
<time>2016-07-26T19:53:10Z</time>
</trkpt>
<trkpt lat="37.856228333333334" lon="-1.4242533333333334">
<ele>596</ele>
<time>2016-07-26T19:53:12Z</time>
</trkpt>
<trkpt lat="37.856195" lon="-1.4241983333333332">
<ele>595</ele>
<time>2016-07-26T19:53:14Z</time>
</trkpt>
<trkpt lat="37.85615833333333" lon="-1.4241199999999998">
<ele>595</ele>
<time>2016-07-26T19:53:16Z</time>
</trkpt>
<trkpt lat="37.85611166666667" lon="-1.4240366666666666">
<ele>594</ele>
<time>2016-07-26T19:53:18Z</time>
</trkpt>
<trkpt lat="37.85605666666667" lon="-1.42394">
<ele>593</ele>
<time>2016-07-26T19:53:20Z</time>
</trkpt>
<trkpt lat="37.856006666666666" lon="-1.423845">
<ele>593</ele>
<time>2016-07-26T19:53:22Z</time>
</trkpt>
<trkpt lat="37.855963333333335" lon="-1.4237583333333332">
<ele>592</ele>
<time>2016-07-26T19:53:24Z</time>
</trkpt>
<trkpt lat="37.85591333333333" lon="-1.4236966666666668">
<ele>591</ele>
<time>2016-07-26T19:53:26Z</time>
</trkpt>
<trkpt lat="37.855850000000004" lon="-1.4236616666666668">
<ele>590</ele>
<time>2016-07-26T19:53:28Z</time>
</trkpt>
<trkpt lat="37.85579499999999" lon="-1.4236283333333333">
<ele>589</ele>
<time>2016-07-26T19:53:30Z</time>
</trkpt>
<trkpt lat="37.85575666666667" lon="-1.4236083333333334">
<ele>588</ele>
<time>2016-07-26T19:53:32Z</time>
</trkpt>
<trkpt lat="37.855715000000004" lon="-1.4236016666666667">
<ele>586</ele>
<time>2016-07-26T19:53:34Z</time>
</trkpt>
<trkpt lat="37.85567" lon="-1.4236083333333334">
<ele>585</ele>
<time>2016-07-26T19:53:36Z</time>
</trkpt>
<trkpt lat="37.85561333333333" lon="-1.4236233333333335">
<ele>581</ele>
<time>2016-07-26T19:53:38Z</time>
</trkpt>
<trkpt lat="37.855581666666666" lon="-1.4236566666666666">
<ele>579</ele>
<time>2016-07-26T19:53:40Z</time>
</trkpt>
<trkpt lat="37.855545" lon="-1.4236783333333332">
<ele>577</ele>
<time>2016-07-26T19:53:42Z</time>
</trkpt>
<trkpt lat="37.855493333333335" lon="-1.42368">
<ele>576</ele>
<time>2016-07-26T19:53:44Z</time>
</trkpt>
<trkpt lat="37.855421666666665" lon="-1.4236833333333334">
<ele>574</ele>
<time>2016-07-26T19:53:46Z</time>
</trkpt>
<trkpt lat="37.85532" lon="-1.4236983333333333">
<ele>569</ele>
<time>2016-07-26T19:53:48Z</time>
</trkpt>
<trkpt lat="37.85523333333333" lon="-1.4237600000000001">
<ele>565</ele>
<time>2016-07-26T19:53:50Z</time>
</trkpt>
<trkpt lat="37.85521000000001" lon="-1.4238966666666668">
<ele>562</ele>
<time>2016-07-26T19:53:52Z</time>
</trkpt>
<trkpt lat="37.855295" lon="-1.4241216666666667">
<ele>554</ele>
<time>2016-07-26T19:53:54Z</time>
</trkpt>
<trkpt lat="37.85540666666667" lon="-1.4243266666666665">
<ele>549</ele>
<time>2016-07-26T19:53:56Z</time>
</trkpt>
<trkpt lat="37.85554666666667" lon="-1.4245183333333333">
<ele>544</ele>
<time>2016-07-26T19:53:58Z</time>
</trkpt>
<trkpt lat="37.85570666666667" lon="-1.4246816666666668">
<ele>541</ele>
<time>2016-07-26T19:54:00Z</time>
</trkpt>
<trkpt lat="37.85587666666667" lon="-1.4248233333333333">
<ele>539</ele>
<time>2016-07-26T19:54:02Z</time>
</trkpt>
<trkpt lat="37.856073333333335" lon="-1.4249516666666668">
<ele>537</ele>
<time>2016-07-26T19:54:04Z</time>
</trkpt>
<trkpt lat="37.85627833333333" lon="-1.425055">
<ele>536</ele>
<time>2016-07-26T19:54:06Z</time>
</trkpt>
<trkpt lat="37.85649166666667" lon="-1.4251366666666667">
<ele>535</ele>
<time>2016-07-26T19:54:08Z</time>
</trkpt>
<trkpt lat="37.85671333333333" lon="-1.4252150000000001">
<ele>533</ele>
<time>2016-07-26T19:54:10Z</time>
</trkpt>
<trkpt lat="37.856930000000006" lon="-1.4252950000000002">
<ele>530</ele>
<time>2016-07-26T19:54:12Z</time>
</trkpt>
<trkpt lat="37.857150000000004" lon="-1.425395">
<ele>528</ele>
<time>2016-07-26T19:54:14Z</time>
</trkpt>
<trkpt lat="37.85736333333333" lon="-1.4255266666666666">
<ele>525</ele>
<time>2016-07-26T19:54:16Z</time>
</trkpt>
<trkpt lat="37.85753666666667" lon="-1.425635">
<ele>521</ele>
<time>2016-07-26T19:54:18Z</time>
</trkpt>
<trkpt lat="37.857715" lon="-1.4257316666666666">
<ele>518</ele>
<time>2016-07-26T19:54:20Z</time>
</trkpt>
<trkpt lat="37.85790166666666" lon="-1.42586">
<ele>517</ele>
<time>2016-07-26T19:54:22Z</time>
</trkpt>
<trkpt lat="37.85807" lon="-1.4259833333333334">
<ele>515</ele>
<time>2016-07-26T19:54:24Z</time>
</trkpt>
<trkpt lat="37.85823666666667" lon="-1.4261083333333335">
<ele>512</ele>
<time>2016-07-26T19:54:26Z</time>
</trkpt>
<trkpt lat="37.85839333333333" lon="-1.4262599999999999">
<ele>510</ele>
<time>2016-07-26T19:54:28Z</time>
</trkpt>
<trkpt lat="37.85854666666667" lon="-1.4264066666666668">
<ele>508</ele>
<time>2016-07-26T19:54:30Z</time>
</trkpt>
<trkpt lat="37.858716666666666" lon="-1.4265516666666667">
<ele>506</ele>
<time>2016-07-26T19:54:32Z</time>
</trkpt>
<trkpt lat="37.858905" lon="-1.4266816666666666">
<ele>505</ele>
<time>2016-07-26T19:54:34Z</time>
</trkpt>
<trkpt lat="37.85910666666667" lon="-1.4267933333333334">
<ele>503</ele>
<time>2016-07-26T19:54:36Z</time>
</trkpt>
<trkpt lat="37.85931666666667" lon="-1.4268816666666666">
<ele>501</ele>
<time>2016-07-26T19:54:38Z</time>
</trkpt>
<trkpt lat="37.85953333333334" lon="-1.42698">
<ele>499</ele>
<time>2016-07-26T19:54:40Z</time>
</trkpt>
<trkpt lat="37.85974833333333" lon="-1.427085">
<ele>499</ele>
<time>2016-07-26T19:54:42Z</time>
</trkpt>
<trkpt lat="37.859945" lon="-1.427205">
<ele>499</ele>
<time>2016-07-26T19:54:44Z</time>
</trkpt>
<trkpt lat="37.86013333333334" lon="-1.4273283333333335">
<ele>499</ele>
<time>2016-07-26T19:54:46Z</time>
</trkpt>
<trkpt lat="37.86031666666667" lon="-1.42747">
<ele>500</ele>
<time>2016-07-26T19:54:48Z</time>
</trkpt>
<trkpt lat="37.860495" lon="-1.4276149999999999">
<ele>500</ele>
<time>2016-07-26T19:54:50Z</time>
</trkpt>
<trkpt lat="37.860675" lon="-1.4277633333333335">
<ele>500</ele>
<time>2016-07-26T19:54:52Z</time>
</trkpt>
<trkpt lat="37.86086" lon="-1.4279149999999998">
<ele>501</ele>
<time>2016-07-26T19:54:54Z</time>
</trkpt>
<trkpt lat="37.861041666666665" lon="-1.4280733333333333">
<ele>499</ele>
<time>2016-07-26T19:54:56Z</time>
</trkpt>
<trkpt lat="37.86120666666667" lon="-1.4282533333333334">
<ele>498</ele>
<time>2016-07-26T19:54:58Z</time>
</trkpt>
<trkpt lat="37.86136333333333" lon="-1.4284333333333334">
<ele>499</ele>
<time>2016-07-26T19:55:00Z</time>
</trkpt>
<trkpt lat="37.861518333333336" lon="-1.4286050000000001">
<ele>499</ele>
<time>2016-07-26T19:55:02Z</time>
</trkpt>
<trkpt lat="37.86166166666667" lon="-1.4287983333333334">
<ele>498</ele>
<time>2016-07-26T19:55:04Z</time>
</trkpt>
<trkpt lat="37.861795" lon="-1.4289983333333334">
<ele>499</ele>
<time>2016-07-26T19:55:06Z</time>
</trkpt>
<trkpt lat="37.86192333333334" lon="-1.4291833333333335">
<ele>501</ele>
<time>2016-07-26T19:55:08Z</time>
</trkpt>
<trkpt lat="37.86203666666667" lon="-1.4293483333333334">
<ele>504</ele>
<time>2016-07-26T19:55:10Z</time>
</trkpt>
<trkpt lat="37.862136666666665" lon="-1.4295133333333332">
<ele>506</ele>
<time>2016-07-26T19:55:12Z</time>
</trkpt>
<trkpt lat="37.86224" lon="-1.4296766666666667">
<ele>508</ele>
<time>2016-07-26T19:55:14Z</time>
</trkpt>
<trkpt lat="37.86232666666667" lon="-1.4298516666666667">
<ele>510</ele>
<time>2016-07-26T19:55:16Z</time>
</trkpt>
<trkpt lat="37.86239833333333" lon="-1.430025">
<ele>513</ele>
<time>2016-07-26T19:55:18Z</time>
</trkpt>
<trkpt lat="37.86247" lon="-1.4301816666666667">
<ele>514</ele>
<time>2016-07-26T19:55:20Z</time>
</trkpt>
<trkpt lat="37.86253333333333" lon="-1.4302916666666665">
<ele>516</ele>
<time>2016-07-26T19:55:22Z</time>
</trkpt>
<trkpt lat="37.86257833333333" lon="-1.4304199999999998">
<ele>517</ele>
<time>2016-07-26T19:55:24Z</time>
</trkpt>
<trkpt lat="37.862613333333336" lon="-1.4305366666666668">
<ele>519</ele>
<time>2016-07-26T19:55:26Z</time>
</trkpt>
<trkpt lat="37.86264666666667" lon="-1.4306433333333333">
<ele>521</ele>
<time>2016-07-26T19:55:28Z</time>
</trkpt>
<trkpt lat="37.862674999999996" lon="-1.4307483333333333">
<ele>523</ele>
<time>2016-07-26T19:55:30Z</time>
</trkpt>
<trkpt lat="37.86269666666667" lon="-1.43085">
<ele>525</ele>
<time>2016-07-26T19:55:32Z</time>
</trkpt>
<trkpt lat="37.862715" lon="-1.4309516666666666">
<ele>527</ele>
<time>2016-07-26T19:55:34Z</time>
</trkpt>
<trkpt lat="37.862730000000006" lon="-1.4310616666666665">
<ele>529</ele>
<time>2016-07-26T19:55:36Z</time>
</trkpt>
<trkpt lat="37.86274" lon="-1.4311583333333333">
<ele>531</ele>
<time>2016-07-26T19:55:38Z</time>
</trkpt>
<trkpt lat="37.862745000000004" lon="-1.4312616666666667">
<ele>533</ele>
<time>2016-07-26T19:55:40Z</time>
</trkpt>
<trkpt lat="37.862745000000004" lon="-1.4313666666666667">
<ele>535</ele>
<time>2016-07-26T19:55:42Z</time>
</trkpt>
<trkpt lat="37.86276333333333" lon="-1.431455">
<ele>538</ele>
<time>2016-07-26T19:55:44Z</time>
</trkpt>
<trkpt lat="37.86277333333333" lon="-1.431535">
<ele>541</ele>
<time>2016-07-26T19:55:46Z</time>
</trkpt>
<trkpt lat="37.862775000000006" lon="-1.4316133333333334">
<ele>544</ele>
<time>2016-07-26T19:55:48Z</time>
</trkpt>
<trkpt lat="37.86276833333333" lon="-1.4316933333333335">
<ele>548</ele>
<time>2016-07-26T19:55:50Z</time>
</trkpt>
<trkpt lat="37.86276333333333" lon="-1.4317583333333335">
<ele>550</ele>
<time>2016-07-26T19:55:52Z</time>
</trkpt>
<trkpt lat="37.86274166666667" lon="-1.4318133333333334">
<ele>553</ele>
<time>2016-07-26T19:55:54Z</time>
</trkpt>
<trkpt lat="37.862725" lon="-1.4318683333333333">
<ele>556</ele>
<time>2016-07-26T19:55:56Z</time>
</trkpt>
<trkpt lat="37.86272333333333" lon="-1.4319233333333334">
<ele>558</ele>
<time>2016-07-26T19:55:58Z</time>
</trkpt>
<trkpt lat="37.86271333333333" lon="-1.4319783333333334">
<ele>560</ele>
<time>2016-07-26T19:56:00Z</time>
</trkpt>
<trkpt lat="37.86268833333334" lon="-1.4320366666666668">
<ele>563</ele>
<time>2016-07-26T19:56:02Z</time>
</trkpt>
<trkpt lat="37.862676666666665" lon="-1.4320916666666665">
<ele>566</ele>
<time>2016-07-26T19:56:04Z</time>
</trkpt>
<trkpt lat="37.86267333333333" lon="-1.43215">
<ele>569</ele>
<time>2016-07-26T19:56:06Z</time>
</trkpt>
<trkpt lat="37.862665" lon="-1.4322233333333334">
<ele>572</ele>
<time>2016-07-26T19:56:08Z</time>
</trkpt>
<trkpt lat="37.86266666666667" lon="-1.4323083333333333">
<ele>574</ele>
<time>2016-07-26T19:56:10Z</time>
</trkpt>
<trkpt lat="37.86268" lon="-1.4323883333333332">
<ele>577</ele>
<time>2016-07-26T19:56:12Z</time>
</trkpt>
<trkpt lat="37.862700000000004" lon="-1.4324833333333333">
<ele>580</ele>
<time>2016-07-26T19:56:14Z</time>
</trkpt>
<trkpt lat="37.86272333333333" lon="-1.432585">
<ele>582</ele>
<time>2016-07-26T19:56:16Z</time>
</trkpt>
<trkpt lat="37.86274" lon="-1.43269">
<ele>584</ele>
<time>2016-07-26T19:56:18Z</time>
</trkpt>
<trkpt lat="37.862748333333336" lon="-1.432785">
<ele>586</ele>
<time>2016-07-26T19:56:20Z</time>
</trkpt>
<trkpt lat="37.86276" lon="-1.4328633333333334">
<ele>588</ele>
<time>2016-07-26T19:56:22Z</time>
</trkpt>
<trkpt lat="37.86277" lon="-1.4329583333333336">
<ele>588</ele>
<time>2016-07-26T19:56:24Z</time>
</trkpt>
<trkpt lat="37.86278" lon="-1.4330466666666666">
<ele>590</ele>
<time>2016-07-26T19:56:26Z</time>
</trkpt>
<trkpt lat="37.862786666666665" lon="-1.43312">
<ele>592</ele>
<time>2016-07-26T19:56:28Z</time>
</trkpt>
<trkpt lat="37.86278166666667" lon="-1.4331583333333335">
<ele>594</ele>
<time>2016-07-26T19:56:30Z</time>
</trkpt>
<trkpt lat="37.86277" lon="-1.43316">
<ele>596</ele>
<time>2016-07-26T19:56:32Z</time>
</trkpt>
<trkpt lat="37.86275" lon="-1.4331099999999999">
<ele>598</ele>
<time>2016-07-26T19:56:34Z</time>
</trkpt>
<trkpt lat="37.862735" lon="-1.4330316666666665">
<ele>600</ele>
<time>2016-07-26T19:56:36Z</time>
</trkpt>
<trkpt lat="37.86272666666667" lon="-1.4329316666666667">
<ele>601</ele>
<time>2016-07-26T19:56:38Z</time>
</trkpt>
<trkpt lat="37.862725" lon="-1.4328133333333333">
<ele>603</ele>
<time>2016-07-26T19:56:40Z</time>
</trkpt>
<trkpt lat="37.86271833333333" lon="-1.4326833333333333">
<ele>605</ele>
<time>2016-07-26T19:56:42Z</time>
</trkpt>
<trkpt lat="37.86272833333333" lon="-1.43254">
<ele>606</ele>
<time>2016-07-26T19:56:44Z</time>
</trkpt>
<trkpt lat="37.86275666666667" lon="-1.4323766666666666">
<ele>608</ele>
<time>2016-07-26T19:56:46Z</time>
</trkpt>
<trkpt lat="37.862795" lon="-1.4321933333333334">
<ele>609</ele>
<time>2016-07-26T19:56:48Z</time>
</trkpt>
<trkpt lat="37.86284666666666" lon="-1.4320016666666668">
<ele>610</ele>
<time>2016-07-26T19:56:50Z</time>
</trkpt>
<trkpt lat="37.862896666666664" lon="-1.4318066666666667">
<ele>611</ele>
<time>2016-07-26T19:56:52Z</time>
</trkpt>
<trkpt lat="37.86295333333333" lon="-1.4316083333333334">
<ele>613</ele>
<time>2016-07-26T19:56:54Z</time>
</trkpt>
<trkpt lat="37.86300666666667" lon="-1.4314166666666668">
<ele>614</ele>
<time>2016-07-26T19:56:56Z</time>
</trkpt>
<trkpt lat="37.86305" lon="-1.4312416666666667">
<ele>615</ele>
<time>2016-07-26T19:56:58Z</time>
</trkpt>
<trkpt lat="37.86308" lon="-1.4310833333333333">
<ele>616</ele>
<time>2016-07-26T19:57:00Z</time>
</trkpt>
<trkpt lat="37.863101666666665" lon="-1.4309583333333333">
<ele>617</ele>
<time>2016-07-26T19:57:02Z</time>
</trkpt>
<trkpt lat="37.86311" lon="-1.4308533333333333">
<ele>617</ele>
<time>2016-07-26T19:57:04Z</time>
</trkpt>
<trkpt lat="37.86310666666667" lon="-1.4307633333333332">
<ele>618</ele>
<time>2016-07-26T19:57:06Z</time>
</trkpt>
<trkpt lat="37.863076666666664" lon="-1.4306866666666667">
<ele>620</ele>
<time>2016-07-26T19:57:08Z</time>
</trkpt>
<trkpt lat="37.863031666666664" lon="-1.4306533333333333">
<ele>622</ele>
<time>2016-07-26T19:57:10Z</time>
</trkpt>
<trkpt lat="37.86299333333333" lon="-1.4306450000000002">
<ele>624</ele>
<time>2016-07-26T19:57:12Z</time>
</trkpt>
<trkpt lat="37.86295166666666" lon="-1.4306466666666668">
<ele>625</ele>
<time>2016-07-26T19:57:14Z</time>
</trkpt>
<trkpt lat="37.862901666666666" lon="-1.4306633333333334">
<ele>626</ele>
<time>2016-07-26T19:57:16Z</time>
</trkpt>
<trkpt lat="37.86287166666667" lon="-1.43068">
<ele>628</ele>
<time>2016-07-26T19:57:18Z</time>
</trkpt>
<trkpt lat="37.862845" lon="-1.43068">
<ele>629</ele>
<time>2016-07-26T19:57:20Z</time>
</trkpt>
<trkpt lat="37.862811666666666" lon="-1.430665">
<ele>630</ele>
<time>2016-07-26T19:57:22Z</time>
</trkpt>
<trkpt lat="37.86278333333333" lon="-1.43065">
<ele>631</ele>
<time>2016-07-26T19:57:24Z</time>
</trkpt>
<trkpt lat="37.86276" lon="-1.4306349999999999">
<ele>632</ele>
<time>2016-07-26T19:57:26Z</time>
</trkpt>
<trkpt lat="37.862730000000006" lon="-1.4306066666666666">
<ele>633</ele>
<time>2016-07-26T19:57:28Z</time>
</trkpt>
<trkpt lat="37.862701666666666" lon="-1.4305883333333334">
<ele>634</ele>
<time>2016-07-26T19:57:30Z</time>
</trkpt>
<trkpt lat="37.862674999999996" lon="-1.430565">
<ele>635</ele>
<time>2016-07-26T19:57:32Z</time>
</trkpt>
<trkpt lat="37.862655000000004" lon="-1.4305566666666667">
<ele>636</ele>
<time>2016-07-26T19:57:34Z</time>
</trkpt>
<trkpt lat="37.86263833333333" lon="-1.4305433333333333">
<ele>637</ele>
<time>2016-07-26T19:57:36Z</time>
</trkpt>
<trkpt lat="37.862653333333334" lon="-1.4305316666666668">
<ele>638</ele>
<time>2016-07-26T19:57:38Z</time>
</trkpt>
<trkpt lat="37.86267833333333" lon="-1.4305133333333333">
<ele>639</ele>
<time>2016-07-26T19:57:40Z</time>
</trkpt>
<trkpt lat="37.86266" lon="-1.4304416666666666">
<ele>640</ele>
<time>2016-07-26T19:57:42Z</time>
</trkpt>
<trkpt lat="37.862613333333336" lon="-1.4304">
<ele>641</ele>
<time>2016-07-26T19:57:44Z</time>
</trkpt>
<trkpt lat="37.862563333333334" lon="-1.4304316666666668">
<ele>641</ele>
<time>2016-07-26T19:57:46Z</time>
</trkpt>
<trkpt lat="37.86252833333333" lon="-1.4304750000000002">
<ele>642</ele>
<time>2016-07-26T19:57:48Z</time>
</trkpt>
<trkpt lat="37.86249333333333" lon="-1.430535">
<ele>642</ele>
<time>2016-07-26T19:57:50Z</time>
</trkpt>
<trkpt lat="37.862455" lon="-1.4305933333333334">
<ele>642</ele>
<time>2016-07-26T19:57:52Z</time>
</trkpt>
<trkpt lat="37.86242666666667" lon="-1.4306516666666667">
<ele>643</ele>
<time>2016-07-26T19:57:54Z</time>
</trkpt>
<trkpt lat="37.86241333333333" lon="-1.4306966666666667">
<ele>643</ele>
<time>2016-07-26T19:57:56Z</time>
</trkpt>
<trkpt lat="37.862386666666666" lon="-1.4307583333333334">
<ele>644</ele>
<time>2016-07-26T19:57:58Z</time>
</trkpt>
<trkpt lat="37.862365" lon="-1.43083">
<ele>644</ele>
<time>2016-07-26T19:58:00Z</time>
</trkpt>
<trkpt lat="37.862341666666666" lon="-1.4309133333333333">
<ele>644</ele>
<time>2016-07-26T19:58:02Z</time>
</trkpt>
<trkpt lat="37.862321666666666" lon="-1.4310100000000001">
<ele>644</ele>
<time>2016-07-26T19:58:04Z</time>
</trkpt>
<trkpt lat="37.862314999999995" lon="-1.4310966666666665">
<ele>645</ele>
<time>2016-07-26T19:58:06Z</time>
</trkpt>
<trkpt lat="37.86231" lon="-1.431165">
<ele>645</ele>
<time>2016-07-26T19:58:08Z</time>
</trkpt>
<trkpt lat="37.862295" lon="-1.43125">
<ele>645</ele>
<time>2016-07-26T19:58:10Z</time>
</trkpt>
<trkpt lat="37.86228166666667" lon="-1.4313433333333334">
<ele>646</ele>
<time>2016-07-26T19:58:12Z</time>
</trkpt>
<trkpt lat="37.86227333333333" lon="-1.4314283333333333">
<ele>645</ele>
<time>2016-07-26T19:58:14Z</time>
</trkpt>
<trkpt lat="37.86225666666667" lon="-1.4315183333333332">
<ele>646</ele>
<time>2016-07-26T19:58:16Z</time>
</trkpt>
<trkpt lat="37.86223666666667" lon="-1.4316083333333334">
<ele>646</ele>
<time>2016-07-26T19:58:18Z</time>
</trkpt>
<trkpt lat="37.86221" lon="-1.4316783333333334">
<ele>646</ele>
<time>2016-07-26T19:58:20Z</time>
</trkpt>
<trkpt lat="37.862183333333334" lon="-1.431745">
<ele>646</ele>
<time>2016-07-26T19:58:22Z</time>
</trkpt>
<trkpt lat="37.86216" lon="-1.431805">
<ele>645</ele>
<time>2016-07-26T19:58:24Z</time>
</trkpt>
<trkpt lat="37.862138333333334" lon="-1.4318683333333333">
<ele>645</ele>
<time>2016-07-26T19:58:26Z</time>
</trkpt>
<trkpt lat="37.86212166666667" lon="-1.4319583333333334">
<ele>644</ele>
<time>2016-07-26T19:58:28Z</time>
</trkpt>
<trkpt lat="37.86209833333333" lon="-1.43205">
<ele>643</ele>
<time>2016-07-26T19:58:30Z</time>
</trkpt>
<trkpt lat="37.862075" lon="-1.43214">
<ele>643</ele>
<time>2016-07-26T19:58:32Z</time>
</trkpt>
<trkpt lat="37.86206166666667" lon="-1.4322333333333332">
<ele>643</ele>
<time>2016-07-26T19:58:34Z</time>
</trkpt>
<trkpt lat="37.862046666666664" lon="-1.43233">
<ele>643</ele>
<time>2016-07-26T19:58:36Z</time>
</trkpt>
<trkpt lat="37.86203166666667" lon="-1.4324366666666668">
<ele>643</ele>
<time>2016-07-26T19:58:38Z</time>
</trkpt>
<trkpt lat="37.86203" lon="-1.43255">
<ele>642</ele>
<time>2016-07-26T19:58:40Z</time>
</trkpt>
<trkpt lat="37.86203" lon="-1.4326516666666667">
<ele>642</ele>
<time>2016-07-26T19:58:42Z</time>
</trkpt>
<trkpt lat="37.86204" lon="-1.4327566666666667">
<ele>641</ele>
<time>2016-07-26T19:58:44Z</time>
</trkpt>
<trkpt lat="37.862055000000005" lon="-1.4328599999999998">
<ele>640</ele>
<time>2016-07-26T19:58:46Z</time>
</trkpt>
<trkpt lat="37.86205666666667" lon="-1.4329716666666668">
<ele>638</ele>
<time>2016-07-26T19:58:48Z</time>
</trkpt>
<trkpt lat="37.862051666666666" lon="-1.43309">
<ele>637</ele>
<time>2016-07-26T19:58:50Z</time>
</trkpt>
<trkpt lat="37.862051666666666" lon="-1.4332083333333334">
<ele>637</ele>
<time>2016-07-26T19:58:52Z</time>
</trkpt>
<trkpt lat="37.862048333333334" lon="-1.4333166666666666">
<ele>636</ele>
<time>2016-07-26T19:58:54Z</time>
</trkpt>
<trkpt lat="37.86202" lon="-1.43343">
<ele>636</ele>
<time>2016-07-26T19:58:56Z</time>
</trkpt>
<trkpt lat="37.86201833333334" lon="-1.4335550000000001">
<ele>636</ele>
<time>2016-07-26T19:58:58Z</time>
</trkpt>
<trkpt lat="37.862025" lon="-1.4336816666666667">
<ele>635</ele>
<time>2016-07-26T19:59:00Z</time>
</trkpt>
<trkpt lat="37.86201333333334" lon="-1.4338166666666665">
<ele>634</ele>
<time>2016-07-26T19:59:02Z</time>
</trkpt>
<trkpt lat="37.861995" lon="-1.4339483333333334">
<ele>634</ele>
<time>2016-07-26T19:59:04Z</time>
</trkpt>
<trkpt lat="37.86197666666667" lon="-1.4340583333333332">
<ele>634</ele>
<time>2016-07-26T19:59:06Z</time>
</trkpt>
<trkpt lat="37.861943333333336" lon="-1.4341599999999999">
<ele>633</ele>
<time>2016-07-26T19:59:08Z</time>
</trkpt>
<trkpt lat="37.86190666666666" lon="-1.4342583333333332">
<ele>633</ele>
<time>2016-07-26T19:59:10Z</time>
</trkpt>
<trkpt lat="37.861891666666665" lon="-1.43434">
<ele>633</ele>
<time>2016-07-26T19:59:12Z</time>
</trkpt>
<trkpt lat="37.86185833333333" lon="-1.4344133333333335">
<ele>631</ele>
<time>2016-07-26T19:59:14Z</time>
</trkpt>
<trkpt lat="37.86182833333333" lon="-1.4344933333333332">
<ele>631</ele>
<time>2016-07-26T19:59:16Z</time>
</trkpt>
<trkpt lat="37.861815" lon="-1.4345616666666667">
<ele>630</ele>
<time>2016-07-26T19:59:18Z</time>
</trkpt>
<trkpt lat="37.86179666666667" lon="-1.4346283333333332">
<ele>629</ele>
<time>2016-07-26T19:59:20Z</time>
</trkpt>
<trkpt lat="37.861776666666664" lon="-1.4347033333333332">
<ele>628</ele>
<time>2016-07-26T19:59:22Z</time>
</trkpt>
<trkpt lat="37.86175" lon="-1.4347666666666665">
<ele>627</ele>
<time>2016-07-26T19:59:24Z</time>
</trkpt>
<trkpt lat="37.861725" lon="-1.4348166666666666">
<ele>627</ele>
<time>2016-07-26T19:59:26Z</time>
</trkpt>
<trkpt lat="37.861715000000004" lon="-1.4348666666666667">
<ele>627</ele>
<time>2016-07-26T19:59:28Z</time>
</trkpt>
<trkpt lat="37.861700000000006" lon="-1.434895">
<ele>627</ele>
<time>2016-07-26T19:59:30Z</time>
</trkpt>
<trkpt lat="37.86167666666667" lon="-1.4348866666666666">
<ele>628</ele>
<time>2016-07-26T19:59:32Z</time>
</trkpt>
<trkpt lat="37.86164333333333" lon="-1.4349083333333332">
<ele>630</ele>
<time>2016-07-26T19:59:34Z</time>
</trkpt>
<trkpt lat="37.86162" lon="-1.43493">
<ele>631</ele>
<time>2016-07-26T19:59:36Z</time>
</trkpt>
<trkpt lat="37.861596666666664" lon="-1.4349566666666664">
<ele>632</ele>
<time>2016-07-26T19:59:38Z</time>
</trkpt>
<trkpt lat="37.86156833333334" lon="-1.4349866666666666">
<ele>633</ele>
<time>2016-07-26T19:59:40Z</time>
</trkpt>
<trkpt lat="37.86155" lon="-1.435025">
<ele>635</ele>
<time>2016-07-26T19:59:42Z</time>
</trkpt>
<trkpt lat="37.86153" lon="-1.43506">
<ele>636</ele>
<time>2016-07-26T19:59:44Z</time>
</trkpt>
<trkpt lat="37.86148166666667" lon="-1.43508">
<ele>638</ele>
<time>2016-07-26T19:59:46Z</time>
</trkpt>
<trkpt lat="37.861435" lon="-1.435095">
<ele>639</ele>
<time>2016-07-26T19:59:48Z</time>
</trkpt>
<trkpt lat="37.861396666666664" lon="-1.4351016666666667">
<ele>641</ele>
<time>2016-07-26T19:59:50Z</time>
</trkpt>
<trkpt lat="37.86134833333333" lon="-1.4351133333333335">
<ele>642</ele>
<time>2016-07-26T19:59:52Z</time>
</trkpt>
<trkpt lat="37.86130333333333" lon="-1.435125">
<ele>643</ele>
<time>2016-07-26T19:59:54Z</time>
</trkpt>
<trkpt lat="37.86127166666667" lon="-1.4351333333333334">
<ele>644</ele>
<time>2016-07-26T19:59:56Z</time>
</trkpt>
<trkpt lat="37.86123333333333" lon="-1.435145">
<ele>644</ele>
<time>2016-07-26T19:59:58Z</time>
</trkpt>
<trkpt lat="37.86118333333333" lon="-1.4351483333333335">
<ele>645</ele>
<time>2016-07-26T20:00:00Z</time>
</trkpt>
<trkpt lat="37.86114333333333" lon="-1.4351566666666666">
<ele>646</ele>
<time>2016-07-26T20:00:02Z</time>
</trkpt>
<trkpt lat="37.8611" lon="-1.4351733333333332">
<ele>646</ele>
<time>2016-07-26T20:00:04Z</time>
</trkpt>
<trkpt lat="37.86104833333333" lon="-1.4351916666666669">
<ele>646</ele>
<time>2016-07-26T20:00:06Z</time>
</trkpt>
<trkpt lat="37.86100833333333" lon="-1.4352216666666666">
<ele>646</ele>
<time>2016-07-26T20:00:08Z</time>
</trkpt>
<trkpt lat="37.86097666666667" lon="-1.4352766666666668">
<ele>646</ele>
<time>2016-07-26T20:00:10Z</time>
</trkpt>
<trkpt lat="37.860935000000005" lon="-1.4353349999999998">
<ele>646</ele>
<time>2016-07-26T20:00:12Z</time>
</trkpt>
<trkpt lat="37.860890000000005" lon="-1.435395">
<ele>646</ele>
<time>2016-07-26T20:00:14Z</time>
</trkpt>
<trkpt lat="37.860836666666664" lon="-1.43547">
<ele>646</ele>
<time>2016-07-26T20:00:16Z</time>
</trkpt>
<trkpt lat="37.86079666666667" lon="-1.43556">
<ele>648</ele>
<time>2016-07-26T20:00:18Z</time>
</trkpt>
<trkpt lat="37.86077833333333" lon="-1.43563">
<ele>649</ele>
<time>2016-07-26T20:00:20Z</time>
</trkpt>
<trkpt lat="37.860753333333335" lon="-1.4357133333333332">
<ele>648</ele>
<time>2016-07-26T20:00:22Z</time>
</trkpt>
<trkpt lat="37.86071833333333" lon="-1.43581">
<ele>648</ele>
<time>2016-07-26T20:00:24Z</time>
</trkpt>
<trkpt lat="37.860686666666666" lon="-1.4358933333333332">
<ele>648</ele>
<time>2016-07-26T20:00:26Z</time>
</trkpt>
<trkpt lat="37.860654999999994" lon="-1.43599">
<ele>646</ele>
<time>2016-07-26T20:00:28Z</time>
</trkpt>
<trkpt lat="37.860618333333335" lon="-1.4360933333333332">
<ele>646</ele>
<time>2016-07-26T20:00:30Z</time>
</trkpt>
<trkpt lat="37.86058166666667" lon="-1.4361883333333334">
<ele>645</ele>
<time>2016-07-26T20:00:32Z</time>
</trkpt>
<trkpt lat="37.86054333333333" lon="-1.4362816666666667">
<ele>643</ele>
<time>2016-07-26T20:00:34Z</time>
</trkpt>
<trkpt lat="37.86049333333334" lon="-1.4363766666666666">
<ele>643</ele>
<time>2016-07-26T20:00:36Z</time>
</trkpt>
<trkpt lat="37.86044833333334" lon="-1.4364583333333334">
<ele>643</ele>
<time>2016-07-26T20:00:38Z</time>
</trkpt>
<trkpt lat="37.86039666666667" lon="-1.436525">
<ele>643</ele>
<time>2016-07-26T20:00:40Z</time>
</trkpt>
<trkpt lat="37.86033" lon="-1.43658">
<ele>643</ele>
<time>2016-07-26T20:00:42Z</time>
</trkpt>
<trkpt lat="37.86027333333333" lon="-1.436645">
<ele>643</ele>
<time>2016-07-26T20:00:44Z</time>
</trkpt>
<trkpt lat="37.860225" lon="-1.4367100000000002">
<ele>643</ele>
<time>2016-07-26T20:00:46Z</time>
</trkpt>
<trkpt lat="37.86018" lon="-1.4367816666666666">
<ele>643</ele>
<time>2016-07-26T20:00:48Z</time>
</trkpt>
<trkpt lat="37.860146666666665" lon="-1.4368716666666668">
<ele>643</ele>
<time>2016-07-26T20:00:50Z</time>
</trkpt>
<trkpt lat="37.86012166666667" lon="-1.436965">
<ele>641</ele>
<time>2016-07-26T20:00:52Z</time>
</trkpt>
<trkpt lat="37.860096666666664" lon="-1.4370616666666667">
<ele>641</ele>
<time>2016-07-26T20:00:54Z</time>
</trkpt>
<trkpt lat="37.860085000000005" lon="-1.4371683333333332">
<ele>641</ele>
<time>2016-07-26T20:00:56Z</time>
</trkpt>
<trkpt lat="37.86007166666666" lon="-1.4372816666666668">
<ele>640</ele>
<time>2016-07-26T20:00:58Z</time>
</trkpt>
<trkpt lat="37.86004166666667" lon="-1.4373883333333335">
<ele>640</ele>
<time>2016-07-26T20:01:00Z</time>
</trkpt>
<trkpt lat="37.86002166666666" lon="-1.4375116666666665">
<ele>640</ele>
<time>2016-07-26T20:01:02Z</time>
</trkpt>
<trkpt lat="37.86000666666666" lon="-1.4376383333333334">
<ele>640</ele>
<time>2016-07-26T20:01:04Z</time>
</trkpt>
<trkpt lat="37.85998166666666" lon="-1.4377516666666668">
<ele>640</ele>
<time>2016-07-26T20:01:06Z</time>
</trkpt>
<trkpt lat="37.859955" lon="-1.4378600000000001">
<ele>640</ele>
<time>2016-07-26T20:01:08Z</time>
</trkpt>
<trkpt lat="37.859921666666665" lon="-1.4379616666666666">
<ele>640</ele>
<time>2016-07-26T20:01:10Z</time>
</trkpt>
<trkpt lat="37.859881666666666" lon="-1.4380483333333334">
<ele>640</ele>
<time>2016-07-26T20:01:12Z</time>
</trkpt>
<trkpt lat="37.85984666666666" lon="-1.43812">
<ele>640</ele>
<time>2016-07-26T20:01:14Z</time>
</trkpt>
<trkpt lat="37.85981833333334" lon="-1.43818">
<ele>640</ele>
<time>2016-07-26T20:01:16Z</time>
</trkpt>
<trkpt lat="37.85977833333333" lon="-1.43824">
<ele>638</ele>
<time>2016-07-26T20:01:18Z</time>
</trkpt>
<trkpt lat="37.85975" lon="-1.4382866666666667">
<ele>636</ele>
<time>2016-07-26T20:01:20Z</time>
</trkpt>
<trkpt lat="37.859741666666665" lon="-1.438355">
<ele>634</ele>
<time>2016-07-26T20:01:22Z</time>
</trkpt>
<trkpt lat="37.85971833333333" lon="-1.4384033333333333">
<ele>633</ele>
<time>2016-07-26T20:01:24Z</time>
</trkpt>
<trkpt lat="37.85966833333334" lon="-1.4384533333333334">
<ele>632</ele>
<time>2016-07-26T20:01:26Z</time>
</trkpt>
<trkpt lat="37.85962666666667" lon="-1.43852">
<ele>631</ele>
<time>2016-07-26T20:01:28Z</time>
</trkpt>
<trkpt lat="37.859590000000004" lon="-1.4385816666666666">
<ele>631</ele>
<time>2016-07-26T20:01:30Z</time>
</trkpt>
<trkpt lat="37.859548333333336" lon="-1.4386483333333333">
<ele>630</ele>
<time>2016-07-26T20:01:32Z</time>
</trkpt>
<trkpt lat="37.85950833333333" lon="-1.4387249999999998">
<ele>630</ele>
<time>2016-07-26T20:01:34Z</time>
</trkpt>
<trkpt lat="37.85946" lon="-1.4387866666666667">
<ele>629</ele>
<time>2016-07-26T20:01:36Z</time>
</trkpt>
<trkpt lat="37.859410000000004" lon="-1.4388533333333333">
<ele>628</ele>
<time>2016-07-26T20:01:38Z</time>
</trkpt>
<trkpt lat="37.859363333333334" lon="-1.4389183333333333">
<ele>628</ele>
<time>2016-07-26T20:01:40Z</time>
</trkpt>
<trkpt lat="37.85931333333333" lon="-1.438975">
<ele>627</ele>
<time>2016-07-26T20:01:42Z</time>
</trkpt>
<trkpt lat="37.85926" lon="-1.4390399999999999">
<ele>627</ele>
<time>2016-07-26T20:01:44Z</time>
</trkpt>
<trkpt lat="37.85921" lon="-1.43912">
<ele>626</ele>
<time>2016-07-26T20:01:46Z</time>
</trkpt>
<trkpt lat="37.85916666666667" lon="-1.4392016666666665">
<ele>626</ele>
<time>2016-07-26T20:01:48Z</time>
</trkpt>
<trkpt lat="37.859111666666664" lon="-1.43929">
<ele>625</ele>
<time>2016-07-26T20:01:50Z</time>
</trkpt>
<trkpt lat="37.85906" lon="-1.4393833333333332">
<ele>625</ele>
<time>2016-07-26T20:01:52Z</time>
</trkpt>
<trkpt lat="37.859028333333335" lon="-1.43947">
<ele>625</ele>
<time>2016-07-26T20:01:54Z</time>
</trkpt>
<trkpt lat="37.85902166666666" lon="-1.4395783333333334">
<ele>625</ele>
<time>2016-07-26T20:01:56Z</time>
</trkpt>
<trkpt lat="37.85902" lon="-1.4396883333333332">
<ele>624</ele>
<time>2016-07-26T20:01:58Z</time>
</trkpt>
<trkpt lat="37.859026666666665" lon="-1.43979">
<ele>624</ele>
<time>2016-07-26T20:02:00Z</time>
</trkpt>
<trkpt lat="37.85903" lon="-1.4398866666666665">
<ele>624</ele>
<time>2016-07-26T20:02:02Z</time>
</trkpt>
<trkpt lat="37.85902333333333" lon="-1.439985">
<ele>623</ele>
<time>2016-07-26T20:02:04Z</time>
</trkpt>
<trkpt lat="37.85901" lon="-1.4400866666666665">
<ele>623</ele>
<time>2016-07-26T20:02:06Z</time>
</trkpt>
<trkpt lat="37.85898833333333" lon="-1.4401866666666665">
<ele>623</ele>
<time>2016-07-26T20:02:08Z</time>
</trkpt>
<trkpt lat="37.85895666666667" lon="-1.4402716666666668">
<ele>623</ele>
<time>2016-07-26T20:02:10Z</time>
</trkpt>
<trkpt lat="37.85891" lon="-1.4403466666666667">
<ele>623</ele>
<time>2016-07-26T20:02:12Z</time>
</trkpt>
<trkpt lat="37.85886333333334" lon="-1.4404299999999999">
<ele>622</ele>
<time>2016-07-26T20:02:14Z</time>
</trkpt>
<trkpt lat="37.858825" lon="-1.4405183333333333">
<ele>622</ele>
<time>2016-07-26T20:02:16Z</time>
</trkpt>
<trkpt lat="37.858785" lon="-1.4406266666666667">
<ele>622</ele>
<time>2016-07-26T20:02:18Z</time>
</trkpt>
<trkpt lat="37.85875333333333" lon="-1.44076">
<ele>621</ele>
<time>2016-07-26T20:02:20Z</time>
</trkpt>
<trkpt lat="37.858735" lon="-1.4409116666666666">
<ele>621</ele>
<time>2016-07-26T20:02:22Z</time>
</trkpt>
<trkpt lat="37.85870833333333" lon="-1.4410633333333334">
<ele>621</ele>
<time>2016-07-26T20:02:24Z</time>
</trkpt>
<trkpt lat="37.85868" lon="-1.4411983333333334">
<ele>621</ele>
<time>2016-07-26T20:02:26Z</time>
</trkpt>
<trkpt lat="37.858664999999995" lon="-1.4413200000000002">
<ele>621</ele>
<time>2016-07-26T20:02:28Z</time>
</trkpt>
<trkpt lat="37.85865833333333" lon="-1.4414266666666666">
<ele>621</ele>
<time>2016-07-26T20:02:30Z</time>
</trkpt>
<trkpt lat="37.85864" lon="-1.4415233333333333">
<ele>621</ele>
<time>2016-07-26T20:02:32Z</time>
</trkpt>
<trkpt lat="37.85861166666667" lon="-1.4416066666666665">
<ele>620</ele>
<time>2016-07-26T20:02:34Z</time>
</trkpt>
<trkpt lat="37.858579999999996" lon="-1.4416666666666667">
<ele>620</ele>
<time>2016-07-26T20:02:36Z</time>
</trkpt>
<trkpt lat="37.85854666666667" lon="-1.441735">
<ele>620</ele>
<time>2016-07-26T20:02:38Z</time>
</trkpt>
<trkpt lat="37.85851" lon="-1.4418016666666666">
<ele>620</ele>
<time>2016-07-26T20:02:40Z</time>
</trkpt>
<trkpt lat="37.85846166666667" lon="-1.4418633333333333">
<ele>619</ele>
<time>2016-07-26T20:02:42Z</time>
</trkpt>
<trkpt lat="37.858415" lon="-1.4419283333333333">
<ele>619</ele>
<time>2016-07-26T20:02:44Z</time>
</trkpt>
<trkpt lat="37.858385" lon="-1.4420033333333333">
<ele>618</ele>
<time>2016-07-26T20:02:46Z</time>
</trkpt>
<trkpt lat="37.858354999999996" lon="-1.4420849999999998">
<ele>617</ele>
<time>2016-07-26T20:02:48Z</time>
</trkpt>
<trkpt lat="37.85832166666667" lon="-1.4421716666666666">
<ele>616</ele>
<time>2016-07-26T20:02:50Z</time>
</trkpt>
<trkpt lat="37.85829833333333" lon="-1.4422416666666666">
<ele>615</ele>
<time>2016-07-26T20:02:52Z</time>
</trkpt>
<trkpt lat="37.858275000000006" lon="-1.442325">
<ele>614</ele>
<time>2016-07-26T20:02:54Z</time>
</trkpt>
<trkpt lat="37.85823666666667" lon="-1.4424283333333332">
<ele>613</ele>
<time>2016-07-26T20:02:56Z</time>
</trkpt>
<trkpt lat="37.858203333333336" lon="-1.4425183333333333">
<ele>613</ele>
<time>2016-07-26T20:02:58Z</time>
</trkpt>
<trkpt lat="37.85817833333333" lon="-1.442595">
<ele>612</ele>
<time>2016-07-26T20:03:00Z</time>
</trkpt>
<trkpt lat="37.858131666666665" lon="-1.4426833333333335">
<ele>612</ele>
<time>2016-07-26T20:03:02Z</time>
</trkpt>
<trkpt lat="37.85808166666666" lon="-1.4427683333333334">
<ele>611</ele>
<time>2016-07-26T20:03:04Z</time>
</trkpt>
<trkpt lat="37.85803833333333" lon="-1.4428400000000001">
<ele>611</ele>
<time>2016-07-26T20:03:06Z</time>
</trkpt>
<trkpt lat="37.857994999999995" lon="-1.4429083333333335">
<ele>610</ele>
<time>2016-07-26T20:03:08Z</time>
</trkpt>
<trkpt lat="37.857931666666666" lon="-1.44298">
<ele>609</ele>
<time>2016-07-26T20:03:10Z</time>
</trkpt>
<trkpt lat="37.85787833333333" lon="-1.4430383333333334">
<ele>609</ele>
<time>2016-07-26T20:03:12Z</time>
</trkpt>
<trkpt lat="37.85783166666667" lon="-1.4430900000000002">
<ele>608</ele>
<time>2016-07-26T20:03:14Z</time>
</trkpt>
<trkpt lat="37.85776" lon="-1.4431283333333333">
<ele>607</ele>
<time>2016-07-26T20:03:16Z</time>
</trkpt>
<trkpt lat="37.857688333333336" lon="-1.44316">
<ele>606</ele>
<time>2016-07-26T20:03:18Z</time>
</trkpt>
<trkpt lat="37.85762" lon="-1.4431699999999998">
<ele>605</ele>
<time>2016-07-26T20:03:20Z</time>
</trkpt>
<trkpt lat="37.85754333333333" lon="-1.4431666666666667">
<ele>604</ele>
<time>2016-07-26T20:03:22Z</time>
</trkpt>
<trkpt lat="37.85747" lon="-1.4431766666666666">
<ele>602</ele>
<time>2016-07-26T20:03:24Z</time>
</trkpt>
<trkpt lat="37.857409999999994" lon="-1.4432016666666667">
<ele>601</ele>
<time>2016-07-26T20:03:26Z</time>
</trkpt>
<trkpt lat="37.85734333333333" lon="-1.4432516666666668">
<ele>600</ele>
<time>2016-07-26T20:03:28Z</time>
</trkpt>
<trkpt lat="37.85727833333333" lon="-1.44331">
<ele>599</ele>
<time>2016-07-26T20:03:30Z</time>
</trkpt>
<trkpt lat="37.85722333333333" lon="-1.4433666666666667">
<ele>598</ele>
<time>2016-07-26T20:03:32Z</time>
</trkpt>
<trkpt lat="37.85715666666667" lon="-1.4434399999999998">
<ele>597</ele>
<time>2016-07-26T20:03:34Z</time>
</trkpt>
<trkpt lat="37.857099999999996" lon="-1.4435166666666668">
<ele>596</ele>
<time>2016-07-26T20:03:36Z</time>
</trkpt>
<trkpt lat="37.857063333333336" lon="-1.4435950000000002">
<ele>594</ele>
<time>2016-07-26T20:03:38Z</time>
</trkpt>
<trkpt lat="37.857020000000006" lon="-1.4436833333333332">
<ele>593</ele>
<time>2016-07-26T20:03:40Z</time>
</trkpt>
<trkpt lat="37.85696" lon="-1.4437733333333334">
<ele>592</ele>
<time>2016-07-26T20:03:42Z</time>
</trkpt>
<trkpt lat="37.85690666666667" lon="-1.4438583333333335">
<ele>591</ele>
<time>2016-07-26T20:03:44Z</time>
</trkpt>
<trkpt lat="37.85685333333333" lon="-1.44393">
<ele>590</ele>
<time>2016-07-26T20:03:46Z</time>
</trkpt>
<trkpt lat="37.85679833333334" lon="-1.4440083333333333">
<ele>590</ele>
<time>2016-07-26T20:03:48Z</time>
</trkpt>
<trkpt lat="37.856746666666666" lon="-1.4440899999999999">
<ele>589</ele>
<time>2016-07-26T20:03:50Z</time>
</trkpt>
<trkpt lat="37.85669166666666" lon="-1.4441716666666666">
<ele>587</ele>
<time>2016-07-26T20:03:52Z</time>
</trkpt>
<trkpt lat="37.85662333333333" lon="-1.4442616666666666">
<ele>585</ele>
<time>2016-07-26T20:03:54Z</time>
</trkpt>
<trkpt lat="37.85656166666667" lon="-1.4443450000000002">
<ele>583</ele>
<time>2016-07-26T20:03:56Z</time>
</trkpt>
<trkpt lat="37.856496666666665" lon="-1.4444216666666667">
<ele>582</ele>
<time>2016-07-26T20:03:58Z</time>
</trkpt>
<trkpt lat="37.856433333333335" lon="-1.4445066666666666">
<ele>580</ele>
<time>2016-07-26T20:04:00Z</time>
</trkpt>
<trkpt lat="37.85637333333333" lon="-1.4446">
<ele>579</ele>
<time>2016-07-26T20:04:02Z</time>
</trkpt>
<trkpt lat="37.856321666666666" lon="-1.4446916666666667">
<ele>578</ele>
<time>2016-07-26T20:04:04Z</time>
</trkpt>
<trkpt lat="37.856275" lon="-1.444775">
<ele>576</ele>
<time>2016-07-26T20:04:06Z</time>
</trkpt>
<trkpt lat="37.856215" lon="-1.4448433333333335">
<ele>575</ele>
<time>2016-07-26T20:04:08Z</time>
</trkpt>
<trkpt lat="37.85616" lon="-1.4449116666666666">
<ele>573</ele>
<time>2016-07-26T20:04:10Z</time>
</trkpt>
<trkpt lat="37.85613166666667" lon="-1.4449566666666667">
<ele>572</ele>
<time>2016-07-26T20:04:12Z</time>
</trkpt>
<trkpt lat="37.8561" lon="-1.4449983333333334">
<ele>570</ele>
<time>2016-07-26T20:04:14Z</time>
</trkpt>
<trkpt lat="37.85605333333333" lon="-1.4450666666666665">
<ele>568</ele>
<time>2016-07-26T20:04:16Z</time>
</trkpt>
<trkpt lat="37.85601666666666" lon="-1.4451566666666666">
<ele>567</ele>
<time>2016-07-26T20:04:18Z</time>
</trkpt>
<trkpt lat="37.85597166666666" lon="-1.4452516666666668">
<ele>565</ele>
<time>2016-07-26T20:04:20Z</time>
</trkpt>
<trkpt lat="37.85592666666666" lon="-1.4453583333333335">
<ele>563</ele>
<time>2016-07-26T20:04:22Z</time>
</trkpt>
<trkpt lat="37.85589166666667" lon="-1.44546">
<ele>562</ele>
<time>2016-07-26T20:04:24Z</time>
</trkpt>
<trkpt lat="37.85586166666667" lon="-1.445555">
<ele>561</ele>
<time>2016-07-26T20:04:26Z</time>
</trkpt>
<trkpt lat="37.85583333333333" lon="-1.445665">
<ele>561</ele>
<time>2016-07-26T20:04:28Z</time>
</trkpt>
<trkpt lat="37.855808333333336" lon="-1.4457683333333333">
<ele>561</ele>
<time>2016-07-26T20:04:30Z</time>
</trkpt>
<trkpt lat="37.855785" lon="-1.445885">
<ele>561</ele>
<time>2016-07-26T20:04:32Z</time>
</trkpt>
<trkpt lat="37.85575333333334" lon="-1.4460133333333334">
<ele>562</ele>
<time>2016-07-26T20:04:34Z</time>
</trkpt>
<trkpt lat="37.855731666666664" lon="-1.4461366666666666">
<ele>562</ele>
<time>2016-07-26T20:04:36Z</time>
</trkpt>
<trkpt lat="37.85572" lon="-1.4462583333333332">
<ele>562</ele>
<time>2016-07-26T20:04:38Z</time>
</trkpt>
<trkpt lat="37.85570666666667" lon="-1.4463866666666665">
<ele>562</ele>
<time>2016-07-26T20:04:40Z</time>
</trkpt>
<trkpt lat="37.855691666666665" lon="-1.4465166666666667">
<ele>563</ele>
<time>2016-07-26T20:04:42Z</time>
</trkpt>
<trkpt lat="37.855675" lon="-1.4466383333333332">
<ele>563</ele>
<time>2016-07-26T20:04:44Z</time>
</trkpt>
<trkpt lat="37.85565166666667" lon="-1.4467700000000001">
<ele>561</ele>
<time>2016-07-26T20:04:46Z</time>
</trkpt>
<trkpt lat="37.85563166666667" lon="-1.4469133333333335">
<ele>562</ele>
<time>2016-07-26T20:04:48Z</time>
</trkpt>
<trkpt lat="37.855626666666666" lon="-1.4470566666666667">
<ele>563</ele>
<time>2016-07-26T20:04:50Z</time>
</trkpt>
<trkpt lat="37.855626666666666" lon="-1.4472016666666665">
<ele>562</ele>
<time>2016-07-26T20:04:52Z</time>
</trkpt>
<trkpt lat="37.855626666666666" lon="-1.4473616666666667">
<ele>561</ele>
<time>2016-07-26T20:04:54Z</time>
</trkpt>
<trkpt lat="37.85562" lon="-1.4475266666666666">
<ele>561</ele>
<time>2016-07-26T20:04:56Z</time>
</trkpt>
<trkpt lat="37.855603333333335" lon="-1.447675">
<ele>561</ele>
<time>2016-07-26T20:04:58Z</time>
</trkpt>
<trkpt lat="37.855585" lon="-1.4478233333333332">
<ele>561</ele>
<time>2016-07-26T20:05:00Z</time>
</trkpt>
<trkpt lat="37.855565" lon="-1.4479700000000002">
<ele>561</ele>
<time>2016-07-26T20:05:02Z</time>
</trkpt>
<trkpt lat="37.85554833333333" lon="-1.448115">
<ele>560</ele>
<time>2016-07-26T20:05:04Z</time>
</trkpt>
<trkpt lat="37.85552499999999" lon="-1.4482666666666666">
<ele>559</ele>
<time>2016-07-26T20:05:06Z</time>
</trkpt>
<trkpt lat="37.85550166666667" lon="-1.4484016666666666">
<ele>559</ele>
<time>2016-07-26T20:05:08Z</time>
</trkpt>
<trkpt lat="37.855471666666666" lon="-1.4485316666666668">
<ele>558</ele>
<time>2016-07-26T20:05:10Z</time>
</trkpt>
<trkpt lat="37.85544166666667" lon="-1.4486533333333333">
<ele>557</ele>
<time>2016-07-26T20:05:12Z</time>
</trkpt>
<trkpt lat="37.85540666666667" lon="-1.44876">
<ele>557</ele>
<time>2016-07-26T20:05:14Z</time>
</trkpt>
<trkpt lat="37.85538" lon="-1.4488466666666668">
<ele>556</ele>
<time>2016-07-26T20:05:16Z</time>
</trkpt>
<trkpt lat="37.85536666666667" lon="-1.448925">
<ele>555</ele>
<time>2016-07-26T20:05:18Z</time>
</trkpt>
<trkpt lat="37.85536666666667" lon="-1.4490116666666668">
<ele>554</ele>
<time>2016-07-26T20:05:20Z</time>
</trkpt>
<trkpt lat="37.85536166666667" lon="-1.44912">
<ele>553</ele>
<time>2016-07-26T20:05:22Z</time>
</trkpt>
<trkpt lat="37.855356666666665" lon="-1.4492333333333332">
<ele>551</ele>
<time>2016-07-26T20:05:24Z</time>
</trkpt>
<trkpt lat="37.85535333333333" lon="-1.4493466666666668">
<ele>550</ele>
<time>2016-07-26T20:05:26Z</time>
</trkpt>
<trkpt lat="37.85534" lon="-1.4494666666666667">
<ele>548</ele>
<time>2016-07-26T20:05:28Z</time>
</trkpt>
<trkpt lat="37.85531833333334" lon="-1.449595">
<ele>547</ele>
<time>2016-07-26T20:05:30Z</time>
</trkpt>
<trkpt lat="37.85529333333333" lon="-1.4497166666666668">
<ele>546</ele>
<time>2016-07-26T20:05:32Z</time>
</trkpt>
<trkpt lat="37.85527166666667" lon="-1.4498416666666667">
<ele>544</ele>
<time>2016-07-26T20:05:34Z</time>
</trkpt>
<trkpt lat="37.85524833333333" lon="-1.4499733333333333">
<ele>544</ele>
<time>2016-07-26T20:05:36Z</time>
</trkpt>
<trkpt lat="37.855221666666665" lon="-1.450105">
<ele>543</ele>
<time>2016-07-26T20:05:38Z</time>
</trkpt>
<trkpt lat="37.855196666666664" lon="-1.4502199999999998">
<ele>543</ele>
<time>2016-07-26T20:05:40Z</time>
</trkpt>
<trkpt lat="37.855176666666665" lon="-1.4503249999999999">
<ele>542</ele>
<time>2016-07-26T20:05:42Z</time>
</trkpt>
<trkpt lat="37.855154999999996" lon="-1.4504133333333333">
<ele>542</ele>
<time>2016-07-26T20:05:44Z</time>
</trkpt>
<trkpt lat="37.85511666666666" lon="-1.4504916666666667">
<ele>541</ele>
<time>2016-07-26T20:05:46Z</time>
</trkpt>
<trkpt lat="37.85507500000001" lon="-1.4505383333333335">
<ele>540</ele>
<time>2016-07-26T20:05:48Z</time>
</trkpt>
<trkpt lat="37.85504" lon="-1.45055">
<ele>539</ele>
<time>2016-07-26T20:05:50Z</time>
</trkpt>
<trkpt lat="37.854995" lon="-1.4505216666666667">
<ele>537</ele>
<time>2016-07-26T20:05:52Z</time>
</trkpt>
<trkpt lat="37.854956666666666" lon="-1.4504316666666666">
<ele>536</ele>
<time>2016-07-26T20:05:54Z</time>
</trkpt>
<trkpt lat="37.854935" lon="-1.450315">
<ele>535</ele>
<time>2016-07-26T20:05:56Z</time>
</trkpt>
<trkpt lat="37.85491833333333" lon="-1.45017">
<ele>534</ele>
<time>2016-07-26T20:05:58Z</time>
</trkpt>
<trkpt lat="37.85490666666667" lon="-1.4500116666666667">
<ele>533</ele>
<time>2016-07-26T20:06:00Z</time>
</trkpt>
<trkpt lat="37.85489666666667" lon="-1.44984">
<ele>532</ele>
<time>2016-07-26T20:06:02Z</time>
</trkpt>
<trkpt lat="37.85488833333333" lon="-1.44967">
<ele>532</ele>
<time>2016-07-26T20:06:04Z</time>
</trkpt>
<trkpt lat="37.854875" lon="-1.4494966666666667">
<ele>532</ele>
<time>2016-07-26T20:06:06Z</time>
</trkpt>
<trkpt lat="37.85485666666667" lon="-1.4493266666666667">
<ele>532</ele>
<time>2016-07-26T20:06:08Z</time>
</trkpt>
<trkpt lat="37.85484666666667" lon="-1.4491533333333333">
<ele>532</ele>
<time>2016-07-26T20:06:10Z</time>
</trkpt>
<trkpt lat="37.85485333333334" lon="-1.4489699999999999">
<ele>532</ele>
<time>2016-07-26T20:06:12Z</time>
</trkpt>
<trkpt lat="37.85487666666667" lon="-1.448785">
<ele>533</ele>
<time>2016-07-26T20:06:14Z</time>
</trkpt>
<trkpt lat="37.85491833333333" lon="-1.4485816666666667">
<ele>533</ele>
<time>2016-07-26T20:06:16Z</time>
</trkpt>
<trkpt lat="37.85498" lon="-1.448365">
<ele>534</ele>
<time>2016-07-26T20:06:18Z</time>
</trkpt>
<trkpt lat="37.85506" lon="-1.448155">
<ele>535</ele>
<time>2016-07-26T20:06:20Z</time>
</trkpt>
<trkpt lat="37.85515" lon="-1.44793">
<ele>535</ele>
<time>2016-07-26T20:06:22Z</time>
</trkpt>
<trkpt lat="37.85522666666667" lon="-1.4477016666666667">
<ele>535</ele>
<time>2016-07-26T20:06:24Z</time>
</trkpt>
<trkpt lat="37.85529" lon="-1.44747">
<ele>536</ele>
<time>2016-07-26T20:06:26Z</time>
</trkpt>
<trkpt lat="37.85534500000001" lon="-1.4472550000000002">
<ele>536</ele>
<time>2016-07-26T20:06:28Z</time>
</trkpt>
<trkpt lat="37.855425" lon="-1.4470416666666668">
<ele>536</ele>
<time>2016-07-26T20:06:30Z</time>
</trkpt>
<trkpt lat="37.855505" lon="-1.4468283333333334">
<ele>536</ele>
<time>2016-07-26T20:06:32Z</time>
</trkpt>
<trkpt lat="37.85558" lon="-1.4466033333333332">
<ele>537</ele>
<time>2016-07-26T20:06:34Z</time>
</trkpt>
<trkpt lat="37.85567" lon="-1.4463783333333335">
<ele>537</ele>
<time>2016-07-26T20:06:36Z</time>
</trkpt>
<trkpt lat="37.85576666666667" lon="-1.446155">
<ele>537</ele>
<time>2016-07-26T20:06:38Z</time>
</trkpt>
<trkpt lat="37.85586333333333" lon="-1.4459316666666666">
<ele>538</ele>
<time>2016-07-26T20:06:40Z</time>
</trkpt>
<trkpt lat="37.855956666666664" lon="-1.4457116666666667">
<ele>538</ele>
<time>2016-07-26T20:06:42Z</time>
</trkpt>
<trkpt lat="37.856051666666666" lon="-1.4454983333333333">
<ele>539</ele>
<time>2016-07-26T20:06:44Z</time>
</trkpt>
<trkpt lat="37.856141666666666" lon="-1.4452783333333334">
<ele>539</ele>
<time>2016-07-26T20:06:46Z</time>
</trkpt>
<trkpt lat="37.85623666666667" lon="-1.4450599999999998">
<ele>539</ele>
<time>2016-07-26T20:06:48Z</time>
</trkpt>
<trkpt lat="37.85635" lon="-1.4448316666666665">
<ele>540</ele>
<time>2016-07-26T20:06:50Z</time>
</trkpt>
<trkpt lat="37.856475" lon="-1.4446133333333333">
<ele>540</ele>
<time>2016-07-26T20:06:52Z</time>
</trkpt>
<trkpt lat="37.856604999999995" lon="-1.4443983333333332">
<ele>541</ele>
<time>2016-07-26T20:06:54Z</time>
</trkpt>
<trkpt lat="37.85673666666666" lon="-1.444175">
<ele>541</ele>
<time>2016-07-26T20:06:56Z</time>
</trkpt>
<trkpt lat="37.85687333333333" lon="-1.4439616666666666">
<ele>541</ele>
<time>2016-07-26T20:06:58Z</time>
</trkpt>
<trkpt lat="37.85701166666667" lon="-1.44375">
<ele>540</ele>
<time>2016-07-26T20:07:00Z</time>
</trkpt>
<trkpt lat="37.85715666666667" lon="-1.4435383333333334">
<ele>540</ele>
<time>2016-07-26T20:07:02Z</time>
</trkpt>
<trkpt lat="37.857305" lon="-1.4433333333333334">
<ele>540</ele>
<time>2016-07-26T20:07:04Z</time>
</trkpt>
<trkpt lat="37.857454999999995" lon="-1.4431283333333333">
<ele>540</ele>
<time>2016-07-26T20:07:06Z</time>
</trkpt>
<trkpt lat="37.85759333333333" lon="-1.442915">
<ele>539</ele>
<time>2016-07-26T20:07:08Z</time>
</trkpt>
<trkpt lat="37.85773" lon="-1.4427016666666668">
<ele>539</ele>
<time>2016-07-26T20:07:10Z</time>
</trkpt>
<trkpt lat="37.85787333333334" lon="-1.4424916666666665">
<ele>539</ele>
<time>2016-07-26T20:07:12Z</time>
</trkpt>
<trkpt lat="37.858021666666666" lon="-1.4422816666666667">
<ele>540</ele>
<time>2016-07-26T20:07:14Z</time>
</trkpt>
<trkpt lat="37.85816833333333" lon="-1.4420683333333333">
<ele>539</ele>
<time>2016-07-26T20:07:16Z</time>
</trkpt>
<trkpt lat="37.858315" lon="-1.4418466666666667">
<ele>539</ele>
<time>2016-07-26T20:07:18Z</time>
</trkpt>
<trkpt lat="37.858468333333334" lon="-1.4416266666666668">
<ele>539</ele>
<time>2016-07-26T20:07:20Z</time>
</trkpt>
<trkpt lat="37.858635" lon="-1.4414066666666665">
<ele>539</ele>
<time>2016-07-26T20:07:22Z</time>
</trkpt>
<trkpt lat="37.858801666666665" lon="-1.4411999999999998">
<ele>538</ele>
<time>2016-07-26T20:07:24Z</time>
</trkpt>
<trkpt lat="37.858961666666666" lon="-1.4410033333333334">
<ele>538</ele>
<time>2016-07-26T20:07:26Z</time>
</trkpt>
<trkpt lat="37.85912166666667" lon="-1.4408033333333332">
<ele>537</ele>
<time>2016-07-26T20:07:28Z</time>
</trkpt>
<trkpt lat="37.85930166666667" lon="-1.4406216666666665">
<ele>536</ele>
<time>2016-07-26T20:07:30Z</time>
</trkpt>
<trkpt lat="37.85948333333333" lon="-1.4404350000000001">
<ele>536</ele>
<time>2016-07-26T20:07:32Z</time>
</trkpt>
<trkpt lat="37.859653333333334" lon="-1.4402333333333335">
<ele>535</ele>
<time>2016-07-26T20:07:34Z</time>
</trkpt>
<trkpt lat="37.85982166666667" lon="-1.4400316666666666">
<ele>534</ele>
<time>2016-07-26T20:07:36Z</time>
</trkpt>
<trkpt lat="37.859993333333335" lon="-1.4398316666666666">
<ele>533</ele>
<time>2016-07-26T20:07:38Z</time>
</trkpt>
<trkpt lat="37.86016166666666" lon="-1.43963">
<ele>533</ele>
<time>2016-07-26T20:07:40Z</time>
</trkpt>
<trkpt lat="37.860324999999996" lon="-1.4394266666666666">
<ele>532</ele>
<time>2016-07-26T20:07:42Z</time>
</trkpt>
<trkpt lat="37.860483333333335" lon="-1.4392283333333333">
<ele>531</ele>
<time>2016-07-26T20:07:44Z</time>
</trkpt>
<trkpt lat="37.860645" lon="-1.439035">
<ele>531</ele>
<time>2016-07-26T20:07:46Z</time>
</trkpt>
<trkpt lat="37.86080333333334" lon="-1.4388333333333332">
<ele>531</ele>
<time>2016-07-26T20:07:48Z</time>
</trkpt>
<trkpt lat="37.860945" lon="-1.4386366666666668">
<ele>531</ele>
<time>2016-07-26T20:07:50Z</time>
</trkpt>
<trkpt lat="37.86106666666667" lon="-1.4384316666666666">
<ele>531</ele>
<time>2016-07-26T20:07:52Z</time>
</trkpt>
<trkpt lat="37.86118" lon="-1.43822">
<ele>531</ele>
<time>2016-07-26T20:07:54Z</time>
</trkpt>
<trkpt lat="37.86128333333333" lon="-1.4380166666666667">
<ele>531</ele>
<time>2016-07-26T20:07:56Z</time>
</trkpt>
<trkpt lat="37.86137333333333" lon="-1.4378266666666666">
<ele>531</ele>
<time>2016-07-26T20:07:58Z</time>
</trkpt>
<trkpt lat="37.86146166666666" lon="-1.43763">
<ele>531</ele>
<time>2016-07-26T20:08:00Z</time>
</trkpt>
<trkpt lat="37.86155333333333" lon="-1.4374266666666666">
<ele>531</ele>
<time>2016-07-26T20:08:02Z</time>
</trkpt>
<trkpt lat="37.86163666666666" lon="-1.4372383333333334">
<ele>532</ele>
<time>2016-07-26T20:08:04Z</time>
</trkpt>
<trkpt lat="37.861705" lon="-1.4370616666666667">
<ele>532</ele>
<time>2016-07-26T20:08:06Z</time>
</trkpt>
<trkpt lat="37.86177" lon="-1.4368916666666667">
<ele>534</ele>
<time>2016-07-26T20:08:08Z</time>
</trkpt>
<trkpt lat="37.861826666666666" lon="-1.4367133333333333">
<ele>535</ele>
<time>2016-07-26T20:08:10Z</time>
</trkpt>
<trkpt lat="37.86188" lon="-1.43653">
<ele>536</ele>
<time>2016-07-26T20:08:12Z</time>
</trkpt>
<trkpt lat="37.86192666666667" lon="-1.4363549999999998">
<ele>537</ele>
<time>2016-07-26T20:08:14Z</time>
</trkpt>
<trkpt lat="37.86196666666667" lon="-1.4361883333333334">
<ele>538</ele>
<time>2016-07-26T20:08:16Z</time>
</trkpt>
<trkpt lat="37.862004999999996" lon="-1.436025">
<ele>539</ele>
<time>2016-07-26T20:08:18Z</time>
</trkpt>
<trkpt lat="37.862028333333335" lon="-1.435865">
<ele>540</ele>
<time>2016-07-26T20:08:20Z</time>
</trkpt>
<trkpt lat="37.862046666666664" lon="-1.43571">
<ele>541</ele>
<time>2016-07-26T20:08:22Z</time>
</trkpt>
<trkpt lat="37.86206" lon="-1.435565">
<ele>543</ele>
<time>2016-07-26T20:08:24Z</time>
</trkpt>
<trkpt lat="37.86206833333333" lon="-1.4354233333333333">
<ele>543</ele>
<time>2016-07-26T20:08:26Z</time>
</trkpt>
<trkpt lat="37.86208666666666" lon="-1.435275">
<ele>544</ele>
<time>2016-07-26T20:08:28Z</time>
</trkpt>
<trkpt lat="37.862118333333335" lon="-1.4351216666666666">
<ele>545</ele>
<time>2016-07-26T20:08:30Z</time>
</trkpt>
<trkpt lat="37.86215833333333" lon="-1.43498">
<ele>546</ele>
<time>2016-07-26T20:08:32Z</time>
</trkpt>
<trkpt lat="37.86220166666667" lon="-1.4348483333333335">
<ele>546</ele>
<time>2016-07-26T20:08:34Z</time>
</trkpt>
<trkpt lat="37.862235000000005" lon="-1.434695">
<ele>546</ele>
<time>2016-07-26T20:08:36Z</time>
</trkpt>
<trkpt lat="37.86226833333333" lon="-1.4345400000000001">
<ele>546</ele>
<time>2016-07-26T20:08:38Z</time>
</trkpt>
<trkpt lat="37.862298333333335" lon="-1.4343816666666667">
<ele>547</ele>
<time>2016-07-26T20:08:40Z</time>
</trkpt>
<trkpt lat="37.86232333333333" lon="-1.4342166666666667">
<ele>548</ele>
<time>2016-07-26T20:08:42Z</time>
</trkpt>
<trkpt lat="37.862345" lon="-1.43405">
<ele>549</ele>
<time>2016-07-26T20:08:44Z</time>
</trkpt>
<trkpt lat="37.86236666666667" lon="-1.4339000000000002">
<ele>549</ele>
<time>2016-07-26T20:08:46Z</time>
</trkpt>
<trkpt lat="37.86237666666667" lon="-1.4337466666666667">
<ele>550</ele>
<time>2016-07-26T20:08:48Z</time>
</trkpt>
<trkpt lat="37.86239" lon="-1.4335783333333334">
<ele>552</ele>
<time>2016-07-26T20:08:50Z</time>
</trkpt>
<trkpt lat="37.86241" lon="-1.4333983333333333">
<ele>554</ele>
<time>2016-07-26T20:08:52Z</time>
</trkpt>
<trkpt lat="37.86243666666667" lon="-1.43323">
<ele>556</ele>
<time>2016-07-26T20:08:54Z</time>
</trkpt>
<trkpt lat="37.86247166666667" lon="-1.4330683333333334">
<ele>558</ele>
<time>2016-07-26T20:08:56Z</time>
</trkpt>
<trkpt lat="37.86249833333333" lon="-1.4329150000000002">
<ele>559</ele>
<time>2016-07-26T20:08:58Z</time>
</trkpt>
<trkpt lat="37.862523333333336" lon="-1.432755">
<ele>560</ele>
<time>2016-07-26T20:09:00Z</time>
</trkpt>
<trkpt lat="37.86257" lon="-1.432605">
<ele>562</ele>
<time>2016-07-26T20:09:02Z</time>
</trkpt>
<trkpt lat="37.86261833333333" lon="-1.4324516666666667">
<ele>564</ele>
<time>2016-07-26T20:09:04Z</time>
</trkpt>
<trkpt lat="37.862665" lon="-1.4322983333333332">
<ele>568</ele>
<time>2016-07-26T20:09:06Z</time>
</trkpt>
<trkpt lat="37.862725" lon="-1.4321483333333334">
<ele>570</ele>
<time>2016-07-26T20:09:08Z</time>
</trkpt>
<trkpt lat="37.862766666666666" lon="-1.4319916666666668">
<ele>571</ele>
<time>2016-07-26T20:09:10Z</time>
</trkpt>
<trkpt lat="37.862815" lon="-1.4318166666666667">
<ele>574</ele>
<time>2016-07-26T20:09:12Z</time>
</trkpt>
<trkpt lat="37.862876666666665" lon="-1.4316600000000002">
<ele>576</ele>
<time>2016-07-26T20:09:14Z</time>
</trkpt>
<trkpt lat="37.86294" lon="-1.4314966666666666">
<ele>578</ele>
<time>2016-07-26T20:09:16Z</time>
</trkpt>
<trkpt lat="37.863005" lon="-1.4313333333333333">
<ele>580</ele>
<time>2016-07-26T20:09:18Z</time>
</trkpt>
<trkpt lat="37.86305166666667" lon="-1.4312016666666667">
<ele>581</ele>
<time>2016-07-26T20:09:20Z</time>
</trkpt>
<trkpt lat="37.863076666666664" lon="-1.4310733333333334">
<ele>583</ele>
<time>2016-07-26T20:09:22Z</time>
</trkpt>
<trkpt lat="37.86308" lon="-1.4309766666666666">
<ele>585</ele>
<time>2016-07-26T20:09:24Z</time>
</trkpt>
<trkpt lat="37.86308" lon="-1.4309033333333334">
<ele>586</ele>
<time>2016-07-26T20:09:26Z</time>
</trkpt>
<trkpt lat="37.86307166666666" lon="-1.43084">
<ele>588</ele>
<time>2016-07-26T20:09:28Z</time>
</trkpt>
<trkpt lat="37.863058333333335" lon="-1.4307616666666665">
<ele>589</ele>
<time>2016-07-26T20:09:30Z</time>
</trkpt>
<trkpt lat="37.863055" lon="-1.4306733333333335">
<ele>591</ele>
<time>2016-07-26T20:09:32Z</time>
</trkpt>
<trkpt lat="37.863060000000004" lon="-1.430585">
<ele>593</ele>
<time>2016-07-26T20:09:34Z</time>
</trkpt>
<trkpt lat="37.863055" lon="-1.4304916666666667">
<ele>595</ele>
<time>2016-07-26T20:09:36Z</time>
</trkpt>
<trkpt lat="37.86304666666667" lon="-1.4303983333333332">
<ele>597</ele>
<time>2016-07-26T20:09:38Z</time>
</trkpt>
<trkpt lat="37.86304166666666" lon="-1.430305">
<ele>599</ele>
<time>2016-07-26T20:09:40Z</time>
</trkpt>
<trkpt lat="37.86303833333333" lon="-1.4302016666666666">
<ele>601</ele>
<time>2016-07-26T20:09:42Z</time>
</trkpt>
<trkpt lat="37.86305333333333" lon="-1.4301016666666666">
<ele>603</ele>
<time>2016-07-26T20:09:44Z</time>
</trkpt>
<trkpt lat="37.863063333333336" lon="-1.4300033333333335">
<ele>605</ele>
<time>2016-07-26T20:09:46Z</time>
</trkpt>
<trkpt lat="37.86305333333333" lon="-1.4299216666666665">
<ele>606</ele>
<time>2016-07-26T20:09:48Z</time>
</trkpt>
<trkpt lat="37.86304666666667" lon="-1.4298316666666668">
<ele>609</ele>
<time>2016-07-26T20:09:50Z</time>
</trkpt>
<trkpt lat="37.86304500000001" lon="-1.4297433333333334">
<ele>611</ele>
<time>2016-07-26T20:09:52Z</time>
</trkpt>
<trkpt lat="37.863031666666664" lon="-1.4296550000000001">
<ele>613</ele>
<time>2016-07-26T20:09:54Z</time>
</trkpt>
<trkpt lat="37.863018333333336" lon="-1.4295783333333332">
<ele>615</ele>
<time>2016-07-26T20:09:56Z</time>
</trkpt>
<trkpt lat="37.86301" lon="-1.4295066666666667">
<ele>617</ele>
<time>2016-07-26T20:09:58Z</time>
</trkpt>
<trkpt lat="37.86300666666667" lon="-1.4294433333333334">
<ele>619</ele>
<time>2016-07-26T20:10:00Z</time>
</trkpt>
<trkpt lat="37.86300166666667" lon="-1.42938">
<ele>622</ele>
<time>2016-07-26T20:10:02Z</time>
</trkpt>
<trkpt lat="37.86299666666666" lon="-1.4293200000000001">
<ele>623</ele>
<time>2016-07-26T20:10:04Z</time>
</trkpt>
<trkpt lat="37.862988333333334" lon="-1.429263333333333">
<ele>625</ele>
<time>2016-07-26T20:10:06Z</time>
</trkpt>
<trkpt lat="37.862973333333336" lon="-1.4292083333333334">
<ele>626</ele>
<time>2016-07-26T20:10:08Z</time>
</trkpt>
<trkpt lat="37.86296166666667" lon="-1.42915">
<ele>628</ele>
<time>2016-07-26T20:10:10Z</time>
</trkpt>
<trkpt lat="37.86295500000001" lon="-1.4290833333333335">
<ele>629</ele>
<time>2016-07-26T20:10:12Z</time>
</trkpt>
<trkpt lat="37.86294833333333" lon="-1.42901">
<ele>630</ele>
<time>2016-07-26T20:10:14Z</time>
</trkpt>
<trkpt lat="37.86294" lon="-1.4289283333333334">
<ele>631</ele>
<time>2016-07-26T20:10:16Z</time>
</trkpt>
<trkpt lat="37.86293666666666" lon="-1.4288533333333333">
<ele>633</ele>
<time>2016-07-26T20:10:18Z</time>
</trkpt>
<trkpt lat="37.86293166666667" lon="-1.428785">
<ele>634</ele>
<time>2016-07-26T20:10:20Z</time>
</trkpt>
<trkpt lat="37.86292" lon="-1.428725">
<ele>635</ele>
<time>2016-07-26T20:10:22Z</time>
</trkpt>
<trkpt lat="37.86291166666667" lon="-1.4286616666666667">
<ele>636</ele>
<time>2016-07-26T20:10:24Z</time>
</trkpt>
<trkpt lat="37.86290333333333" lon="-1.4286050000000001">
<ele>637</ele>
<time>2016-07-26T20:10:26Z</time>
</trkpt>
<trkpt lat="37.86288666666667" lon="-1.4285716666666666">
<ele>638</ele>
<time>2016-07-26T20:10:28Z</time>
</trkpt>
<trkpt lat="37.86286333333333" lon="-1.428555">
<ele>639</ele>
<time>2016-07-26T20:10:30Z</time>
</trkpt>
<trkpt lat="37.86284333333333" lon="-1.4285583333333332">
<ele>641</ele>
<time>2016-07-26T20:10:32Z</time>
</trkpt>
<trkpt lat="37.862820000000006" lon="-1.4285733333333333">
<ele>642</ele>
<time>2016-07-26T20:10:34Z</time>
</trkpt>
<trkpt lat="37.862806666666664" lon="-1.4285783333333333">
<ele>644</ele>
<time>2016-07-26T20:10:36Z</time>
</trkpt>
<trkpt lat="37.862805" lon="-1.4285633333333334">
<ele>645</ele>
<time>2016-07-26T20:10:38Z</time>
</trkpt>
<trkpt lat="37.862805" lon="-1.4285633333333334">
<ele>645</ele>
<time>2016-07-26T20:10:40Z</time>
</trkpt>
<trkpt lat="37.86280333333333" lon="-1.4285033333333335">
<ele>646</ele>
<time>2016-07-26T20:10:42Z</time>
</trkpt>
<trkpt lat="37.862793333333336" lon="-1.4284566666666667">
<ele>645</ele>
<time>2016-07-26T20:10:44Z</time>
</trkpt>
<trkpt lat="37.862788333333334" lon="-1.428395">
<ele>644</ele>
<time>2016-07-26T20:10:46Z</time>
</trkpt>
<trkpt lat="37.862775000000006" lon="-1.4283333333333335">
<ele>644</ele>
<time>2016-07-26T20:10:48Z</time>
</trkpt>
<trkpt lat="37.86275333333333" lon="-1.4282766666666666">
<ele>643</ele>
<time>2016-07-26T20:10:50Z</time>
</trkpt>
<trkpt lat="37.86273333333334" lon="-1.4281883333333334">
<ele>642</ele>
<time>2016-07-26T20:10:52Z</time>
</trkpt>
<trkpt lat="37.86272333333333" lon="-1.42811">
<ele>641</ele>
<time>2016-07-26T20:10:54Z</time>
</trkpt>
<trkpt lat="37.86271" lon="-1.4280466666666667">
<ele>641</ele>
<time>2016-07-26T20:10:56Z</time>
</trkpt>
<trkpt lat="37.86269333333333" lon="-1.4279883333333334">
<ele>641</ele>
<time>2016-07-26T20:10:58Z</time>
</trkpt>
<trkpt lat="37.86267333333333" lon="-1.4279483333333334">
<ele>641</ele>
<time>2016-07-26T20:11:00Z</time>
</trkpt>
<trkpt lat="37.86266666666667" lon="-1.4279366666666666">
<ele>640</ele>
<time>2016-07-26T20:11:02Z</time>
</trkpt>
<trkpt lat="37.86266166666667" lon="-1.4279316666666666">
<ele>640</ele>
<time>2016-07-26T20:11:04Z</time>
</trkpt>
<trkpt lat="37.86266166666667" lon="-1.4279316666666666">
<ele>640</ele>
<time>2016-07-26T20:11:06Z</time>
</trkpt>
<trkpt lat="37.86262166666667" lon="-1.4279066666666669">
<ele>640</ele>
<time>2016-07-26T20:11:08Z</time>
</trkpt>
<trkpt lat="37.86259166666667" lon="-1.4278566666666668">
<ele>641</ele>
<time>2016-07-26T20:11:10Z</time>
</trkpt>
<trkpt lat="37.86254833333333" lon="-1.42782">
<ele>641</ele>
<time>2016-07-26T20:11:12Z</time>
</trkpt>
<trkpt lat="37.862496666666665" lon="-1.4277816666666667">
<ele>641</ele>
<time>2016-07-26T20:11:14Z</time>
</trkpt>
<trkpt lat="37.862451666666665" lon="-1.4277350000000002">
<ele>642</ele>
<time>2016-07-26T20:11:16Z</time>
</trkpt>
<trkpt lat="37.86241333333333" lon="-1.4276833333333334">
<ele>642</ele>
<time>2016-07-26T20:11:18Z</time>
</trkpt>
<trkpt lat="37.86238166666667" lon="-1.4276333333333333">
<ele>643</ele>
<time>2016-07-26T20:11:20Z</time>
</trkpt>
<trkpt lat="37.862359999999995" lon="-1.4275733333333331">
<ele>643</ele>
<time>2016-07-26T20:11:22Z</time>
</trkpt>
<trkpt lat="37.86235333333333" lon="-1.427505">
<ele>643</ele>
<time>2016-07-26T20:11:24Z</time>
</trkpt>
<trkpt lat="37.862359999999995" lon="-1.4274666666666667">
<ele>643</ele>
<time>2016-07-26T20:11:26Z</time>
</trkpt>
<trkpt lat="37.86234833333333" lon="-1.4274316666666667">
<ele>643</ele>
<time>2016-07-26T20:11:28Z</time>
</trkpt>
<trkpt lat="37.86231333333333" lon="-1.427395">
<ele>643</ele>
<time>2016-07-26T20:11:30Z</time>
</trkpt>
<trkpt lat="37.86227833333333" lon="-1.42736">
<ele>643</ele>
<time>2016-07-26T20:11:32Z</time>
</trkpt>
<trkpt lat="37.86224" lon="-1.4273466666666668">
<ele>643</ele>
<time>2016-07-26T20:11:34Z</time>
</trkpt>
<trkpt lat="37.862190000000005" lon="-1.4273383333333332">
<ele>643</ele>
<time>2016-07-26T20:11:36Z</time>
</trkpt>
<trkpt lat="37.86214833333334" lon="-1.4273483333333334">
<ele>644</ele>
<time>2016-07-26T20:11:38Z</time>
</trkpt>
<trkpt lat="37.86211166666667" lon="-1.4273833333333332">
<ele>644</ele>
<time>2016-07-26T20:11:40Z</time>
</trkpt>
<trkpt lat="37.862075" lon="-1.4274216666666668">
<ele>644</ele>
<time>2016-07-26T20:11:42Z</time>
</trkpt>
<trkpt lat="37.862035" lon="-1.42745">
<ele>644</ele>
<time>2016-07-26T20:11:44Z</time>
</trkpt>
<trkpt lat="37.862004999999996" lon="-1.4274650000000002">
<ele>644</ele>
<time>2016-07-26T20:11:46Z</time>
</trkpt>
<trkpt lat="37.86196833333334" lon="-1.4274633333333333">
<ele>645</ele>
<time>2016-07-26T20:11:48Z</time>
</trkpt>
<trkpt lat="37.86191833333333" lon="-1.42746">
<ele>645</ele>
<time>2016-07-26T20:11:50Z</time>
</trkpt>
<trkpt lat="37.86188" lon="-1.42745">
<ele>644</ele>
<time>2016-07-26T20:11:52Z</time>
</trkpt>
<trkpt lat="37.861855" lon="-1.427435">
<ele>644</ele>
<time>2016-07-26T20:11:54Z</time>
</trkpt>
<trkpt lat="37.86183833333334" lon="-1.4274016666666665">
<ele>643</ele>
<time>2016-07-26T20:11:56Z</time>
</trkpt>
<trkpt lat="37.861803333333334" lon="-1.42737">
<ele>643</ele>
<time>2016-07-26T20:11:58Z</time>
</trkpt>
<trkpt lat="37.861755" lon="-1.4273366666666665">
<ele>643</ele>
<time>2016-07-26T20:12:00Z</time>
</trkpt>
<trkpt lat="37.861705" lon="-1.4272733333333332">
<ele>643</ele>
<time>2016-07-26T20:12:02Z</time>
</trkpt>
<trkpt lat="37.86166333333333" lon="-1.4272066666666667">
<ele>642</ele>
<time>2016-07-26T20:12:04Z</time>
</trkpt>
<trkpt lat="37.861626666666666" lon="-1.4271416666666668">
<ele>642</ele>
<time>2016-07-26T20:12:06Z</time>
</trkpt>
<trkpt lat="37.86159333333333" lon="-1.42707">
<ele>641</ele>
<time>2016-07-26T20:12:08Z</time>
</trkpt>
<trkpt lat="37.861560000000004" lon="-1.42699">
<ele>640</ele>
<time>2016-07-26T20:12:10Z</time>
</trkpt>
<trkpt lat="37.861536666666666" lon="-1.426905">
<ele>640</ele>
<time>2016-07-26T20:12:12Z</time>
</trkpt>
<trkpt lat="37.861505" lon="-1.4268116666666666">
<ele>640</ele>
<time>2016-07-26T20:12:14Z</time>
</trkpt>
<trkpt lat="37.861470000000004" lon="-1.4267216666666667">
<ele>640</ele>
<time>2016-07-26T20:12:16Z</time>
</trkpt>
<trkpt lat="37.861430000000006" lon="-1.42665">
<ele>639</ele>
<time>2016-07-26T20:12:18Z</time>
</trkpt>
<trkpt lat="37.86139333333333" lon="-1.426585">
<ele>639</ele>
<time>2016-07-26T20:12:20Z</time>
</trkpt>
<trkpt lat="37.861345" lon="-1.4265333333333334">
<ele>638</ele>
<time>2016-07-26T20:12:22Z</time>
</trkpt>
<trkpt lat="37.86129666666667" lon="-1.4264949999999998">
<ele>638</ele>
<time>2016-07-26T20:12:24Z</time>
</trkpt>
<trkpt lat="37.861241666666665" lon="-1.4264433333333333">
<ele>638</ele>
<time>2016-07-26T20:12:26Z</time>
</trkpt>
<trkpt lat="37.86118833333333" lon="-1.4263983333333332">
<ele>638</ele>
<time>2016-07-26T20:12:28Z</time>
</trkpt>
<trkpt lat="37.861149999999995" lon="-1.4263633333333334">
<ele>639</ele>
<time>2016-07-26T20:12:30Z</time>
</trkpt>
<trkpt lat="37.861104999999995" lon="-1.4263283333333334">
<ele>639</ele>
<time>2016-07-26T20:12:32Z</time>
</trkpt>
<trkpt lat="37.86105333333333" lon="-1.4262949999999999">
<ele>640</ele>
<time>2016-07-26T20:12:34Z</time>
</trkpt>
<trkpt lat="37.86100333333333" lon="-1.4262733333333335">
<ele>640</ele>
<time>2016-07-26T20:12:36Z</time>
</trkpt>
<trkpt lat="37.860951666666665" lon="-1.4262516666666667">
<ele>641</ele>
<time>2016-07-26T20:12:38Z</time>
</trkpt>
<trkpt lat="37.86089333333334" lon="-1.4262249999999999">
<ele>642</ele>
<time>2016-07-26T20:12:40Z</time>
</trkpt>
<trkpt lat="37.860845000000005" lon="-1.42621">
<ele>642</ele>
<time>2016-07-26T20:12:42Z</time>
</trkpt>
<trkpt lat="37.860795" lon="-1.42619">
<ele>643</ele>
<time>2016-07-26T20:12:44Z</time>
</trkpt>
<trkpt lat="37.86074333333333" lon="-1.42618">
<ele>645</ele>
<time>2016-07-26T20:12:46Z</time>
</trkpt>
<trkpt lat="37.860695" lon="-1.4261783333333333">
<ele>645</ele>
<time>2016-07-26T20:12:48Z</time>
</trkpt>
<trkpt lat="37.860636666666664" lon="-1.4261766666666666">
<ele>646</ele>
<time>2016-07-26T20:12:50Z</time>
</trkpt>
<trkpt lat="37.86058" lon="-1.4261883333333332">
<ele>647</ele>
<time>2016-07-26T20:12:52Z</time>
</trkpt>
<trkpt lat="37.86052666666667" lon="-1.426205">
<ele>647</ele>
<time>2016-07-26T20:12:54Z</time>
</trkpt>
<trkpt lat="37.860463333333335" lon="-1.4262166666666665">
<ele>648</ele>
<time>2016-07-26T20:12:56Z</time>
</trkpt>
<trkpt lat="37.860405" lon="-1.4262233333333334">
<ele>648</ele>
<time>2016-07-26T20:12:58Z</time>
</trkpt>
<trkpt lat="37.860351666666666" lon="-1.4262366666666668">
<ele>648</ele>
<time>2016-07-26T20:13:00Z</time>
</trkpt>
<trkpt lat="37.86029333333333" lon="-1.42625">
<ele>649</ele>
<time>2016-07-26T20:13:02Z</time>
</trkpt>
<trkpt lat="37.860225" lon="-1.426255">
<ele>649</ele>
<time>2016-07-26T20:13:04Z</time>
</trkpt>
<trkpt lat="37.860155" lon="-1.4262733333333335">
<ele>650</ele>
<time>2016-07-26T20:13:06Z</time>
</trkpt>
<trkpt lat="37.86009166666667" lon="-1.4263116666666666">
<ele>650</ele>
<time>2016-07-26T20:13:08Z</time>
</trkpt>
<trkpt lat="37.86004333333334" lon="-1.4263266666666667">
<ele>651</ele>
<time>2016-07-26T20:13:10Z</time>
</trkpt>
<trkpt lat="37.85998333333334" lon="-1.4263266666666667">
<ele>651</ele>
<time>2016-07-26T20:13:12Z</time>
</trkpt>
<trkpt lat="37.859921666666665" lon="-1.4263183333333334">
<ele>651</ele>
<time>2016-07-26T20:13:14Z</time>
</trkpt>
<trkpt lat="37.85986166666667" lon="-1.426305">
<ele>651</ele>
<time>2016-07-26T20:13:16Z</time>
</trkpt>
<trkpt lat="37.85979833333333" lon="-1.4262949999999999">
<ele>650</ele>
<time>2016-07-26T20:13:18Z</time>
</trkpt>
<trkpt lat="37.85973" lon="-1.4262916666666667">
<ele>650</ele>
<time>2016-07-26T20:13:20Z</time>
</trkpt>
<trkpt lat="37.85965833333333" lon="-1.4263233333333334">
<ele>651</ele>
<time>2016-07-26T20:13:22Z</time>
</trkpt>
<trkpt lat="37.859605" lon="-1.4263666666666666">
<ele>651</ele>
<time>2016-07-26T20:13:24Z</time>
</trkpt>
<trkpt lat="37.859564999999996" lon="-1.42639">
<ele>651</ele>
<time>2016-07-26T20:13:26Z</time>
</trkpt>
<trkpt lat="37.859515" lon="-1.426405">
<ele>651</ele>
<time>2016-07-26T20:13:28Z</time>
</trkpt>
<trkpt lat="37.85946333333333" lon="-1.4264216666666667">
<ele>651</ele>
<time>2016-07-26T20:13:30Z</time>
</trkpt>
<trkpt lat="37.85941666666667" lon="-1.426451666666667">
<ele>651</ele>
<time>2016-07-26T20:13:32Z</time>
</trkpt>
<trkpt lat="37.85936" lon="-1.42649">
<ele>651</ele>
<time>2016-07-26T20:13:34Z</time>
</trkpt>
<trkpt lat="37.859291666666664" lon="-1.426535">
<ele>651</ele>
<time>2016-07-26T20:13:36Z</time>
</trkpt>
<trkpt lat="37.859233333333336" lon="-1.4265866666666667">
<ele>651</ele>
<time>2016-07-26T20:13:38Z</time>
</trkpt>
<trkpt lat="37.85919" lon="-1.4266266666666667">
<ele>651</ele>
<time>2016-07-26T20:13:40Z</time>
</trkpt>
<trkpt lat="37.859138333333334" lon="-1.4266583333333334">
<ele>651</ele>
<time>2016-07-26T20:13:42Z</time>
</trkpt>
<trkpt lat="37.859095" lon="-1.4266616666666667">
<ele>651</ele>
<time>2016-07-26T20:13:44Z</time>
</trkpt>
<trkpt lat="37.859053333333335" lon="-1.42664">
<ele>651</ele>
<time>2016-07-26T20:13:46Z</time>
</trkpt>
<trkpt lat="37.85902333333333" lon="-1.4266">
<ele>650</ele>
<time>2016-07-26T20:13:48Z</time>
</trkpt>
<trkpt lat="37.85897666666666" lon="-1.426565">
<ele>650</ele>
<time>2016-07-26T20:13:50Z</time>
</trkpt>
<trkpt lat="37.858934999999995" lon="-1.42653">
<ele>650</ele>
<time>2016-07-26T20:13:52Z</time>
</trkpt>
<trkpt lat="37.85888666666666" lon="-1.4264916666666667">
<ele>648</ele>
<time>2016-07-26T20:13:54Z</time>
</trkpt>
<trkpt lat="37.85884333333333" lon="-1.4264633333333334">
<ele>647</ele>
<time>2016-07-26T20:13:56Z</time>
</trkpt>
<trkpt lat="37.858801666666665" lon="-1.4264416666666666">
<ele>646</ele>
<time>2016-07-26T20:13:58Z</time>
</trkpt>
<trkpt lat="37.85874833333333" lon="-1.4264233333333334">
<ele>645</ele>
<time>2016-07-26T20:14:00Z</time>
</trkpt>
<trkpt lat="37.858691666666665" lon="-1.4264116666666666">
<ele>644</ele>
<time>2016-07-26T20:14:02Z</time>
</trkpt>
<trkpt lat="37.85863166666666" lon="-1.4264016666666668">
<ele>643</ele>
<time>2016-07-26T20:14:04Z</time>
</trkpt>
<trkpt lat="37.858595" lon="-1.4264016666666668">
<ele>642</ele>
<time>2016-07-26T20:14:06Z</time>
</trkpt>
<trkpt lat="37.85854500000001" lon="-1.4263949999999999">
<ele>640</ele>
<time>2016-07-26T20:14:08Z</time>
</trkpt>
<trkpt lat="37.858485" lon="-1.4263633333333334">
<ele>639</ele>
<time>2016-07-26T20:14:10Z</time>
</trkpt>
<trkpt lat="37.85841833333333" lon="-1.4263533333333331">
<ele>638</ele>
<time>2016-07-26T20:14:12Z</time>
</trkpt>
<trkpt lat="37.858345" lon="-1.4263616666666667">
<ele>636</ele>
<time>2016-07-26T20:14:14Z</time>
</trkpt>
<trkpt lat="37.85827" lon="-1.4263666666666666">
<ele>635</ele>
<time>2016-07-26T20:14:16Z</time>
</trkpt>
<trkpt lat="37.858198333333334" lon="-1.4263633333333334">
<ele>633</ele>
<time>2016-07-26T20:14:18Z</time>
</trkpt>
<trkpt lat="37.85812333333333" lon="-1.4263433333333335">
<ele>632</ele>
<time>2016-07-26T20:14:20Z</time>
</trkpt>
<trkpt lat="37.858021666666666" lon="-1.4263233333333334">
<ele>628</ele>
<time>2016-07-26T20:14:22Z</time>
</trkpt>
<trkpt lat="37.85794833333333" lon="-1.4262783333333333">
<ele>625</ele>
<time>2016-07-26T20:14:24Z</time>
</trkpt>
<trkpt lat="37.857888333333335" lon="-1.42621">
<ele>624</ele>
<time>2016-07-26T20:14:26Z</time>
</trkpt>
<trkpt lat="37.857841666666666" lon="-1.4261266666666668">
<ele>622</ele>
<time>2016-07-26T20:14:28Z</time>
</trkpt>
<trkpt lat="37.8578" lon="-1.4260283333333335">
<ele>621</ele>
<time>2016-07-26T20:14:30Z</time>
</trkpt>
<trkpt lat="37.85774833333333" lon="-1.4259116666666667">
<ele>620</ele>
<time>2016-07-26T20:14:32Z</time>
</trkpt>
<trkpt lat="37.85769666666667" lon="-1.4258016666666666">
<ele>618</ele>
<time>2016-07-26T20:14:34Z</time>
</trkpt>
<trkpt lat="37.85765" lon="-1.4256966666666666">
<ele>617</ele>
<time>2016-07-26T20:14:36Z</time>
</trkpt>
<trkpt lat="37.85760333333334" lon="-1.4256033333333331">
<ele>615</ele>
<time>2016-07-26T20:14:38Z</time>
</trkpt>
<trkpt lat="37.857549999999996" lon="-1.4255133333333334">
<ele>614</ele>
<time>2016-07-26T20:14:40Z</time>
</trkpt>
<trkpt lat="37.85749666666666" lon="-1.425435">
<ele>612</ele>
<time>2016-07-26T20:14:42Z</time>
</trkpt>
<trkpt lat="37.857438333333334" lon="-1.42537">
<ele>610</ele>
<time>2016-07-26T20:14:44Z</time>
</trkpt>
<trkpt lat="37.857373333333335" lon="-1.425315">
<ele>608</ele>
<time>2016-07-26T20:14:46Z</time>
</trkpt>
<trkpt lat="37.85731166666667" lon="-1.4252633333333333">
<ele>606</ele>
<time>2016-07-26T20:14:48Z</time>
</trkpt>
<trkpt lat="37.857258333333334" lon="-1.4252133333333332">
<ele>604</ele>
<time>2016-07-26T20:14:50Z</time>
</trkpt>
<trkpt lat="37.85720166666667" lon="-1.4251583333333333">
<ele>601</ele>
<time>2016-07-26T20:14:52Z</time>
</trkpt>
<trkpt lat="37.857126666666666" lon="-1.4251083333333334">
<ele>599</ele>
<time>2016-07-26T20:14:54Z</time>
</trkpt>
<trkpt lat="37.857054999999995" lon="-1.4250800000000001">
<ele>598</ele>
<time>2016-07-26T20:14:56Z</time>
</trkpt>
<trkpt lat="37.856986666666664" lon="-1.42505">
<ele>596</ele>
<time>2016-07-26T20:14:58Z</time>
</trkpt>
<trkpt lat="37.856915" lon="-1.4250150000000001">
<ele>593</ele>
<time>2016-07-26T20:15:00Z</time>
</trkpt>
<trkpt lat="37.856833333333334" lon="-1.42499">
<ele>591</ele>
<time>2016-07-26T20:15:02Z</time>
</trkpt>
<trkpt lat="37.856748333333336" lon="-1.4249733333333334">
<ele>590</ele>
<time>2016-07-26T20:15:04Z</time>
</trkpt>
<trkpt lat="37.856671666666664" lon="-1.4249533333333335">
<ele>589</ele>
<time>2016-07-26T20:15:06Z</time>
</trkpt>
<trkpt lat="37.856588333333335" lon="-1.4249383333333334">
<ele>587</ele>
<time>2016-07-26T20:15:08Z</time>
</trkpt>
<trkpt lat="37.856505" lon="-1.4249183333333333">
<ele>585</ele>
<time>2016-07-26T20:15:10Z</time>
</trkpt>
<trkpt lat="37.85644333333333" lon="-1.4248866666666666">
<ele>584</ele>
<time>2016-07-26T20:15:12Z</time>
</trkpt>
<trkpt lat="37.85639833333333" lon="-1.4248516666666666">
<ele>582</ele>
<time>2016-07-26T20:15:14Z</time>
</trkpt>
<trkpt lat="37.856343333333335" lon="-1.4248116666666666">
<ele>580</ele>
<time>2016-07-26T20:15:16Z</time>
</trkpt>
<trkpt lat="37.856273333333334" lon="-1.4247433333333333">
<ele>578</ele>
<time>2016-07-26T20:15:18Z</time>
</trkpt>
<trkpt lat="37.85621166666667" lon="-1.4246916666666667">
<ele>576</ele>
<time>2016-07-26T20:15:20Z</time>
</trkpt>
<trkpt lat="37.85615333333333" lon="-1.4246316666666667">
<ele>574</ele>
<time>2016-07-26T20:15:22Z</time>
</trkpt>
<trkpt lat="37.856093333333334" lon="-1.4245566666666667">
<ele>572</ele>
<time>2016-07-26T20:15:24Z</time>
</trkpt>
<trkpt lat="37.85603666666667" lon="-1.424485">
<ele>571</ele>
<time>2016-07-26T20:15:26Z</time>
</trkpt>
<trkpt lat="37.85598" lon="-1.4244183333333336">
<ele>569</ele>
<time>2016-07-26T20:15:28Z</time>
</trkpt>
<trkpt lat="37.855911666666664" lon="-1.4243633333333332">
<ele>567</ele>
<time>2016-07-26T20:15:30Z</time>
</trkpt>
<trkpt lat="37.85583333333333" lon="-1.4243216666666667">
<ele>566</ele>
<time>2016-07-26T20:15:32Z</time>
</trkpt>
<trkpt lat="37.85575166666667" lon="-1.42429">
<ele>564</ele>
<time>2016-07-26T20:15:34Z</time>
</trkpt>
<trkpt lat="37.85566666666667" lon="-1.42425">
<ele>563</ele>
<time>2016-07-26T20:15:36Z</time>
</trkpt>
<trkpt lat="37.85559333333333" lon="-1.42421">
<ele>561</ele>
<time>2016-07-26T20:15:38Z</time>
</trkpt>
<trkpt lat="37.85554833333333" lon="-1.42416">
<ele>560</ele>
<time>2016-07-26T20:15:40Z</time>
</trkpt>
<trkpt lat="37.85552666666667" lon="-1.4241">
<ele>558</ele>
<time>2016-07-26T20:15:42Z</time>
</trkpt>
<trkpt lat="37.8555" lon="-1.4240283333333332">
<ele>557</ele>
<time>2016-07-26T20:15:44Z</time>
</trkpt>
<trkpt lat="37.85546333333333" lon="-1.4239833333333332">
<ele>555</ele>
<time>2016-07-26T20:15:46Z</time>
</trkpt>
<trkpt lat="37.85541166666667" lon="-1.4239966666666668">
<ele>553</ele>
<time>2016-07-26T20:15:48Z</time>
</trkpt>
<trkpt lat="37.85539000000001" lon="-1.42407">
<ele>550</ele>
<time>2016-07-26T20:15:50Z</time>
</trkpt>
<trkpt lat="37.855403333333335" lon="-1.424205">
<ele>548</ele>
<time>2016-07-26T20:15:52Z</time>
</trkpt>
<trkpt lat="37.855445" lon="-1.424395">
<ele>545</ele>
<time>2016-07-26T20:15:54Z</time>
</trkpt>
<trkpt lat="37.855513333333334" lon="-1.4246066666666666">
<ele>542</ele>
<time>2016-07-26T20:15:56Z</time>
</trkpt>
<trkpt lat="37.85561333333333" lon="-1.4248316666666667">
<ele>540</ele>
<time>2016-07-26T20:15:58Z</time>
</trkpt>
<trkpt lat="37.85574999999999" lon="-1.4250600000000002">
<ele>537</ele>
<time>2016-07-26T20:16:00Z</time>
</trkpt>
<trkpt lat="37.85590833333333" lon="-1.4252733333333334">
<ele>535</ele>
<time>2016-07-26T20:16:02Z</time>
</trkpt>
<trkpt lat="37.85609" lon="-1.4254766666666665">
<ele>534</ele>
<time>2016-07-26T20:16:04Z</time>
</trkpt>
<trkpt lat="37.856289999999994" lon="-1.42566">
<ele>532</ele>
<time>2016-07-26T20:16:06Z</time>
</trkpt>
<trkpt lat="37.85651666666667" lon="-1.4258016666666666">
<ele>531</ele>
<time>2016-07-26T20:16:08Z</time>
</trkpt>
<trkpt lat="37.856746666666666" lon="-1.4259183333333332">
<ele>529</ele>
<time>2016-07-26T20:16:10Z</time>
</trkpt>
<trkpt lat="37.85699833333333" lon="-1.4260183333333334">
<ele>527</ele>
<time>2016-07-26T20:16:12Z</time>
</trkpt>
<trkpt lat="37.85725166666667" lon="-1.426115">
<ele>526</ele>
<time>2016-07-26T20:16:14Z</time>
</trkpt>
<trkpt lat="37.85749333333333" lon="-1.4262216666666667">
<ele>524</ele>
<time>2016-07-26T20:16:16Z</time>
</trkpt>
<trkpt lat="37.85773166666667" lon="-1.4263366666666668">
<ele>523</ele>
<time>2016-07-26T20:16:18Z</time>
</trkpt>
<trkpt lat="37.857955" lon="-1.4264616666666665">
<ele>521</ele>
<time>2016-07-26T20:16:20Z</time>
</trkpt>
<trkpt lat="37.85817" lon="-1.4265949999999998">
<ele>520</ele>
<time>2016-07-26T20:16:22Z</time>
</trkpt>
<trkpt lat="37.85839333333333" lon="-1.4267150000000002">
<ele>519</ele>
<time>2016-07-26T20:16:24Z</time>
</trkpt>
<trkpt lat="37.85861833333333" lon="-1.4268366666666668">
<ele>518</ele>
<time>2016-07-26T20:16:26Z</time>
</trkpt>
<trkpt lat="37.85884" lon="-1.4269683333333334">
<ele>518</ele>
<time>2016-07-26T20:16:28Z</time>
</trkpt>
<trkpt lat="37.859053333333335" lon="-1.427105">
<ele>517</ele>
<time>2016-07-26T20:16:30Z</time>
</trkpt>
<trkpt lat="37.85927166666667" lon="-1.4272383333333334">
<ele>517</ele>
<time>2016-07-26T20:16:32Z</time>
</trkpt>
<trkpt lat="37.85947833333333" lon="-1.4273766666666667">
<ele>516</ele>
<time>2016-07-26T20:16:34Z</time>
</trkpt>
<trkpt lat="37.859680000000004" lon="-1.4275283333333335">
<ele>516</ele>
<time>2016-07-26T20:16:36Z</time>
</trkpt>
<trkpt lat="37.859878333333334" lon="-1.4276833333333334">
<ele>516</ele>
<time>2016-07-26T20:16:38Z</time>
</trkpt>
<trkpt lat="37.86006166666667" lon="-1.4278233333333332">
<ele>517</ele>
<time>2016-07-26T20:16:40Z</time>
</trkpt>
<trkpt lat="37.860225" lon="-1.4279816666666667">
<ele>518</ele>
<time>2016-07-26T20:16:42Z</time>
</trkpt>
<trkpt lat="37.860368333333334" lon="-1.4281516666666665">
<ele>518</ele>
<time>2016-07-26T20:16:44Z</time>
</trkpt>
<trkpt lat="37.860474999999994" lon="-1.4282966666666668">
<ele>520</ele>
<time>2016-07-26T20:16:46Z</time>
</trkpt>
<trkpt lat="37.86054166666667" lon="-1.428445">
<ele>521</ele>
<time>2016-07-26T20:16:48Z</time>
</trkpt>
<trkpt lat="37.860551666666666" lon="-1.428575">
<ele>521</ele>
<time>2016-07-26T20:16:50Z</time>
</trkpt>
<trkpt lat="37.860533333333336" lon="-1.4286850000000002">
<ele>522</ele>
<time>2016-07-26T20:16:52Z</time>
</trkpt>
<trkpt lat="37.860495" lon="-1.4287433333333333">
<ele>522</ele>
<time>2016-07-26T20:16:54Z</time>
</trkpt>
<trkpt lat="37.86042833333333" lon="-1.4287583333333334">
<ele>522</ele>
<time>2016-07-26T20:16:56Z</time>
</trkpt>
<trkpt lat="37.86037666666667" lon="-1.4286933333333334">
<ele>522</ele>
<time>2016-07-26T20:16:58Z</time>
</trkpt>
<trkpt lat="37.860366666666664" lon="-1.4286066666666666">
<ele>523</ele>
<time>2016-07-26T20:17:00Z</time>
</trkpt>
<trkpt lat="37.86042333333333" lon="-1.4284999999999999">
<ele>524</ele>
<time>2016-07-26T20:17:02Z</time>
</trkpt>
<trkpt lat="37.86055833333333" lon="-1.428345">
<ele>525</ele>
<time>2016-07-26T20:17:04Z</time>
</trkpt>
<trkpt lat="37.860731666666666" lon="-1.4282916666666667">
<ele>527</ele>
<time>2016-07-26T20:17:06Z</time>
</trkpt>
<trkpt lat="37.860935000000005" lon="-1.4283066666666668">
<ele>529</ele>
<time>2016-07-26T20:17:08Z</time>
</trkpt>
<trkpt lat="37.86113833333333" lon="-1.4283733333333333">
<ele>530</ele>
<time>2016-07-26T20:17:10Z</time>
</trkpt>
<trkpt lat="37.86127166666667" lon="-1.4284883333333334">
<ele>532</ele>
<time>2016-07-26T20:17:12Z</time>
</trkpt>
<trkpt lat="37.861356666666666" lon="-1.4286233333333334">
<ele>533</ele>
<time>2016-07-26T20:17:14Z</time>
</trkpt>
<trkpt lat="37.86141166666666" lon="-1.428725">
<ele>535</ele>
<time>2016-07-26T20:17:16Z</time>
</trkpt>
<trkpt lat="37.86141833333333" lon="-1.4288366666666665">
<ele>537</ele>
<time>2016-07-26T20:17:18Z</time>
</trkpt>
<trkpt lat="37.861415" lon="-1.4289083333333332">
<ele>539</ele>
<time>2016-07-26T20:17:20Z</time>
</trkpt>
<trkpt lat="37.86141" lon="-1.4289266666666667">
<ele>541</ele>
<time>2016-07-26T20:17:22Z</time>
</trkpt>
<trkpt lat="37.86141666666666" lon="-1.4288733333333332">
<ele>543</ele>
<time>2016-07-26T20:17:24Z</time>
</trkpt>
<trkpt lat="37.861445" lon="-1.4288166666666666">
<ele>546</ele>
<time>2016-07-26T20:17:26Z</time>
</trkpt>
<trkpt lat="37.86154666666666" lon="-1.4286766666666668">
<ele>547</ele>
<time>2016-07-26T20:17:28Z</time>
</trkpt>
<trkpt lat="37.86170833333333" lon="-1.4285183333333333">
<ele>549</ele>
<time>2016-07-26T20:17:30Z</time>
</trkpt>
<trkpt lat="37.86188333333334" lon="-1.428475">
<ele>551</ele>
<time>2016-07-26T20:17:32Z</time>
</trkpt>
<trkpt lat="37.86208666666666" lon="-1.4284883333333334">
<ele>553</ele>
<time>2016-07-26T20:17:34Z</time>
</trkpt>
<trkpt lat="37.86221666666667" lon="-1.4285883333333333">
<ele>555</ele>
<time>2016-07-26T20:17:36Z</time>
</trkpt>
<trkpt lat="37.86230333333333" lon="-1.4286983333333334">
<ele>558</ele>
<time>2016-07-26T20:17:38Z</time>
</trkpt>
<trkpt lat="37.86238166666667" lon="-1.42884">
<ele>561</ele>
<time>2016-07-26T20:17:40Z</time>
</trkpt>
<trkpt lat="37.862425" lon="-1.4289716666666665">
<ele>564</ele>
<time>2016-07-26T20:17:42Z</time>
</trkpt>
<trkpt lat="37.86244333333333" lon="-1.42911">
<ele>567</ele>
<time>2016-07-26T20:17:44Z</time>
</trkpt>
<trkpt lat="37.86244" lon="-1.429265">
<ele>569</ele>
<time>2016-07-26T20:17:46Z</time>
</trkpt>
<trkpt lat="37.86244833333333" lon="-1.4294116666666667">
<ele>571</ele>
<time>2016-07-26T20:17:48Z</time>
</trkpt>
<trkpt lat="37.86244833333333" lon="-1.4295316666666666">
<ele>573</ele>
<time>2016-07-26T20:17:50Z</time>
</trkpt>
<trkpt lat="37.86243666666667" lon="-1.429665">
<ele>575</ele>
<time>2016-07-26T20:17:52Z</time>
</trkpt>
<trkpt lat="37.86244166666667" lon="-1.4297966666666668">
<ele>577</ele>
<time>2016-07-26T20:17:54Z</time>
</trkpt>
<trkpt lat="37.86245333333333" lon="-1.42991">
<ele>578</ele>
<time>2016-07-26T20:17:56Z</time>
</trkpt>
<trkpt lat="37.86244333333333" lon="-1.4300316666666668">
<ele>580</ele>
<time>2016-07-26T20:17:58Z</time>
</trkpt>
<trkpt lat="37.862428333333334" lon="-1.4301366666666666">
<ele>582</ele>
<time>2016-07-26T20:18:00Z</time>
</trkpt>
<trkpt lat="37.862415000000006" lon="-1.4302316666666668">
<ele>584</ele>
<time>2016-07-26T20:18:02Z</time>
</trkpt>
<trkpt lat="37.862388333333335" lon="-1.4303433333333333">
<ele>585</ele>
<time>2016-07-26T20:18:04Z</time>
</trkpt>
<trkpt lat="37.862375" lon="-1.4304616666666665">
<ele>587</ele>
<time>2016-07-26T20:18:06Z</time>
</trkpt>
<trkpt lat="37.862361666666665" lon="-1.4305750000000002">
<ele>588</ele>
<time>2016-07-26T20:18:08Z</time>
</trkpt>
<trkpt lat="37.86236333333333" lon="-1.4306966666666667">
<ele>591</ele>
<time>2016-07-26T20:18:10Z</time>
</trkpt>
<trkpt lat="37.86239166666667" lon="-1.4308216666666667">
<ele>592</ele>
<time>2016-07-26T20:18:12Z</time>
</trkpt>
<trkpt lat="37.86241833333334" lon="-1.4309583333333333">
<ele>592</ele>
<time>2016-07-26T20:18:14Z</time>
</trkpt>
<trkpt lat="37.862435" lon="-1.4311016666666667">
<ele>594</ele>
<time>2016-07-26T20:18:16Z</time>
</trkpt>
<trkpt lat="37.862460000000006" lon="-1.4312333333333331">
<ele>596</ele>
<time>2016-07-26T20:18:18Z</time>
</trkpt>
<trkpt lat="37.86248166666667" lon="-1.4313366666666667">
<ele>597</ele>
<time>2016-07-26T20:18:20Z</time>
</trkpt>
<trkpt lat="37.86249166666666" lon="-1.4314333333333333">
<ele>598</ele>
<time>2016-07-26T20:18:22Z</time>
</trkpt>
<trkpt lat="37.86249166666666" lon="-1.431525">
<ele>600</ele>
<time>2016-07-26T20:18:24Z</time>
</trkpt>
<trkpt lat="37.862460000000006" lon="-1.4316233333333335">
<ele>600</ele>
<time>2016-07-26T20:18:26Z</time>
</trkpt>
<trkpt lat="37.862428333333334" lon="-1.4317283333333333">
<ele>601</ele>
<time>2016-07-26T20:18:28Z</time>
</trkpt>
<trkpt lat="37.862404999999995" lon="-1.4318416666666667">
<ele>603</ele>
<time>2016-07-26T20:18:30Z</time>
</trkpt>
<trkpt lat="37.86238166666667" lon="-1.4319516666666667">
<ele>604</ele>
<time>2016-07-26T20:18:32Z</time>
</trkpt>
<trkpt lat="37.86236666666667" lon="-1.4320466666666665">
<ele>605</ele>
<time>2016-07-26T20:18:34Z</time>
</trkpt>
<trkpt lat="37.862338333333334" lon="-1.4321433333333333">
<ele>607</ele>
<time>2016-07-26T20:18:36Z</time>
</trkpt>
<trkpt lat="37.86231833333333" lon="-1.4322533333333332">
<ele>608</ele>
<time>2016-07-26T20:18:38Z</time>
</trkpt>
<trkpt lat="37.862305" lon="-1.4323783333333333">
<ele>609</ele>
<time>2016-07-26T20:18:40Z</time>
</trkpt>
<trkpt lat="37.862285" lon="-1.4325033333333332">
<ele>611</ele>
<time>2016-07-26T20:18:42Z</time>
</trkpt>
<trkpt lat="37.86227333333333" lon="-1.4326516666666667">
<ele>612</ele>
<time>2016-07-26T20:18:44Z</time>
</trkpt>
<trkpt lat="37.86225833333333" lon="-1.4328166666666666">
<ele>613</ele>
<time>2016-07-26T20:18:46Z</time>
</trkpt>
<trkpt lat="37.862253333333335" lon="-1.4329133333333335">
<ele>613</ele>
<time>2016-07-26T20:18:48Z</time>
</trkpt>
<trkpt lat="37.86224166666667" lon="-1.4330383333333332">
<ele>614</ele>
<time>2016-07-26T20:18:50Z</time>
</trkpt>
<trkpt lat="37.862224999999995" lon="-1.4331933333333335">
<ele>614</ele>
<time>2016-07-26T20:18:52Z</time>
</trkpt>
<trkpt lat="37.86221" lon="-1.4333516666666666">
<ele>615</ele>
<time>2016-07-26T20:18:54Z</time>
</trkpt>
<trkpt lat="37.86218833333333" lon="-1.4334883333333333">
<ele>616</ele>
<time>2016-07-26T20:18:56Z</time>
</trkpt>
<trkpt lat="37.86216" lon="-1.4336116666666667">
<ele>616</ele>
<time>2016-07-26T20:18:58Z</time>
</trkpt>
<trkpt lat="37.86213166666666" lon="-1.4337183333333332">
<ele>618</ele>
<time>2016-07-26T20:19:00Z</time>
</trkpt>
<trkpt lat="37.86210333333334" lon="-1.4338266666666666">
<ele>619</ele>
<time>2016-07-26T20:19:02Z</time>
</trkpt>
<trkpt lat="37.862073333333335" lon="-1.4339233333333332">
<ele>620</ele>
<time>2016-07-26T20:19:04Z</time>
</trkpt>
<trkpt lat="37.862048333333334" lon="-1.43401">
<ele>621</ele>
<time>2016-07-26T20:19:06Z</time>
</trkpt>
<trkpt lat="37.862035" lon="-1.4341016666666666">
<ele>621</ele>
<time>2016-07-26T20:19:08Z</time>
</trkpt>
<trkpt lat="37.86201166666667" lon="-1.4341833333333334">
<ele>621</ele>
<time>2016-07-26T20:19:10Z</time>
</trkpt>
<trkpt lat="37.86196666666667" lon="-1.4342616666666668">
<ele>622</ele>
<time>2016-07-26T20:19:12Z</time>
</trkpt>
<trkpt lat="37.861916666666666" lon="-1.4343266666666667">
<ele>622</ele>
<time>2016-07-26T20:19:14Z</time>
</trkpt>
<trkpt lat="37.86188333333334" lon="-1.4343766666666666">
<ele>623</ele>
<time>2016-07-26T20:19:16Z</time>
</trkpt>
<trkpt lat="37.86183333333334" lon="-1.4344083333333333">
<ele>623</ele>
<time>2016-07-26T20:19:18Z</time>
</trkpt>
<trkpt lat="37.861774999999994" lon="-1.4344383333333333">
<ele>623</ele>
<time>2016-07-26T20:19:20Z</time>
</trkpt>
<trkpt lat="37.86172" lon="-1.4344783333333335">
<ele>623</ele>
<time>2016-07-26T20:19:22Z</time>
</trkpt>
<trkpt lat="37.86168" lon="-1.4345416666666668">
<ele>624</ele>
<time>2016-07-26T20:19:24Z</time>
</trkpt>
<trkpt lat="37.861628333333336" lon="-1.4346083333333333">
<ele>624</ele>
<time>2016-07-26T20:19:26Z</time>
</trkpt>
<trkpt lat="37.861565000000006" lon="-1.4346566666666667">
<ele>625</ele>
<time>2016-07-26T20:19:28Z</time>
</trkpt>
<trkpt lat="37.86150166666666" lon="-1.4347033333333332">
<ele>625</ele>
<time>2016-07-26T20:19:30Z</time>
</trkpt>
<trkpt lat="37.861445" lon="-1.4347583333333334">
<ele>625</ele>
<time>2016-07-26T20:19:32Z</time>
</trkpt>
<trkpt lat="37.86138666666667" lon="-1.4348266666666667">
<ele>625</ele>
<time>2016-07-26T20:19:34Z</time>
</trkpt>
<trkpt lat="37.861329999999995" lon="-1.4349016666666667">
<ele>625</ele>
<time>2016-07-26T20:19:36Z</time>
</trkpt>
<trkpt lat="37.86127666666666" lon="-1.4349466666666668">
<ele>625</ele>
<time>2016-07-26T20:19:38Z</time>
</trkpt>
<trkpt lat="37.861221666666665" lon="-1.4349783333333332">
<ele>625</ele>
<time>2016-07-26T20:19:40Z</time>
</trkpt>
<trkpt lat="37.86116333333334" lon="-1.4350433333333332">
<ele>626</ele>
<time>2016-07-26T20:19:42Z</time>
</trkpt>
<trkpt lat="37.86112166666667" lon="-1.4351266666666667">
<ele>626</ele>
<time>2016-07-26T20:19:44Z</time>
</trkpt>
<trkpt lat="37.86107666666667" lon="-1.4351833333333335">
<ele>626</ele>
<time>2016-07-26T20:19:46Z</time>
</trkpt>
<trkpt lat="37.86103166666667" lon="-1.435205">
<ele>627</ele>
<time>2016-07-26T20:19:48Z</time>
</trkpt>
<trkpt lat="37.860985" lon="-1.4352183333333333">
<ele>627</ele>
<time>2016-07-26T20:19:50Z</time>
</trkpt>
<trkpt lat="37.86093833333334" lon="-1.4352433333333332">
<ele>626</ele>
<time>2016-07-26T20:19:52Z</time>
</trkpt>
<trkpt lat="37.86089666666667" lon="-1.4352616666666667">
<ele>626</ele>
<time>2016-07-26T20:19:54Z</time>
</trkpt>
<trkpt lat="37.86087333333333" lon="-1.4353166666666666">
<ele>626</ele>
<time>2016-07-26T20:19:56Z</time>
</trkpt>
<trkpt lat="37.86084666666667" lon="-1.4354">
<ele>626</ele>
<time>2016-07-26T20:19:58Z</time>
</trkpt>
<trkpt lat="37.86080333333334" lon="-1.4354533333333332">
<ele>625</ele>
<time>2016-07-26T20:20:00Z</time>
</trkpt>
<trkpt lat="37.86074166666666" lon="-1.4354766666666667">
<ele>625</ele>
<time>2016-07-26T20:20:02Z</time>
</trkpt>
<trkpt lat="37.860683333333334" lon="-1.4355">
<ele>625</ele>
<time>2016-07-26T20:20:04Z</time>
</trkpt>
<trkpt lat="37.860623333333336" lon="-1.4355416666666665">
<ele>625</ele>
<time>2016-07-26T20:20:06Z</time>
</trkpt>
<trkpt lat="37.860566666666664" lon="-1.4355966666666666">
<ele>625</ele>
<time>2016-07-26T20:20:08Z</time>
</trkpt>
<trkpt lat="37.860528333333335" lon="-1.43566">
<ele>625</ele>
<time>2016-07-26T20:20:10Z</time>
</trkpt>
<trkpt lat="37.86049166666667" lon="-1.4357383333333333">
<ele>626</ele>
<time>2016-07-26T20:20:12Z</time>
</trkpt>
<trkpt lat="37.86045333333333" lon="-1.4358333333333335">
<ele>626</ele>
<time>2016-07-26T20:20:14Z</time>
</trkpt>
<trkpt lat="37.86043166666666" lon="-1.4359166666666667">
<ele>626</ele>
<time>2016-07-26T20:20:16Z</time>
</trkpt>
<trkpt lat="37.86040333333334" lon="-1.4359983333333333">
<ele>626</ele>
<time>2016-07-26T20:20:18Z</time>
</trkpt>
<trkpt lat="37.860375" lon="-1.4360883333333334">
<ele>626</ele>
<time>2016-07-26T20:20:20Z</time>
</trkpt>
<trkpt lat="37.860348333333334" lon="-1.4361783333333333">
<ele>626</ele>
<time>2016-07-26T20:20:22Z</time>
</trkpt>
<trkpt lat="37.86031833333333" lon="-1.4362883333333334">
<ele>626</ele>
<time>2016-07-26T20:20:24Z</time>
</trkpt>
<trkpt lat="37.860283333333335" lon="-1.436405">
<ele>626</ele>
<time>2016-07-26T20:20:26Z</time>
</trkpt>
<trkpt lat="37.86026666666667" lon="-1.4364916666666665">
<ele>626</ele>
<time>2016-07-26T20:20:28Z</time>
</trkpt>
<trkpt lat="37.86025166666666" lon="-1.4365733333333335">
<ele>625</ele>
<time>2016-07-26T20:20:30Z</time>
</trkpt>
<trkpt lat="37.86022166666667" lon="-1.436655">
<ele>625</ele>
<time>2016-07-26T20:20:32Z</time>
</trkpt>
<trkpt lat="37.860189999999996" lon="-1.4367283333333334">
<ele>625</ele>
<time>2016-07-26T20:20:34Z</time>
</trkpt>
<trkpt lat="37.86015833333333" lon="-1.4367933333333334">
<ele>624</ele>
<time>2016-07-26T20:20:36Z</time>
</trkpt>
<trkpt lat="37.860135" lon="-1.4368716666666668">
<ele>624</ele>
<time>2016-07-26T20:20:38Z</time>
</trkpt>
<trkpt lat="37.86011" lon="-1.4369533333333333">
<ele>624</ele>
<time>2016-07-26T20:20:40Z</time>
</trkpt>
<trkpt lat="37.86007166666666" lon="-1.4370699999999998">
<ele>623</ele>
<time>2016-07-26T20:20:42Z</time>
</trkpt>
<trkpt lat="37.86004666666667" lon="-1.4372033333333334">
<ele>622</ele>
<time>2016-07-26T20:20:44Z</time>
</trkpt>
<trkpt lat="37.86002833333334" lon="-1.4373250000000002">
<ele>621</ele>
<time>2016-07-26T20:20:46Z</time>
</trkpt>
<trkpt lat="37.860005" lon="-1.437445">
<ele>620</ele>
<time>2016-07-26T20:20:48Z</time>
</trkpt>
<trkpt lat="37.85998166666666" lon="-1.437555">
<ele>620</ele>
<time>2016-07-26T20:20:50Z</time>
</trkpt>
<trkpt lat="37.85995333333334" lon="-1.437655">
<ele>619</ele>
<time>2016-07-26T20:20:52Z</time>
</trkpt>
<trkpt lat="37.859923333333334" lon="-1.4377533333333332">
<ele>619</ele>
<time>2016-07-26T20:20:54Z</time>
</trkpt>
<trkpt lat="37.85989" lon="-1.4378549999999999">
<ele>618</ele>
<time>2016-07-26T20:20:56Z</time>
</trkpt>
<trkpt lat="37.859853333333334" lon="-1.4379483333333334">
<ele>617</ele>
<time>2016-07-26T20:20:58Z</time>
</trkpt>
<trkpt lat="37.85981833333334" lon="-1.4380549999999999">
<ele>616</ele>
<time>2016-07-26T20:21:00Z</time>
</trkpt>
<trkpt lat="37.859791666666666" lon="-1.4381833333333334">
<ele>614</ele>
<time>2016-07-26T20:21:02Z</time>
</trkpt>
<trkpt lat="37.85977333333334" lon="-1.43832">
<ele>613</ele>
<time>2016-07-26T20:21:04Z</time>
</trkpt>
<trkpt lat="37.859746666666666" lon="-1.4384466666666667">
<ele>612</ele>
<time>2016-07-26T20:21:06Z</time>
</trkpt>
<trkpt lat="37.85971666666667" lon="-1.4385666666666665">
<ele>611</ele>
<time>2016-07-26T20:21:08Z</time>
</trkpt>
<trkpt lat="37.85969166666666" lon="-1.4386566666666667">
<ele>610</ele>
<time>2016-07-26T20:21:10Z</time>
</trkpt>
<trkpt lat="37.859651666666664" lon="-1.438755">
<ele>609</ele>
<time>2016-07-26T20:21:12Z</time>
</trkpt>
<trkpt lat="37.85962333333334" lon="-1.4388533333333333">
<ele>608</ele>
<time>2016-07-26T20:21:14Z</time>
</trkpt>
<trkpt lat="37.8596" lon="-1.4389383333333332">
<ele>607</ele>
<time>2016-07-26T20:21:16Z</time>
</trkpt>
<trkpt lat="37.859561666666664" lon="-1.439023333333333">
<ele>606</ele>
<time>2016-07-26T20:21:18Z</time>
</trkpt>
<trkpt lat="37.85952333333333" lon="-1.4391133333333332">
<ele>605</ele>
<time>2016-07-26T20:21:20Z</time>
</trkpt>
<trkpt lat="37.85948166666667" lon="-1.4392">
<ele>604</ele>
<time>2016-07-26T20:21:22Z</time>
</trkpt>
<trkpt lat="37.859431666666666" lon="-1.4392716666666667">
<ele>603</ele>
<time>2016-07-26T20:21:24Z</time>
</trkpt>
<trkpt lat="37.85938" lon="-1.4393416666666667">
<ele>602</ele>
<time>2016-07-26T20:21:26Z</time>
</trkpt>
<trkpt lat="37.85932833333333" lon="-1.4394066666666667">
<ele>602</ele>
<time>2016-07-26T20:21:28Z</time>
</trkpt>
<trkpt lat="37.85927166666667" lon="-1.4394866666666668">
<ele>600</ele>
<time>2016-07-26T20:21:30Z</time>
</trkpt>
<trkpt lat="37.85922333333333" lon="-1.4395716666666667">
<ele>600</ele>
<time>2016-07-26T20:21:32Z</time>
</trkpt>
<trkpt lat="37.85918166666667" lon="-1.4396550000000001">
<ele>599</ele>
<time>2016-07-26T20:21:34Z</time>
</trkpt>
<trkpt lat="37.85913666666667" lon="-1.4397583333333333">
<ele>598</ele>
<time>2016-07-26T20:21:36Z</time>
</trkpt>
<trkpt lat="37.85910333333334" lon="-1.43985">
<ele>597</ele>
<time>2016-07-26T20:21:38Z</time>
</trkpt>
<trkpt lat="37.859085" lon="-1.4399316666666666">
<ele>596</ele>
<time>2016-07-26T20:21:40Z</time>
</trkpt>
<trkpt lat="37.85906833333333" lon="-1.4400000000000002">
<ele>595</ele>
<time>2016-07-26T20:21:42Z</time>
</trkpt>
<trkpt lat="37.85903333333333" lon="-1.4400816666666667">
<ele>594</ele>
<time>2016-07-26T20:21:44Z</time>
</trkpt>
<trkpt lat="37.85900166666667" lon="-1.4401716666666668">
<ele>593</ele>
<time>2016-07-26T20:21:46Z</time>
</trkpt>
<trkpt lat="37.85897166666667" lon="-1.4402533333333334">
<ele>591</ele>
<time>2016-07-26T20:21:48Z</time>
</trkpt>
<trkpt lat="37.858918333333335" lon="-1.44031">
<ele>590</ele>
<time>2016-07-26T20:21:50Z</time>
</trkpt>
<trkpt lat="37.85884333333333" lon="-1.44034">
<ele>588</ele>
<time>2016-07-26T20:21:52Z</time>
</trkpt>
<trkpt lat="37.858754999999995" lon="-1.4403866666666665">
<ele>587</ele>
<time>2016-07-26T20:21:54Z</time>
</trkpt>
<trkpt lat="37.85868833333333" lon="-1.4404416666666666">
<ele>585</ele>
<time>2016-07-26T20:21:56Z</time>
</trkpt>
<trkpt lat="37.85862833333333" lon="-1.4405216666666665">
<ele>584</ele>
<time>2016-07-26T20:21:58Z</time>
</trkpt>
<trkpt lat="37.858575" lon="-1.4406233333333334">
<ele>582</ele>
<time>2016-07-26T20:22:00Z</time>
</trkpt>
<trkpt lat="37.85853" lon="-1.440725">
<ele>581</ele>
<time>2016-07-26T20:22:02Z</time>
</trkpt>
<trkpt lat="37.85848" lon="-1.440825">
<ele>579</ele>
<time>2016-07-26T20:22:04Z</time>
</trkpt>
<trkpt lat="37.858398333333334" lon="-1.440935">
<ele>577</ele>
<time>2016-07-26T20:22:06Z</time>
</trkpt>
<trkpt lat="37.85832333333334" lon="-1.4410383333333332">
<ele>575</ele>
<time>2016-07-26T20:22:08Z</time>
</trkpt>
<trkpt lat="37.85825666666666" lon="-1.4411333333333334">
<ele>574</ele>
<time>2016-07-26T20:22:10Z</time>
</trkpt>
<trkpt lat="37.85820666666667" lon="-1.4412016666666667">
<ele>572</ele>
<time>2016-07-26T20:22:12Z</time>
</trkpt>
<trkpt lat="37.858153333333334" lon="-1.4412716666666665">
<ele>570</ele>
<time>2016-07-26T20:22:14Z</time>
</trkpt>
<trkpt lat="37.858106666666664" lon="-1.4413416666666667">
<ele>569</ele>
<time>2016-07-26T20:22:16Z</time>
</trkpt>
<trkpt lat="37.858055" lon="-1.44141">
<ele>567</ele>
<time>2016-07-26T20:22:18Z</time>
</trkpt>
<trkpt lat="37.858001666666674" lon="-1.4414966666666666">
<ele>565</ele>
<time>2016-07-26T20:22:20Z</time>
</trkpt>
<trkpt lat="37.85795333333333" lon="-1.4416033333333333">
<ele>563</ele>
<time>2016-07-26T20:22:22Z</time>
</trkpt>
<trkpt lat="37.85790166666666" lon="-1.4417066666666667">
<ele>561</ele>
<time>2016-07-26T20:22:24Z</time>
</trkpt>
<trkpt lat="37.857859999999995" lon="-1.44183">
<ele>559</ele>
<time>2016-07-26T20:22:26Z</time>
</trkpt>
<trkpt lat="37.85782666666667" lon="-1.4419616666666668">
<ele>557</ele>
<time>2016-07-26T20:22:28Z</time>
</trkpt>
<trkpt lat="37.857805" lon="-1.4420833333333334">
<ele>556</ele>
<time>2016-07-26T20:22:30Z</time>
</trkpt>
<trkpt lat="37.85778166666667" lon="-1.4421983333333332">
<ele>555</ele>
<time>2016-07-26T20:22:32Z</time>
</trkpt>
<trkpt lat="37.857753333333335" lon="-1.4423283333333332">
<ele>553</ele>
<time>2016-07-26T20:22:34Z</time>
</trkpt>
<trkpt lat="37.857708333333335" lon="-1.442445">
<ele>552</ele>
<time>2016-07-26T20:22:36Z</time>
</trkpt>
<trkpt lat="37.85766833333333" lon="-1.4425383333333333">
<ele>551</ele>
<time>2016-07-26T20:22:38Z</time>
</trkpt>
<trkpt lat="37.857616666666665" lon="-1.4426366666666666">
<ele>550</ele>
<time>2016-07-26T20:22:40Z</time>
</trkpt>
<trkpt lat="37.85756666666667" lon="-1.4427183333333335">
<ele>549</ele>
<time>2016-07-26T20:22:42Z</time>
</trkpt>
<trkpt lat="37.85751166666667" lon="-1.4428033333333334">
<ele>548</ele>
<time>2016-07-26T20:22:44Z</time>
</trkpt>
<trkpt lat="37.857458333333334" lon="-1.442895">
<ele>547</ele>
<time>2016-07-26T20:22:46Z</time>
</trkpt>
<trkpt lat="37.85740333333333" lon="-1.4429766666666666">
<ele>547</ele>
<time>2016-07-26T20:22:48Z</time>
</trkpt>
<trkpt lat="37.857345" lon="-1.4430533333333333">
<ele>546</ele>
<time>2016-07-26T20:22:50Z</time>
</trkpt>
<trkpt lat="37.857276666666664" lon="-1.4431433333333334">
<ele>545</ele>
<time>2016-07-26T20:22:52Z</time>
</trkpt>
<trkpt lat="37.857205" lon="-1.4432533333333335">
<ele>544</ele>
<time>2016-07-26T20:22:54Z</time>
</trkpt>
<trkpt lat="37.857153333333336" lon="-1.4433433333333334">
<ele>544</ele>
<time>2016-07-26T20:22:56Z</time>
</trkpt>
<trkpt lat="37.85711" lon="-1.44341">
<ele>543</ele>
<time>2016-07-26T20:22:58Z</time>
</trkpt>
<trkpt lat="37.857083333333335" lon="-1.4434466666666668">
<ele>542</ele>
<time>2016-07-26T20:23:00Z</time>
</trkpt>
<trkpt lat="37.857054999999995" lon="-1.44351">
<ele>542</ele>
<time>2016-07-26T20:23:02Z</time>
</trkpt>
<trkpt lat="37.85701166666667" lon="-1.4435833333333332">
<ele>541</ele>
<time>2016-07-26T20:23:04Z</time>
</trkpt>
<trkpt lat="37.85695333333333" lon="-1.443665">
<ele>540</ele>
<time>2016-07-26T20:23:06Z</time>
</trkpt>
<trkpt lat="37.856915" lon="-1.443735">
<ele>538</ele>
<time>2016-07-26T20:23:08Z</time>
</trkpt>
<trkpt lat="37.856878333333334" lon="-1.4438016666666666">
<ele>537</ele>
<time>2016-07-26T20:23:10Z</time>
</trkpt>
<trkpt lat="37.856835000000004" lon="-1.4438816666666667">
<ele>536</ele>
<time>2016-07-26T20:23:12Z</time>
</trkpt>
<trkpt lat="37.85680166666667" lon="-1.4439933333333332">
<ele>534</ele>
<time>2016-07-26T20:23:14Z</time>
</trkpt>
<trkpt lat="37.856768333333335" lon="-1.4441016666666666">
<ele>533</ele>
<time>2016-07-26T20:23:16Z</time>
</trkpt>
<trkpt lat="37.856721666666665" lon="-1.4442083333333333">
<ele>531</ele>
<time>2016-07-26T20:23:18Z</time>
</trkpt>
<trkpt lat="37.85667333333333" lon="-1.4443216666666667">
<ele>530</ele>
<time>2016-07-26T20:23:20Z</time>
</trkpt>
<trkpt lat="37.85662666666666" lon="-1.4444266666666667">
<ele>529</ele>
<time>2016-07-26T20:23:22Z</time>
</trkpt>
<trkpt lat="37.85658" lon="-1.4445233333333334">
<ele>528</ele>
<time>2016-07-26T20:23:24Z</time>
</trkpt>
<trkpt lat="37.85653333333333" lon="-1.444635">
<ele>527</ele>
<time>2016-07-26T20:23:26Z</time>
</trkpt>
<trkpt lat="37.85649333333333" lon="-1.44475">
<ele>526</ele>
<time>2016-07-26T20:23:28Z</time>
</trkpt>
<trkpt lat="37.856445" lon="-1.4448616666666667">
<ele>525</ele>
<time>2016-07-26T20:23:30Z</time>
</trkpt>
<trkpt lat="37.85639833333333" lon="-1.4449716666666668">
<ele>524</ele>
<time>2016-07-26T20:23:32Z</time>
</trkpt>
<trkpt lat="37.856345000000005" lon="-1.44509">
<ele>524</ele>
<time>2016-07-26T20:23:34Z</time>
</trkpt>
<trkpt lat="37.856289999999994" lon="-1.445195">
<ele>523</ele>
<time>2016-07-26T20:23:36Z</time>
</trkpt>
<trkpt lat="37.85624" lon="-1.4453016666666667">
<ele>522</ele>
<time>2016-07-26T20:23:38Z</time>
</trkpt>
<trkpt lat="37.856195" lon="-1.4454099999999999">
<ele>522</ele>
<time>2016-07-26T20:23:40Z</time>
</trkpt>
<trkpt lat="37.85614666666667" lon="-1.445535">
<ele>521</ele>
<time>2016-07-26T20:23:42Z</time>
</trkpt>
<trkpt lat="37.856094999999996" lon="-1.44566">
<ele>521</ele>
<time>2016-07-26T20:23:44Z</time>
</trkpt>
<trkpt lat="37.856049999999996" lon="-1.4457666666666666">
<ele>520</ele>
<time>2016-07-26T20:23:46Z</time>
</trkpt>
<trkpt lat="37.856028333333335" lon="-1.4458416666666667">
<ele>519</ele>
<time>2016-07-26T20:23:48Z</time>
</trkpt>
<trkpt lat="37.85601166666667" lon="-1.4459266666666668">
<ele>518</ele>
<time>2016-07-26T20:23:50Z</time>
</trkpt>
<trkpt lat="37.85598666666667" lon="-1.4460283333333335">
<ele>517</ele>
<time>2016-07-26T20:23:52Z</time>
</trkpt>
<trkpt lat="37.855959999999996" lon="-1.446135">
<ele>516</ele>
<time>2016-07-26T20:23:54Z</time>
</trkpt>
<trkpt lat="37.855911666666664" lon="-1.4462599999999999">
<ele>514</ele>
<time>2016-07-26T20:23:56Z</time>
</trkpt>
<trkpt lat="37.855851666666666" lon="-1.4463766666666666">
<ele>513</ele>
<time>2016-07-26T20:23:58Z</time>
</trkpt>
<trkpt lat="37.8558" lon="-1.4464766666666666">
<ele>512</ele>
<time>2016-07-26T20:24:00Z</time>
</trkpt>
<trkpt lat="37.855760000000004" lon="-1.4465783333333335">
<ele>511</ele>
<time>2016-07-26T20:24:02Z</time>
</trkpt>
<trkpt lat="37.85572166666667" lon="-1.4467">
<ele>510</ele>
<time>2016-07-26T20:24:04Z</time>
</trkpt>
<trkpt lat="37.855686666666664" lon="-1.4468466666666666">
<ele>509</ele>
<time>2016-07-26T20:24:06Z</time>
</trkpt>
<trkpt lat="37.855665" lon="-1.4469833333333333">
<ele>508</ele>
<time>2016-07-26T20:24:08Z</time>
</trkpt>
<trkpt lat="37.85563833333333" lon="-1.4471166666666666">
<ele>508</ele>
<time>2016-07-26T20:24:10Z</time>
</trkpt>
<trkpt lat="37.85560666666667" lon="-1.4472516666666666">
<ele>507</ele>
<time>2016-07-26T20:24:12Z</time>
</trkpt>
<trkpt lat="37.85558666666667" lon="-1.4473833333333335">
<ele>506</ele>
<time>2016-07-26T20:24:14Z</time>
</trkpt>
<trkpt lat="37.85556666666666" lon="-1.447525">
<ele>505</ele>
<time>2016-07-26T20:24:16Z</time>
</trkpt>
<trkpt lat="37.85554833333333" lon="-1.4476716666666665">
<ele>504</ele>
<time>2016-07-26T20:24:18Z</time>
</trkpt>
<trkpt lat="37.85554333333334" lon="-1.4478149999999999">
<ele>504</ele>
<time>2016-07-26T20:24:20Z</time>
</trkpt>
<trkpt lat="37.85553" lon="-1.4479566666666666">
<ele>503</ele>
<time>2016-07-26T20:24:22Z</time>
</trkpt>
<trkpt lat="37.85550666666666" lon="-1.4480849999999998">
<ele>502</ele>
<time>2016-07-26T20:24:24Z</time>
</trkpt>
<trkpt lat="37.855485" lon="-1.44823">
<ele>501</ele>
<time>2016-07-26T20:24:26Z</time>
</trkpt>
<trkpt lat="37.855471666666666" lon="-1.4483683333333335">
<ele>500</ele>
<time>2016-07-26T20:24:28Z</time>
</trkpt>
<trkpt lat="37.85545333333334" lon="-1.4485066666666666">
<ele>499</ele>
<time>2016-07-26T20:24:30Z</time>
</trkpt>
<trkpt lat="37.85544" lon="-1.4486266666666665">
<ele>498</ele>
<time>2016-07-26T20:24:32Z</time>
</trkpt>
<trkpt lat="37.855425" lon="-1.4487366666666666">
<ele>497</ele>
<time>2016-07-26T20:24:34Z</time>
</trkpt>
<trkpt lat="37.855415" lon="-1.448855">
<ele>496</ele>
<time>2016-07-26T20:24:36Z</time>
</trkpt>
<trkpt lat="37.85540666666667" lon="-1.44896">
<ele>495</ele>
<time>2016-07-26T20:24:38Z</time>
</trkpt>
<trkpt lat="37.85538833333333" lon="-1.4490683333333334">
<ele>495</ele>
<time>2016-07-26T20:24:40Z</time>
</trkpt>
<trkpt lat="37.85536666666667" lon="-1.4491783333333332">
<ele>494</ele>
<time>2016-07-26T20:24:42Z</time>
</trkpt>
<trkpt lat="37.85534666666667" lon="-1.4492933333333333">
<ele>494</ele>
<time>2016-07-26T20:24:44Z</time>
</trkpt>
<trkpt lat="37.855331666666665" lon="-1.4494250000000002">
<ele>494</ele>
<time>2016-07-26T20:24:46Z</time>
</trkpt>
<trkpt lat="37.85532" lon="-1.4495716666666667">
<ele>493</ele>
<time>2016-07-26T20:24:48Z</time>
</trkpt>
<trkpt lat="37.855313333333335" lon="-1.4497266666666666">
<ele>493</ele>
<time>2016-07-26T20:24:50Z</time>
</trkpt>
<trkpt lat="37.855311666666665" lon="-1.4498683333333333">
<ele>493</ele>
<time>2016-07-26T20:24:52Z</time>
</trkpt>
<trkpt lat="37.855335" lon="-1.4499849999999999">
<ele>492</ele>
<time>2016-07-26T20:24:54Z</time>
</trkpt>
<trkpt lat="37.85535333333333" lon="-1.450105">
<ele>493</ele>
<time>2016-07-26T20:24:56Z</time>
</trkpt>
<trkpt lat="37.85536166666667" lon="-1.4502516666666667">
<ele>493</ele>
<time>2016-07-26T20:24:58Z</time>
</trkpt>
<trkpt lat="37.85538" lon="-1.4504116666666667">
<ele>493</ele>
<time>2016-07-26T20:25:00Z</time>
</trkpt>
<trkpt lat="37.855403333333335" lon="-1.450585">
<ele>494</ele>
<time>2016-07-26T20:25:02Z</time>
</trkpt>
<trkpt lat="37.855426666666666" lon="-1.4507616666666667">
<ele>494</ele>
<time>2016-07-26T20:25:04Z</time>
</trkpt>
<trkpt lat="37.855450000000005" lon="-1.45093">
<ele>494</ele>
<time>2016-07-26T20:25:06Z</time>
</trkpt>
<trkpt lat="37.855471666666666" lon="-1.45109">
<ele>494</ele>
<time>2016-07-26T20:25:08Z</time>
</trkpt>
<trkpt lat="37.855491666666666" lon="-1.4512616666666667">
<ele>495</ele>
<time>2016-07-26T20:25:10Z</time>
</trkpt>
<trkpt lat="37.855536666666666" lon="-1.4514">
<ele>494</ele>
<time>2016-07-26T20:25:12Z</time>
</trkpt>
<trkpt lat="37.85555" lon="-1.4515233333333333">
<ele>494</ele>
<time>2016-07-26T20:25:14Z</time>
</trkpt>
<trkpt lat="37.85552166666666" lon="-1.4516099999999998">
<ele>494</ele>
<time>2016-07-26T20:25:16Z</time>
</trkpt>
<trkpt lat="37.85547333333333" lon="-1.4516716666666667">
<ele>494</ele>
<time>2016-07-26T20:25:18Z</time>
</trkpt>
<trkpt lat="37.855415" lon="-1.451695">
<ele>494</ele>
<time>2016-07-26T20:25:20Z</time>
</trkpt>
<trkpt lat="37.85534666666667" lon="-1.4516749999999998">
<ele>494</ele>
<time>2016-07-26T20:25:22Z</time>
</trkpt>
<trkpt lat="37.855286666666665" lon="-1.4516383333333334">
<ele>494</ele>
<time>2016-07-26T20:25:24Z</time>
</trkpt>
<trkpt lat="37.855228333333336" lon="-1.4515850000000001">
<ele>494</ele>
<time>2016-07-26T20:25:26Z</time>
</trkpt>
<trkpt lat="37.855205" lon="-1.4515016666666667">
<ele>494</ele>
<time>2016-07-26T20:25:28Z</time>
</trkpt>
<trkpt lat="37.85521333333334" lon="-1.4513533333333333">
<ele>494</ele>
<time>2016-07-26T20:25:30Z</time>
</trkpt>
<trkpt lat="37.85523833333333" lon="-1.4511583333333333">
<ele>493</ele>
<time>2016-07-26T20:25:32Z</time>
</trkpt>
<trkpt lat="37.855286666666665" lon="-1.45095">
<ele>493</ele>
<time>2016-07-26T20:25:34Z</time>
</trkpt>
<trkpt lat="37.855356666666665" lon="-1.4507333333333332">
<ele>493</ele>
<time>2016-07-26T20:25:36Z</time>
</trkpt>
<trkpt lat="37.85542833333333" lon="-1.4505233333333334">
<ele>492</ele>
<time>2016-07-26T20:25:38Z</time>
</trkpt>
<trkpt lat="37.85549666666667" lon="-1.4503183333333332">
<ele>492</ele>
<time>2016-07-26T20:25:40Z</time>
</trkpt>
<trkpt lat="37.855575" lon="-1.4501066666666667">
<ele>491</ele>
<time>2016-07-26T20:25:42Z</time>
</trkpt>
<trkpt lat="37.85565333333333" lon="-1.4498816666666667">
<ele>491</ele>
<time>2016-07-26T20:25:44Z</time>
</trkpt>
<trkpt lat="37.855715000000004" lon="-1.449645">
<ele>491</ele>
<time>2016-07-26T20:25:46Z</time>
</trkpt>
<trkpt lat="37.85577833333333" lon="-1.4494233333333333">
<ele>491</ele>
<time>2016-07-26T20:25:48Z</time>
</trkpt>
<trkpt lat="37.85584166666667" lon="-1.4491966666666667">
<ele>490</ele>
<time>2016-07-26T20:25:50Z</time>
</trkpt>
<trkpt lat="37.855898333333336" lon="-1.4489716666666665">
<ele>490</ele>
<time>2016-07-26T20:25:52Z</time>
</trkpt>
<trkpt lat="37.85594833333334" lon="-1.4487533333333333">
<ele>490</ele>
<time>2016-07-26T20:25:54Z</time>
</trkpt>
<trkpt lat="37.855985000000004" lon="-1.4485366666666666">
<ele>489</ele>
<time>2016-07-26T20:25:56Z</time>
</trkpt>
<trkpt lat="37.85601333333333" lon="-1.448335">
<ele>489</ele>
<time>2016-07-26T20:25:58Z</time>
</trkpt>
<trkpt lat="37.856045" lon="-1.4481216666666665">
<ele>489</ele>
<time>2016-07-26T20:26:00Z</time>
</trkpt>
<trkpt lat="37.85606833333333" lon="-1.44791">
<ele>489</ele>
<time>2016-07-26T20:26:02Z</time>
</trkpt>
<trkpt lat="37.856105" lon="-1.4477016666666667">
<ele>488</ele>
<time>2016-07-26T20:26:04Z</time>
</trkpt>
<trkpt lat="37.85615666666667" lon="-1.4474799999999999">
<ele>488</ele>
<time>2016-07-26T20:26:06Z</time>
</trkpt>
<trkpt lat="37.856210000000004" lon="-1.4472616666666667">
<ele>488</ele>
<time>2016-07-26T20:26:08Z</time>
</trkpt>
<trkpt lat="37.856265" lon="-1.44704">
<ele>487</ele>
<time>2016-07-26T20:26:10Z</time>
</trkpt>
<trkpt lat="37.856325" lon="-1.4468116666666666">
<ele>486</ele>
<time>2016-07-26T20:26:12Z</time>
</trkpt>
<trkpt lat="37.85638666666667" lon="-1.4465833333333333">
<ele>486</ele>
<time>2016-07-26T20:26:14Z</time>
</trkpt>
<trkpt lat="37.856455" lon="-1.4463633333333334">
<ele>485</ele>
<time>2016-07-26T20:26:16Z</time>
</trkpt>
<trkpt lat="37.856525000000005" lon="-1.4461483333333334">
<ele>484</ele>
<time>2016-07-26T20:26:18Z</time>
</trkpt>
<trkpt lat="37.85659333333333" lon="-1.4459316666666666">
<ele>483</ele>
<time>2016-07-26T20:26:20Z</time>
</trkpt>
<trkpt lat="37.856660000000005" lon="-1.4457116666666667">
<ele>482</ele>
<time>2016-07-26T20:26:22Z</time>
</trkpt>
<trkpt lat="37.85674166666667" lon="-1.4454983333333333">
<ele>482</ele>
<time>2016-07-26T20:26:24Z</time>
</trkpt>
<trkpt lat="37.85682666666666" lon="-1.4452683333333334">
<ele>481</ele>
<time>2016-07-26T20:26:26Z</time>
</trkpt>
<trkpt lat="37.85691333333333" lon="-1.445045">
<ele>480</ele>
<time>2016-07-26T20:26:28Z</time>
</trkpt>
<trkpt lat="37.85700833333333" lon="-1.444835">
<ele>479</ele>
<time>2016-07-26T20:26:30Z</time>
</trkpt>
<trkpt lat="37.85710666666667" lon="-1.44461">
<ele>478</ele>
<time>2016-07-26T20:26:32Z</time>
</trkpt>
<trkpt lat="37.85720333333334" lon="-1.44438">
<ele>477</ele>
<time>2016-07-26T20:26:34Z</time>
</trkpt>
<trkpt lat="37.857274999999994" lon="-1.4441583333333334">
<ele>477</ele>
<time>2016-07-26T20:26:36Z</time>
</trkpt>
<trkpt lat="37.857328333333335" lon="-1.44395">
<ele>476</ele>
<time>2016-07-26T20:26:38Z</time>
</trkpt>
<trkpt lat="37.85737166666667" lon="-1.4437366666666667">
<ele>476</ele>
<time>2016-07-26T20:26:40Z</time>
</trkpt>
<trkpt lat="37.857420000000005" lon="-1.443515">
<ele>475</ele>
<time>2016-07-26T20:26:42Z</time>
</trkpt>
<trkpt lat="37.85747666666667" lon="-1.4433116666666665">
<ele>474</ele>
<time>2016-07-26T20:26:44Z</time>
</trkpt>
<trkpt lat="37.85751833333334" lon="-1.443095">
<ele>474</ele>
<time>2016-07-26T20:26:46Z</time>
</trkpt>
<trkpt lat="37.857571666666665" lon="-1.4428750000000001">
<ele>474</ele>
<time>2016-07-26T20:26:48Z</time>
</trkpt>
<trkpt lat="37.85766" lon="-1.4426716666666666">
<ele>473</ele>
<time>2016-07-26T20:26:50Z</time>
</trkpt>
<trkpt lat="37.85777333333333" lon="-1.4424649999999999">
<ele>473</ele>
<time>2016-07-26T20:26:52Z</time>
</trkpt>
<trkpt lat="37.857895" lon="-1.4422816666666667">
<ele>473</ele>
<time>2016-07-26T20:26:54Z</time>
</trkpt>
<trkpt lat="37.858025" lon="-1.4420933333333332">
<ele>472</ele>
<time>2016-07-26T20:26:56Z</time>
</trkpt>
<trkpt lat="37.85817833333333" lon="-1.4419">
<ele>472</ele>
<time>2016-07-26T20:26:58Z</time>
</trkpt>
<trkpt lat="37.858336666666666" lon="-1.4417033333333333">
<ele>472</ele>
<time>2016-07-26T20:27:00Z</time>
</trkpt>
<trkpt lat="37.85850000000001" lon="-1.4415066666666665">
<ele>471</ele>
<time>2016-07-26T20:27:02Z</time>
</trkpt>
<trkpt lat="37.858671666666666" lon="-1.4413066666666665">
<ele>471</ele>
<time>2016-07-26T20:27:04Z</time>
</trkpt>
<trkpt lat="37.85885333333333" lon="-1.4411200000000002">
<ele>470</ele>
<time>2016-07-26T20:27:06Z</time>
</trkpt>
<trkpt lat="37.85903833333334" lon="-1.4409233333333333">
<ele>470</ele>
<time>2016-07-26T20:27:08Z</time>
</trkpt>
<trkpt lat="37.85922166666667" lon="-1.4407383333333332">
<ele>469</ele>
<time>2016-07-26T20:27:10Z</time>
</trkpt>
<trkpt lat="37.85939" lon="-1.4405649999999999">
<ele>468</ele>
<time>2016-07-26T20:27:12Z</time>
</trkpt>
<trkpt lat="37.85955333333333" lon="-1.4404050000000002">
<ele>467</ele>
<time>2016-07-26T20:27:14Z</time>
</trkpt>
<trkpt lat="37.85972666666667" lon="-1.4402283333333334">
<ele>466</ele>
<time>2016-07-26T20:27:16Z</time>
</trkpt>
<trkpt lat="37.859901666666666" lon="-1.4400483333333334">
<ele>465</ele>
<time>2016-07-26T20:27:18Z</time>
</trkpt>
<trkpt lat="37.860065" lon="-1.43986">
<ele>464</ele>
<time>2016-07-26T20:27:20Z</time>
</trkpt>
<trkpt lat="37.86023333333333" lon="-1.4396650000000002">
<ele>463</ele>
<time>2016-07-26T20:27:22Z</time>
</trkpt>
<trkpt lat="37.86039666666667" lon="-1.4394716666666667">
<ele>462</ele>
<time>2016-07-26T20:27:24Z</time>
</trkpt>
<trkpt lat="37.860564999999994" lon="-1.4392783333333334">
<ele>462</ele>
<time>2016-07-26T20:27:26Z</time>
</trkpt>
<trkpt lat="37.86071333333334" lon="-1.4390766666666668">
<ele>462</ele>
<time>2016-07-26T20:27:28Z</time>
</trkpt>
<trkpt lat="37.860855" lon="-1.4388716666666668">
<ele>462</ele>
<time>2016-07-26T20:27:30Z</time>
</trkpt>
<trkpt lat="37.86100833333333" lon="-1.438665">
<ele>462</ele>
<time>2016-07-26T20:27:32Z</time>
</trkpt>
<trkpt lat="37.86115333333333" lon="-1.43847">
<ele>463</ele>
<time>2016-07-26T20:27:34Z</time>
</trkpt>
<trkpt lat="37.861291666666666" lon="-1.4382716666666666">
<ele>464</ele>
<time>2016-07-26T20:27:36Z</time>
</trkpt>
<trkpt lat="37.861435" lon="-1.4380716666666666">
<ele>466</ele>
<time>2016-07-26T20:27:38Z</time>
</trkpt>
<trkpt lat="37.861563333333336" lon="-1.4378766666666667">
<ele>468</ele>
<time>2016-07-26T20:27:40Z</time>
</trkpt>
<trkpt lat="37.86168833333333" lon="-1.4376983333333333">
<ele>472</ele>
<time>2016-07-26T20:27:42Z</time>
</trkpt>
<trkpt lat="37.86178833333334" lon="-1.4375016666666667">
<ele>474</ele>
<time>2016-07-26T20:27:44Z</time>
</trkpt>
<trkpt lat="37.86185" lon="-1.4373016666666667">
<ele>477</ele>
<time>2016-07-26T20:27:46Z</time>
</trkpt>
<trkpt lat="37.861911666666664" lon="-1.4371166666666668">
<ele>479</ele>
<time>2016-07-26T20:27:48Z</time>
</trkpt>
<trkpt lat="37.861975" lon="-1.4369233333333333">
<ele>482</ele>
<time>2016-07-26T20:27:50Z</time>
</trkpt>
<trkpt lat="37.86203666666667" lon="-1.4367316666666667">
<ele>484</ele>
<time>2016-07-26T20:27:52Z</time>
</trkpt>
<trkpt lat="37.86210666666667" lon="-1.436535">
<ele>486</ele>
<time>2016-07-26T20:27:54Z</time>
</trkpt>
<trkpt lat="37.86217" lon="-1.4363233333333334">
<ele>488</ele>
<time>2016-07-26T20:27:56Z</time>
</trkpt>
<trkpt lat="37.862228333333334" lon="-1.4360966666666668">
<ele>491</ele>
<time>2016-07-26T20:27:58Z</time>
</trkpt>
<trkpt lat="37.862316666666665" lon="-1.4358766666666667">
<ele>494</ele>
<time>2016-07-26T20:28:00Z</time>
</trkpt>
<trkpt lat="37.86240833333333" lon="-1.4356566666666666">
<ele>497</ele>
<time>2016-07-26T20:28:02Z</time>
</trkpt>
<trkpt lat="37.86248833333333" lon="-1.43544">
<ele>500</ele>
<time>2016-07-26T20:28:04Z</time>
</trkpt>
<trkpt lat="37.862568333333336" lon="-1.4352316666666667">
<ele>503</ele>
<time>2016-07-26T20:28:06Z</time>
</trkpt>
<trkpt lat="37.862625" lon="-1.43504">
<ele>504</ele>
<time>2016-07-26T20:28:08Z</time>
</trkpt>
<trkpt lat="37.862655000000004" lon="-1.4348583333333333">
<ele>505</ele>
<time>2016-07-26T20:28:10Z</time>
</trkpt>
<trkpt lat="37.86267333333333" lon="-1.434695">
<ele>507</ele>
<time>2016-07-26T20:28:12Z</time>
</trkpt>
<trkpt lat="37.862685000000006" lon="-1.4345316666666665">
<ele>508</ele>
<time>2016-07-26T20:28:14Z</time>
</trkpt>
<trkpt lat="37.86267833333333" lon="-1.4343616666666668">
<ele>510</ele>
<time>2016-07-26T20:28:16Z</time>
</trkpt>
<trkpt lat="37.86267833333333" lon="-1.4342000000000001">
<ele>511</ele>
<time>2016-07-26T20:28:18Z</time>
</trkpt>
<trkpt lat="37.86270833333333" lon="-1.4340216666666667">
<ele>514</ele>
<time>2016-07-26T20:28:20Z</time>
</trkpt>
<trkpt lat="37.86272666666667" lon="-1.4338483333333334">
<ele>516</ele>
<time>2016-07-26T20:28:22Z</time>
</trkpt>
<trkpt lat="37.86273666666667" lon="-1.4336983333333333">
<ele>518</ele>
<time>2016-07-26T20:28:24Z</time>
</trkpt>
<trkpt lat="37.86273833333333" lon="-1.433535">
<ele>520</ele>
<time>2016-07-26T20:28:26Z</time>
</trkpt>
<trkpt lat="37.86275666666667" lon="-1.43336">
<ele>523</ele>
<time>2016-07-26T20:28:28Z</time>
</trkpt>
<trkpt lat="37.86278166666667" lon="-1.433185">
<ele>525</ele>
<time>2016-07-26T20:28:30Z</time>
</trkpt>
<trkpt lat="37.862805" lon="-1.4330116666666666">
<ele>527</ele>
<time>2016-07-26T20:28:32Z</time>
</trkpt>
<trkpt lat="37.86282666666667" lon="-1.43283">
<ele>530</ele>
<time>2016-07-26T20:28:34Z</time>
</trkpt>
<trkpt lat="37.86286" lon="-1.4326733333333335">
<ele>532</ele>
<time>2016-07-26T20:28:36Z</time>
</trkpt>
<trkpt lat="37.862880000000004" lon="-1.4325266666666667">
<ele>534</ele>
<time>2016-07-26T20:28:38Z</time>
</trkpt>
<trkpt lat="37.862895" lon="-1.4323683333333332">
<ele>536</ele>
<time>2016-07-26T20:28:40Z</time>
</trkpt>
<trkpt lat="37.86290666666666" lon="-1.4321933333333334">
<ele>537</ele>
<time>2016-07-26T20:28:42Z</time>
</trkpt>
<trkpt lat="37.86293666666666" lon="-1.4320016666666668">
<ele>538</ele>
<time>2016-07-26T20:28:44Z</time>
</trkpt>
<trkpt lat="37.862986666666664" lon="-1.431815">
<ele>539</ele>
<time>2016-07-26T20:28:46Z</time>
</trkpt>
<trkpt lat="37.86305" lon="-1.4316483333333334">
<ele>541</ele>
<time>2016-07-26T20:28:48Z</time>
</trkpt>
<trkpt lat="37.8631" lon="-1.4314516666666668">
<ele>543</ele>
<time>2016-07-26T20:28:50Z</time>
</trkpt>
<trkpt lat="37.86312833333333" lon="-1.4312566666666666">
<ele>545</ele>
<time>2016-07-26T20:28:52Z</time>
</trkpt>
<trkpt lat="37.86315833333333" lon="-1.4310516666666668">
<ele>546</ele>
<time>2016-07-26T20:28:54Z</time>
</trkpt>
<trkpt lat="37.86319833333334" lon="-1.4308483333333333">
<ele>548</ele>
<time>2016-07-26T20:28:56Z</time>
</trkpt>
<trkpt lat="37.86321833333333" lon="-1.4306899999999998">
<ele>550</ele>
<time>2016-07-26T20:28:58Z</time>
</trkpt>
<trkpt lat="37.8632" lon="-1.4305616666666665">
<ele>551</ele>
<time>2016-07-26T20:29:00Z</time>
</trkpt>
<trkpt lat="37.863165" lon="-1.4304216666666667">
<ele>552</ele>
<time>2016-07-26T20:29:02Z</time>
</trkpt>
<trkpt lat="37.86313333333333" lon="-1.4303016666666668">
<ele>554</ele>
<time>2016-07-26T20:29:04Z</time>
</trkpt>
<trkpt lat="37.8631" lon="-1.4301816666666667">
<ele>556</ele>
<time>2016-07-26T20:29:06Z</time>
</trkpt>
<trkpt lat="37.863055" lon="-1.4300549999999999">
<ele>558</ele>
<time>2016-07-26T20:29:08Z</time>
</trkpt>
<trkpt lat="37.863018333333336" lon="-1.4299050000000002">
<ele>560</ele>
<time>2016-07-26T20:29:10Z</time>
</trkpt>
<trkpt lat="37.862991666666666" lon="-1.4297366666666667">
<ele>563</ele>
<time>2016-07-26T20:29:12Z</time>
</trkpt>
<trkpt lat="37.86295833333334" lon="-1.4295633333333333">
<ele>565</ele>
<time>2016-07-26T20:29:14Z</time>
</trkpt>
<trkpt lat="37.862921666666665" lon="-1.4294">
<ele>568</ele>
<time>2016-07-26T20:29:16Z</time>
</trkpt>
<trkpt lat="37.862885" lon="-1.4292533333333335">
<ele>570</ele>
<time>2016-07-26T20:29:18Z</time>
</trkpt>
<trkpt lat="37.862854999999996" lon="-1.4291166666666666">
<ele>573</ele>
<time>2016-07-26T20:29:20Z</time>
</trkpt>
<trkpt lat="37.86281333333333" lon="-1.4289783333333332">
<ele>576</ele>
<time>2016-07-26T20:29:22Z</time>
</trkpt>
<trkpt lat="37.86276333333333" lon="-1.4288466666666668">
<ele>578</ele>
<time>2016-07-26T20:29:24Z</time>
</trkpt>
<trkpt lat="37.86270833333333" lon="-1.4287033333333334">
<ele>581</ele>
<time>2016-07-26T20:29:26Z</time>
</trkpt>
<trkpt lat="37.86266666666667" lon="-1.4285633333333334">
<ele>584</ele>
<time>2016-07-26T20:29:28Z</time>
</trkpt>
<trkpt lat="37.862625" lon="-1.4284350000000001">
<ele>586</ele>
<time>2016-07-26T20:29:30Z</time>
</trkpt>
<trkpt lat="37.86254833333333" lon="-1.4283066666666668">
<ele>588</ele>
<time>2016-07-26T20:29:32Z</time>
</trkpt>
<trkpt lat="37.86248166666667" lon="-1.428165">
<ele>590</ele>
<time>2016-07-26T20:29:34Z</time>
</trkpt>
<trkpt lat="37.862449999999995" lon="-1.4280116666666667">
<ele>592</ele>
<time>2016-07-26T20:29:36Z</time>
</trkpt>
<trkpt lat="37.862425" lon="-1.4278633333333335">
<ele>595</ele>
<time>2016-07-26T20:29:38Z</time>
</trkpt>
<trkpt lat="37.86238" lon="-1.42772">
<ele>597</ele>
<time>2016-07-26T20:29:40Z</time>
</trkpt>
<trkpt lat="37.862335" lon="-1.4275983333333333">
<ele>599</ele>
<time>2016-07-26T20:29:42Z</time>
</trkpt>
<trkpt lat="37.86228166666667" lon="-1.4275066666666667">
<ele>601</ele>
<time>2016-07-26T20:29:44Z</time>
</trkpt>
<trkpt lat="37.86221333333334" lon="-1.4274333333333333">
<ele>603</ele>
<time>2016-07-26T20:29:46Z</time>
</trkpt>
<trkpt lat="37.86214666666667" lon="-1.4273833333333332">
<ele>605</ele>
<time>2016-07-26T20:29:48Z</time>
</trkpt>
<trkpt lat="37.86208" lon="-1.4273433333333334">
<ele>607</ele>
<time>2016-07-26T20:29:50Z</time>
</trkpt>
<trkpt lat="37.86201833333334" lon="-1.4273533333333333">
<ele>610</ele>
<time>2016-07-26T20:29:52Z</time>
</trkpt>
<trkpt lat="37.86196666666667" lon="-1.4273633333333333">
<ele>612</ele>
<time>2016-07-26T20:29:54Z</time>
</trkpt>
<trkpt lat="37.86192833333334" lon="-1.4273933333333335">
<ele>614</ele>
<time>2016-07-26T20:29:56Z</time>
</trkpt>
<trkpt lat="37.86188166666667" lon="-1.42743">
<ele>616</ele>
<time>2016-07-26T20:29:58Z</time>
</trkpt>
<trkpt lat="37.861824999999996" lon="-1.427475">
<ele>618</ele>
<time>2016-07-26T20:30:00Z</time>
</trkpt>
<trkpt lat="37.86177166666666" lon="-1.4275183333333334">
<ele>620</ele>
<time>2016-07-26T20:30:02Z</time>
</trkpt>
<trkpt lat="37.86172" lon="-1.42757">
<ele>622</ele>
<time>2016-07-26T20:30:04Z</time>
</trkpt>
<trkpt lat="37.86168" lon="-1.4276283333333335">
<ele>624</ele>
<time>2016-07-26T20:30:06Z</time>
</trkpt>
<trkpt lat="37.861644999999996" lon="-1.4277183333333334">
<ele>625</ele>
<time>2016-07-26T20:30:08Z</time>
</trkpt>
<trkpt lat="37.861595" lon="-1.4278333333333333">
<ele>626</ele>
<time>2016-07-26T20:30:10Z</time>
</trkpt>
<trkpt lat="37.861560000000004" lon="-1.42794">
<ele>628</ele>
<time>2016-07-26T20:30:12Z</time>
</trkpt>
<trkpt lat="37.86151666666667" lon="-1.4280266666666668">
<ele>630</ele>
<time>2016-07-26T20:30:14Z</time>
</trkpt>
<trkpt lat="37.86145333333333" lon="-1.4280883333333332">
<ele>631</ele>
<time>2016-07-26T20:30:16Z</time>
</trkpt>
<trkpt lat="37.86139166666667" lon="-1.4281283333333334">
<ele>633</ele>
<time>2016-07-26T20:30:18Z</time>
</trkpt>
<trkpt lat="37.86131" lon="-1.4281583333333332">
<ele>634</ele>
<time>2016-07-26T20:30:20Z</time>
</trkpt>
<trkpt lat="37.861215" lon="-1.4281833333333334">
<ele>635</ele>
<time>2016-07-26T20:30:22Z</time>
</trkpt>
<trkpt lat="37.86114" lon="-1.4281983333333335">
<ele>637</ele>
<time>2016-07-26T20:30:24Z</time>
</trkpt>
<trkpt lat="37.861088333333335" lon="-1.4282183333333334">
<ele>638</ele>
<time>2016-07-26T20:30:26Z</time>
</trkpt>
<trkpt lat="37.86105833333333" lon="-1.4282299999999999">
<ele>639</ele>
<time>2016-07-26T20:30:28Z</time>
</trkpt>
<trkpt lat="37.861045" lon="-1.4281116666666667">
<ele>640</ele>
<time>2016-07-26T20:30:30Z</time>
</trkpt>
<trkpt lat="37.861065" lon="-1.4280033333333333">
<ele>641</ele>
<time>2016-07-26T20:30:32Z</time>
</trkpt>
<trkpt lat="37.861194999999995" lon="-1.4277583333333332">
<ele>641</ele>
<time>2016-07-26T20:30:34Z</time>
</trkpt>
<trkpt lat="37.86131833333333" lon="-1.42761">
<ele>641</ele>
<time>2016-07-26T20:30:36Z</time>
</trkpt>
<trkpt lat="37.86144" lon="-1.4275233333333333">
<ele>642</ele>
<time>2016-07-26T20:30:38Z</time>
</trkpt>
<trkpt lat="37.86159333333333" lon="-1.4274933333333335">
<ele>643</ele>
<time>2016-07-26T20:30:40Z</time>
</trkpt>
<trkpt lat="37.86177166666666" lon="-1.4276149999999999">
<ele>645</ele>
<time>2016-07-26T20:30:42Z</time>
</trkpt>
<trkpt lat="37.86188" lon="-1.42779">
<ele>646</ele>
<time>2016-07-26T20:30:44Z</time>
</trkpt>
<trkpt lat="37.861959999999996" lon="-1.427925">
<ele>648</ele>
<time>2016-07-26T20:30:46Z</time>
</trkpt>
<trkpt lat="37.862004999999996" lon="-1.42803">
<ele>650</ele>
<time>2016-07-26T20:30:48Z</time>
</trkpt>
<trkpt lat="37.86201166666667" lon="-1.4281166666666667">
<ele>652</ele>
<time>2016-07-26T20:30:50Z</time>
</trkpt>
<trkpt lat="37.86195333333333" lon="-1.4281350000000002">
<ele>653</ele>
<time>2016-07-26T20:30:52Z</time>
</trkpt>
<trkpt lat="37.861869999999996" lon="-1.4281166666666667">
<ele>654</ele>
<time>2016-07-26T20:30:54Z</time>
</trkpt>
<trkpt lat="37.861808333333336" lon="-1.4280883333333332">
<ele>655</ele>
<time>2016-07-26T20:30:56Z</time>
</trkpt>
<trkpt lat="37.861740000000005" lon="-1.4280683333333333">
<ele>657</ele>
<time>2016-07-26T20:30:58Z</time>
</trkpt>
<trkpt lat="37.86168" lon="-1.42804">
<ele>658</ele>
<time>2016-07-26T20:31:00Z</time>
</trkpt>
<trkpt lat="37.861621666666665" lon="-1.4280016666666666">
<ele>659</ele>
<time>2016-07-26T20:31:02Z</time>
</trkpt>
<trkpt lat="37.861545" lon="-1.427975">
<ele>660</ele>
<time>2016-07-26T20:31:04Z</time>
</trkpt>
<trkpt lat="37.86148166666667" lon="-1.4279350000000002">
<ele>662</ele>
<time>2016-07-26T20:31:06Z</time>
</trkpt>
<trkpt lat="37.861430000000006" lon="-1.42788">
<ele>663</ele>
<time>2016-07-26T20:31:08Z</time>
</trkpt>
<trkpt lat="37.86137333333333" lon="-1.427825">
<ele>663</ele>
<time>2016-07-26T20:31:10Z</time>
</trkpt>
<trkpt lat="37.86132" lon="-1.4277733333333333">
<ele>664</ele>
<time>2016-07-26T20:31:12Z</time>
</trkpt>
<trkpt lat="37.861261666666664" lon="-1.4277166666666665">
<ele>664</ele>
<time>2016-07-26T20:31:14Z</time>
</trkpt>
<trkpt lat="37.861194999999995" lon="-1.427665">
<ele>664</ele>
<time>2016-07-26T20:31:16Z</time>
</trkpt>
<trkpt lat="37.86113666666667" lon="-1.4276133333333334">
<ele>664</ele>
<time>2016-07-26T20:31:18Z</time>
</trkpt>
<trkpt lat="37.861086666666665" lon="-1.4275683333333333">
<ele>664</ele>
<time>2016-07-26T20:31:20Z</time>
</trkpt>
<trkpt lat="37.861041666666665" lon="-1.4275283333333335">
<ele>664</ele>
<time>2016-07-26T20:31:22Z</time>
</trkpt>
<trkpt lat="37.860995" lon="-1.4274933333333335">
<ele>664</ele>
<time>2016-07-26T20:31:24Z</time>
</trkpt>
<trkpt lat="37.860953333333335" lon="-1.4274766666666667">
<ele>664</ele>
<time>2016-07-26T20:31:26Z</time>
</trkpt>
<trkpt lat="37.86091" lon="-1.4274550000000001">
<ele>664</ele>
<time>2016-07-26T20:31:28Z</time>
</trkpt>
<trkpt lat="37.86087833333333" lon="-1.427435">
<ele>664</ele>
<time>2016-07-26T20:31:30Z</time>
</trkpt>
<trkpt lat="37.86085333333333" lon="-1.427415">
<ele>664</ele>
<time>2016-07-26T20:31:32Z</time>
</trkpt>
<trkpt lat="37.860816666666665" lon="-1.42741">
<ele>664</ele>
<time>2016-07-26T20:31:34Z</time>
</trkpt>
<trkpt lat="37.86077" lon="-1.4274083333333332">
<ele>664</ele>
<time>2016-07-26T20:31:36Z</time>
</trkpt>
<trkpt lat="37.86072166666667" lon="-1.4274066666666667">
<ele>664</ele>
<time>2016-07-26T20:31:38Z</time>
</trkpt>
<trkpt lat="37.86066833333334" lon="-1.4274116666666667">
<ele>664</ele>
<time>2016-07-26T20:31:40Z</time>
</trkpt>
<trkpt lat="37.860611666666664" lon="-1.4274066666666667">
<ele>664</ele>
<time>2016-07-26T20:31:42Z</time>
</trkpt>
<trkpt lat="37.860553333333336" lon="-1.4274216666666668">
<ele>663</ele>
<time>2016-07-26T20:31:44Z</time>
</trkpt>
<trkpt lat="37.86049166666667" lon="-1.4274166666666666">
<ele>663</ele>
<time>2016-07-26T20:31:46Z</time>
</trkpt>
<trkpt lat="37.86042666666666" lon="-1.4273966666666666">
<ele>662</ele>
<time>2016-07-26T20:31:48Z</time>
</trkpt>
<trkpt lat="37.860365" lon="-1.427365">
<ele>662</ele>
<time>2016-07-26T20:31:50Z</time>
</trkpt>
<trkpt lat="37.860303333333334" lon="-1.42733">
<ele>662</ele>
<time>2016-07-26T20:31:52Z</time>
</trkpt>
<trkpt lat="37.86025333333334" lon="-1.4272916666666666">
<ele>662</ele>
<time>2016-07-26T20:31:54Z</time>
</trkpt>
<trkpt lat="37.86020833333334" lon="-1.4272683333333334">
<ele>661</ele>
<time>2016-07-26T20:31:56Z</time>
</trkpt>
<trkpt lat="37.860170000000004" lon="-1.4272316666666667">
<ele>661</ele>
<time>2016-07-26T20:31:58Z</time>
</trkpt>
<trkpt lat="37.860126666666666" lon="-1.4272">
<ele>660</ele>
<time>2016-07-26T20:32:00Z</time>
</trkpt>
<trkpt lat="37.860081666666666" lon="-1.42718">
<ele>660</ele>
<time>2016-07-26T20:32:02Z</time>
</trkpt>
<trkpt lat="37.86003166666667" lon="-1.4271616666666667">
<ele>658</ele>
<time>2016-07-26T20:32:04Z</time>
</trkpt>
<trkpt lat="37.85998666666667" lon="-1.42714">
<ele>657</ele>
<time>2016-07-26T20:32:06Z</time>
</trkpt>
<trkpt lat="37.859946666666666" lon="-1.4271116666666668">
<ele>655</ele>
<time>2016-07-26T20:32:08Z</time>
</trkpt>
<trkpt lat="37.859915" lon="-1.42706">
<ele>653</ele>
<time>2016-07-26T20:32:10Z</time>
</trkpt>
<trkpt lat="37.85988333333333" lon="-1.4269850000000002">
<ele>652</ele>
<time>2016-07-26T20:32:12Z</time>
</trkpt>
<trkpt lat="37.85984833333334" lon="-1.426905">
<ele>651</ele>
<time>2016-07-26T20:32:14Z</time>
</trkpt>
<trkpt lat="37.859788333333334" lon="-1.42683">
<ele>651</ele>
<time>2016-07-26T20:32:16Z</time>
</trkpt>
<trkpt lat="37.85974" lon="-1.4267983333333334">
<ele>650</ele>
<time>2016-07-26T20:32:18Z</time>
</trkpt>
<trkpt lat="37.85970333333333" lon="-1.4267433333333335">
<ele>649</ele>
<time>2016-07-26T20:32:20Z</time>
</trkpt>
<trkpt lat="37.85967166666667" lon="-1.426675">
<ele>648</ele>
<time>2016-07-26T20:32:22Z</time>
</trkpt>
<trkpt lat="37.859645" lon="-1.4265783333333335">
<ele>647</ele>
<time>2016-07-26T20:32:24Z</time>
</trkpt>
<trkpt lat="37.859633333333335" lon="-1.426465">
<ele>646</ele>
<time>2016-07-26T20:32:26Z</time>
</trkpt>
<trkpt lat="37.859611666666666" lon="-1.42634">
<ele>645</ele>
<time>2016-07-26T20:32:28Z</time>
</trkpt>
<trkpt lat="37.85956833333333" lon="-1.4262466666666667">
<ele>644</ele>
<time>2016-07-26T20:32:30Z</time>
</trkpt>
<trkpt lat="37.859500000000004" lon="-1.4261633333333332">
<ele>643</ele>
<time>2016-07-26T20:32:32Z</time>
</trkpt>
<trkpt lat="37.859428333333334" lon="-1.4260966666666666">
<ele>643</ele>
<time>2016-07-26T20:32:34Z</time>
</trkpt>
<trkpt lat="37.859355" lon="-1.4260466666666667">
<ele>642</ele>
<time>2016-07-26T20:32:36Z</time>
</trkpt>
<trkpt lat="37.859275000000004" lon="-1.4260183333333334">
<ele>642</ele>
<time>2016-07-26T20:32:38Z</time>
</trkpt>
<trkpt lat="37.859201666666664" lon="-1.4259950000000001">
<ele>642</ele>
<time>2016-07-26T20:32:40Z</time>
</trkpt>
<trkpt lat="37.859135" lon="-1.4259683333333333">
<ele>640</ele>
<time>2016-07-26T20:32:42Z</time>
</trkpt>
<trkpt lat="37.85905833333334" lon="-1.4259266666666666">
<ele>639</ele>
<time>2016-07-26T20:32:44Z</time>
</trkpt>
<trkpt lat="37.85899" lon="-1.4258716666666666">
<ele>638</ele>
<time>2016-07-26T20:32:46Z</time>
</trkpt>
<trkpt lat="37.858938333333334" lon="-1.4258016666666666">
<ele>638</ele>
<time>2016-07-26T20:32:48Z</time>
</trkpt>
<trkpt lat="37.85888333333333" lon="-1.4257466666666665">
<ele>637</ele>
<time>2016-07-26T20:32:50Z</time>
</trkpt>
<trkpt lat="37.85882333333333" lon="-1.4256983333333333">
<ele>636</ele>
<time>2016-07-26T20:32:52Z</time>
</trkpt>
<trkpt lat="37.85877166666667" lon="-1.425665">
<ele>635</ele>
<time>2016-07-26T20:32:54Z</time>
</trkpt>
<trkpt lat="37.858709999999995" lon="-1.4256283333333333">
<ele>634</ele>
<time>2016-07-26T20:32:56Z</time>
</trkpt>
<trkpt lat="37.85863166666666" lon="-1.4255866666666668">
<ele>633</ele>
<time>2016-07-26T20:32:58Z</time>
</trkpt>
<trkpt lat="37.85856833333333" lon="-1.4255583333333335">
<ele>633</ele>
<time>2016-07-26T20:33:00Z</time>
</trkpt>
<trkpt lat="37.85850166666667" lon="-1.425525">
<ele>632</ele>
<time>2016-07-26T20:33:02Z</time>
</trkpt>
<trkpt lat="37.85841833333333" lon="-1.4254816666666665">
<ele>631</ele>
<time>2016-07-26T20:33:04Z</time>
</trkpt>
<trkpt lat="37.858333333333334" lon="-1.42545">
<ele>630</ele>
<time>2016-07-26T20:33:06Z</time>
</trkpt>
<trkpt lat="37.85825166666667" lon="-1.4254266666666666">
<ele>629</ele>
<time>2016-07-26T20:33:08Z</time>
</trkpt>
<trkpt lat="37.85816666666666" lon="-1.4253966666666666">
<ele>628</ele>
<time>2016-07-26T20:33:10Z</time>
</trkpt>
<trkpt lat="37.858086666666665" lon="-1.42537">
<ele>628</ele>
<time>2016-07-26T20:33:12Z</time>
</trkpt>
<trkpt lat="37.85800833333334" lon="-1.4253533333333333">
<ele>627</ele>
<time>2016-07-26T20:33:14Z</time>
</trkpt>
<trkpt lat="37.85792666666667" lon="-1.4253266666666666">
<ele>626</ele>
<time>2016-07-26T20:33:16Z</time>
</trkpt>
<trkpt lat="37.857835" lon="-1.4252950000000002">
<ele>625</ele>
<time>2016-07-26T20:33:18Z</time>
</trkpt>
<trkpt lat="37.85774333333333" lon="-1.4252583333333333">
<ele>624</ele>
<time>2016-07-26T20:33:20Z</time>
</trkpt>
<trkpt lat="37.85765333333333" lon="-1.4252233333333333">
<ele>623</ele>
<time>2016-07-26T20:33:22Z</time>
</trkpt>
<trkpt lat="37.85756833333333" lon="-1.4252066666666667">
<ele>622</ele>
<time>2016-07-26T20:33:24Z</time>
</trkpt>
<trkpt lat="37.857483333333334" lon="-1.4252066666666667">
<ele>621</ele>
<time>2016-07-26T20:33:26Z</time>
</trkpt>
<trkpt lat="37.85740666666666" lon="-1.42521">
<ele>620</ele>
<time>2016-07-26T20:33:28Z</time>
</trkpt>
<trkpt lat="37.85733666666667" lon="-1.4251933333333333">
<ele>619</ele>
<time>2016-07-26T20:33:30Z</time>
</trkpt>
<trkpt lat="37.857274999999994" lon="-1.4251516666666668">
<ele>618</ele>
<time>2016-07-26T20:33:32Z</time>
</trkpt>
<trkpt lat="37.85722" lon="-1.4250966666666667">
<ele>617</ele>
<time>2016-07-26T20:33:34Z</time>
</trkpt>
<trkpt lat="37.857166666666664" lon="-1.42501">
<ele>616</ele>
<time>2016-07-26T20:33:36Z</time>
</trkpt>
<trkpt lat="37.857105000000004" lon="-1.42493">
<ele>614</ele>
<time>2016-07-26T20:33:38Z</time>
</trkpt>
<trkpt lat="37.85704" lon="-1.4248616666666667">
<ele>613</ele>
<time>2016-07-26T20:33:40Z</time>
</trkpt>
<trkpt lat="37.856968333333334" lon="-1.4248083333333335">
<ele>612</ele>
<time>2016-07-26T20:33:42Z</time>
</trkpt>
<trkpt lat="37.856905" lon="-1.4247716666666665">
<ele>611</ele>
<time>2016-07-26T20:33:44Z</time>
</trkpt>
<trkpt lat="37.856865" lon="-1.4247750000000001">
<ele>610</ele>
<time>2016-07-26T20:33:46Z</time>
</trkpt>
<trkpt lat="37.856813333333335" lon="-1.4248116666666666">
<ele>608</ele>
<time>2016-07-26T20:33:48Z</time>
</trkpt>
<trkpt lat="37.856748333333336" lon="-1.4248233333333333">
<ele>607</ele>
<time>2016-07-26T20:33:50Z</time>
</trkpt>
<trkpt lat="37.856675" lon="-1.4248250000000002">
<ele>606</ele>
<time>2016-07-26T20:33:52Z</time>
</trkpt>
<trkpt lat="37.85659" lon="-1.4248066666666666">
<ele>604</ele>
<time>2016-07-26T20:33:54Z</time>
</trkpt>
<trkpt lat="37.85651" lon="-1.4247800000000002">
<ele>603</ele>
<time>2016-07-26T20:33:56Z</time>
</trkpt>
<trkpt lat="37.85644" lon="-1.4247516666666666">
<ele>602</ele>
<time>2016-07-26T20:33:58Z</time>
</trkpt>
<trkpt lat="37.856365" lon="-1.424725">
<ele>601</ele>
<time>2016-07-26T20:34:00Z</time>
</trkpt>
<trkpt lat="37.85627833333333" lon="-1.4246883333333333">
<ele>600</ele>
<time>2016-07-26T20:34:02Z</time>
</trkpt>
<trkpt lat="37.85619166666667" lon="-1.4246433333333333">
<ele>599</ele>
<time>2016-07-26T20:34:04Z</time>
</trkpt>
<trkpt lat="37.856115" lon="-1.4246033333333334">
<ele>598</ele>
<time>2016-07-26T20:34:06Z</time>
</trkpt>
<trkpt lat="37.85606166666666" lon="-1.4245583333333334">
<ele>596</ele>
<time>2016-07-26T20:34:08Z</time>
</trkpt>
<trkpt lat="37.856001666666664" lon="-1.424445">
<ele>595</ele>
<time>2016-07-26T20:34:10Z</time>
</trkpt>
<trkpt lat="37.85593666666667" lon="-1.4243266666666665">
<ele>593</ele>
<time>2016-07-26T20:34:12Z</time>
</trkpt>
<trkpt lat="37.85587666666667" lon="-1.424225">
<ele>592</ele>
<time>2016-07-26T20:34:14Z</time>
</trkpt>
<trkpt lat="37.85581" lon="-1.4241400000000002">
<ele>590</ele>
<time>2016-07-26T20:34:16Z</time>
</trkpt>
<trkpt lat="37.85572166666667" lon="-1.424011666666667">
<ele>588</ele>
<time>2016-07-26T20:34:18Z</time>
</trkpt>
<trkpt lat="37.85564166666666" lon="-1.423925">
<ele>586</ele>
<time>2016-07-26T20:34:20Z</time>
</trkpt>
<trkpt lat="37.85556833333333" lon="-1.4238866666666667">
<ele>584</ele>
<time>2016-07-26T20:34:22Z</time>
</trkpt>
<trkpt lat="37.85546166666666" lon="-1.4238116666666667">
<ele>582</ele>
<time>2016-07-26T20:34:24Z</time>
</trkpt>
<trkpt lat="37.85538" lon="-1.4238133333333334">
<ele>581</ele>
<time>2016-07-26T20:34:26Z</time>
</trkpt>
<trkpt lat="37.85533833333333" lon="-1.4239066666666667">
<ele>579</ele>
<time>2016-07-26T20:34:28Z</time>
</trkpt>
<trkpt lat="37.85531666666667" lon="-1.4240400000000002">
<ele>577</ele>
<time>2016-07-26T20:34:30Z</time>
</trkpt>
<trkpt lat="37.85531666666667" lon="-1.4242033333333335">
<ele>575</ele>
<time>2016-07-26T20:34:32Z</time>
</trkpt>
<trkpt lat="37.85534833333334" lon="-1.4244266666666665">
<ele>574</ele>
<time>2016-07-26T20:34:34Z</time>
</trkpt>
<trkpt lat="37.85542" lon="-1.4246583333333334">
<ele>573</ele>
<time>2016-07-26T20:34:36Z</time>
</trkpt>
<trkpt lat="37.85554666666667" lon="-1.424895">
<ele>572</ele>
<time>2016-07-26T20:34:38Z</time>
</trkpt>
<trkpt lat="37.85573" lon="-1.4251033333333334">
<ele>571</ele>
<time>2016-07-26T20:34:40Z</time>
</trkpt>
<trkpt lat="37.855914999999996" lon="-1.42531">
<ele>569</ele>
<time>2016-07-26T20:34:42Z</time>
</trkpt>
<trkpt lat="37.856096666666666" lon="-1.42549">
<ele>568</ele>
<time>2016-07-26T20:34:44Z</time>
</trkpt>
<trkpt lat="37.85628" lon="-1.4256533333333332">
<ele>567</ele>
<time>2016-07-26T20:34:46Z</time>
</trkpt>
<trkpt lat="37.856456666666666" lon="-1.42579">
<ele>566</ele>
<time>2016-07-26T20:34:48Z</time>
</trkpt>
<trkpt lat="37.856649999999995" lon="-1.425905">
<ele>565</ele>
<time>2016-07-26T20:34:50Z</time>
</trkpt>
<trkpt lat="37.85688833333334" lon="-1.4259566666666668">
<ele>562</ele>
<time>2016-07-26T20:34:52Z</time>
</trkpt>
<trkpt lat="37.857121666666664" lon="-1.42604">
<ele>560</ele>
<time>2016-07-26T20:34:54Z</time>
</trkpt>
<trkpt lat="37.85735" lon="-1.4261416666666666">
<ele>559</ele>
<time>2016-07-26T20:34:56Z</time>
</trkpt>
<trkpt lat="37.85758333333333" lon="-1.4262366666666668">
<ele>557</ele>
<time>2016-07-26T20:34:58Z</time>
</trkpt>
<trkpt lat="37.85782833333334" lon="-1.4263366666666668">
<ele>556</ele>
<time>2016-07-26T20:35:00Z</time>
</trkpt>
<trkpt lat="37.858063333333334" lon="-1.42643">
<ele>555</ele>
<time>2016-07-26T20:35:02Z</time>
</trkpt>
<trkpt lat="37.858306666666664" lon="-1.4265266666666667">
<ele>554</ele>
<time>2016-07-26T20:35:04Z</time>
</trkpt>
<trkpt lat="37.858558333333335" lon="-1.426635">
<ele>553</ele>
<time>2016-07-26T20:35:06Z</time>
</trkpt>
<trkpt lat="37.858795" lon="-1.4267316666666665">
<ele>552</ele>
<time>2016-07-26T20:35:08Z</time>
</trkpt>
<trkpt lat="37.85903" lon="-1.426823333333333">
<ele>551</ele>
<time>2016-07-26T20:35:10Z</time>
</trkpt>
<trkpt lat="37.859255" lon="-1.426935">
<ele>549</ele>
<time>2016-07-26T20:35:12Z</time>
</trkpt>
<trkpt lat="37.85947833333333" lon="-1.4270383333333332">
<ele>548</ele>
<time>2016-07-26T20:35:14Z</time>
</trkpt>
<trkpt lat="37.859715" lon="-1.42713">
<ele>547</ele>
<time>2016-07-26T20:35:16Z</time>
</trkpt>
<trkpt lat="37.85996166666666" lon="-1.427205">
<ele>546</ele>
<time>2016-07-26T20:35:18Z</time>
</trkpt>
<trkpt lat="37.86020833333334" lon="-1.4272833333333335">
<ele>545</ele>
<time>2016-07-26T20:35:20Z</time>
</trkpt>
<trkpt lat="37.86044833333334" lon="-1.4273566666666668">
<ele>544</ele>
<time>2016-07-26T20:35:22Z</time>
</trkpt>
<trkpt lat="37.860686666666666" lon="-1.4274366666666665">
<ele>544</ele>
<time>2016-07-26T20:35:24Z</time>
</trkpt>
<trkpt lat="37.86092333333333" lon="-1.4275149999999999">
<ele>543</ele>
<time>2016-07-26T20:35:26Z</time>
</trkpt>
<trkpt lat="37.86115666666667" lon="-1.4276083333333331">
<ele>542</ele>
<time>2016-07-26T20:35:28Z</time>
</trkpt>
<trkpt lat="37.86138833333334" lon="-1.4277283333333335">
<ele>541</ele>
<time>2016-07-26T20:35:30Z</time>
</trkpt>
<trkpt lat="37.861595" lon="-1.4278916666666668">
<ele>541</ele>
<time>2016-07-26T20:35:32Z</time>
</trkpt>
<trkpt lat="37.861776666666664" lon="-1.4280666666666666">
<ele>540</ele>
<time>2016-07-26T20:35:34Z</time>
</trkpt>
<trkpt lat="37.86194" lon="-1.4282466666666667">
<ele>540</ele>
<time>2016-07-26T20:35:36Z</time>
</trkpt>
<trkpt lat="37.86212" lon="-1.4284299999999999">
<ele>540</ele>
<time>2016-07-26T20:35:38Z</time>
</trkpt>
<trkpt lat="37.862314999999995" lon="-1.4285616666666667">
<ele>539</ele>
<time>2016-07-26T20:35:40Z</time>
</trkpt>
<trkpt lat="37.862521666666666" lon="-1.4286716666666666">
<ele>539</ele>
<time>2016-07-26T20:35:42Z</time>
</trkpt>
<trkpt lat="37.86276833333333" lon="-1.4287583333333334">
<ele>539</ele>
<time>2016-07-26T20:35:44Z</time>
</trkpt>
<trkpt lat="37.86304" lon="-1.4287766666666668">
<ele>539</ele>
<time>2016-07-26T20:35:46Z</time>
</trkpt>
<trkpt lat="37.863325" lon="-1.4287400000000001">
<ele>538</ele>
<time>2016-07-26T20:35:48Z</time>
</trkpt>
<trkpt lat="37.86357666666667" lon="-1.42865">
<ele>538</ele>
<time>2016-07-26T20:35:50Z</time>
</trkpt>
<trkpt lat="37.863778333333336" lon="-1.4285433333333333">
<ele>537</ele>
<time>2016-07-26T20:35:52Z</time>
</trkpt>
<trkpt lat="37.86386666666667" lon="-1.4283516666666667">
<ele>536</ele>
<time>2016-07-26T20:35:54Z</time>
</trkpt>
<trkpt lat="37.86391666666667" lon="-1.4281716666666666">
<ele>536</ele>
<time>2016-07-26T20:35:56Z</time>
</trkpt>
<trkpt lat="37.86389166666667" lon="-1.428043333333333">
<ele>536</ele>
<time>2016-07-26T20:35:58Z</time>
</trkpt>
<trkpt lat="37.863839999999996" lon="-1.4279966666666666">
<ele>536</ele>
<time>2016-07-26T20:36:00Z</time>
</trkpt>
<trkpt lat="37.863749999999996" lon="-1.4279366666666666">
<ele>535</ele>
<time>2016-07-26T20:36:02Z</time>
</trkpt>
<trkpt lat="37.86365833333333" lon="-1.4278633333333335">
<ele>535</ele>
<time>2016-07-26T20:36:04Z</time>
</trkpt>
<trkpt lat="37.86358499999999" lon="-1.4277966666666666">
<ele>534</ele>
<time>2016-07-26T20:36:06Z</time>
</trkpt>
<trkpt lat="37.863521666666664" lon="-1.4277683333333333">
<ele>533</ele>
<time>2016-07-26T20:36:08Z</time>
</trkpt>
<trkpt lat="37.86344666666666" lon="-1.427725">
<ele>533</ele>
<time>2016-07-26T20:36:10Z</time>
</trkpt>
<trkpt lat="37.86340333333333" lon="-1.4276799999999998">
<ele>533</ele>
<time>2016-07-26T20:36:12Z</time>
</trkpt>
<trkpt lat="37.86335333333333" lon="-1.4276233333333332">
<ele>533</ele>
<time>2016-07-26T20:36:14Z</time>
</trkpt>
<trkpt lat="37.863328333333335" lon="-1.42757">
<ele>532</ele>
<time>2016-07-26T20:36:16Z</time>
</trkpt>
<trkpt lat="37.86331833333334" lon="-1.4275216666666668">
<ele>532</ele>
<time>2016-07-26T20:36:18Z</time>
</trkpt>
<trkpt lat="37.86329333333333" lon="-1.4274733333333334">
<ele>532</ele>
<time>2016-07-26T20:36:20Z</time>
</trkpt>
<trkpt lat="37.863285" lon="-1.4274416666666667">
<ele>531</ele>
<time>2016-07-26T20:36:22Z</time>
</trkpt>
<trkpt lat="37.863285" lon="-1.4274183333333332">
<ele>531</ele>
<time>2016-07-26T20:36:24Z</time>
</trkpt>
<trkpt lat="37.863265" lon="-1.427415">
<ele>531</ele>
<time>2016-07-26T20:36:26Z</time>
</trkpt>
<trkpt lat="37.863265" lon="-1.427415">
<ele>531</ele>
<time>2016-07-26T20:36:28Z</time>
</trkpt>
<trkpt lat="37.863265" lon="-1.427415">
<ele>531</ele>
<time>2016-07-26T20:36:30Z</time>
</trkpt>
<trkpt lat="37.863245" lon="-1.42733">
<ele>530</ele>
<time>2016-07-26T20:36:32Z</time>
</trkpt>
<trkpt lat="37.86325" lon="-1.4272833333333335">
<ele>530</ele>
<time>2016-07-26T20:36:34Z</time>
</trkpt>
<trkpt lat="37.86327333333334" lon="-1.4273116666666668">
<ele>530</ele>
<time>2016-07-26T20:36:36Z</time>
</trkpt>
<trkpt lat="37.86331333333333" lon="-1.4273633333333333">
<ele>531</ele>
<time>2016-07-26T20:36:38Z</time>
</trkpt>
<trkpt lat="37.863371666666666" lon="-1.4274516666666666">
<ele>531</ele>
<time>2016-07-26T20:36:40Z</time>
</trkpt>
<trkpt lat="37.86342" lon="-1.4275816666666667">
<ele>531</ele>
<time>2016-07-26T20:36:42Z</time>
</trkpt>
<trkpt lat="37.863461666666666" lon="-1.4277466666666667">
<ele>532</ele>
<time>2016-07-26T20:36:44Z</time>
</trkpt>
<trkpt lat="37.86352" lon="-1.4278983333333333">
<ele>532</ele>
<time>2016-07-26T20:36:46Z</time>
</trkpt>
<trkpt lat="37.86355833333334" lon="-1.4280583333333332">
<ele>532</ele>
<time>2016-07-26T20:36:48Z</time>
</trkpt>
<trkpt lat="37.863575" lon="-1.4282366666666666">
<ele>532</ele>
<time>2016-07-26T20:36:50Z</time>
</trkpt>
<trkpt lat="37.86360166666667" lon="-1.4284016666666666">
<ele>533</ele>
<time>2016-07-26T20:36:52Z</time>
</trkpt>
<trkpt lat="37.86362666666666" lon="-1.428555">
<ele>533</ele>
<time>2016-07-26T20:36:54Z</time>
</trkpt>
<trkpt lat="37.86362166666667" lon="-1.4287033333333334">
<ele>534</ele>
<time>2016-07-26T20:36:56Z</time>
</trkpt>
<trkpt lat="37.86360666666667" lon="-1.4287933333333331">
<ele>533</ele>
<time>2016-07-26T20:36:58Z</time>
</trkpt>
<trkpt lat="37.86358499999999" lon="-1.4288366666666665">
<ele>533</ele>
<time>2016-07-26T20:37:00Z</time>
</trkpt>
<trkpt lat="37.863595000000004" lon="-1.42877">
<ele>534</ele>
<time>2016-07-26T20:37:02Z</time>
</trkpt>
<trkpt lat="37.86362333333333" lon="-1.4286716666666666">
<ele>534</ele>
<time>2016-07-26T20:37:04Z</time>
</trkpt>
<trkpt lat="37.863645" lon="-1.4285700000000001">
<ele>534</ele>
<time>2016-07-26T20:37:06Z</time>
</trkpt>
<trkpt lat="37.863643333333336" lon="-1.4284966666666667">
<ele>534</ele>
<time>2016-07-26T20:37:08Z</time>
</trkpt>
<trkpt lat="37.86362166666667" lon="-1.4284400000000002">
<ele>535</ele>
<time>2016-07-26T20:37:10Z</time>
</trkpt>
<trkpt lat="37.86359" lon="-1.4284116666666666">
<ele>535</ele>
<time>2016-07-26T20:37:12Z</time>
</trkpt>
<trkpt lat="37.863566666666664" lon="-1.4284066666666668">
<ele>535</ele>
<time>2016-07-26T20:37:14Z</time>
</trkpt>
<trkpt lat="37.86355833333334" lon="-1.428425">
<ele>535</ele>
<time>2016-07-26T20:37:16Z</time>
</trkpt>
<trkpt lat="37.86362999999999" lon="-1.4284700000000001">
<ele>535</ele>
<time>2016-07-26T20:37:18Z</time>
</trkpt>
<trkpt lat="37.863645" lon="-1.4285316666666668">
<ele>535</ele>
<time>2016-07-26T20:37:20Z</time>
</trkpt>
<trkpt lat="37.86365333333333" lon="-1.428615">
<ele>535</ele>
<time>2016-07-26T20:37:22Z</time>
</trkpt>
<trkpt lat="37.863655" lon="-1.42871">
<ele>536</ele>
<time>2016-07-26T20:37:24Z</time>
</trkpt>
<trkpt lat="37.863663333333335" lon="-1.4288066666666666">
<ele>536</ele>
<time>2016-07-26T20:37:26Z</time>
</trkpt>
<trkpt lat="37.86367333333333" lon="-1.4289166666666666">
<ele>536</ele>
<time>2016-07-26T20:37:28Z</time>
</trkpt>
<trkpt lat="37.86368" lon="-1.4290233333333333">
<ele>536</ele>
<time>2016-07-26T20:37:30Z</time>
</trkpt>
<trkpt lat="37.86367499999999" lon="-1.4291349999999998">
<ele>536</ele>
<time>2016-07-26T20:37:32Z</time>
</trkpt>
<trkpt lat="37.863685000000004" lon="-1.4292216666666666">
<ele>537</ele>
<time>2016-07-26T20:37:34Z</time>
</trkpt>
<trkpt lat="37.86367" lon="-1.4293316666666667">
<ele>537</ele>
<time>2016-07-26T20:37:36Z</time>
</trkpt>
<trkpt lat="37.863638333333334" lon="-1.4294550000000001">
<ele>537</ele>
<time>2016-07-26T20:37:38Z</time>
</trkpt>
<trkpt lat="37.863598333333336" lon="-1.4295816666666668">
<ele>537</ele>
<time>2016-07-26T20:37:40Z</time>
</trkpt>
<trkpt lat="37.863566666666664" lon="-1.4297033333333333">
<ele>538</ele>
<time>2016-07-26T20:37:42Z</time>
</trkpt>
<trkpt lat="37.86353333333333" lon="-1.4298516666666667">
<ele>538</ele>
<time>2016-07-26T20:37:44Z</time>
</trkpt>
<trkpt lat="37.863505" lon="-1.4299733333333333">
<ele>539</ele>
<time>2016-07-26T20:37:46Z</time>
</trkpt>
<trkpt lat="37.86349166666666" lon="-1.4300833333333334">
<ele>539</ele>
<time>2016-07-26T20:37:48Z</time>
</trkpt>
<trkpt lat="37.86348833333333" lon="-1.43021">
<ele>539</ele>
<time>2016-07-26T20:37:50Z</time>
</trkpt>
<trkpt lat="37.86349333333333" lon="-1.4303133333333333">
<ele>540</ele>
<time>2016-07-26T20:37:52Z</time>
</trkpt>
<trkpt lat="37.86349666666667" lon="-1.430415">
<ele>540</ele>
<time>2016-07-26T20:37:54Z</time>
</trkpt>
<trkpt lat="37.863481666666665" lon="-1.4305166666666667">
<ele>540</ele>
<time>2016-07-26T20:37:56Z</time>
</trkpt>
<trkpt lat="37.86345333333334" lon="-1.4306100000000002">
<ele>540</ele>
<time>2016-07-26T20:37:58Z</time>
</trkpt>
<trkpt lat="37.86338833333333" lon="-1.4307750000000001">
<ele>542</ele>
<time>2016-07-26T20:38:00Z</time>
</trkpt>
<trkpt lat="37.863371666666666" lon="-1.4309016666666667">
<ele>543</ele>
<time>2016-07-26T20:38:02Z</time>
</trkpt>
<trkpt lat="37.86333833333333" lon="-1.4310083333333334">
<ele>543</ele>
<time>2016-07-26T20:38:04Z</time>
</trkpt>
<trkpt lat="37.86331" lon="-1.43112">
<ele>543</ele>
<time>2016-07-26T20:38:06Z</time>
</trkpt>
<trkpt lat="37.863281666666666" lon="-1.4312250000000002">
<ele>544</ele>
<time>2016-07-26T20:38:08Z</time>
</trkpt>
<trkpt lat="37.86325" lon="-1.4313166666666668">
<ele>544</ele>
<time>2016-07-26T20:38:10Z</time>
</trkpt>
<trkpt lat="37.86322500000001" lon="-1.4314066666666667">
<ele>544</ele>
<time>2016-07-26T20:38:12Z</time>
</trkpt>
<trkpt lat="37.863205" lon="-1.4315066666666667">
<ele>544</ele>
<time>2016-07-26T20:38:14Z</time>
</trkpt>
<trkpt lat="37.86318833333333" lon="-1.4315883333333335">
<ele>545</ele>
<time>2016-07-26T20:38:16Z</time>
</trkpt>
<trkpt lat="37.86316166666666" lon="-1.4316716666666667">
<ele>545</ele>
<time>2016-07-26T20:38:18Z</time>
</trkpt>
<trkpt lat="37.86313166666666" lon="-1.4317466666666665">
<ele>546</ele>
<time>2016-07-26T20:38:20Z</time>
</trkpt>
<trkpt lat="37.863105000000004" lon="-1.43182">
<ele>546</ele>
<time>2016-07-26T20:38:22Z</time>
</trkpt>
<trkpt lat="37.86310666666667" lon="-1.4318933333333335">
<ele>547</ele>
<time>2016-07-26T20:38:24Z</time>
</trkpt>
<trkpt lat="37.8631" lon="-1.4319833333333332">
<ele>547</ele>
<time>2016-07-26T20:38:26Z</time>
</trkpt>
<trkpt lat="37.86308833333333" lon="-1.4320866666666667">
<ele>548</ele>
<time>2016-07-26T20:38:28Z</time>
</trkpt>
<trkpt lat="37.86305333333333" lon="-1.4322016666666668">
<ele>549</ele>
<time>2016-07-26T20:38:30Z</time>
</trkpt>
<trkpt lat="37.86304" lon="-1.4322816666666665">
<ele>549</ele>
<time>2016-07-26T20:38:32Z</time>
</trkpt>
<trkpt lat="37.863011666666665" lon="-1.432355">
<ele>550</ele>
<time>2016-07-26T20:38:34Z</time>
</trkpt>
<trkpt lat="37.86294833333333" lon="-1.4324616666666667">
<ele>552</ele>
<time>2016-07-26T20:38:36Z</time>
</trkpt>
<trkpt lat="37.862899999999996" lon="-1.4325566666666667">
<ele>553</ele>
<time>2016-07-26T20:38:38Z</time>
</trkpt>
<trkpt lat="37.86281333333333" lon="-1.4326616666666667">
<ele>557</ele>
<time>2016-07-26T20:38:40Z</time>
</trkpt>
<trkpt lat="37.86277166666666" lon="-1.432715">
<ele>559</ele>
<time>2016-07-26T20:38:42Z</time>
</trkpt>
<trkpt lat="37.862730000000006" lon="-1.4327949999999998">
<ele>561</ele>
<time>2016-07-26T20:38:44Z</time>
</trkpt>
<trkpt lat="37.862695" lon="-1.4328516666666669">
<ele>561</ele>
<time>2016-07-26T20:38:46Z</time>
</trkpt>
<trkpt lat="37.86266333333333" lon="-1.43289">
<ele>562</ele>
<time>2016-07-26T20:38:48Z</time>
</trkpt>
<trkpt lat="37.86263333333333" lon="-1.43293">
<ele>562</ele>
<time>2016-07-26T20:38:50Z</time>
</trkpt>
<trkpt lat="37.86261666666667" lon="-1.4329833333333333">
<ele>563</ele>
<time>2016-07-26T20:38:52Z</time>
</trkpt>
<trkpt lat="37.86262166666667" lon="-1.4330683333333334">
<ele>566</ele>
<time>2016-07-26T20:38:54Z</time>
</trkpt>
<trkpt lat="37.86260666666667" lon="-1.4331533333333333">
<ele>568</ele>
<time>2016-07-26T20:38:56Z</time>
</trkpt>
<trkpt lat="37.86260333333333" lon="-1.4332066666666667">
<ele>570</ele>
<time>2016-07-26T20:38:58Z</time>
</trkpt>
<trkpt lat="37.862595000000006" lon="-1.43324">
<ele>571</ele>
<time>2016-07-26T20:39:00Z</time>
</trkpt>
<trkpt lat="37.86259333333333" lon="-1.4332783333333334">
<ele>573</ele>
<time>2016-07-26T20:39:02Z</time>
</trkpt>
<trkpt lat="37.86257333333333" lon="-1.4333299999999998">
<ele>575</ele>
<time>2016-07-26T20:39:04Z</time>
</trkpt>
<trkpt lat="37.86252666666667" lon="-1.4333783333333334">
<ele>576</ele>
<time>2016-07-26T20:39:06Z</time>
</trkpt>
<trkpt lat="37.86249" lon="-1.4334216666666668">
<ele>578</ele>
<time>2016-07-26T20:39:08Z</time>
</trkpt>
<trkpt lat="37.86245666666667" lon="-1.4334666666666667">
<ele>579</ele>
<time>2016-07-26T20:39:10Z</time>
</trkpt>
<trkpt lat="37.862406666666665" lon="-1.4334983333333333">
<ele>580</ele>
<time>2016-07-26T20:39:12Z</time>
</trkpt>
<trkpt lat="37.86236333333333" lon="-1.4335566666666668">
<ele>583</ele>
<time>2016-07-26T20:39:14Z</time>
</trkpt>
<trkpt lat="37.86233666666667" lon="-1.4336216666666668">
<ele>587</ele>
<time>2016-07-26T20:39:16Z</time>
</trkpt>
<trkpt lat="37.86230333333333" lon="-1.4336783333333334">
<ele>590</ele>
<time>2016-07-26T20:39:18Z</time>
</trkpt>
<trkpt lat="37.862293333333334" lon="-1.4337799999999998">
<ele>591</ele>
<time>2016-07-26T20:39:20Z</time>
</trkpt>
<trkpt lat="37.86228166666667" lon="-1.4338583333333332">
<ele>592</ele>
<time>2016-07-26T20:39:22Z</time>
</trkpt>
<trkpt lat="37.862245" lon="-1.4339466666666667">
<ele>593</ele>
<time>2016-07-26T20:39:24Z</time>
</trkpt>
<trkpt lat="37.86221" lon="-1.4340433333333333">
<ele>595</ele>
<time>2016-07-26T20:39:26Z</time>
</trkpt>
<trkpt lat="37.86218833333333" lon="-1.4341333333333335">
<ele>597</ele>
<time>2016-07-26T20:39:28Z</time>
</trkpt>
<trkpt lat="37.862155" lon="-1.4342283333333334">
<ele>598</ele>
<time>2016-07-26T20:39:30Z</time>
</trkpt>
<trkpt lat="37.86213166666666" lon="-1.4343050000000002">
<ele>600</ele>
<time>2016-07-26T20:39:32Z</time>
</trkpt>
<trkpt lat="37.86208666666666" lon="-1.4343733333333333">
<ele>601</ele>
<time>2016-07-26T20:39:34Z</time>
</trkpt>
<trkpt lat="37.86202166666667" lon="-1.4344433333333333">
<ele>603</ele>
<time>2016-07-26T20:39:36Z</time>
</trkpt>
<trkpt lat="37.861961666666666" lon="-1.4345066666666668">
<ele>604</ele>
<time>2016-07-26T20:39:38Z</time>
</trkpt>
<trkpt lat="37.861898333333336" lon="-1.434575">
<ele>605</ele>
<time>2016-07-26T20:39:40Z</time>
</trkpt>
<trkpt lat="37.861835" lon="-1.4346299999999998">
<ele>606</ele>
<time>2016-07-26T20:39:42Z</time>
</trkpt>
<trkpt lat="37.86179833333333" lon="-1.4346833333333333">
<ele>607</ele>
<time>2016-07-26T20:39:44Z</time>
</trkpt>
<trkpt lat="37.861761666666666" lon="-1.4347166666666666">
<ele>608</ele>
<time>2016-07-26T20:39:46Z</time>
</trkpt>
<trkpt lat="37.86172833333333" lon="-1.434756666666667">
<ele>609</ele>
<time>2016-07-26T20:39:48Z</time>
</trkpt>
<trkpt lat="37.86169666666667" lon="-1.43478">
<ele>611</ele>
<time>2016-07-26T20:39:50Z</time>
</trkpt>
<trkpt lat="37.861635" lon="-1.4347866666666667">
<ele>612</ele>
<time>2016-07-26T20:39:52Z</time>
</trkpt>
<trkpt lat="37.861583333333336" lon="-1.4347916666666667">
<ele>613</ele>
<time>2016-07-26T20:39:54Z</time>
</trkpt>
<trkpt lat="37.861556666666665" lon="-1.4348016666666665">
<ele>614</ele>
<time>2016-07-26T20:39:56Z</time>
</trkpt>
<trkpt lat="37.86152833333333" lon="-1.43481">
<ele>615</ele>
<time>2016-07-26T20:39:58Z</time>
</trkpt>
<trkpt lat="37.86146833333333" lon="-1.4348233333333333">
<ele>616</ele>
<time>2016-07-26T20:40:00Z</time>
</trkpt>
<trkpt lat="37.86140833333333" lon="-1.4348383333333334">
<ele>617</ele>
<time>2016-07-26T20:40:02Z</time>
</trkpt>
<trkpt lat="37.86136333333333" lon="-1.4348633333333334">
<ele>619</ele>
<time>2016-07-26T20:40:04Z</time>
</trkpt>
<trkpt lat="37.86132" lon="-1.434905">
<ele>620</ele>
<time>2016-07-26T20:40:06Z</time>
</trkpt>
<trkpt lat="37.86128166666666" lon="-1.4349483333333335">
<ele>621</ele>
<time>2016-07-26T20:40:08Z</time>
</trkpt>
<trkpt lat="37.861245000000004" lon="-1.4349983333333334">
<ele>622</ele>
<time>2016-07-26T20:40:10Z</time>
</trkpt>
<trkpt lat="37.86120833333334" lon="-1.4350483333333335">
<ele>624</ele>
<time>2016-07-26T20:40:12Z</time>
</trkpt>
<trkpt lat="37.86116333333334" lon="-1.43509">
<ele>625</ele>
<time>2016-07-26T20:40:14Z</time>
</trkpt>
<trkpt lat="37.86112" lon="-1.4351333333333334">
<ele>626</ele>
<time>2016-07-26T20:40:16Z</time>
</trkpt>
<trkpt lat="37.86108" lon="-1.43518">
<ele>627</ele>
<time>2016-07-26T20:40:18Z</time>
</trkpt>
<trkpt lat="37.861041666666665" lon="-1.43523">
<ele>629</ele>
<time>2016-07-26T20:40:20Z</time>
</trkpt>
<trkpt lat="37.86104666666667" lon="-1.435305">
<ele>630</ele>
<time>2016-07-26T20:40:22Z</time>
</trkpt>
<trkpt lat="37.86103166666667" lon="-1.4353483333333334">
<ele>631</ele>
<time>2016-07-26T20:40:24Z</time>
</trkpt>
<trkpt lat="37.86101" lon="-1.4354033333333334">
<ele>632</ele>
<time>2016-07-26T20:40:26Z</time>
</trkpt>
<trkpt lat="37.86098666666667" lon="-1.435445">
<ele>633</ele>
<time>2016-07-26T20:40:28Z</time>
</trkpt>
<trkpt lat="37.86095" lon="-1.4354900000000002">
<ele>634</ele>
<time>2016-07-26T20:40:30Z</time>
</trkpt>
<trkpt lat="37.86091" lon="-1.4355366666666667">
<ele>635</ele>
<time>2016-07-26T20:40:32Z</time>
</trkpt>
<trkpt lat="37.86086" lon="-1.4355866666666666">
<ele>636</ele>
<time>2016-07-26T20:40:34Z</time>
</trkpt>
<trkpt lat="37.86081166666667" lon="-1.4356266666666668">
<ele>636</ele>
<time>2016-07-26T20:40:36Z</time>
</trkpt>
<trkpt lat="37.860771666666665" lon="-1.4356683333333333">
<ele>637</ele>
<time>2016-07-26T20:40:38Z</time>
</trkpt>
<trkpt lat="37.860728333333334" lon="-1.4356983333333335">
<ele>638</ele>
<time>2016-07-26T20:40:40Z</time>
</trkpt>
<trkpt lat="37.860675" lon="-1.4357266666666668">
<ele>639</ele>
<time>2016-07-26T20:40:42Z</time>
</trkpt>
<trkpt lat="37.86063166666667" lon="-1.4357583333333332">
<ele>640</ele>
<time>2016-07-26T20:40:44Z</time>
</trkpt>
<trkpt lat="37.86059" lon="-1.4358183333333334">
<ele>640</ele>
<time>2016-07-26T20:40:46Z</time>
</trkpt>
<trkpt lat="37.86055833333333" lon="-1.43589">
<ele>641</ele>
<time>2016-07-26T20:40:48Z</time>
</trkpt>
<trkpt lat="37.860530000000004" lon="-1.4359633333333333">
<ele>642</ele>
<time>2016-07-26T20:40:50Z</time>
</trkpt>
<trkpt lat="37.86049666666667" lon="-1.4360416666666667">
<ele>643</ele>
<time>2016-07-26T20:40:52Z</time>
</trkpt>
<trkpt lat="37.860458333333334" lon="-1.4361383333333333">
<ele>643</ele>
<time>2016-07-26T20:40:54Z</time>
</trkpt>
<trkpt lat="37.86042166666667" lon="-1.436225">
<ele>644</ele>
<time>2016-07-26T20:40:56Z</time>
</trkpt>
<trkpt lat="37.86038166666666" lon="-1.4363033333333335">
<ele>645</ele>
<time>2016-07-26T20:40:58Z</time>
</trkpt>
<trkpt lat="37.86033833333333" lon="-1.4363866666666667">
<ele>646</ele>
<time>2016-07-26T20:41:00Z</time>
</trkpt>
<trkpt lat="37.86029333333333" lon="-1.4364766666666666">
<ele>647</ele>
<time>2016-07-26T20:41:02Z</time>
</trkpt>
<trkpt lat="37.86024333333333" lon="-1.436545">
<ele>648</ele>
<time>2016-07-26T20:41:04Z</time>
</trkpt>
<trkpt lat="37.860191666666665" lon="-1.436625">
<ele>649</ele>
<time>2016-07-26T20:41:06Z</time>
</trkpt>
<trkpt lat="37.860141666666664" lon="-1.4366733333333332">
<ele>650</ele>
<time>2016-07-26T20:41:08Z</time>
</trkpt>
<trkpt lat="37.860101666666665" lon="-1.43676">
<ele>651</ele>
<time>2016-07-26T20:41:10Z</time>
</trkpt>
<trkpt lat="37.860056666666665" lon="-1.4368349999999999">
<ele>652</ele>
<time>2016-07-26T20:41:12Z</time>
</trkpt>
<trkpt lat="37.86000833333333" lon="-1.4369183333333335">
<ele>653</ele>
<time>2016-07-26T20:41:14Z</time>
</trkpt>
<trkpt lat="37.85996166666666" lon="-1.4370166666666666">
<ele>654</ele>
<time>2016-07-26T20:41:16Z</time>
</trkpt>
<trkpt lat="37.859905000000005" lon="-1.4371233333333333">
<ele>655</ele>
<time>2016-07-26T20:41:18Z</time>
</trkpt>
<trkpt lat="37.859845" lon="-1.437235">
<ele>655</ele>
<time>2016-07-26T20:41:20Z</time>
</trkpt>
<trkpt lat="37.85978166666666" lon="-1.4373216666666666">
<ele>656</ele>
<time>2016-07-26T20:41:22Z</time>
</trkpt>
<trkpt lat="37.859721666666665" lon="-1.437415">
<ele>657</ele>
<time>2016-07-26T20:41:24Z</time>
</trkpt>
<trkpt lat="37.85967333333333" lon="-1.4374983333333333">
<ele>657</ele>
<time>2016-07-26T20:41:26Z</time>
</trkpt>
<trkpt lat="37.859633333333335" lon="-1.4375833333333332">
<ele>658</ele>
<time>2016-07-26T20:41:28Z</time>
</trkpt>
<trkpt lat="37.85959666666667" lon="-1.43768">
<ele>659</ele>
<time>2016-07-26T20:41:30Z</time>
</trkpt>
<trkpt lat="37.859555" lon="-1.4378">
<ele>659</ele>
<time>2016-07-26T20:41:32Z</time>
</trkpt>
<trkpt lat="37.859521666666666" lon="-1.4379416666666667">
<ele>660</ele>
<time>2016-07-26T20:41:34Z</time>
</trkpt>
<trkpt lat="37.85949" lon="-1.4380866666666667">
<ele>660</ele>
<time>2016-07-26T20:41:36Z</time>
</trkpt>
<trkpt lat="37.85948833333334" lon="-1.438215">
<ele>661</ele>
<time>2016-07-26T20:41:38Z</time>
</trkpt>
<trkpt lat="37.85948833333334" lon="-1.4383333333333332">
<ele>661</ele>
<time>2016-07-26T20:41:40Z</time>
</trkpt>
<trkpt lat="37.859473333333334" lon="-1.438465">
<ele>662</ele>
<time>2016-07-26T20:41:42Z</time>
</trkpt>
<trkpt lat="37.85944666666667" lon="-1.4386033333333332">
<ele>662</ele>
<time>2016-07-26T20:41:44Z</time>
</trkpt>
<trkpt lat="37.859415" lon="-1.4387316666666665">
<ele>662</ele>
<time>2016-07-26T20:41:46Z</time>
</trkpt>
<trkpt lat="37.859386666666666" lon="-1.4388466666666666">
<ele>663</ele>
<time>2016-07-26T20:41:48Z</time>
</trkpt>
<trkpt lat="37.85936" lon="-1.4389599999999998">
<ele>663</ele>
<time>2016-07-26T20:41:50Z</time>
</trkpt>
<trkpt lat="37.85933166666667" lon="-1.4390733333333332">
<ele>664</ele>
<time>2016-07-26T20:41:52Z</time>
</trkpt>
<trkpt lat="37.859273333333334" lon="-1.4391983333333334">
<ele>665</ele>
<time>2016-07-26T20:41:54Z</time>
</trkpt>
<trkpt lat="37.859215" lon="-1.4393066666666667">
<ele>665</ele>
<time>2016-07-26T20:41:56Z</time>
</trkpt>
<trkpt lat="37.85917166666666" lon="-1.4394066666666667">
<ele>665</ele>
<time>2016-07-26T20:41:58Z</time>
</trkpt>
<trkpt lat="37.85915166666667" lon="-1.4395133333333334">
<ele>665</ele>
<time>2016-07-26T20:42:00Z</time>
</trkpt>
<trkpt lat="37.859116666666665" lon="-1.4396449999999998">
<ele>664</ele>
<time>2016-07-26T20:42:02Z</time>
</trkpt>
<trkpt lat="37.859065" lon="-1.4397983333333333">
<ele>663</ele>
<time>2016-07-26T20:42:04Z</time>
</trkpt>
<trkpt lat="37.859006666666666" lon="-1.4399449999999998">
<ele>662</ele>
<time>2016-07-26T20:42:06Z</time>
</trkpt>
<trkpt lat="37.85892" lon="-1.44007">
<ele>661</ele>
<time>2016-07-26T20:42:08Z</time>
</trkpt>
<trkpt lat="37.858848333333334" lon="-1.4401716666666668">
<ele>661</ele>
<time>2016-07-26T20:42:10Z</time>
</trkpt>
<trkpt lat="37.85879333333333" lon="-1.4402716666666668">
<ele>661</ele>
<time>2016-07-26T20:42:12Z</time>
</trkpt>
<trkpt lat="37.85874333333334" lon="-1.4403683333333333">
<ele>661</ele>
<time>2016-07-26T20:42:14Z</time>
</trkpt>
<trkpt lat="37.85869666666667" lon="-1.4404766666666666">
<ele>661</ele>
<time>2016-07-26T20:42:16Z</time>
</trkpt>
<trkpt lat="37.858666666666664" lon="-1.4406050000000001">
<ele>661</ele>
<time>2016-07-26T20:42:18Z</time>
</trkpt>
<trkpt lat="37.858635" lon="-1.4407266666666667">
<ele>661</ele>
<time>2016-07-26T20:42:20Z</time>
</trkpt>
<trkpt lat="37.85861" lon="-1.4408333333333334">
<ele>661</ele>
<time>2016-07-26T20:42:22Z</time>
</trkpt>
<trkpt lat="37.858581666666666" lon="-1.440955">
<ele>661</ele>
<time>2016-07-26T20:42:24Z</time>
</trkpt>
<trkpt lat="37.85855166666667" lon="-1.4410816666666666">
<ele>661</ele>
<time>2016-07-26T20:42:26Z</time>
</trkpt>
<trkpt lat="37.85853" lon="-1.4411916666666666">
<ele>661</ele>
<time>2016-07-26T20:42:28Z</time>
</trkpt>
<trkpt lat="37.85850166666667" lon="-1.4412966666666667">
<ele>661</ele>
<time>2016-07-26T20:42:30Z</time>
</trkpt>
<trkpt lat="37.858466666666665" lon="-1.4414216666666666">
<ele>661</ele>
<time>2016-07-26T20:42:32Z</time>
</trkpt>
<trkpt lat="37.85843333333333" lon="-1.4415416666666667">
<ele>661</ele>
<time>2016-07-26T20:42:34Z</time>
</trkpt>
<trkpt lat="37.858405" lon="-1.4416466666666667">
<ele>661</ele>
<time>2016-07-26T20:42:36Z</time>
</trkpt>
<trkpt lat="37.85837333333333" lon="-1.4417633333333333">
<ele>661</ele>
<time>2016-07-26T20:42:38Z</time>
</trkpt>
<trkpt lat="37.858335000000004" lon="-1.44188">
<ele>661</ele>
<time>2016-07-26T20:42:40Z</time>
</trkpt>
<trkpt lat="37.858290000000004" lon="-1.4420033333333333">
<ele>661</ele>
<time>2016-07-26T20:42:42Z</time>
</trkpt>
<trkpt lat="37.858255" lon="-1.442115">
<ele>661</ele>
<time>2016-07-26T20:42:44Z</time>
</trkpt>
<trkpt lat="37.85823166666667" lon="-1.4422016666666666">
<ele>661</ele>
<time>2016-07-26T20:42:46Z</time>
</trkpt>
<trkpt lat="37.85821166666666" lon="-1.4422916666666665">
<ele>661</ele>
<time>2016-07-26T20:42:48Z</time>
</trkpt>
<trkpt lat="37.85818666666667" lon="-1.4423733333333333">
<ele>661</ele>
<time>2016-07-26T20:42:50Z</time>
</trkpt>
<trkpt lat="37.85816" lon="-1.4424433333333333">
<ele>661</ele>
<time>2016-07-26T20:42:52Z</time>
</trkpt>
<trkpt lat="37.858131666666665" lon="-1.4425066666666666">
<ele>661</ele>
<time>2016-07-26T20:42:54Z</time>
</trkpt>
<trkpt lat="37.85812833333333" lon="-1.4425666666666668">
<ele>661</ele>
<time>2016-07-26T20:42:56Z</time>
</trkpt>
<trkpt lat="37.858105" lon="-1.4426416666666666">
<ele>661</ele>
<time>2016-07-26T20:42:58Z</time>
</trkpt>
<trkpt lat="37.858084999999996" lon="-1.4427333333333332">
<ele>661</ele>
<time>2016-07-26T20:43:00Z</time>
</trkpt>
<trkpt lat="37.858068333333335" lon="-1.44283">
<ele>661</ele>
<time>2016-07-26T20:43:02Z</time>
</trkpt>
<trkpt lat="37.858035" lon="-1.4429583333333333">
<ele>660</ele>
<time>2016-07-26T20:43:04Z</time>
</trkpt>
<trkpt lat="37.858015" lon="-1.4430833333333333">
<ele>660</ele>
<time>2016-07-26T20:43:06Z</time>
</trkpt>
<trkpt lat="37.858" lon="-1.4432049999999998">
<ele>660</ele>
<time>2016-07-26T20:43:08Z</time>
</trkpt>
<trkpt lat="37.85798" lon="-1.4433216666666666">
<ele>659</ele>
<time>2016-07-26T20:43:10Z</time>
</trkpt>
<trkpt lat="37.85793666666667" lon="-1.443445">
<ele>659</ele>
<time>2016-07-26T20:43:12Z</time>
</trkpt>
<trkpt lat="37.857925" lon="-1.4435216666666666">
<ele>657</ele>
<time>2016-07-26T20:43:14Z</time>
</trkpt>
<trkpt lat="37.85792166666667" lon="-1.4435916666666666">
<ele>655</ele>
<time>2016-07-26T20:43:16Z</time>
</trkpt>
<trkpt lat="37.857904999999995" lon="-1.44369">
<ele>654</ele>
<time>2016-07-26T20:43:18Z</time>
</trkpt>
<trkpt lat="37.85787666666667" lon="-1.4437983333333333">
<ele>654</ele>
<time>2016-07-26T20:43:20Z</time>
</trkpt>
<trkpt lat="37.85781166666666" lon="-1.4439283333333333">
<ele>654</ele>
<time>2016-07-26T20:43:22Z</time>
</trkpt>
<trkpt lat="37.85774333333333" lon="-1.4440666666666668">
<ele>653</ele>
<time>2016-07-26T20:43:24Z</time>
</trkpt>
<trkpt lat="37.857695" lon="-1.4441950000000001">
<ele>653</ele>
<time>2016-07-26T20:43:26Z</time>
</trkpt>
<trkpt lat="37.85765166666667" lon="-1.44432">
<ele>652</ele>
<time>2016-07-26T20:43:28Z</time>
</trkpt>
<trkpt lat="37.85760833333333" lon="-1.4444616666666665">
<ele>652</ele>
<time>2016-07-26T20:43:30Z</time>
</trkpt>
<trkpt lat="37.85758333333333" lon="-1.4445833333333333">
<ele>650</ele>
<time>2016-07-26T20:43:32Z</time>
</trkpt>
<trkpt lat="37.85756" lon="-1.4447066666666668">
<ele>649</ele>
<time>2016-07-26T20:43:34Z</time>
</trkpt>
<trkpt lat="37.85751666666667" lon="-1.44485">
<ele>648</ele>
<time>2016-07-26T20:43:36Z</time>
</trkpt>
<trkpt lat="37.857483333333334" lon="-1.4449733333333334">
<ele>646</ele>
<time>2016-07-26T20:43:38Z</time>
</trkpt>
<trkpt lat="37.85744666666667" lon="-1.4451066666666668">
<ele>646</ele>
<time>2016-07-26T20:43:40Z</time>
</trkpt>
<trkpt lat="37.857420000000005" lon="-1.4452516666666668">
<ele>644</ele>
<time>2016-07-26T20:43:42Z</time>
</trkpt>
<trkpt lat="37.857385" lon="-1.4454066666666667">
<ele>644</ele>
<time>2016-07-26T20:43:44Z</time>
</trkpt>
<trkpt lat="37.857355" lon="-1.4455566666666666">
<ele>644</ele>
<time>2016-07-26T20:43:46Z</time>
</trkpt>
<trkpt lat="37.85731666666666" lon="-1.445695">
<ele>643</ele>
<time>2016-07-26T20:43:48Z</time>
</trkpt>
<trkpt lat="37.857265" lon="-1.445795">
<ele>643</ele>
<time>2016-07-26T20:43:50Z</time>
</trkpt>
<trkpt lat="37.85722833333333" lon="-1.4458583333333332">
<ele>643</ele>
<time>2016-07-26T20:43:52Z</time>
</trkpt>
<trkpt lat="37.857193333333335" lon="-1.445945">
<ele>643</ele>
<time>2016-07-26T20:43:54Z</time>
</trkpt>
<trkpt lat="37.85715166666667" lon="-1.4460266666666666">
<ele>643</ele>
<time>2016-07-26T20:43:56Z</time>
</trkpt>
<trkpt lat="37.857105000000004" lon="-1.4460933333333335">
<ele>643</ele>
<time>2016-07-26T20:43:58Z</time>
</trkpt>
<trkpt lat="37.85705666666667" lon="-1.4461733333333333">
<ele>643</ele>
<time>2016-07-26T20:44:00Z</time>
</trkpt>
<trkpt lat="37.857015000000004" lon="-1.4462599999999999">
<ele>642</ele>
<time>2016-07-26T20:44:02Z</time>
</trkpt>
<trkpt lat="37.85698166666667" lon="-1.44635">
<ele>642</ele>
<time>2016-07-26T20:44:04Z</time>
</trkpt>
<trkpt lat="37.85695" lon="-1.446445">
<ele>641</ele>
<time>2016-07-26T20:44:06Z</time>
</trkpt>
<trkpt lat="37.856919999999995" lon="-1.4465416666666666">
<ele>641</ele>
<time>2016-07-26T20:44:08Z</time>
</trkpt>
<trkpt lat="37.85688833333334" lon="-1.4466433333333333">
<ele>641</ele>
<time>2016-07-26T20:44:10Z</time>
</trkpt>
<trkpt lat="37.856851666666664" lon="-1.4467500000000002">
<ele>641</ele>
<time>2016-07-26T20:44:12Z</time>
</trkpt>
<trkpt lat="37.85682" lon="-1.4468783333333335">
<ele>640</ele>
<time>2016-07-26T20:44:14Z</time>
</trkpt>
<trkpt lat="37.85680166666667" lon="-1.4469983333333334">
<ele>640</ele>
<time>2016-07-26T20:44:16Z</time>
</trkpt>
<trkpt lat="37.856784999999995" lon="-1.4471083333333332">
<ele>640</ele>
<time>2016-07-26T20:44:18Z</time>
</trkpt>
<trkpt lat="37.85676333333333" lon="-1.4472133333333335">
<ele>639</ele>
<time>2016-07-26T20:44:20Z</time>
</trkpt>
<trkpt lat="37.85673833333333" lon="-1.4473200000000002">
<ele>639</ele>
<time>2016-07-26T20:44:22Z</time>
</trkpt>
<trkpt lat="37.856700000000004" lon="-1.4474366666666665">
<ele>639</ele>
<time>2016-07-26T20:44:24Z</time>
</trkpt>
<trkpt lat="37.85668833333333" lon="-1.44756">
<ele>639</ele>
<time>2016-07-26T20:44:26Z</time>
</trkpt>
<trkpt lat="37.856675" lon="-1.4476983333333333">
<ele>639</ele>
<time>2016-07-26T20:44:28Z</time>
</trkpt>
<trkpt lat="37.85666333333334" lon="-1.4478316666666666">
<ele>639</ele>
<time>2016-07-26T20:44:30Z</time>
</trkpt>
<trkpt lat="37.856653333333334" lon="-1.4479366666666666">
<ele>639</ele>
<time>2016-07-26T20:44:32Z</time>
</trkpt>
<trkpt lat="37.85664166666666" lon="-1.4480333333333335">
<ele>639</ele>
<time>2016-07-26T20:44:34Z</time>
</trkpt>
<trkpt lat="37.85662833333333" lon="-1.448135">
<ele>639</ele>
<time>2016-07-26T20:44:36Z</time>
</trkpt>
<trkpt lat="37.8566" lon="-1.448255">
<ele>639</ele>
<time>2016-07-26T20:44:38Z</time>
</trkpt>
<trkpt lat="37.856585" lon="-1.44837">
<ele>639</ele>
<time>2016-07-26T20:44:40Z</time>
</trkpt>
<trkpt lat="37.856575" lon="-1.4484816666666667">
<ele>639</ele>
<time>2016-07-26T20:44:42Z</time>
</trkpt>
<trkpt lat="37.856559999999995" lon="-1.4486066666666666">
<ele>639</ele>
<time>2016-07-26T20:44:44Z</time>
</trkpt>
<trkpt lat="37.85655333333333" lon="-1.4487349999999999">
<ele>639</ele>
<time>2016-07-26T20:44:46Z</time>
</trkpt>
<trkpt lat="37.856545" lon="-1.4488383333333335">
<ele>639</ele>
<time>2016-07-26T20:44:48Z</time>
</trkpt>
<trkpt lat="37.85653666666666" lon="-1.4489100000000001">
<ele>639</ele>
<time>2016-07-26T20:44:50Z</time>
</trkpt>
<trkpt lat="37.85653166666667" lon="-1.4489733333333334">
<ele>638</ele>
<time>2016-07-26T20:44:52Z</time>
</trkpt>
<trkpt lat="37.856514999999995" lon="-1.4490483333333333">
<ele>638</ele>
<time>2016-07-26T20:44:54Z</time>
</trkpt>
<trkpt lat="37.85649333333333" lon="-1.4491083333333332">
<ele>639</ele>
<time>2016-07-26T20:44:56Z</time>
</trkpt>
<trkpt lat="37.85650833333333" lon="-1.4491683333333334">
<ele>639</ele>
<time>2016-07-26T20:44:58Z</time>
</trkpt>
<trkpt lat="37.85654666666667" lon="-1.4492283333333333">
<ele>639</ele>
<time>2016-07-26T20:45:00Z</time>
</trkpt>
<trkpt lat="37.85653666666666" lon="-1.4492383333333334">
<ele>638</ele>
<time>2016-07-26T20:45:02Z</time>
</trkpt>
<trkpt lat="37.856495" lon="-1.4493049999999998">
<ele>638</ele>
<time>2016-07-26T20:45:04Z</time>
</trkpt>
<trkpt lat="37.856456666666666" lon="-1.4493783333333332">
<ele>638</ele>
<time>2016-07-26T20:45:06Z</time>
</trkpt>
<trkpt lat="37.856406666666665" lon="-1.4494466666666668">
<ele>638</ele>
<time>2016-07-26T20:45:08Z</time>
</trkpt>
<trkpt lat="37.85635666666667" lon="-1.4495116666666665">
<ele>638</ele>
<time>2016-07-26T20:45:10Z</time>
</trkpt>
<trkpt lat="37.85632333333333" lon="-1.4495583333333333">
<ele>638</ele>
<time>2016-07-26T20:45:12Z</time>
</trkpt>
<trkpt lat="37.85628833333333" lon="-1.4496016666666667">
<ele>638</ele>
<time>2016-07-26T20:45:14Z</time>
</trkpt>
<trkpt lat="37.85623833333333" lon="-1.449655">
<ele>638</ele>
<time>2016-07-26T20:45:16Z</time>
</trkpt>
<trkpt lat="37.85619666666666" lon="-1.4496866666666666">
<ele>638</ele>
<time>2016-07-26T20:45:18Z</time>
</trkpt>
<trkpt lat="37.85615666666667" lon="-1.4497033333333333">
<ele>638</ele>
<time>2016-07-26T20:45:20Z</time>
</trkpt>
<trkpt lat="37.856105" lon="-1.44971">
<ele>637</ele>
<time>2016-07-26T20:45:22Z</time>
</trkpt>
<trkpt lat="37.85606166666666" lon="-1.4497366666666667">
<ele>637</ele>
<time>2016-07-26T20:45:24Z</time>
</trkpt>
<trkpt lat="37.85602333333333" lon="-1.4497316666666666">
<ele>637</ele>
<time>2016-07-26T20:45:26Z</time>
</trkpt>
<trkpt lat="37.85599333333333" lon="-1.4497399999999998">
<ele>637</ele>
<time>2016-07-26T20:45:28Z</time>
</trkpt>
<trkpt lat="37.85596666666667" lon="-1.449765">
<ele>636</ele>
<time>2016-07-26T20:45:30Z</time>
</trkpt>
<trkpt lat="37.855929999999994" lon="-1.44979">
<ele>635</ele>
<time>2016-07-26T20:45:32Z</time>
</trkpt>
<trkpt lat="37.855905" lon="-1.4498166666666668">
<ele>634</ele>
<time>2016-07-26T20:45:34Z</time>
</trkpt>
<trkpt lat="37.85587833333333" lon="-1.4498383333333333">
<ele>634</ele>
<time>2016-07-26T20:45:36Z</time>
</trkpt>
<trkpt lat="37.85584666666667" lon="-1.4498633333333333">
<ele>633</ele>
<time>2016-07-26T20:45:38Z</time>
</trkpt>
<trkpt lat="37.85581333333334" lon="-1.4499183333333332">
<ele>632</ele>
<time>2016-07-26T20:45:40Z</time>
</trkpt>
<trkpt lat="37.85576666666667" lon="-1.44999">
<ele>632</ele>
<time>2016-07-26T20:45:42Z</time>
</trkpt>
<trkpt lat="37.8557" lon="-1.450065">
<ele>631</ele>
<time>2016-07-26T20:45:44Z</time>
</trkpt>
<trkpt lat="37.855655" lon="-1.4501333333333333">
<ele>631</ele>
<time>2016-07-26T20:45:46Z</time>
</trkpt>
<trkpt lat="37.85562166666667" lon="-1.4502016666666666">
<ele>630</ele>
<time>2016-07-26T20:45:48Z</time>
</trkpt>
<trkpt lat="37.85557666666667" lon="-1.4502883333333334">
<ele>629</ele>
<time>2016-07-26T20:45:50Z</time>
</trkpt>
<trkpt lat="37.85552499999999" lon="-1.45038">
<ele>628</ele>
<time>2016-07-26T20:45:52Z</time>
</trkpt>
<trkpt lat="37.85547" lon="-1.45046">
<ele>626</ele>
<time>2016-07-26T20:45:54Z</time>
</trkpt>
<trkpt lat="37.855415" lon="-1.4505166666666667">
<ele>624</ele>
<time>2016-07-26T20:45:56Z</time>
</trkpt>
<trkpt lat="37.855360000000005" lon="-1.45058">
<ele>622</ele>
<time>2016-07-26T20:45:58Z</time>
</trkpt>
<trkpt lat="37.855311666666665" lon="-1.45064">
<ele>621</ele>
<time>2016-07-26T20:46:00Z</time>
</trkpt>
<trkpt lat="37.855268333333335" lon="-1.4507066666666666">
<ele>620</ele>
<time>2016-07-26T20:46:02Z</time>
</trkpt>
<trkpt lat="37.85522" lon="-1.4507683333333332">
<ele>619</ele>
<time>2016-07-26T20:46:04Z</time>
</trkpt>
<trkpt lat="37.85522" lon="-1.450765">
<ele>618</ele>
<time>2016-07-26T20:46:06Z</time>
</trkpt>
<trkpt lat="37.85522666666667" lon="-1.4506766666666666">
<ele>618</ele>
<time>2016-07-26T20:46:08Z</time>
</trkpt>
<trkpt lat="37.85523166666667" lon="-1.4505766666666666">
<ele>617</ele>
<time>2016-07-26T20:46:10Z</time>
</trkpt>
<trkpt lat="37.855246666666666" lon="-1.4504683333333332">
<ele>617</ele>
<time>2016-07-26T20:46:12Z</time>
</trkpt>
<trkpt lat="37.855273333333336" lon="-1.45035">
<ele>617</ele>
<time>2016-07-26T20:46:14Z</time>
</trkpt>
<trkpt lat="37.85529666666666" lon="-1.4502316666666668">
<ele>616</ele>
<time>2016-07-26T20:46:16Z</time>
</trkpt>
<trkpt lat="37.855315000000004" lon="-1.450105">
<ele>616</ele>
<time>2016-07-26T20:46:18Z</time>
</trkpt>
<trkpt lat="37.85533" lon="-1.4499783333333334">
<ele>616</ele>
<time>2016-07-26T20:46:20Z</time>
</trkpt>
<trkpt lat="37.85533833333333" lon="-1.4498383333333333">
<ele>616</ele>
<time>2016-07-26T20:46:22Z</time>
</trkpt>
<trkpt lat="37.855358333333335" lon="-1.4496883333333335">
<ele>615</ele>
<time>2016-07-26T20:46:24Z</time>
</trkpt>
<trkpt lat="37.855376666666665" lon="-1.4494933333333333">
<ele>615</ele>
<time>2016-07-26T20:46:26Z</time>
</trkpt>
<trkpt lat="37.855401666666666" lon="-1.4493066666666667">
<ele>614</ele>
<time>2016-07-26T20:46:28Z</time>
</trkpt>
<trkpt lat="37.85542833333333" lon="-1.4491283333333334">
<ele>613</ele>
<time>2016-07-26T20:46:30Z</time>
</trkpt>
<trkpt lat="37.85545333333334" lon="-1.4489333333333334">
<ele>612</ele>
<time>2016-07-26T20:46:32Z</time>
</trkpt>
<trkpt lat="37.855475" lon="-1.4487433333333333">
<ele>611</ele>
<time>2016-07-26T20:46:34Z</time>
</trkpt>
<trkpt lat="37.855485" lon="-1.44856">
<ele>609</ele>
<time>2016-07-26T20:46:36Z</time>
</trkpt>
<trkpt lat="37.855495" lon="-1.4483766666666669">
<ele>608</ele>
<time>2016-07-26T20:46:38Z</time>
</trkpt>
<trkpt lat="37.85550166666667" lon="-1.44821">
<ele>607</ele>
<time>2016-07-26T20:46:40Z</time>
</trkpt>
<trkpt lat="37.855509999999995" lon="-1.4480700000000002">
<ele>606</ele>
<time>2016-07-26T20:46:42Z</time>
</trkpt>
<trkpt lat="37.85552" lon="-1.4479183333333334">
<ele>605</ele>
<time>2016-07-26T20:46:44Z</time>
</trkpt>
<trkpt lat="37.85554166666667" lon="-1.4477683333333333">
<ele>605</ele>
<time>2016-07-26T20:46:46Z</time>
</trkpt>
<trkpt lat="37.85556166666667" lon="-1.4476266666666668">
<ele>604</ele>
<time>2016-07-26T20:46:48Z</time>
</trkpt>
<trkpt lat="37.85557333333334" lon="-1.4474866666666666">
<ele>604</ele>
<time>2016-07-26T20:46:50Z</time>
</trkpt>
<trkpt lat="37.855583333333335" lon="-1.4473366666666667">
<ele>603</ele>
<time>2016-07-26T20:46:52Z</time>
</trkpt>
<trkpt lat="37.85559" lon="-1.4471683333333334">
<ele>602</ele>
<time>2016-07-26T20:46:54Z</time>
</trkpt>
<trkpt lat="37.85561166666666" lon="-1.447035">
<ele>602</ele>
<time>2016-07-26T20:46:56Z</time>
</trkpt>
<trkpt lat="37.855623333333334" lon="-1.4468883333333333">
<ele>601</ele>
<time>2016-07-26T20:46:58Z</time>
</trkpt>
<trkpt lat="37.85563166666667" lon="-1.4467366666666666">
<ele>599</ele>
<time>2016-07-26T20:47:00Z</time>
</trkpt>
<trkpt lat="37.85564166666666" lon="-1.4466">
<ele>598</ele>
<time>2016-07-26T20:47:02Z</time>
</trkpt>
<trkpt lat="37.855644999999996" lon="-1.4464299999999999">
<ele>597</ele>
<time>2016-07-26T20:47:04Z</time>
</trkpt>
<trkpt lat="37.855646666666665" lon="-1.4462483333333334">
<ele>595</ele>
<time>2016-07-26T20:47:06Z</time>
</trkpt>
<trkpt lat="37.85564" lon="-1.44605">
<ele>593</ele>
<time>2016-07-26T20:47:08Z</time>
</trkpt>
<trkpt lat="37.85565" lon="-1.445905">
<ele>591</ele>
<time>2016-07-26T20:47:10Z</time>
</trkpt>
<trkpt lat="37.85566333333334" lon="-1.4457650000000002">
<ele>590</ele>
<time>2016-07-26T20:47:12Z</time>
</trkpt>
<trkpt lat="37.855671666666666" lon="-1.44562">
<ele>589</ele>
<time>2016-07-26T20:47:14Z</time>
</trkpt>
<trkpt lat="37.855671666666666" lon="-1.4454816666666666">
<ele>588</ele>
<time>2016-07-26T20:47:16Z</time>
</trkpt>
<trkpt lat="37.855673333333336" lon="-1.4453300000000002">
<ele>587</ele>
<time>2016-07-26T20:47:18Z</time>
</trkpt>
<trkpt lat="37.855686666666664" lon="-1.4451916666666667">
<ele>585</ele>
<time>2016-07-26T20:47:20Z</time>
</trkpt>
<trkpt lat="37.855713333333334" lon="-1.4450633333333334">
<ele>584</ele>
<time>2016-07-26T20:47:22Z</time>
</trkpt>
<trkpt lat="37.855745" lon="-1.444925">
<ele>582</ele>
<time>2016-07-26T20:47:24Z</time>
</trkpt>
<trkpt lat="37.85577333333333" lon="-1.444755">
<ele>581</ele>
<time>2016-07-26T20:47:26Z</time>
</trkpt>
<trkpt lat="37.855803333333334" lon="-1.444585">
<ele>579</ele>
<time>2016-07-26T20:47:28Z</time>
</trkpt>
<trkpt lat="37.85584333333334" lon="-1.4444216666666667">
<ele>578</ele>
<time>2016-07-26T20:47:30Z</time>
</trkpt>
<trkpt lat="37.855896666666666" lon="-1.4442650000000001">
<ele>577</ele>
<time>2016-07-26T20:47:32Z</time>
</trkpt>
<trkpt lat="37.855943333333336" lon="-1.4441033333333333">
<ele>576</ele>
<time>2016-07-26T20:47:34Z</time>
</trkpt>
<trkpt lat="37.85597333333333" lon="-1.4439533333333334">
<ele>575</ele>
<time>2016-07-26T20:47:36Z</time>
</trkpt>
<trkpt lat="37.85599666666667" lon="-1.44379">
<ele>574</ele>
<time>2016-07-26T20:47:38Z</time>
</trkpt>
<trkpt lat="37.85602333333333" lon="-1.4436233333333335">
<ele>572</ele>
<time>2016-07-26T20:47:40Z</time>
</trkpt>
<trkpt lat="37.85606" lon="-1.44346">
<ele>571</ele>
<time>2016-07-26T20:47:42Z</time>
</trkpt>
<trkpt lat="37.856105" lon="-1.4432933333333333">
<ele>570</ele>
<time>2016-07-26T20:47:44Z</time>
</trkpt>
<trkpt lat="37.85615666666667" lon="-1.4431166666666666">
<ele>569</ele>
<time>2016-07-26T20:47:46Z</time>
</trkpt>
<trkpt lat="37.856210000000004" lon="-1.4429183333333335">
<ele>567</ele>
<time>2016-07-26T20:47:48Z</time>
</trkpt>
<trkpt lat="37.856273333333334" lon="-1.4427349999999999">
<ele>566</ele>
<time>2016-07-26T20:47:50Z</time>
</trkpt>
<trkpt lat="37.856345000000005" lon="-1.44255">
<ele>565</ele>
<time>2016-07-26T20:47:52Z</time>
</trkpt>
<trkpt lat="37.856408333333334" lon="-1.4423683333333335">
<ele>564</ele>
<time>2016-07-26T20:47:54Z</time>
</trkpt>
<trkpt lat="37.856445" lon="-1.4421933333333332">
<ele>562</ele>
<time>2016-07-26T20:47:56Z</time>
</trkpt>
<trkpt lat="37.85647166666667" lon="-1.442045">
<ele>561</ele>
<time>2016-07-26T20:47:58Z</time>
</trkpt>
<trkpt lat="37.85648333333334" lon="-1.4418933333333332">
<ele>559</ele>
<time>2016-07-26T20:48:00Z</time>
</trkpt>
<trkpt lat="37.856496666666665" lon="-1.441725">
<ele>557</ele>
<time>2016-07-26T20:48:02Z</time>
</trkpt>
<trkpt lat="37.85651333333333" lon="-1.4415499999999999">
<ele>555</ele>
<time>2016-07-26T20:48:04Z</time>
</trkpt>
<trkpt lat="37.856541666666665" lon="-1.441395">
<ele>554</ele>
<time>2016-07-26T20:48:06Z</time>
</trkpt>
<trkpt lat="37.85657833333333" lon="-1.4412233333333333">
<ele>553</ele>
<time>2016-07-26T20:48:08Z</time>
</trkpt>
<trkpt lat="37.85662166666667" lon="-1.441055">
<ele>551</ele>
<time>2016-07-26T20:48:10Z</time>
</trkpt>
<trkpt lat="37.856649999999995" lon="-1.4408933333333334">
<ele>550</ele>
<time>2016-07-26T20:48:12Z</time>
</trkpt>
<trkpt lat="37.85663833333333" lon="-1.4407066666666668">
<ele>547</ele>
<time>2016-07-26T20:48:14Z</time>
</trkpt>
<trkpt lat="37.85661833333334" lon="-1.4405383333333333">
<ele>543</ele>
<time>2016-07-26T20:48:16Z</time>
</trkpt>
<trkpt lat="37.85662" lon="-1.4403916666666667">
<ele>541</ele>
<time>2016-07-26T20:48:18Z</time>
</trkpt>
<trkpt lat="37.85663666666667" lon="-1.4402683333333333">
<ele>538</ele>
<time>2016-07-26T20:48:20Z</time>
</trkpt>
<trkpt lat="37.85667333333333" lon="-1.4400916666666668">
<ele>535</ele>
<time>2016-07-26T20:48:22Z</time>
</trkpt>
<trkpt lat="37.85671833333333" lon="-1.4399116666666667">
<ele>532</ele>
<time>2016-07-26T20:48:24Z</time>
</trkpt>
<trkpt lat="37.856775" lon="-1.4397466666666667">
<ele>530</ele>
<time>2016-07-26T20:48:26Z</time>
</trkpt>
<trkpt lat="37.85682833333333" lon="-1.4395683333333333">
<ele>527</ele>
<time>2016-07-26T20:48:28Z</time>
</trkpt>
<trkpt lat="37.85686" lon="-1.4393783333333334">
<ele>525</ele>
<time>2016-07-26T20:48:30Z</time>
</trkpt>
<trkpt lat="37.856883333333336" lon="-1.4392133333333335">
<ele>523</ele>
<time>2016-07-26T20:48:32Z</time>
</trkpt>
<trkpt lat="37.856896666666664" lon="-1.4390616666666667">
<ele>520</ele>
<time>2016-07-26T20:48:34Z</time>
</trkpt>
<trkpt lat="37.85689" lon="-1.438885">
<ele>518</ele>
<time>2016-07-26T20:48:36Z</time>
</trkpt>
<trkpt lat="37.85687333333333" lon="-1.43873">
<ele>516</ele>
<time>2016-07-26T20:48:38Z</time>
</trkpt>
<trkpt lat="37.85686666666666" lon="-1.4386133333333333">
<ele>514</ele>
<time>2016-07-26T20:48:40Z</time>
</trkpt>
<trkpt lat="37.85687166666666" lon="-1.4384616666666665">
<ele>512</ele>
<time>2016-07-26T20:48:42Z</time>
</trkpt>
<trkpt lat="37.856874999999995" lon="-1.4383083333333335">
<ele>511</ele>
<time>2016-07-26T20:48:44Z</time>
</trkpt>
<trkpt lat="37.85688833333334" lon="-1.438175">
<ele>509</ele>
<time>2016-07-26T20:48:46Z</time>
</trkpt>
<trkpt lat="37.856901666666666" lon="-1.438005">
<ele>508</ele>
<time>2016-07-26T20:48:48Z</time>
</trkpt>
<trkpt lat="37.85691" lon="-1.437835">
<ele>507</ele>
<time>2016-07-26T20:48:50Z</time>
</trkpt>
<trkpt lat="37.85691666666666" lon="-1.4376600000000002">
<ele>505</ele>
<time>2016-07-26T20:48:52Z</time>
</trkpt>
<trkpt lat="37.856923333333334" lon="-1.4374883333333335">
<ele>504</ele>
<time>2016-07-26T20:48:54Z</time>
</trkpt>
<trkpt lat="37.85691833333333" lon="-1.4373316666666667">
<ele>502</ele>
<time>2016-07-26T20:48:56Z</time>
</trkpt>
<trkpt lat="37.856905" lon="-1.43717">
<ele>501</ele>
<time>2016-07-26T20:48:58Z</time>
</trkpt>
<trkpt lat="37.85688666666667" lon="-1.4370166666666666">
<ele>499</ele>
<time>2016-07-26T20:49:00Z</time>
</trkpt>
<trkpt lat="37.856856666666665" lon="-1.4368633333333332">
<ele>500</ele>
<time>2016-07-26T20:49:02Z</time>
</trkpt>
<trkpt lat="37.856829999999995" lon="-1.4367349999999999">
<ele>500</ele>
<time>2016-07-26T20:49:04Z</time>
</trkpt>
<trkpt lat="37.856795000000005" lon="-1.4365866666666667">
<ele>500</ele>
<time>2016-07-26T20:49:06Z</time>
</trkpt>
<trkpt lat="37.856765" lon="-1.4364516666666667">
<ele>499</ele>
<time>2016-07-26T20:49:08Z</time>
</trkpt>
<trkpt lat="37.856743333333334" lon="-1.4363233333333334">
<ele>499</ele>
<time>2016-07-26T20:49:10Z</time>
</trkpt>
<trkpt lat="37.85672833333333" lon="-1.4361933333333332">
<ele>498</ele>
<time>2016-07-26T20:49:12Z</time>
</trkpt>
<trkpt lat="37.85672666666667" lon="-1.4360683333333335">
<ele>496</ele>
<time>2016-07-26T20:49:14Z</time>
</trkpt>
<trkpt lat="37.856735" lon="-1.435965">
<ele>495</ele>
<time>2016-07-26T20:49:16Z</time>
</trkpt>
<trkpt lat="37.85670833333334" lon="-1.43587">
<ele>493</ele>
<time>2016-07-26T20:49:18Z</time>
</trkpt>
<trkpt lat="37.85666166666667" lon="-1.4357699999999998">
<ele>492</ele>
<time>2016-07-26T20:49:20Z</time>
</trkpt>
<trkpt lat="37.85661" lon="-1.43567">
<ele>491</ele>
<time>2016-07-26T20:49:22Z</time>
</trkpt>
<trkpt lat="37.856568333333335" lon="-1.4355466666666667">
<ele>491</ele>
<time>2016-07-26T20:49:24Z</time>
</trkpt>
<trkpt lat="37.856541666666665" lon="-1.4354316666666667">
<ele>490</ele>
<time>2016-07-26T20:49:26Z</time>
</trkpt>
<trkpt lat="37.856535" lon="-1.4352999999999998">
<ele>490</ele>
<time>2016-07-26T20:49:28Z</time>
</trkpt>
<trkpt lat="37.85652" lon="-1.4351516666666666">
<ele>488</ele>
<time>2016-07-26T20:49:30Z</time>
</trkpt>
<trkpt lat="37.85650666666667" lon="-1.4349933333333333">
<ele>486</ele>
<time>2016-07-26T20:49:32Z</time>
</trkpt>
<trkpt lat="37.85650833333333" lon="-1.4348383333333334">
<ele>485</ele>
<time>2016-07-26T20:49:34Z</time>
</trkpt>
<trkpt lat="37.85650166666667" lon="-1.43468">
<ele>484</ele>
<time>2016-07-26T20:49:36Z</time>
</trkpt>
<trkpt lat="37.856473333333334" lon="-1.4345416666666668">
<ele>483</ele>
<time>2016-07-26T20:49:38Z</time>
</trkpt>
<trkpt lat="37.856424999999994" lon="-1.434445">
<ele>481</ele>
<time>2016-07-26T20:49:40Z</time>
</trkpt>
<trkpt lat="37.85636" lon="-1.4343816666666667">
<ele>480</ele>
<time>2016-07-26T20:49:42Z</time>
</trkpt>
<trkpt lat="37.85631" lon="-1.4343433333333333">
<ele>479</ele>
<time>2016-07-26T20:49:44Z</time>
</trkpt>
<trkpt lat="37.856255000000004" lon="-1.4343149999999998">
<ele>477</ele>
<time>2016-07-26T20:49:46Z</time>
</trkpt>
<trkpt lat="37.856186666666666" lon="-1.4342883333333334">
<ele>476</ele>
<time>2016-07-26T20:49:48Z</time>
</trkpt>
<trkpt lat="37.856136666666664" lon="-1.4342700000000002">
<ele>474</ele>
<time>2016-07-26T20:49:50Z</time>
</trkpt>
<trkpt lat="37.85608333333333" lon="-1.4342516666666665">
<ele>473</ele>
<time>2016-07-26T20:49:52Z</time>
</trkpt>
<trkpt lat="37.85601833333333" lon="-1.4342066666666669">
<ele>472</ele>
<time>2016-07-26T20:49:54Z</time>
</trkpt>
<trkpt lat="37.855965" lon="-1.4341666666666666">
<ele>472</ele>
<time>2016-07-26T20:49:56Z</time>
</trkpt>
<trkpt lat="37.85592" lon="-1.4341249999999999">
<ele>471</ele>
<time>2016-07-26T20:49:58Z</time>
</trkpt>
<trkpt lat="37.85585666666667" lon="-1.4341000000000002">
<ele>470</ele>
<time>2016-07-26T20:50:00Z</time>
</trkpt>
<trkpt lat="37.855783333333335" lon="-1.4340716666666669">
<ele>469</ele>
<time>2016-07-26T20:50:02Z</time>
</trkpt>
<trkpt lat="37.855715000000004" lon="-1.4340416666666667">
<ele>469</ele>
<time>2016-07-26T20:50:04Z</time>
</trkpt>
<trkpt lat="37.85565833333333" lon="-1.4340233333333332">
<ele>468</ele>
<time>2016-07-26T20:50:06Z</time>
</trkpt>
<trkpt lat="37.855601666666665" lon="-1.4339883333333332">
<ele>467</ele>
<time>2016-07-26T20:50:08Z</time>
</trkpt>
<trkpt lat="37.855556666666665" lon="-1.4339266666666668">
<ele>465</ele>
<time>2016-07-26T20:50:10Z</time>
</trkpt>
<trkpt lat="37.855515" lon="-1.4338416666666667">
<ele>464</ele>
<time>2016-07-26T20:50:12Z</time>
</trkpt>
<trkpt lat="37.855466666666665" lon="-1.4337633333333333">
<ele>464</ele>
<time>2016-07-26T20:50:14Z</time>
</trkpt>
<trkpt lat="37.855425" lon="-1.4336983333333333">
<ele>463</ele>
<time>2016-07-26T20:50:16Z</time>
</trkpt>
<trkpt lat="37.85536833333333" lon="-1.43364">
<ele>462</ele>
<time>2016-07-26T20:50:18Z</time>
</trkpt>
<trkpt lat="37.855295" lon="-1.4335783333333334">
<ele>462</ele>
<time>2016-07-26T20:50:20Z</time>
</trkpt>
<trkpt lat="37.85523166666667" lon="-1.4335383333333334">
<ele>461</ele>
<time>2016-07-26T20:50:22Z</time>
</trkpt>
<trkpt lat="37.85517333333333" lon="-1.4334933333333335">
<ele>460</ele>
<time>2016-07-26T20:50:24Z</time>
</trkpt>
<trkpt lat="37.855111666666666" lon="-1.4334616666666666">
<ele>459</ele>
<time>2016-07-26T20:50:26Z</time>
</trkpt>
<trkpt lat="37.85504" lon="-1.4334233333333333">
<ele>458</ele>
<time>2016-07-26T20:50:28Z</time>
</trkpt>
<trkpt lat="37.85496833333333" lon="-1.4333833333333335">
<ele>457</ele>
<time>2016-07-26T20:50:30Z</time>
</trkpt>
<trkpt lat="37.854910000000004" lon="-1.433335">
<ele>456</ele>
<time>2016-07-26T20:50:32Z</time>
</trkpt>
<trkpt lat="37.854866666666666" lon="-1.4332916666666666">
<ele>455</ele>
<time>2016-07-26T20:50:34Z</time>
</trkpt>
<trkpt lat="37.85480333333333" lon="-1.4332233333333333">
<ele>453</ele>
<time>2016-07-26T20:50:36Z</time>
</trkpt>
<trkpt lat="37.85474166666667" lon="-1.4331666666666667">
<ele>452</ele>
<time>2016-07-26T20:50:38Z</time>
</trkpt>
<trkpt lat="37.8547" lon="-1.4331266666666667">
<ele>452</ele>
<time>2016-07-26T20:50:40Z</time>
</trkpt>
<trkpt lat="37.85464666666667" lon="-1.4330816666666666">
<ele>451</ele>
<time>2016-07-26T20:50:42Z</time>
</trkpt>
<trkpt lat="37.85457833333333" lon="-1.4330233333333333">
<ele>450</ele>
<time>2016-07-26T20:50:44Z</time>
</trkpt>
<trkpt lat="37.85453" lon="-1.4329916666666667">
<ele>449</ele>
<time>2016-07-26T20:50:46Z</time>
</trkpt>
<trkpt lat="37.854475" lon="-1.4329800000000001">
<ele>448</ele>
<time>2016-07-26T20:50:48Z</time>
</trkpt>
<trkpt lat="37.854405" lon="-1.4329666666666665">
<ele>447</ele>
<time>2016-07-26T20:50:50Z</time>
</trkpt>
<trkpt lat="37.854355000000005" lon="-1.43295">
<ele>445</ele>
<time>2016-07-26T20:50:52Z</time>
</trkpt>
<trkpt lat="37.85433333333334" lon="-1.4329466666666666">
<ele>445</ele>
<time>2016-07-26T20:50:54Z</time>
</trkpt>
<trkpt lat="37.854281666666665" lon="-1.4329399999999999">
<ele>443</ele>
<time>2016-07-26T20:50:56Z</time>
</trkpt>
<trkpt lat="37.85423333333333" lon="-1.4329216666666666">
<ele>442</ele>
<time>2016-07-26T20:50:58Z</time>
</trkpt>
<trkpt lat="37.854198333333336" lon="-1.4329083333333335">
<ele>440</ele>
<time>2016-07-26T20:51:00Z</time>
</trkpt>
<trkpt lat="37.854145" lon="-1.4328866666666666">
<ele>439</ele>
<time>2016-07-26T20:51:02Z</time>
</trkpt>
<trkpt lat="37.854076666666664" lon="-1.4328433333333335">
<ele>437</ele>
<time>2016-07-26T20:51:04Z</time>
</trkpt>
<trkpt lat="37.854025" lon="-1.4328166666666666">
<ele>435</ele>
<time>2016-07-26T20:51:06Z</time>
</trkpt>
<trkpt lat="37.853968333333334" lon="-1.4327949999999998">
<ele>433</ele>
<time>2016-07-26T20:51:08Z</time>
</trkpt>
<trkpt lat="37.85391166666667" lon="-1.4327866666666669">
<ele>431</ele>
<time>2016-07-26T20:51:10Z</time>
</trkpt>
<trkpt lat="37.853856666666665" lon="-1.432775">
<ele>430</ele>
<time>2016-07-26T20:51:12Z</time>
</trkpt>
<trkpt lat="37.85379666666667" lon="-1.4327516666666669">
<ele>428</ele>
<time>2016-07-26T20:51:14Z</time>
</trkpt>
<trkpt lat="37.853735" lon="-1.4327316666666665">
<ele>426</ele>
<time>2016-07-26T20:51:16Z</time>
</trkpt>
<trkpt lat="37.853665" lon="-1.4327016666666668">
<ele>424</ele>
<time>2016-07-26T20:51:18Z</time>
</trkpt>
<trkpt lat="37.853590000000004" lon="-1.4326733333333335">
<ele>422</ele>
<time>2016-07-26T20:51:20Z</time>
</trkpt>
<trkpt lat="37.85352666666667" lon="-1.4326383333333332">
<ele>421</ele>
<time>2016-07-26T20:51:22Z</time>
</trkpt>
<trkpt lat="37.85348166666667" lon="-1.4326316666666665">
<ele>419</ele>
<time>2016-07-26T20:51:24Z</time>
</trkpt>
<trkpt lat="37.85344333333333" lon="-1.43262">
<ele>418</ele>
<time>2016-07-26T20:51:26Z</time>
</trkpt>
<trkpt lat="37.853406666666665" lon="-1.4326">
<ele>417</ele>
<time>2016-07-26T20:51:28Z</time>
</trkpt>
<trkpt lat="37.85335666666666" lon="-1.4325716666666668">
<ele>415</ele>
<time>2016-07-26T20:51:30Z</time>
</trkpt>
<trkpt lat="37.853305" lon="-1.43254">
<ele>414</ele>
<time>2016-07-26T20:51:32Z</time>
</trkpt>
<trkpt lat="37.85324833333333" lon="-1.4325133333333333">
<ele>412</ele>
<time>2016-07-26T20:51:34Z</time>
</trkpt>
<trkpt lat="37.853185" lon="-1.432505">
<ele>410</ele>
<time>2016-07-26T20:51:36Z</time>
</trkpt>
<trkpt lat="37.85312166666667" lon="-1.4324866666666667">
<ele>408</ele>
<time>2016-07-26T20:51:38Z</time>
</trkpt>
<trkpt lat="37.853055000000005" lon="-1.4324833333333333">
<ele>407</ele>
<time>2016-07-26T20:51:40Z</time>
</trkpt>
<trkpt lat="37.85299166666667" lon="-1.432515">
<ele>405</ele>
<time>2016-07-26T20:51:42Z</time>
</trkpt>
<trkpt lat="37.852954999999994" lon="-1.432565">
<ele>404</ele>
<time>2016-07-26T20:51:44Z</time>
</trkpt>
<trkpt lat="37.85296" lon="-1.4326533333333333">
<ele>402</ele>
<time>2016-07-26T20:51:46Z</time>
</trkpt>
<trkpt lat="37.853026666666665" lon="-1.4327933333333334">
<ele>400</ele>
<time>2016-07-26T20:51:48Z</time>
</trkpt>
<trkpt lat="37.853143333333335" lon="-1.43296">
<ele>398</ele>
<time>2016-07-26T20:51:50Z</time>
</trkpt>
<trkpt lat="37.85323166666667" lon="-1.4331133333333335">
<ele>396</ele>
<time>2016-07-26T20:51:52Z</time>
</trkpt>
<trkpt lat="37.85330166666667" lon="-1.43323">
<ele>395</ele>
<time>2016-07-26T20:51:54Z</time>
</trkpt>
<trkpt lat="37.85334666666667" lon="-1.4332866666666668">
<ele>394</ele>
<time>2016-07-26T20:51:56Z</time>
</trkpt>
<trkpt lat="37.85334666666667" lon="-1.4333016666666665">
<ele>393</ele>
<time>2016-07-26T20:51:58Z</time>
</trkpt>
<trkpt lat="37.85325833333333" lon="-1.4332666666666665">
<ele>392</ele>
<time>2016-07-26T20:52:00Z</time>
</trkpt>
<trkpt lat="37.85316" lon="-1.4332116666666668">
<ele>391</ele>
<time>2016-07-26T20:52:02Z</time>
</trkpt>
<trkpt lat="37.85307833333333" lon="-1.43317">
<ele>389</ele>
<time>2016-07-26T20:52:04Z</time>
</trkpt>
<trkpt lat="37.853008333333335" lon="-1.4331533333333333">
<ele>388</ele>
<time>2016-07-26T20:52:06Z</time>
</trkpt>
<trkpt lat="37.852925" lon="-1.4331466666666666">
<ele>387</ele>
<time>2016-07-26T20:52:08Z</time>
</trkpt>
<trkpt lat="37.85284" lon="-1.4331566666666666">
<ele>385</ele>
<time>2016-07-26T20:52:10Z</time>
</trkpt>
<trkpt lat="37.852758333333334" lon="-1.4331483333333335">
<ele>384</ele>
<time>2016-07-26T20:52:12Z</time>
</trkpt>
<trkpt lat="37.85269" lon="-1.4331016666666665">
<ele>383</ele>
<time>2016-07-26T20:52:14Z</time>
</trkpt>
<trkpt lat="37.852639999999994" lon="-1.4330383333333332">
<ele>382</ele>
<time>2016-07-26T20:52:16Z</time>
</trkpt>
<trkpt lat="37.85258833333333" lon="-1.43296">
<ele>380</ele>
<time>2016-07-26T20:52:18Z</time>
</trkpt>
<trkpt lat="37.85252833333333" lon="-1.4329016666666667">
<ele>379</ele>
<time>2016-07-26T20:52:20Z</time>
</trkpt>
<trkpt lat="37.85248333333333" lon="-1.4328783333333335">
<ele>378</ele>
<time>2016-07-26T20:52:22Z</time>
</trkpt>
<trkpt lat="37.852428333333336" lon="-1.4328633333333334">
<ele>376</ele>
<time>2016-07-26T20:52:24Z</time>
</trkpt>
<trkpt lat="37.852358333333335" lon="-1.4328316666666665">
<ele>375</ele>
<time>2016-07-26T20:52:26Z</time>
</trkpt>
<trkpt lat="37.852306666666664" lon="-1.4327983333333334">
<ele>374</ele>
<time>2016-07-26T20:52:28Z</time>
</trkpt>
<trkpt lat="37.852261666666664" lon="-1.4327766666666666">
<ele>373</ele>
<time>2016-07-26T20:52:30Z</time>
</trkpt>
<trkpt lat="37.85221666666666" lon="-1.4327433333333335">
<ele>371</ele>
<time>2016-07-26T20:52:32Z</time>
</trkpt>
<trkpt lat="37.8522" lon="-1.4327366666666668">
<ele>370</ele>
<time>2016-07-26T20:52:34Z</time>
</trkpt>
<trkpt lat="37.85219" lon="-1.4327383333333332">
<ele>369</ele>
<time>2016-07-26T20:52:36Z</time>
</trkpt>
<trkpt lat="37.852113333333335" lon="-1.43271">
<ele>368</ele>
<time>2016-07-26T20:52:38Z</time>
</trkpt>
<trkpt lat="37.852063333333334" lon="-1.4327066666666668">
<ele>367</ele>
<time>2016-07-26T20:52:40Z</time>
</trkpt>
<trkpt lat="37.85201333333334" lon="-1.4327116666666666">
<ele>365</ele>
<time>2016-07-26T20:52:42Z</time>
</trkpt>
<trkpt lat="37.851951666666665" lon="-1.4327216666666667">
<ele>364</ele>
<time>2016-07-26T20:52:44Z</time>
</trkpt>
<trkpt lat="37.851885" lon="-1.43275">
<ele>363</ele>
<time>2016-07-26T20:52:46Z</time>
</trkpt>
<trkpt lat="37.851821666666666" lon="-1.43282">
<ele>361</ele>
<time>2016-07-26T20:52:48Z</time>
</trkpt>
<trkpt lat="37.851758333333336" lon="-1.4328833333333333">
<ele>360</ele>
<time>2016-07-26T20:52:50Z</time>
</trkpt>
<trkpt lat="37.85170333333333" lon="-1.4329266666666667">
<ele>358</ele>
<time>2016-07-26T20:52:52Z</time>
</trkpt>
<trkpt lat="37.85165666666667" lon="-1.4329666666666665">
<ele>357</ele>
<time>2016-07-26T20:52:54Z</time>
</trkpt>
<trkpt lat="37.85160666666666" lon="-1.4330016666666665">
<ele>355</ele>
<time>2016-07-26T20:52:56Z</time>
</trkpt>
<trkpt lat="37.85155833333333" lon="-1.4330283333333333">
<ele>354</ele>
<time>2016-07-26T20:52:58Z</time>
</trkpt>
<trkpt lat="37.85151833333334" lon="-1.433055">
<ele>352</ele>
<time>2016-07-26T20:53:00Z</time>
</trkpt>
<trkpt lat="37.85148166666667" lon="-1.4331133333333335">
<ele>350</ele>
<time>2016-07-26T20:53:02Z</time>
</trkpt>
<trkpt lat="37.851435" lon="-1.4331666666666667">
<ele>348</ele>
<time>2016-07-26T20:53:04Z</time>
</trkpt>
<trkpt lat="37.85138666666667" lon="-1.4332166666666666">
<ele>346</ele>
<time>2016-07-26T20:53:06Z</time>
</trkpt>
<trkpt lat="37.85135666666667" lon="-1.4332966666666667">
<ele>344</ele>
<time>2016-07-26T20:53:08Z</time>
</trkpt>
<trkpt lat="37.85138" lon="-1.4334316666666667">
<ele>342</ele>
<time>2016-07-26T20:53:10Z</time>
</trkpt>
<trkpt lat="37.851485000000004" lon="-1.4335783333333334">
<ele>340</ele>
<time>2016-07-26T20:53:12Z</time>
</trkpt>
<trkpt lat="37.85161666666667" lon="-1.43369">
<ele>338</ele>
<time>2016-07-26T20:53:14Z</time>
</trkpt>
<trkpt lat="37.85178666666666" lon="-1.4337550000000001">
<ele>335</ele>
<time>2016-07-26T20:53:16Z</time>
</trkpt>
<trkpt lat="37.85198833333333" lon="-1.433795">
<ele>333</ele>
<time>2016-07-26T20:53:18Z</time>
</trkpt>
<trkpt lat="37.85223166666666" lon="-1.4338183333333334">
<ele>330</ele>
<time>2016-07-26T20:53:20Z</time>
</trkpt>
<trkpt lat="37.85247666666667" lon="-1.4338483333333334">
<ele>327</ele>
<time>2016-07-26T20:53:22Z</time>
</trkpt>
<trkpt lat="37.852693333333335" lon="-1.433935">
<ele>325</ele>
<time>2016-07-26T20:53:24Z</time>
</trkpt>
<trkpt lat="37.852909999999994" lon="-1.4340716666666669">
<ele>322</ele>
<time>2016-07-26T20:53:26Z</time>
</trkpt>
<trkpt lat="37.85308666666666" lon="-1.434225">
<ele>319</ele>
<time>2016-07-26T20:53:28Z</time>
</trkpt>
<trkpt lat="37.85323166666667" lon="-1.4343783333333335">
<ele>316</ele>
<time>2016-07-26T20:53:30Z</time>
</trkpt>
<trkpt lat="37.853368333333336" lon="-1.4345066666666668">
<ele>313</ele>
<time>2016-07-26T20:53:32Z</time>
</trkpt>
<trkpt lat="37.85352833333333" lon="-1.434615">
<ele>311</ele>
<time>2016-07-26T20:53:34Z</time>
</trkpt>
<trkpt lat="37.85369" lon="-1.4347383333333332">
<ele>307</ele>
<time>2016-07-26T20:53:36Z</time>
</trkpt>
<trkpt lat="37.853835000000004" lon="-1.43486">
<ele>303</ele>
<time>2016-07-26T20:53:38Z</time>
</trkpt>
<trkpt lat="37.85394833333333" lon="-1.4349833333333333">
<ele>300</ele>
<time>2016-07-26T20:53:40Z</time>
</trkpt>
<trkpt lat="37.854018333333336" lon="-1.4351216666666666">
<ele>297</ele>
<time>2016-07-26T20:53:42Z</time>
</trkpt>
<trkpt lat="37.85404666666667" lon="-1.4352766666666668">
<ele>294</ele>
<time>2016-07-26T20:53:44Z</time>
</trkpt>
<trkpt lat="37.854065" lon="-1.43541">
<ele>291</ele>
<time>2016-07-26T20:53:46Z</time>
</trkpt>
<trkpt lat="37.854076666666664" lon="-1.4355333333333333">
<ele>289</ele>
<time>2016-07-26T20:53:48Z</time>
</trkpt>
<trkpt lat="37.85405" lon="-1.4356183333333334">
<ele>288</ele>
<time>2016-07-26T20:53:50Z</time>
</trkpt>
<trkpt lat="37.853965" lon="-1.4356466666666667">
<ele>286</ele>
<time>2016-07-26T20:53:52Z</time>
</trkpt>
<trkpt lat="37.85387" lon="-1.4356166666666668">
<ele>284</ele>
<time>2016-07-26T20:53:54Z</time>
</trkpt>
<trkpt lat="37.853785" lon="-1.4355666666666667">
<ele>282</ele>
<time>2016-07-26T20:53:56Z</time>
</trkpt>
<trkpt lat="37.85371333333333" lon="-1.4354983333333333">
<ele>281</ele>
<time>2016-07-26T20:53:58Z</time>
</trkpt>
<trkpt lat="37.853635000000004" lon="-1.43543">
<ele>279</ele>
<time>2016-07-26T20:54:00Z</time>
</trkpt>
<trkpt lat="37.853541666666665" lon="-1.4353783333333332">
<ele>278</ele>
<time>2016-07-26T20:54:02Z</time>
</trkpt>
<trkpt lat="37.85346833333333" lon="-1.4354133333333332">
<ele>276</ele>
<time>2016-07-26T20:54:04Z</time>
</trkpt>
<trkpt lat="37.85344833333333" lon="-1.4355200000000001">
<ele>274</ele>
<time>2016-07-26T20:54:06Z</time>
</trkpt>
<trkpt lat="37.85349" lon="-1.43568">
<ele>272</ele>
<time>2016-07-26T20:54:08Z</time>
</trkpt>
<trkpt lat="37.85357333333333" lon="-1.4358233333333335">
<ele>270</ele>
<time>2016-07-26T20:54:10Z</time>
</trkpt>
<trkpt lat="37.85361" lon="-1.4359666666666666">
<ele>268</ele>
<time>2016-07-26T20:54:12Z</time>
</trkpt>
<trkpt lat="37.85361" lon="-1.436075">
<ele>267</ele>
<time>2016-07-26T20:54:14Z</time>
</trkpt>
<trkpt lat="37.85358333333333" lon="-1.43615">
<ele>266</ele>
<time>2016-07-26T20:54:16Z</time>
</trkpt>
<trkpt lat="37.853523333333335" lon="-1.4361716666666666">
<ele>264</ele>
<time>2016-07-26T20:54:18Z</time>
</trkpt>
<trkpt lat="37.85346666666667" lon="-1.4360849999999998">
<ele>263</ele>
<time>2016-07-26T20:54:20Z</time>
</trkpt>
<trkpt lat="37.85342" lon="-1.435965">
<ele>261</ele>
<time>2016-07-26T20:54:22Z</time>
</trkpt>
<trkpt lat="37.85335166666667" lon="-1.4359199999999999">
<ele>259</ele>
<time>2016-07-26T20:54:24Z</time>
</trkpt>
<trkpt lat="37.853298333333335" lon="-1.4359083333333333">
<ele>257</ele>
<time>2016-07-26T20:54:26Z</time>
</trkpt>
<trkpt lat="37.85331333333333" lon="-1.4359849999999998">
<ele>255</ele>
<time>2016-07-26T20:54:28Z</time>
</trkpt>
<trkpt lat="37.853325000000005" lon="-1.4361083333333333">
<ele>253</ele>
<time>2016-07-26T20:54:30Z</time>
</trkpt>
<trkpt lat="37.85331833333333" lon="-1.4362433333333333">
<ele>251</ele>
<time>2016-07-26T20:54:32Z</time>
</trkpt>
<trkpt lat="37.85326333333333" lon="-1.4363299999999999">
<ele>249</ele>
<time>2016-07-26T20:54:34Z</time>
</trkpt>
<trkpt lat="37.853205" lon="-1.436385">
<ele>247</ele>
<time>2016-07-26T20:54:36Z</time>
</trkpt>
<trkpt lat="37.853155" lon="-1.4364216666666667">
<ele>245</ele>
<time>2016-07-26T20:54:38Z</time>
</trkpt>
<trkpt lat="37.853105" lon="-1.436405">
<ele>243</ele>
<time>2016-07-26T20:54:40Z</time>
</trkpt>
<trkpt lat="37.853055000000005" lon="-1.436425">
<ele>242</ele>
<time>2016-07-26T20:54:42Z</time>
</trkpt>
<trkpt lat="37.853008333333335" lon="-1.4364633333333332">
<ele>241</ele>
<time>2016-07-26T20:54:44Z</time>
</trkpt>
<trkpt lat="37.85299333333333" lon="-1.4364766666666666">
<ele>241</ele>
<time>2016-07-26T20:54:46Z</time>
</trkpt>
<trkpt lat="37.85298833333333" lon="-1.4364666666666668">
<ele>240</ele>
<time>2016-07-26T20:54:48Z</time>
</trkpt>
<trkpt lat="37.852995" lon="-1.4364583333333334">
<ele>240</ele>
<time>2016-07-26T20:54:50Z</time>
</trkpt>
<trkpt lat="37.852995" lon="-1.4364583333333334">
<ele>240</ele>
<time>2016-07-26T20:54:52Z</time>
</trkpt>
<trkpt lat="37.852995" lon="-1.4364583333333334">
<ele>240</ele>
<time>2016-07-26T20:54:54Z</time>
</trkpt>
<trkpt lat="37.852995" lon="-1.4364583333333334">
<ele>240</ele>
<time>2016-07-26T20:54:56Z</time>
</trkpt>
<trkpt lat="37.852995" lon="-1.4364583333333334">
<ele>240</ele>
<time>2016-07-26T20:54:58Z</time>
</trkpt>
<trkpt lat="37.852983333333334" lon="-1.4365083333333333">
<ele>235</ele>
<time>2016-07-26T20:55:00Z</time>
</trkpt>
<trkpt lat="37.85295333333333" lon="-1.436495">
<ele>232</ele>
<time>2016-07-26T20:55:02Z</time>
</trkpt>
<trkpt lat="37.852938333333334" lon="-1.436485">
<ele>230</ele>
<time>2016-07-26T20:55:04Z</time>
</trkpt>
<trkpt lat="37.852938333333334" lon="-1.436485">
<ele>230</ele>
<time>2016-07-26T20:55:06Z</time>
</trkpt>
<trkpt lat="37.852938333333334" lon="-1.436485">
<ele>230</ele>
<time>2016-07-26T20:55:08Z</time>
</trkpt>
<trkpt lat="37.852938333333334" lon="-1.436485">
<ele>230</ele>
<time>2016-07-26T20:55:10Z</time>
</trkpt>
<trkpt lat="37.852938333333334" lon="-1.436485">
<ele>230</ele>
<time>2016-07-26T20:55:12Z</time>
</trkpt>
<trkpt lat="37.852938333333334" lon="-1.436485">
<ele>230</ele>
<time>2016-07-26T20:55:14Z</time>
</trkpt>
<trkpt lat="37.852938333333334" lon="-1.436485">
<ele>230</ele>
<time>2016-07-26T20:55:16Z</time>
</trkpt>
<trkpt lat="37.852938333333334" lon="-1.436485">
<ele>230</ele>
<time>2016-07-26T20:55:18Z</time>
</trkpt>
<trkpt lat="37.852938333333334" lon="-1.436485">
<ele>230</ele>
<time>2016-07-26T20:55:20Z</time>
</trkpt>
<trkpt lat="37.852938333333334" lon="-1.436485">
<ele>230</ele>
<time>2016-07-26T20:55:22Z</time>
</trkpt>
<trkpt lat="37.852938333333334" lon="-1.436485">
<ele>230</ele>
<time>2016-07-26T20:55:24Z</time>
</trkpt>
<trkpt lat="37.852938333333334" lon="-1.436485">
<ele>230</ele>
<time>2016-07-26T20:55:26Z</time>
</trkpt>
<trkpt lat="37.852938333333334" lon="-1.436485">
<ele>230</ele>
<time>2016-07-26T20:55:28Z</time>
</trkpt>
<trkpt lat="37.852938333333334" lon="-1.436485">
<ele>230</ele>
<time>2016-07-26T20:55:30Z</time>
</trkpt>
<trkpt lat="37.852938333333334" lon="-1.436485">
<ele>230</ele>
<time>2016-07-26T20:55:32Z</time>
</trkpt>
<trkpt lat="37.852938333333334" lon="-1.436485">
<ele>230</ele>
<time>2016-07-26T20:55:34Z</time>
</trkpt>
<trkpt lat="37.852938333333334" lon="-1.436485">
<ele>230</ele>
<time>2016-07-26T20:55:36Z</time>
</trkpt>
<trkpt lat="37.852938333333334" lon="-1.436485">
<ele>230</ele>
<time>2016-07-26T20:55:38Z</time>
</trkpt>
<trkpt lat="37.852938333333334" lon="-1.436485">
<ele>230</ele>
<time>2016-07-26T20:55:40Z</time>
</trkpt>
<trkpt lat="37.852938333333334" lon="-1.436485">
<ele>230</ele>
<time>2016-07-26T20:55:42Z</time>
</trkpt>
<trkpt lat="37.852938333333334" lon="-1.436485">
<ele>230</ele>
<time>2016-07-26T20:55:44Z</time>
</trkpt>
<trkpt lat="37.852938333333334" lon="-1.436485">
<ele>230</ele>
<time>2016-07-26T20:55:46Z</time>
</trkpt>
<trkpt lat="37.852938333333334" lon="-1.436485">
<ele>230</ele>
<time>2016-07-26T20:55:48Z</time>
</trkpt>
<trkpt lat="37.85297666666667" lon="-1.4364133333333333">
<ele>229</ele>
<time>2016-07-26T20:55:50Z</time>
</trkpt>
<trkpt lat="37.85296833333334" lon="-1.4364033333333335">
<ele>228</ele>
<time>2016-07-26T20:55:52Z</time>
</trkpt>
<trkpt lat="37.85296166666667" lon="-1.4364400000000002">
<ele>226</ele>
<time>2016-07-26T20:55:54Z</time>
</trkpt>
<trkpt lat="37.852956666666664" lon="-1.4364516666666667">
<ele>225</ele>
<time>2016-07-26T20:55:56Z</time>
</trkpt>
<trkpt lat="37.852956666666664" lon="-1.4364516666666667">
<ele>225</ele>
<time>2016-07-26T20:55:58Z</time>
</trkpt>
<trkpt lat="37.852956666666664" lon="-1.4364516666666667">
<ele>225</ele>
<time>2016-07-26T20:56:00Z</time>
</trkpt>
<trkpt lat="37.852956666666664" lon="-1.4364516666666667">
<ele>225</ele>
<time>2016-07-26T20:56:02Z</time>
</trkpt>
<trkpt lat="37.852956666666664" lon="-1.4364516666666667">
<ele>225</ele>
<time>2016-07-26T20:56:04Z</time>
</trkpt>
<trkpt lat="37.852956666666664" lon="-1.4364516666666667">
<ele>225</ele>
<time>2016-07-26T20:56:06Z</time>
</trkpt>
<trkpt lat="37.852956666666664" lon="-1.4364516666666667">
<ele>225</ele>
<time>2016-07-26T20:56:08Z</time>
</trkpt>
<trkpt lat="37.852956666666664" lon="-1.4364516666666667">
<ele>225</ele>
<time>2016-07-26T20:56:10Z</time>
</trkpt>
<trkpt lat="37.852956666666664" lon="-1.4364516666666667">
<ele>225</ele>
<time>2016-07-26T20:56:12Z</time>
</trkpt>
<trkpt lat="37.852956666666664" lon="-1.4364516666666667">
<ele>225</ele>
<time>2016-07-26T20:56:14Z</time>
</trkpt>
<trkpt lat="37.852956666666664" lon="-1.4364516666666667">
<ele>225</ele>
<time>2016-07-26T20:56:16Z</time>
</trkpt>
<trkpt lat="37.852956666666664" lon="-1.4364516666666667">
<ele>225</ele>
<time>2016-07-26T20:56:18Z</time>
</trkpt>
<trkpt lat="37.852956666666664" lon="-1.4364516666666667">
<ele>225</ele>
<time>2016-07-26T20:56:20Z</time>
</trkpt>
<trkpt lat="37.852956666666664" lon="-1.4364516666666667">
<ele>225</ele>
<time>2016-07-26T20:56:22Z</time>
</trkpt>
<trkpt lat="37.852956666666664" lon="-1.4364516666666667">
<ele>225</ele>
<time>2016-07-26T20:56:24Z</time>
</trkpt>
<trkpt lat="37.852956666666664" lon="-1.4364516666666667">
<ele>225</ele>
<time>2016-07-26T20:56:26Z</time>
</trkpt>
<trkpt lat="37.852956666666664" lon="-1.4364516666666667">
<ele>225</ele>
<time>2016-07-26T20:56:28Z</time>
</trkpt>
<trkpt lat="37.85304333333333" lon="-1.4364916666666665">
<ele>223</ele>
<time>2016-07-26T20:56:30Z</time>
</trkpt>
<trkpt lat="37.85305833333334" lon="-1.4365183333333333">
<ele>224</ele>
<time>2016-07-26T20:56:32Z</time>
</trkpt>
<trkpt lat="37.853065" lon="-1.4365333333333332">
<ele>224</ele>
<time>2016-07-26T20:56:34Z</time>
</trkpt>
<trkpt lat="37.853065" lon="-1.4365333333333332">
<ele>224</ele>
<time>2016-07-26T20:56:36Z</time>
</trkpt>
<trkpt lat="37.853065" lon="-1.4365333333333332">
<ele>224</ele>
<time>2016-07-26T20:56:38Z</time>
</trkpt>
<trkpt lat="37.853065" lon="-1.4365333333333332">
<ele>224</ele>
<time>2016-07-26T20:56:40Z</time>
</trkpt>
<trkpt lat="37.853065" lon="-1.4365333333333332">
<ele>224</ele>
<time>2016-07-26T20:56:42Z</time>
</trkpt>
<trkpt lat="37.853065" lon="-1.4365333333333332">
<ele>224</ele>
<time>2016-07-26T20:56:44Z</time>
</trkpt>
<trkpt lat="37.853046666666664" lon="-1.4365683333333334">
<ele>223</ele>
<time>2016-07-26T20:56:46Z</time>
</trkpt>
<trkpt lat="37.85304333333333" lon="-1.4365933333333334">
<ele>223</ele>
<time>2016-07-26T20:56:48Z</time>
</trkpt>
<trkpt lat="37.853055000000005" lon="-1.4366066666666666">
<ele>223</ele>
<time>2016-07-26T20:56:50Z</time>
</trkpt>
<trkpt lat="37.853055000000005" lon="-1.4366066666666666">
<ele>223</ele>
<time>2016-07-26T20:56:52Z</time>
</trkpt>
<trkpt lat="37.853055000000005" lon="-1.4366066666666666">
<ele>223</ele>
<time>2016-07-26T20:56:54Z</time>
</trkpt>
<trkpt lat="37.853055000000005" lon="-1.4366066666666666">
<ele>223</ele>
<time>2016-07-26T20:56:56Z</time>
</trkpt>
<trkpt lat="37.853055000000005" lon="-1.4366066666666666">
<ele>223</ele>
<time>2016-07-26T20:56:58Z</time>
</trkpt>
<trkpt lat="37.853055000000005" lon="-1.4366066666666666">
<ele>223</ele>
<time>2016-07-26T20:57:00Z</time>
</trkpt>
<trkpt lat="37.853055000000005" lon="-1.4366066666666666">
<ele>223</ele>
<time>2016-07-26T20:57:02Z</time>
</trkpt>
<trkpt lat="37.853055000000005" lon="-1.4366066666666666">
<ele>223</ele>
<time>2016-07-26T20:57:04Z</time>
</trkpt>
<trkpt lat="37.853055000000005" lon="-1.4366066666666666">
<ele>223</ele>
<time>2016-07-26T20:57:06Z</time>
</trkpt>
<trkpt lat="37.853055000000005" lon="-1.4366066666666666">
<ele>223</ele>
<time>2016-07-26T20:57:08Z</time>
</trkpt>
<trkpt lat="37.853055000000005" lon="-1.4366066666666666">
<ele>223</ele>
<time>2016-07-26T20:57:10Z</time>
</trkpt>
<trkpt lat="37.853055000000005" lon="-1.4366066666666666">
<ele>223</ele>
<time>2016-07-26T20:57:12Z</time>
</trkpt>
<trkpt lat="37.853055000000005" lon="-1.4366066666666666">
<ele>223</ele>
<time>2016-07-26T20:57:14Z</time>
</trkpt>
<trkpt lat="37.853055000000005" lon="-1.4366066666666666">
<ele>223</ele>
<time>2016-07-26T20:57:16Z</time>
</trkpt>
<trkpt lat="37.853055000000005" lon="-1.4366066666666666">
<ele>223</ele>
<time>2016-07-26T20:57:18Z</time>
</trkpt>
<trkpt lat="37.853055000000005" lon="-1.4366066666666666">
<ele>223</ele>
<time>2016-07-26T20:57:20Z</time>
</trkpt>
<trkpt lat="37.853055000000005" lon="-1.4366066666666666">
<ele>223</ele>
<time>2016-07-26T20:57:22Z</time>
</trkpt>
<trkpt lat="37.853055000000005" lon="-1.4366066666666666">
<ele>223</ele>
<time>2016-07-26T20:57:24Z</time>
</trkpt>
<trkpt lat="37.853055000000005" lon="-1.4366066666666666">
<ele>223</ele>
<time>2016-07-26T20:57:26Z</time>
</trkpt>
<trkpt lat="37.853055000000005" lon="-1.4366066666666666">
<ele>223</ele>
<time>2016-07-26T20:57:28Z</time>
</trkpt>
<trkpt lat="37.853055000000005" lon="-1.4366066666666666">
<ele>223</ele>
<time>2016-07-26T20:57:30Z</time>
</trkpt>
<trkpt lat="37.853055000000005" lon="-1.4366066666666666">
<ele>223</ele>
<time>2016-07-26T20:57:32Z</time>
</trkpt>
<trkpt lat="37.853055000000005" lon="-1.4366066666666666">
<ele>223</ele>
<time>2016-07-26T20:57:34Z</time>
</trkpt>
<trkpt lat="37.853055000000005" lon="-1.4366066666666666">
<ele>223</ele>
<time>2016-07-26T20:57:36Z</time>
</trkpt>
<trkpt lat="37.853055000000005" lon="-1.4366066666666666">
<ele>223</ele>
<time>2016-07-26T20:57:38Z</time>
</trkpt>
<trkpt lat="37.853055000000005" lon="-1.4366066666666666">
<ele>223</ele>
<time>2016-07-26T20:57:40Z</time>
</trkpt>
<trkpt lat="37.853055000000005" lon="-1.4366066666666666">
<ele>223</ele>
<time>2016-07-26T20:57:42Z</time>
</trkpt>
<trkpt lat="37.853055000000005" lon="-1.4366066666666666">
<ele>223</ele>
<time>2016-07-26T20:57:44Z</time>
</trkpt>
<trkpt lat="37.853055000000005" lon="-1.4366066666666666">
<ele>223</ele>
<time>2016-07-26T20:57:46Z</time>
</trkpt>
<trkpt lat="37.853055000000005" lon="-1.4366066666666666">
<ele>223</ele>
<time>2016-07-26T20:57:48Z</time>
</trkpt>
<trkpt lat="37.853055000000005" lon="-1.4366066666666666">
<ele>223</ele>
<time>2016-07-26T20:57:50Z</time>
</trkpt>
<trkpt lat="37.853055000000005" lon="-1.4366066666666666">
<ele>223</ele>
<time>2016-07-26T20:57:52Z</time>
</trkpt>
<trkpt lat="37.853055000000005" lon="-1.4366066666666666">
<ele>223</ele>
<time>2016-07-26T20:57:54Z</time>
</trkpt>
<trkpt lat="37.853055000000005" lon="-1.4366066666666666">
<ele>223</ele>
<time>2016-07-26T20:57:56Z</time>
</trkpt>
<trkpt lat="37.853055000000005" lon="-1.4366066666666666">
<ele>223</ele>
<time>2016-07-26T20:57:58Z</time>
</trkpt>
<trkpt lat="37.853055000000005" lon="-1.4366066666666666">
<ele>223</ele>
<time>2016-07-26T20:58:00Z</time>
</trkpt>
<trkpt lat="37.853055000000005" lon="-1.4366066666666666">
<ele>223</ele>
<time>2016-07-26T20:58:02Z</time>
</trkpt>
<trkpt lat="37.853055000000005" lon="-1.4366066666666666">
<ele>223</ele>
<time>2016-07-26T20:58:04Z</time>
</trkpt>
<trkpt lat="37.853055000000005" lon="-1.4366066666666666">
<ele>223</ele>
<time>2016-07-26T20:58:06Z</time>
</trkpt>
<trkpt lat="37.853055000000005" lon="-1.4366066666666666">
<ele>223</ele>
<time>2016-07-26T20:58:08Z</time>
</trkpt>
<trkpt lat="37.853055000000005" lon="-1.4366066666666666">
<ele>223</ele>
<time>2016-07-26T20:58:10Z</time>
</trkpt>
<trkpt lat="37.85305666666667" lon="-1.43661">
<ele>223</ele>
<time>2016-07-26T20:58:12Z</time>
</trkpt>
<trkpt lat="37.85308166666667" lon="-1.4365716666666666">
<ele>222</ele>
<time>2016-07-26T20:58:14Z</time>
</trkpt>
<trkpt lat="37.853091666666664" lon="-1.4365516666666667">
<ele>221</ele>
<time>2016-07-26T20:58:16Z</time>
</trkpt>
<trkpt lat="37.853091666666664" lon="-1.436545">
<ele>221</ele>
<time>2016-07-26T20:58:18Z</time>
</trkpt>
<trkpt lat="37.853089999999995" lon="-1.4365466666666666">
<ele>221</ele>
<time>2016-07-26T20:58:20Z</time>
</trkpt>
<trkpt lat="37.853089999999995" lon="-1.4365466666666666">
<ele>221</ele>
<time>2016-07-26T20:58:22Z</time>
</trkpt>
<trkpt lat="37.853089999999995" lon="-1.4365466666666666">
<ele>221</ele>
<time>2016-07-26T20:58:24Z</time>
</trkpt>
<trkpt lat="37.853089999999995" lon="-1.4365466666666666">
<ele>221</ele>
<time>2016-07-26T20:58:26Z</time>
</trkpt>
<trkpt lat="37.853089999999995" lon="-1.4365466666666666">
<ele>221</ele>
<time>2016-07-26T20:58:28Z</time>
</trkpt>
<trkpt lat="37.853089999999995" lon="-1.4365466666666666">
<ele>221</ele>
<time>2016-07-26T20:58:30Z</time>
</trkpt>
<trkpt lat="37.853089999999995" lon="-1.4365466666666666">
<ele>221</ele>
<time>2016-07-26T20:58:32Z</time>
</trkpt>
<trkpt lat="37.853089999999995" lon="-1.4365466666666666">
<ele>221</ele>
<time>2016-07-26T20:58:34Z</time>
</trkpt>
<trkpt lat="37.853089999999995" lon="-1.4365466666666666">
<ele>221</ele>
<time>2016-07-26T20:58:36Z</time>
</trkpt>
<trkpt lat="37.853089999999995" lon="-1.4365466666666666">
<ele>221</ele>
<time>2016-07-26T20:58:38Z</time>
</trkpt>
<trkpt lat="37.853089999999995" lon="-1.4365466666666666">
<ele>221</ele>
<time>2016-07-26T20:58:40Z</time>
</trkpt>
<trkpt lat="37.853089999999995" lon="-1.4365466666666666">
<ele>221</ele>
<time>2016-07-26T20:58:42Z</time>
</trkpt>
<trkpt lat="37.853089999999995" lon="-1.4365466666666666">
<ele>221</ele>
<time>2016-07-26T20:58:44Z</time>
</trkpt>
<trkpt lat="37.853089999999995" lon="-1.4365466666666666">
<ele>221</ele>
<time>2016-07-26T20:58:46Z</time>
</trkpt>
<trkpt lat="37.853089999999995" lon="-1.4365466666666666">
<ele>221</ele>
<time>2016-07-26T20:58:48Z</time>
</trkpt>
<trkpt lat="37.853089999999995" lon="-1.4365466666666666">
<ele>221</ele>
<time>2016-07-26T20:58:50Z</time>
</trkpt>
<trkpt lat="37.853089999999995" lon="-1.4365466666666666">
<ele>221</ele>
<time>2016-07-26T20:58:52Z</time>
</trkpt>
<trkpt lat="37.853089999999995" lon="-1.4365466666666666">
<ele>221</ele>
<time>2016-07-26T20:58:54Z</time>
</trkpt>
<trkpt lat="37.85307" lon="-1.4365199999999998">
<ele>222</ele>
<time>2016-07-26T20:58:56Z</time>
</trkpt>
<trkpt lat="37.85306333333333" lon="-1.4365083333333333">
<ele>221</ele>
<time>2016-07-26T20:58:58Z</time>
</trkpt>
<trkpt lat="37.85306166666667" lon="-1.4365100000000002">
<ele>221</ele>
<time>2016-07-26T20:59:00Z</time>
</trkpt>
<trkpt lat="37.85306166666667" lon="-1.4365100000000002">
<ele>221</ele>
<time>2016-07-26T20:59:02Z</time>
</trkpt>
<trkpt lat="37.85306166666667" lon="-1.4365100000000002">
<ele>221</ele>
<time>2016-07-26T20:59:04Z</time>
</trkpt>
<trkpt lat="37.85306166666667" lon="-1.4365100000000002">
<ele>221</ele>
<time>2016-07-26T20:59:06Z</time>
</trkpt>
<trkpt lat="37.85306166666667" lon="-1.4365100000000002">
<ele>221</ele>
<time>2016-07-26T20:59:08Z</time>
</trkpt>
<trkpt lat="37.85306166666667" lon="-1.4365100000000002">
<ele>221</ele>
<time>2016-07-26T20:59:10Z</time>
</trkpt>
<trkpt lat="37.85306166666667" lon="-1.4365100000000002">
<ele>221</ele>
<time>2016-07-26T20:59:12Z</time>
</trkpt>
<trkpt lat="37.85306166666667" lon="-1.4365100000000002">
<ele>221</ele>
<time>2016-07-26T20:59:14Z</time>
</trkpt>
<trkpt lat="37.85306166666667" lon="-1.4365100000000002">
<ele>221</ele>
<time>2016-07-26T20:59:16Z</time>
</trkpt>
<trkpt lat="37.85306166666667" lon="-1.4365100000000002">
<ele>221</ele>
<time>2016-07-26T20:59:18Z</time>
</trkpt>
<trkpt lat="37.85306166666667" lon="-1.4365100000000002">
<ele>221</ele>
<time>2016-07-26T20:59:20Z</time>
</trkpt>
<trkpt lat="37.85306166666667" lon="-1.4365100000000002">
<ele>221</ele>
<time>2016-07-26T20:59:22Z</time>
</trkpt>
<trkpt lat="37.85306166666667" lon="-1.4365100000000002">
<ele>221</ele>
<time>2016-07-26T20:59:24Z</time>
</trkpt>
<trkpt lat="37.85306166666667" lon="-1.4365100000000002">
<ele>221</ele>
<time>2016-07-26T20:59:26Z</time>
</trkpt>
<trkpt lat="37.85306166666667" lon="-1.4365100000000002">
<ele>221</ele>
<time>2016-07-26T20:59:28Z</time>
</trkpt>
<trkpt lat="37.85306166666667" lon="-1.4365100000000002">
<ele>221</ele>
<time>2016-07-26T20:59:30Z</time>
</trkpt>
<trkpt lat="37.85306166666667" lon="-1.4365100000000002">
<ele>221</ele>
<time>2016-07-26T20:59:32Z</time>
</trkpt>
<trkpt lat="37.85306166666667" lon="-1.4365100000000002">
<ele>221</ele>
<time>2016-07-26T20:59:34Z</time>
</trkpt>
<trkpt lat="37.85306166666667" lon="-1.4365100000000002">
<ele>221</ele>
<time>2016-07-26T20:59:36Z</time>
</trkpt>
<trkpt lat="37.85306166666667" lon="-1.4365100000000002">
<ele>221</ele>
<time>2016-07-26T20:59:38Z</time>
</trkpt>
<trkpt lat="37.85306166666667" lon="-1.4365100000000002">
<ele>221</ele>
<time>2016-07-26T20:59:40Z</time>
</trkpt>
<trkpt lat="37.85306166666667" lon="-1.4365100000000002">
<ele>221</ele>
<time>2016-07-26T20:59:42Z</time>
</trkpt>
<trkpt lat="37.85306166666667" lon="-1.4365100000000002">
<ele>221</ele>
<time>2016-07-26T20:59:44Z</time>
</trkpt>
<trkpt lat="37.85306166666667" lon="-1.4365100000000002">
<ele>221</ele>
<time>2016-07-26T20:59:46Z</time>
</trkpt>
<trkpt lat="37.85306166666667" lon="-1.4365100000000002">
<ele>221</ele>
<time>2016-07-26T20:59:48Z</time>
</trkpt>
<trkpt lat="37.85306166666667" lon="-1.4365100000000002">
<ele>221</ele>
<time>2016-07-26T20:59:50Z</time>
</trkpt>
<trkpt lat="37.85306166666667" lon="-1.4365100000000002">
<ele>221</ele>
<time>2016-07-26T20:59:52Z</time>
</trkpt>
<trkpt lat="37.85306166666667" lon="-1.4365100000000002">
<ele>221</ele>
<time>2016-07-26T20:59:54Z</time>
</trkpt>
<trkpt lat="37.85306166666667" lon="-1.4365100000000002">
<ele>221</ele>
<time>2016-07-26T20:59:56Z</time>
</trkpt>
<trkpt lat="37.85306166666667" lon="-1.4365100000000002">
<ele>221</ele>
<time>2016-07-26T20:59:58Z</time>
</trkpt>
<trkpt lat="37.85306166666667" lon="-1.4365100000000002">
<ele>221</ele>
<time>2016-07-26T21:00:00Z</time>
</trkpt>
<trkpt lat="37.85306166666667" lon="-1.4365016666666666">
<ele>221</ele>
<time>2016-07-26T21:00:02Z</time>
</trkpt>
<trkpt lat="37.85306166666667" lon="-1.4364766666666666">
<ele>220</ele>
<time>2016-07-26T21:00:04Z</time>
</trkpt>
<trkpt lat="37.85306166666667" lon="-1.4364733333333333">
<ele>220</ele>
<time>2016-07-26T21:00:06Z</time>
</trkpt>
<trkpt lat="37.85306166666667" lon="-1.4364783333333333">
<ele>219</ele>
<time>2016-07-26T21:00:08Z</time>
</trkpt>
<trkpt lat="37.85306166666667" lon="-1.4364783333333333">
<ele>219</ele>
<time>2016-07-26T21:00:10Z</time>
</trkpt>
<trkpt lat="37.85306166666667" lon="-1.4364783333333333">
<ele>219</ele>
<time>2016-07-26T21:00:12Z</time>
</trkpt>
<trkpt lat="37.85306166666667" lon="-1.4364783333333333">
<ele>219</ele>
<time>2016-07-26T21:00:14Z</time>
</trkpt>
<trkpt lat="37.85306166666667" lon="-1.4364783333333333">
<ele>219</ele>
<time>2016-07-26T21:00:16Z</time>
</trkpt>
<trkpt lat="" lon="">
<ele></ele>
<time>2016-07-26TZ</time>
</trkpt>
</trkseg>
</trk>
<wpt lat="" lon="">
	<name></name>
	<desc></desc>
	<cmt></cmt>
	<photoid></photoid>
	<type></type>
</wpt>
</gpx>
